# Wetter Temperatur Luftdruck Luftfeuchtigkeit Sichtweite Windgeschwindigkeit Windrichtung Zeit
1 Clouds -2 1017 79 10000 0.76 201 08:28 02.10.2022
2 Clouds -3 1018 82 8957 1.27 190 05:19 02.10.2022
3 Clouds -5 1018 94 3262 0.77 188 01:20 02.10.2022
4 Clouds -5 1018 94 3262 0.77 188 00:38 02.10.2022
5 Clouds -6 1018 97 2225 0.49 167 23:28 01.10.2022
6 Clouds -6 1018 97 2516 0.5 183 21:48 01.10.2022
7 Clouds -6 1018 97 2559 0.22 294 19:21 01.10.2022
8 Clouds -5 1018 97 2808 0.35 287 17:46 01.10.2022
9 Clouds -5 1018 98 3141 0.39 295 15:32 01.10.2022
10 Clouds -5 1018 97 421 0.53 304 14:18 01.10.2022
11 Snow -4 1018 98 378 0.53 282 12:34 01.10.2022
12 Clouds -4 1017 97 501 0.33 302 11:23 01.10.2022
13 Clouds -4 1017 97 501 0.33 302 10:53 01.10.2022
14 Clouds -4 1017 97 501 0.33 302 10:30 01.10.2022
15 Clouds -2 1017 90 2144 0.62 314 09:26 01.10.2022
16 Clouds -3 1017 87 6414 0.52 281 08:39 01.10.2022
17 Clouds -3 1016 85 1177 1.24 314 03:50 01.10.2022
18 Clouds -4 1016 87 1159 1.3 317 03:22 01.10.2022
19 Snow -5 1015 96 273 1.2 315 23:22 30.09.2022
20 Snow -4 1015 97 318 1.18 314 22:19 30.09.2022
21 Snow -4 1014 96 303 1.26 311 21:22 30.09.2022
22 Snow -4 1014 96 303 1.26 311 20:42 30.09.2022
23 Snow -4 1014 97 351 1.22 306 19:30 30.09.2022
24 Clouds -4 1013 97 394 1.33 315 16:58 30.09.2022
25 Snow -4 1013 96 363 1.44 323 14:49 30.09.2022
26 Snow -3 1012 96 234 1.64 326 13:24 30.09.2022
27 Snow -3 1012 97 249 1.72 331 11:56 30.09.2022
28 Snow -3 1012 97 249 1.72 331 11:56 30.09.2022
29 Snow -2 1011 95 421 1.92 349 09:50 30.09.2022
30 Clouds -2 1011 86 1617 2.05 1 08:20 30.09.2022
31 Clouds -2 1010 86 1198 2.17 357 04:24 30.09.2022
32 Clouds -3 1010 89 542 2 352 02:23 30.09.2022
33 Clouds -4 1010 92 2066 1.45 350 22:24 29.09.2022
34 Clouds -4 1010 90 9189 1.41 349 21:26 29.09.2022
35 Clouds -4 1010 89 10000 1.53 355 20:26 29.09.2022
36 Clouds -4 1010 89 10000 1.5 353 18:31 29.09.2022
37 Clouds -4 1010 91 10000 1.28 350 16:56 29.09.2022
38 Clouds -4 1010 92 10000 1.25 348 16:26 29.09.2022
39 Clouds -4 1010 92 10000 1.25 348 15:35 29.09.2022
40 Clouds -3 1010 92 10000 1.36 359 13:28 29.09.2022
41 Clouds -3 1010 92 10000 1.36 359 13:28 29.09.2022
42 Clouds 0 1010 78 10000 1.03 329 08:52 29.09.2022
43 Clouds -1 1010 75 10000 1.4 308 05:42 29.09.2022
44 Clouds -2 1010 83 10000 1.47 305 02:44 29.09.2022
45 Clouds -3 1011 96 934 1.2 309 23:32 28.09.2022
46 Clouds -3 1011 96 1135 1.18 308 22:25 28.09.2022
47 Clouds -3 1011 96 1287 1.26 304 21:28 28.09.2022
48 Clouds -3 1011 97 414 1.32 310 20:20 28.09.2022
49 Clouds -3 1011 97 1193 1.2 312 18:20 28.09.2022
50 Clouds -2 1011 93 10000 1.29 325 14:50 28.09.2022
51 Clouds -1 1011 93 6461 1.38 335 12:40 28.09.2022
52 Clouds 0 1010 82 10000 1.24 342 10:24 28.09.2022
53 Clouds 1 1010 75 10000 1.83 358 08:25 28.09.2022
54 Clouds 1 1010 73 10000 1.71 353 06:42 28.09.2022
55 Snow -1 1010 90 841 1.64 342 01:54 28.09.2022
56 Snow -1 1010 90 841 1.64 342 01:30 28.09.2022
57 Clouds -3 1009 97 829 1.58 338 22:54 27.09.2022
58 Clouds -3 1009 97 1357 1.31 327 21:40 27.09.2022
59 Snow -3 1009 97 497 1.72 335 20:37 27.09.2022
60 Clouds -3 1010 97 566 1.44 330 19:47 27.09.2022
61 Clouds -3 1010 97 731 1.34 327 18:31 27.09.2022
62 Clouds -3 1010 97 586 1.45 328 17:43 27.09.2022
63 Clouds -3 1009 97 2400 1.45 328 15:27 27.09.2022
64 Clouds -3 1009 97 2400 1.45 328 14:45 27.09.2022
65 Snow -1 1009 96 335 1.61 336 12:40 27.09.2022
66 Snow -1 1009 96 195 1.68 343 10:58 27.09.2022
67 Snow 0 1009 93 231 2.23 359 08:46 27.09.2022
68 Clouds 1 1009 69 10000 2.41 14 06:31 27.09.2022
69 Clouds -1 1010 77 10000 2.55 2 01:57 27.09.2022
70 Clouds -1 1010 82 10000 2.15 1 01:27 27.09.2022
71 Clouds -1 1010 88 10000 1.79 353 23:25 26.09.2022
72 Clouds -1 1010 88 10000 1.79 353 22:31 26.09.2022
73 Clouds -1 1010 91 5897 1.87 353 20:40 26.09.2022
74 Clouds -1 1010 91 10000 1.98 2 19:30 26.09.2022
75 Clouds -1 1010 91 10000 1.79 357 18:31 26.09.2022
76 Clouds 0 1011 94 4585 1.83 3 16:29 26.09.2022
77 Clouds 0 1011 97 1132 1.37 341 14:24 26.09.2022
78 Clouds 1 1011 93 10000 0.9 326 11:29 26.09.2022
79 Clouds 1 1011 93 10000 0.9 326 10:38 26.09.2022
80 Clouds 2 1010 85 10000 0.78 311 10:20 26.09.2022
81 Clouds 2 1010 85 10000 0.78 311 09:54 26.09.2022
82 Clouds 2 1010 80 10000 0.38 39 09:24 26.09.2022
83 Clouds 2 1010 77 10000 0.5 92 07:37 26.09.2022
84 Clouds 0 1010 84 4950 1.19 44 02:51 26.09.2022
85 Clouds -1 1010 73 10000 0.8 356 23:50 25.09.2022
86 Clouds 0 1010 65 10000 1.58 22 22:29 25.09.2022
87 Clouds 0 1010 65 10000 1.58 22 21:35 25.09.2022
88 Clouds 0 1010 65 10000 1.1 35 20:47 25.09.2022
89 Clouds -1 1010 66 10000 1.39 28 19:43 25.09.2022
90 Clouds -2 1010 68 10000 1.68 30 18:40 25.09.2022
91 Clouds -2 1010 67 10000 2.01 33 18:20 25.09.2022
92 Clouds -2 1010 67 10000 2.06 38 16:36 25.09.2022
93 Clouds -2 1011 67 10000 2.08 37 15:44 25.09.2022
94 Clouds -1 1012 65 10000 2.48 33 14:22 25.09.2022
95 Clouds -1 1012 66 10000 2.37 35 12:55 25.09.2022
96 Clouds 0 1012 64 10000 1.86 40 10:32 25.09.2022
97 Clouds 3 1012 50 10000 3.03 85 08:24 25.09.2022
98 Clouds 2 1013 52 10000 2.14 97 05:47 25.09.2022
99 Clouds -1 1015 69 10000 1.46 67 01:55 25.09.2022
100 Clear -4 1016 87 10000 1.38 57 22:35 24.09.2022
101 Clear -3 1016 86 10000 1.61 53 20:55 24.09.2022
102 Clouds -3 1016 81 10000 1.82 50 19:23 24.09.2022
103 Clouds -3 1016 79 10000 1.55 49 17:49 24.09.2022
104 Clear -2 1016 73 10000 1.77 52 16:27 24.09.2022
105 Clear -2 1017 72 10000 1.74 48 15:21 24.09.2022
106 Clouds -2 1017 71 10000 1.47 65 13:27 24.09.2022
107 Clouds -2 1017 71 10000 1.47 65 12:51 24.09.2022
108 Clouds 0 1017 67 10000 2.37 87 11:21 24.09.2022
109 Clouds 2 1017 59 10000 2.75 86 09:46 24.09.2022
110 Clouds 3 1017 52 10000 2.9 101 08:45 24.09.2022
111 Clouds 4 1017 55 10000 2.82 99 07:38 24.09.2022
112 Clouds 2 1018 71 10000 2.37 94 04:46 24.09.2022
113 Clouds 2 1018 75 10000 1.98 93 03:42 24.09.2022
114 Clouds -2 1018 88 10000 1.56 56 22:36 23.09.2022
115 Clouds -2 1018 84 10000 1.52 60 21:28 23.09.2022
116 Clouds -2 1018 84 10000 1.52 60 20:56 23.09.2022
117 Clouds -2 1018 82 10000 1.55 58 20:20 23.09.2022
118 Clouds -2 1018 81 10000 1.39 64 18:51 23.09.2022
119 Clouds 0 1018 79 10000 1.47 80 14:55 23.09.2022
120 Clouds 1 1017 74 10000 1.91 72 10:55 23.09.2022
121 Clouds 2 1016 67 10000 1.78 84 09:33 23.09.2022
122 Clouds 2 1016 70 10000 1.96 139 05:58 23.09.2022
123 Clouds -1 1015 84 10000 1.16 166 00:36 23.09.2022
124 Clouds -2 1014 94 10000 0.95 142 23:22 22.09.2022
125 Clouds -2 1013 93 10000 0.99 150 22:27 22.09.2022
126 Clouds -2 1012 93 10000 1.19 159 21:18 22.09.2022
127 Clouds -1 1012 98 790 1.06 128 19:56 22.09.2022
128 Clouds -1 1011 98 10000 1.31 115 17:28 22.09.2022
129 Clouds 0 1009 91 10000 1.84 83 12:52 22.09.2022
130 Clouds 1 1007 84 10000 0.88 144 10:36 22.09.2022
131 Clouds 3 1005 75 10000 2.28 259 08:58 22.09.2022
132 Clouds 3 1004 67 10000 2.27 281 06:57 22.09.2022
133 Clouds 3 1003 65 10000 2.87 287 04:36 22.09.2022
134 Clouds 1 1001 80 10000 4.37 293 23:31 21.09.2022
135 Clouds 0 999 87 10000 5.74 297 21:51 21.09.2022
136 Clouds 0 999 87 10000 5.89 297 20:40 21.09.2022
137 Clouds 0 997 87 6039 6.48 302 17:51 21.09.2022
138 Clouds 0 997 82 10000 6.62 304 16:55 21.09.2022
139 Clouds 0 996 86 10000 6.79 300 14:52 21.09.2022
140 Snow 0 995 88 8852 7.57 306 13:24 21.09.2022
141 Clouds 0 995 88 7768 7.77 307 11:30 21.09.2022
142 Clouds 0 994 86 10000 7.31 309 10:34 21.09.2022
143 Clouds 1 994 86 10000 6.72 309 09:36 21.09.2022
144 Clouds 2 994 66 10000 5.71 321 07:58 21.09.2022
145 Clouds 1 994 62 10000 5.37 330 02:51 21.09.2022
146 Clouds 1 994 62 10000 5.37 330 02:32 21.09.2022
147 Clouds 1 993 60 10000 4.8 317 01:49 21.09.2022
148 Clouds -2 993 66 10000 2.53 275 23:19 20.09.2022
149 Clouds -3 994 69 10000 2.25 265 21:33 20.09.2022
150 Clouds -3 994 64 10000 1.51 263 19:57 20.09.2022
151 Clouds -3 995 66 10000 1.32 275 17:41 20.09.2022
152 Clouds -3 996 69 10000 1.25 317 14:59 20.09.2022
153 Clear -3 997 69 10000 0.91 329 13:58 20.09.2022
154 Clear -1 998 67 10000 0.66 163 10:41 20.09.2022
155 Clear 3 999 49 10000 0.55 347 08:29 20.09.2022
156 Clear 3 999 48 10000 0.56 344 07:31 20.09.2022
157 Clear 2 1001 56 10000 0.76 258 04:30 20.09.2022
158 Clouds -2 1004 80 10000 0.99 198 01:28 20.09.2022
159 Clouds -4 1005 91 10000 1.37 183 22:29 19.09.2022
160 Clouds -4 1006 91 10000 1.28 180 21:28 19.09.2022
161 Clouds -4 1006 91 10000 1.28 180 20:39 19.09.2022
162 Clouds -3 1007 89 10000 0.45 164 18:42 19.09.2022
163 Clouds -3 1007 89 10000 0.9 142 16:29 19.09.2022
164 Clouds -2 1008 90 10000 0.99 125 13:44 19.09.2022
165 Clouds -1 1008 86 10000 1.34 96 11:33 19.09.2022
166 Clouds 3 1007 72 10000 1.13 82 09:35 19.09.2022
167 Clouds 4 1007 56 10000 0.65 280 08:20 19.09.2022
168 Clouds 2 1008 70 10000 1.68 291 02:46 19.09.2022
169 Snow 0 1008 95 1068 1.58 265 23:26 18.09.2022
170 Snow 0 1008 96 384 1.65 282 22:29 18.09.2022
171 Snow 1 1008 80 10000 1.5 298 20:41 18.09.2022
172 Snow 1 1008 84 5882 1.33 310 19:33 18.09.2022
173 Snow 2 1008 74 4986 0.68 36 17:51 18.09.2022
174 Rain 2 1008 56 6288 1.49 45 16:46 18.09.2022
175 Rain 3 1008 58 4030 1.59 330 14:40 18.09.2022
176 Clouds 4 1008 48 8113 2.18 351 12:58 18.09.2022
177 Clouds 4 1008 46 10000 2.22 347 11:55 18.09.2022
178 Clouds 6 1008 37 10000 1.65 204 07:46 18.09.2022
179 Clouds 3 1008 43 10000 2.94 203 01:41 18.09.2022
180 Clouds 2 1008 50 10000 2.74 200 01:19 18.09.2022
181 Clouds -1 1008 65 10000 3.1 192 22:55 17.09.2022
182 Clouds -1 1007 69 10000 3.59 187 20:53 17.09.2022
183 Clear 0 1007 67 10000 2.46 184 19:36 17.09.2022
184 Clear 0 1006 64 10000 2.3 205 17:44 17.09.2022
185 Clear 3 1004 48 10000 5.39 241 14:22 17.09.2022
186 Clear 4 1003 42 10000 7.94 241 12:46 17.09.2022
187 Clear 7 1002 35 10000 10.09 235 10:49 17.09.2022
188 Clouds 10 1000 48 10000 7.19 212 06:53 17.09.2022
189 Clouds 9 1000 48 10000 9.69 203 05:49 17.09.2022
190 Clouds 6 1003 62 10000 6.86 186 23:41 16.09.2022
191 Clouds 4 1004 70 10000 4.25 171 22:19 16.09.2022
192 Clouds 3 1004 72 10000 3.06 155 20:53 16.09.2022
193 Clouds 3 1005 69 10000 2.84 150 19:29 16.09.2022
194 Clouds 3 1007 68 10000 2.69 149 16:22 16.09.2022
195 Clouds 3 1007 68 10000 2.61 145 14:52 16.09.2022
196 Clouds 3 1008 69 10000 2.69 136 13:21 16.09.2022
197 Clouds 6 1009 61 10000 5.01 217 10:24 16.09.2022
198 Clouds 6 1010 52 10000 5.55 203 07:23 16.09.2022
199 Clouds 6 1010 52 10000 5.55 203 06:48 16.09.2022
200 Clouds 6 1011 57 10000 4.24 198 05:57 16.09.2022
201 Clouds 4 1013 81 10000 2.53 196 02:30 16.09.2022
202 Clouds 2 1014 98 40 0.67 201 21:44 15.09.2022
203 Rain 2 1014 98 83 0.5 214 20:38 15.09.2022
204 Clouds 2 1014 86 10000 0.8 217 19:31 15.09.2022
205 Clouds 3 1014 72 10000 0.53 198 17:41 15.09.2022
206 Clouds 3 1014 66 10000 0.54 81 17:22 15.09.2022
207 Clouds 3 1013 63 10000 1.06 70 15:47 15.09.2022
208 Clouds 4 1014 61 10000 1.97 90 12:51 15.09.2022
209 Clouds 4 1014 61 10000 2.38 99 11:48 15.09.2022
210 Clouds 6 1013 53 10000 1.87 111 09:46 15.09.2022
211 Clouds 6 1014 51 10000 1.36 127 07:44 15.09.2022
212 Clouds 5 1014 54 10000 0.5 311 03:48 15.09.2022
213 Clouds 2 1014 78 10000 1.23 285 23:30 14.09.2022
214 Clouds 1 1013 88 10000 1.39 277 20:47 14.09.2022
215 Clouds 3 1012 92 10000 1.41 292 19:33 14.09.2022
216 Rain 3 1011 97 3756 2.09 333 17:48 14.09.2022
217 Rain 3 1010 99 39 2.45 336 16:37 14.09.2022
218 Rain 5 1008 97 2668 2.4 319 15:27 14.09.2022
219 Rain 5 1007 95 10000 1.29 298 12:50 14.09.2022
220 Rain 5 1006 93 10000 1.64 332 10:40 14.09.2022
221 Rain 6 1005 91 10000 1.57 341 08:41 14.09.2022
222 Clouds 6 1004 91 10000 1.84 357 06:50 14.09.2022
223 Clouds 6 1004 91 10000 1.84 357 06:30 14.09.2022
224 Clouds 6 1004 91 10000 1.84 357 06:30 14.09.2022
225 Rain 6 1003 80 10000 1.25 126 03:21 14.09.2022
226 Clouds 7 1003 71 10000 1.21 117 01:39 14.09.2022
227 Clouds 6 1003 71 10000 0.97 98 01:19 14.09.2022
228 Clouds 6 1003 74 10000 1.05 64 23:55 13.09.2022
229 Clouds 6 1003 74 10000 1.05 64 23:37 13.09.2022
230 Clouds 5 1003 76 10000 1.13 81 23:19 13.09.2022
231 Clouds 5 1003 76 10000 1.13 81 22:32 13.09.2022
232 Clouds 5 1003 77 10000 1.33 108 21:40 13.09.2022
233 Clouds 5 1004 74 10000 1.45 93 19:26 13.09.2022
234 Clouds 5 1004 74 10000 1.62 100 16:45 13.09.2022
235 Clouds 5 1005 75 10000 1.85 91 15:53 13.09.2022
236 Clouds 5 1005 79 10000 1.82 99 13:50 13.09.2022
237 Clouds 6 1006 79 10000 1.67 96 11:34 13.09.2022
238 Clouds 10 1008 62 10000 2.03 103 08:32 13.09.2022
239 Rain 6 1013 65 10000 2.86 156 04:24 13.09.2022
240 Clouds 1 1016 90 10000 1.58 89 23:23 12.09.2022
241 Clouds 1 1016 90 10000 1.58 89 22:46 12.09.2022
242 Clouds 0 1017 91 10000 1.76 91 21:35 12.09.2022
243 Clouds 0 1017 88 10000 1.92 82 20:24 12.09.2022
244 Clouds 0 1018 87 10000 1.91 82 18:42 12.09.2022
245 Clouds 2 1018 83 10000 1.88 86 16:20 12.09.2022
246 Clouds 3 1018 77 10000 2.13 106 13:24 12.09.2022
247 Clouds 6 1018 69 10000 2.91 121 11:22 12.09.2022
248 Clouds 7 1018 58 10000 3.05 154 09:35 12.09.2022
249 Clouds 6 1018 65 10000 2.41 162 04:46 12.09.2022
250 Clouds 5 1018 79 10000 2.12 186 03:25 12.09.2022
251 Clouds 3 1017 93 10000 1.23 186 23:18 11.09.2022
252 Clouds 3 1016 94 10000 1.03 195 21:57 11.09.2022
253 Clouds 3 1015 96 5106 0.98 183 20:46 11.09.2022
254 Rain 4 1015 96 3843 0.69 182 19:51 11.09.2022
255 Rain 4 1014 96 100 0.6 255 19:22 11.09.2022
256 Rain 4 1014 96 94 0.76 287 18:20 11.09.2022
257 Rain 4 1012 90 10000 2.7 350 16:28 11.09.2022
258 Clouds 6 1010 72 10000 0.76 158 14:18 11.09.2022
259 Clouds 6 1010 67 10000 1.31 15 12:33 11.09.2022
260 Clouds 9 1007 49 10000 2.57 317 08:39 11.09.2022
261 Clouds 9 1006 45 10000 4.48 285 06:44 11.09.2022
262 Clear 6 1004 51 10000 5.97 203 00:49 11.09.2022
263 Clear 3 1004 64 10000 5.01 189 22:55 10.09.2022
264 Clouds 3 1004 66 10000 4.67 204 20:59 10.09.2022
265 Clouds 3 1004 64 10000 4.67 205 19:46 10.09.2022
266 Clouds 3 1003 64 10000 4.67 211 19:28 10.09.2022
267 Clouds 3 1003 64 10000 4.67 211 18:51 10.09.2022
268 Clouds 5 1002 58 10000 4.38 216 15:49 10.09.2022
269 Clouds 6 1001 54 10000 4.6 223 14:42 10.09.2022
270 Clouds 8 1000 48 10000 4.69 239 12:52 10.09.2022
271 Clouds 11 998 43 10000 7.3 228 10:58 10.09.2022
272 Clouds 11 998 41 10000 7.02 223 09:37 10.09.2022
273 Clouds 13 997 40 10000 6.85 228 08:36 10.09.2022
274 Clouds 13 996 42 10000 7.2 239 06:43 10.09.2022
275 Clouds 7 996 77 10000 2.51 184 00:40 10.09.2022
276 Clouds 6 996 83 10000 1.73 164 23:33 09.09.2022
277 Rain 5 996 89 10000 1.77 158 22:18 09.09.2022
278 Clouds 5 995 90 10000 1.5 154 20:47 09.09.2022
279 Clouds 4 995 93 10000 1.03 136 19:25 09.09.2022
280 Clouds 4 995 93 10000 1.03 136 18:53 09.09.2022
281 Clouds 4 995 94 10000 1.97 90 16:28 09.09.2022
282 Clouds 5 995 92 10000 2.36 85 13:50 09.09.2022
283 Clouds 6 995 90 10000 2.25 89 12:32 09.09.2022
284 Clouds 7 996 80 10000 3.15 124 09:55 09.09.2022
285 Clouds 6 998 85 10000 1.46 121 05:38 09.09.2022
286 Clouds 6 999 82 10000 0.22 6 03:20 09.09.2022
287 Clouds 6 1000 87 10000 1.62 334 21:53 08.09.2022
288 Clouds 6 1001 88 10000 2.05 335 20:56 08.09.2022
289 Clouds 6 1001 85 10000 1.99 350 20:31 08.09.2022
290 Clouds 6 1001 84 10000 3 352 19:57 08.09.2022
291 Clouds 6 1001 89 10000 2.41 328 18:26 08.09.2022
292 Rain 6 1000 88 10000 3.53 332 16:21 08.09.2022
293 Clouds 6 1000 89 10000 3.94 332 14:40 08.09.2022
294 Rain 6 999 89 10000 4.25 334 13:27 08.09.2022
295 Rain 6 999 87 10000 4.11 340 12:24 08.09.2022
296 Rain 7 998 86 10000 4.41 343 10:58 08.09.2022
297 Rain 7 997 86 10000 5.3 346 08:54 08.09.2022
298 Rain 7 997 87 10000 6.03 345 06:43 08.09.2022
299 Rain 8 996 73 10000 6.97 354 02:37 08.09.2022
300 Rain 8 996 70 10000 6.48 358 02:19 08.09.2022
301 Rain 8 996 70 10000 6.48 358 01:38 08.09.2022
302 Clouds 8 997 61 10000 4.65 358 22:55 07.09.2022
303 Clouds 8 997 60 10000 4.37 357 21:43 07.09.2022
304 Clouds 8 997 60 10000 4.08 356 20:56 07.09.2022
305 Clouds 7 998 62 10000 3.34 356 19:53 07.09.2022
306 Clouds 7 999 61 10000 3.25 351 18:37 07.09.2022
307 Clouds 8 1001 57 10000 1.23 327 14:45 07.09.2022
308 Clouds 13 1002 50 10000 2.19 224 10:49 07.09.2022
309 Clouds 14 1001 43 10000 3.24 225 09:52 07.09.2022
310 Clouds 14 1001 49 10000 4.17 208 07:35 07.09.2022
311 Clouds 12 1002 66 10000 5.98 210 03:34 07.09.2022
312 Clouds 9 1002 89 10000 2.54 179 23:48 06.09.2022
313 Rain 8 1002 95 10000 2.16 164 21:43 06.09.2022
314 Rain 8 1001 95 10000 1.83 161 21:21 06.09.2022
315 Rain 9 1001 84 10000 1.39 122 18:53 06.09.2022
316 Rain 9 1002 72 10000 1.73 134 18:23 06.09.2022
317 Clouds 10 1002 65 10000 2.01 139 17:23 06.09.2022
318 Clouds 10 1002 65 10000 2.01 139 16:38 06.09.2022
319 Clouds 9 1003 66 10000 2.17 131 15:23 06.09.2022
320 Clouds 9 1002 54 10000 2.13 105 13:45 06.09.2022
321 Clouds 11 1003 50 10000 2.09 86 13:25 06.09.2022
322 Clouds 11 1003 50 10000 2.09 86 12:37 06.09.2022
323 Clouds 12 1004 49 10000 1.53 141 10:46 06.09.2022
324 Clouds 14 1005 38 10000 4.97 191 08:54 06.09.2022
325 Clouds 14 1006 36 10000 5.12 181 07:51 06.09.2022
326 Clouds 12 1007 45 10000 6.01 193 04:48 06.09.2022
327 Clouds 7 1010 53 10000 1.89 160 23:52 05.09.2022
328 Clouds 5 1010 58 10000 2.24 156 22:40 05.09.2022
329 Clouds 5 1011 61 10000 2.57 167 20:58 05.09.2022
330 Clouds 5 1011 58 10000 2.3 156 19:50 05.09.2022
331 Clear 5 1011 58 10000 2.57 185 18:49 05.09.2022
332 Clear 5 1011 57 10000 3.07 193 18:23 05.09.2022
333 Clear 5 1011 57 10000 3.07 193 17:31 05.09.2022
334 Clear 6 1011 54 10000 3.65 191 15:52 05.09.2022
335 Clouds 8 1011 52 10000 3.43 195 13:54 05.09.2022
336 Clouds 10 1011 49 10000 2.24 180 12:29 05.09.2022
337 Clouds 12 1011 47 10000 2.07 215 10:34 05.09.2022
338 Clouds 14 1013 37 10000 4.57 211 07:43 05.09.2022
339 Clouds 10 1015 51 10000 3.42 182 02:58 05.09.2022
340 Clouds 5 1017 71 10000 1.15 111 23:58 04.09.2022
341 Clouds 2 1017 84 10000 1.37 66 22:28 04.09.2022
342 Clouds 2 1017 84 10000 1.37 66 21:45 04.09.2022
343 Clouds 3 1017 77 10000 1.27 84 19:44 04.09.2022
344 Clouds 3 1016 75 10000 1.32 87 18:33 04.09.2022
345 Clouds 4 1016 70 10000 1.34 95 17:26 04.09.2022
346 Clouds 5 1015 66 10000 1.51 113 15:23 04.09.2022
347 Clouds 6 1015 64 10000 1.48 119 14:22 04.09.2022
348 Clouds 7 1014 62 10000 1.93 132 12:26 04.09.2022
349 Clouds 9 1014 58 10000 1.89 155 10:59 04.09.2022
350 Clouds 10 1014 51 10000 2.84 205 09:25 04.09.2022
351 Clouds 8 1015 54 10000 3.49 219 06:31 04.09.2022
352 Clouds 5 1016 67 10000 3.83 218 02:41 04.09.2022
353 Clouds 3 1016 86 10000 1.5 226 22:33 03.09.2022
354 Clouds 3 1015 87 10000 1.29 242 21:25 03.09.2022
355 Clouds 3 1015 87 10000 1.29 242 20:55 03.09.2022
356 Clouds 2 1015 90 10000 1.28 258 17:37 03.09.2022
357 Clouds 2 1015 91 8222 1.28 268 16:52 03.09.2022
358 Clouds 2 1014 90 8480 1.38 288 15:35 03.09.2022
359 Clouds 3 1014 87 10000 1.67 304 14:41 03.09.2022
360 Clouds 3 1014 86 10000 1.99 318 13:44 03.09.2022
361 Clouds 3 1014 87 10000 2.42 326 11:32 03.09.2022
362 Rain 3 1013 93 5077 3.64 346 09:32 03.09.2022
363 Rain 3 1011 97 68 2.23 329 07:48 03.09.2022
364 Rain 3 1010 98 26 2.37 318 04:50 03.09.2022
365 Rain 4 1009 97 50 2.04 322 02:35 03.09.2022
366 Rain 4 1007 96 126 2.26 326 23:44 02.09.2022
367 Rain 5 1006 94 2253 2.1 341 22:21 02.09.2022
368 Rain 6 1005 90 10000 2.47 5 20:42 02.09.2022
369 Rain 6 1005 89 10000 2.75 9 19:47 02.09.2022
370 Clouds 6 1005 88 10000 2.36 15 18:50 02.09.2022
371 Clouds 6 1004 86 10000 2.41 29 18:25 02.09.2022
372 Clouds 6 1004 83 10000 2.56 38 17:25 02.09.2022
373 Clouds 6 1004 83 10000 2.56 38 16:31 02.09.2022
374 Clouds 8 1003 65 10000 1.24 73 13:42 02.09.2022
375 Clouds 12 1001 47 10000 1.77 140 10:57 02.09.2022
376 Clouds 12 1001 42 10000 2.13 179 09:45 02.09.2022
377 Clouds 12 1000 41 10000 3.02 189 08:46 02.09.2022
378 Clouds 12 1000 40 10000 4.01 204 06:48 02.09.2022
379 Clouds 12 1000 43 10000 4.04 201 06:22 02.09.2022
380 Clouds 8 999 61 10000 4.72 179 00:26 02.09.2022
381 Clouds 7 998 71 10000 4 174 22:24 01.09.2022
382 Clouds 7 998 71 10000 4 174 21:38 01.09.2022
383 Clouds 7 998 74 10000 4.5 166 21:20 01.09.2022
384 Clouds 6 998 84 10000 5.71 191 20:26 01.09.2022
385 Clouds 6 998 84 10000 6.48 199 18:34 01.09.2022
386 Rain 12 994 78 10000 6.83 174 16:55 01.09.2022
387 Rain 13 994 69 10000 4.45 78 15:26 01.09.2022
388 Rain 14 994 60 10000 6.57 92 13:33 01.09.2022
389 Clouds 14 994 55 10000 6.65 66 12:55 01.09.2022
390 Clouds 15 995 56 10000 6.34 60 11:51 01.09.2022
391 Clouds 16 996 53 10000 5.9 64 11:20 01.09.2022
392 Clouds 17 997 50 10000 4.85 75 09:32 01.09.2022
393 Clouds 17 998 47 10000 4.13 90 07:31 01.09.2022
394 Clouds 15 1001 55 10000 2.17 100 03:59 01.09.2022
395 Clouds 14 1002 59 10000 1.32 85 01:30 01.09.2022
396 Clouds 14 1002 59 10000 1.32 85 01:30 01.09.2022
397 Clouds 14 1002 59 10000 1.32 85 01:30 01.09.2022
398 Clouds 14 1002 59 10000 1.32 85 01:30 01.09.2022
399 Clouds 14 1002 59 10000 1.32 85 01:30 01.09.2022
400 Clouds 9 1002 80 10000 1.2 62 22:50 31.08.2022
401 Clouds 9 1001 82 10000 1.09 84 20:44 31.08.2022
402 Clouds 9 1001 82 10000 1.45 78 18:46 31.08.2022
403 Clouds 10 1001 75 10000 1.44 64 16:47 31.08.2022
404 Clouds 11 1001 70 10000 1.42 50 15:25 31.08.2022
405 Clouds 12 1001 68 10000 1.15 78 13:37 31.08.2022
406 Clouds 14 1000 58 10000 0.69 212 11:55 31.08.2022
407 Clouds 17 1000 46 10000 3.43 229 09:36 31.08.2022
408 Clouds 18 999 43 10000 4.66 222 08:26 31.08.2022
409 Rain 15 1000 72 10000 2.19 145 02:58 31.08.2022
410 Rain 12 1000 87 10000 2.02 183 22:29 30.08.2022
411 Clouds 12 1000 83 10000 1.76 219 21:29 30.08.2022
412 Clouds 13 1000 64 10000 1.58 248 20:35 30.08.2022
413 Clouds 14 1000 49 10000 0.65 190 16:58 30.08.2022
414 Clouds 15 1000 47 10000 1.43 84 13:53 30.08.2022
415 Clouds 16 1001 44 10000 2.31 101 12:25 30.08.2022
416 Clouds 18 1001 41 10000 2.31 108 11:20 30.08.2022
417 Clouds 20 1001 35 10000 2.66 116 09:39 30.08.2022
418 Clouds 19 1001 33 10000 2.45 140 06:49 30.08.2022
419 Clouds 15 1004 51 10000 1.27 98 01:18 30.08.2022
420 Clouds 12 1004 64 10000 1.36 78 22:39 29.08.2022
421 Clouds 10 1005 67 10000 1.12 80 21:54 29.08.2022
422 Clouds 10 1004 64 10000 1.29 76 20:47 29.08.2022
423 Clouds 11 1004 62 10000 1.48 80 19:35 29.08.2022
424 Clouds 12 1005 60 10000 1.06 83 17:33 29.08.2022
425 Clouds 13 1005 56 10000 1.05 89 16:59 29.08.2022
426 Clouds 14 1005 50 10000 1.15 81 15:38 29.08.2022
427 Clouds 15 1006 50 10000 0.76 16 13:55 29.08.2022
428 Clouds 15 1006 49 10000 0.98 18 12:32 29.08.2022
429 Clouds 16 1006 48 10000 0.74 351 10:49 29.08.2022
430 Clouds 18 1006 39 10000 1.08 91 09:20 29.08.2022
431 Clouds 18 1007 41 10000 1.48 136 07:20 29.08.2022
432 Clouds 14 1009 50 10000 0.3 146 02:33 29.08.2022
433 Clouds 11 1010 57 10000 0.77 333 23:37 28.08.2022
434 Clouds 8 1010 68 10000 0.73 289 21:49 28.08.2022
435 Clouds 8 1010 69 10000 0.76 237 21:29 28.08.2022
436 Clouds 9 1010 66 10000 1.4 205 20:23 28.08.2022
437 Clouds 10 1009 63 10000 1.59 188 18:37 28.08.2022
438 Clouds 10 1009 60 10000 1.58 182 18:18 28.08.2022
439 Clouds 11 1009 57 10000 1.67 184 16:52 28.08.2022
440 Clouds 13 1008 57 10000 1.47 184 15:37 28.08.2022
441 Clouds 14 1008 53 10000 1.74 167 13:34 28.08.2022
442 Clouds 16 1007 50 10000 2.18 193 12:20 28.08.2022
443 Clouds 19 1006 38 10000 5.61 207 10:27 28.08.2022
444 Clouds 19 1006 38 10000 5.61 207 09:38 28.08.2022
445 Clouds 18 1006 38 10000 4.4 208 08:31 28.08.2022
446 Clouds 18 1006 39 10000 4.36 207 07:32 28.08.2022
447 Clouds 14 1006 58 10000 5.35 183 01:28 28.08.2022
448 Clouds 12 1006 67 10000 3.06 159 00:20 28.08.2022
449 Clouds 9 1005 78 10000 2.64 152 22:27 27.08.2022
450 Clouds 9 1005 77 10000 2.89 165 20:49 27.08.2022
451 Clouds 10 1004 70 10000 3.37 174 19:37 27.08.2022
452 Clouds 12 1002 69 10000 3.15 149 16:37 27.08.2022
453 Clouds 13 1002 65 10000 3.2 148 15:31 27.08.2022
454 Clouds 15 1001 57 10000 2.63 146 14:18 27.08.2022
455 Clouds 16 1000 52 10000 2.22 174 12:22 27.08.2022
456 Clouds 17 1000 49 10000 2.08 153 10:33 27.08.2022
457 Clouds 19 1000 44 10000 2.04 163 09:40 27.08.2022
458 Clouds 19 1000 38 10000 3.37 202 06:55 27.08.2022
459 Clouds 16 1001 51 10000 2.65 135 02:31 27.08.2022
460 Clouds 12 1002 68 10000 1.32 85 23:53 26.08.2022
461 Clouds 8 1002 81 10000 1.27 70 22:24 26.08.2022
462 Clouds 8 1002 79 10000 1.39 78 20:39 26.08.2022
463 Clouds 8 1002 75 10000 1.26 89 19:20 26.08.2022
464 Clouds 9 1002 73 10000 1.13 91 16:46 26.08.2022
465 Clouds 10 1002 70 10000 0.8 110 15:27 26.08.2022
466 Clouds 13 1002 57 10000 0.97 131 13:46 26.08.2022
467 Clouds 13 1002 56 10000 1.12 137 12:35 26.08.2022
468 Clouds 14 1001 53 10000 1.73 165 11:22 26.08.2022
469 Clouds 15 1001 49 10000 2.13 166 10:25 26.08.2022
470 Clouds 15 1001 50 10000 2.72 189 07:28 26.08.2022
471 Clouds 11 1002 72 10000 1.29 203 01:28 26.08.2022
472 Clouds 10 1002 75 10000 1.09 200 23:30 25.08.2022
473 Clouds 8 1002 85 10000 1.01 195 21:27 25.08.2022
474 Clouds 8 1002 84 10000 0.84 212 20:26 25.08.2022
475 Clouds 8 1001 82 10000 1.1 227 18:53 25.08.2022
476 Clouds 8 1001 81 10000 1.09 237 17:44 25.08.2022
477 Clouds 8 1001 80 10000 1.21 246 17:24 25.08.2022
478 Clouds 9 1001 77 10000 1.29 252 15:40 25.08.2022
479 Clouds 10 1001 69 10000 1.11 264 14:34 25.08.2022
480 Clouds 13 1001 58 10000 0.79 19 11:54 25.08.2022
481 Clouds 14 1000 53 10000 1.44 13 10:46 25.08.2022
482 Clouds 14 1000 53 10000 2.18 11 08:54 25.08.2022
483 Clouds 12 1000 59 10000 2.38 15 05:20 25.08.2022
484 Clouds 10 1001 72 10000 2.82 7 01:37 25.08.2022
485 Clouds 8 1001 84 10000 1.85 334 23:26 24.08.2022
486 Clouds 7 1001 86 10000 1.81 326 22:22 24.08.2022
487 Clouds 7 1001 86 10000 1.81 326 21:35 24.08.2022
488 Clouds 8 1001 86 10000 1.92 326 20:32 24.08.2022
489 Clouds 7 1001 83 10000 2.19 331 18:58 24.08.2022
490 Clouds 8 1001 82 10000 2.16 335 16:37 24.08.2022
491 Clouds 8 1002 81 10000 2.36 336 15:52 24.08.2022
492 Clouds 8 1003 80 10000 2.54 346 13:40 24.08.2022
493 Clouds 9 1003 77 10000 3.29 3 11:38 24.08.2022
494 Clouds 10 1002 70 10000 4.46 17 09:39 24.08.2022
495 Clouds 11 1002 64 10000 4.5 17 07:59 24.08.2022
496 Clouds 9 1004 71 10000 2.48 357 02:36 24.08.2022
497 Clouds 7 1005 77 10000 1.66 351 23:34 23.08.2022
498 Clouds 7 1005 79 10000 1.66 360 22:32 23.08.2022
499 Clouds 7 1005 80 10000 1.65 3 21:34 23.08.2022
500 Clouds 7 1006 80 10000 1.46 359 20:21 23.08.2022
501 Clouds 7 1006 80 10000 1.32 359 18:49 23.08.2022
502 Clouds 6 1006 81 10000 1.48 351 17:50 23.08.2022
503 Clouds 6 1006 81 10000 1.63 341 16:54 23.08.2022
504 Clouds 7 1006 81 10000 1.73 338 15:39 23.08.2022
505 Clouds 8 1006 73 10000 1.93 356 13:36 23.08.2022
506 Clouds 10 1006 68 10000 2.22 4 11:33 23.08.2022
507 Clouds 10 1006 66 10000 2.61 357 10:51 23.08.2022
508 Clouds 11 1006 66 10000 2.64 356 10:26 23.08.2022
509 Clouds 11 1006 66 10000 2.51 356 08:53 23.08.2022
510 Clouds 10 1006 69 10000 2.98 351 08:21 23.08.2022
511 Clouds 10 1006 69 10000 2.98 351 07:38 23.08.2022
512 Clouds 10 1006 70 10000 3.16 339 06:29 23.08.2022
513 Clouds 10 1006 70 10000 3.16 339 06:29 23.08.2022
514 Clouds 10 1006 70 10000 3.16 339 05:38 23.08.2022
515 Clouds 8 1005 80 10000 2.59 332 00:52 23.08.2022
516 Clouds 8 1005 81 10000 2.46 333 00:24 23.08.2022
517 Clouds 8 1005 82 10000 2.37 333 22:52 22.08.2022
518 Clouds 8 1004 84 10000 2.3 327 21:51 22.08.2022
519 Clouds 8 1004 84 10000 2.29 323 19:49 22.08.2022
520 Clouds 8 1003 84 10000 2.54 334 19:27 22.08.2022
521 Clouds 9 1003 84 10000 2.48 338 17:55 22.08.2022
522 Clouds 10 1002 84 10000 2.12 322 15:40 22.08.2022
523 Clouds 10 1002 83 10000 2.21 320 14:32 22.08.2022
524 Clouds 13 1001 76 10000 3.17 323 11:19 22.08.2022
525 Clouds 13 1001 74 10000 2.71 322 08:54 22.08.2022
526 Clouds 14 1000 74 10000 3.15 301 04:42 22.08.2022
527 Clouds 12 1000 87 10000 1.65 303 00:53 22.08.2022
528 Clouds 12 1000 87 10000 1.65 303 00:34 22.08.2022
529 Clouds 11 1000 93 10000 1.34 322 22:54 21.08.2022
530 Clouds 9 1000 96 10000 1.38 319 21:45 21.08.2022
531 Clouds 9 1000 93 10000 1.3 309 20:58 21.08.2022
532 Clouds 9 1000 93 10000 1.39 310 19:28 21.08.2022
533 Clouds 9 1000 94 10000 1.26 303 18:28 21.08.2022
534 Clouds 9 1000 95 10000 1.8 346 16:29 21.08.2022
535 Clouds 9 1000 95 10000 1.8 346 15:46 21.08.2022
536 Clouds 10 1000 94 10000 1.17 6 14:41 21.08.2022
537 Clouds 11 1000 93 10000 1.3 2 13:44 21.08.2022
538 Clouds 12 1000 92 10000 0.58 343 12:47 21.08.2022
539 Clouds 13 1000 88 10000 0.52 276 09:57 21.08.2022
540 Clouds 12 999 90 10000 0.65 251 08:56 21.08.2022
541 Clouds 12 1000 90 10000 1.3 265 08:38 21.08.2022
542 Clouds 12 1000 88 10000 1.33 246 07:50 21.08.2022
543 Clouds 12 999 89 10000 1.33 210 04:28 21.08.2022
544 Rain 11 999 95 10000 0.56 209 00:53 21.08.2022
545 Rain 11 999 96 10000 1.09 217 23:20 20.08.2022
546 Rain 11 998 96 10000 1.19 215 21:46 20.08.2022
547 Rain 11 998 97 7750 1.24 217 20:48 20.08.2022
548 Rain 10 998 97 5974 0.88 279 19:42 20.08.2022
549 Rain 11 998 95 7031 0.63 330 18:45 20.08.2022
550 Rain 11 997 92 10000 1.04 322 18:25 20.08.2022
551 Clouds 11 998 91 10000 1.39 340 17:20 20.08.2022
552 Clouds 11 997 91 10000 1.7 351 15:52 20.08.2022
553 Clouds 12 997 89 10000 1.99 6 13:48 20.08.2022
554 Rain 13 997 86 10000 2.51 7 11:54 20.08.2022
555 Rain 14 997 81 10000 2.83 10 11:24 20.08.2022
556 Clouds 16 996 73 10000 4.04 21 09:20 20.08.2022
557 Clouds 14 996 74 10000 2.89 18 07:18 20.08.2022
558 Clouds 13 996 79 10000 3.52 9 04:42 20.08.2022
559 Rain 11 995 90 10000 2.07 355 00:57 20.08.2022
560 Clouds 12 995 90 10000 1.99 340 23:26 19.08.2022
561 Clouds 12 995 90 10000 1.99 340 22:44 19.08.2022
562 Rain 12 995 93 10000 1.87 326 20:47 19.08.2022
563 Rain 12 995 93 10000 2.15 322 18:59 19.08.2022
564 Rain 12 995 93 10000 2.15 322 18:59 19.08.2022
565 Rain 12 995 93 10000 2.15 322 18:59 19.08.2022
566 Rain 12 995 93 10000 2.15 322 18:59 19.08.2022
567 Rain 13 995 89 10000 2.4 346 15:58 19.08.2022
568 Rain 13 995 90 10000 2.92 3 13:44 19.08.2022
569 Rain 15 995 80 10000 1.36 331 11:50 19.08.2022
570 Rain 16 995 75 10000 1.59 107 10:31 19.08.2022
571 Rain 19 994 55 10000 3.79 34 08:31 19.08.2022
572 Clouds 18 995 57 10000 1.49 15 04:39 19.08.2022
573 Clouds 15 996 73 10000 1.13 1 00:40 19.08.2022
574 Clouds 14 996 76 10000 0.27 58 00:19 19.08.2022
575 Clouds 13 996 79 10000 0.42 53 22:56 18.08.2022
576 Rain 12 996 84 10000 0.79 61 22:23 18.08.2022
577 Rain 12 996 84 10000 0.79 61 21:47 18.08.2022
578 Rain 11 995 84 10000 0.7 38 20:47 18.08.2022
579 Rain 13 995 89 10000 0.73 66 19:35 18.08.2022
580 Rain 13 995 87 10000 0.7 128 18:43 18.08.2022
581 Clouds 13 994 84 10000 0.85 207 17:32 18.08.2022
582 Clouds 14 994 79 10000 1.13 205 15:51 18.08.2022
583 Clouds 15 994 75 10000 1.03 152 14:21 18.08.2022
584 Clouds 15 994 75 10000 1.03 152 13:44 18.08.2022
585 Clouds 19 993 55 10000 2.69 62 12:28 18.08.2022
586 Clouds 21 993 48 10000 4.31 44 11:18 18.08.2022
587 Clouds 22 992 44 10000 5.3 34 09:43 18.08.2022
588 Clouds 22 992 43 10000 4.04 21 07:27 18.08.2022
589 Clouds 22 992 44 10000 3.65 22 06:18 18.08.2022
590 Clouds 19 992 52 10000 2.44 31 01:43 18.08.2022
591 Clouds 15 992 63 10000 2.29 13 22:32 17.08.2022
592 Clouds 14 992 69 10000 2.4 28 20:21 17.08.2022
593 Clouds 16 991 65 10000 2.14 32 19:55 17.08.2022
594 Clouds 15 992 68 10000 2.39 34 18:32 17.08.2022
595 Clouds 16 992 69 10000 3 27 16:52 17.08.2022
596 Clouds 16 992 69 10000 2.74 30 15:45 17.08.2022
597 Clouds 17 992 68 10000 3.04 31 14:40 17.08.2022
598 Clouds 20 992 55 10000 1.8 339 12:29 17.08.2022
599 Clouds 22 992 49 10000 1.08 45 10:59 17.08.2022
600 Clouds 24 992 38 10000 4.17 62 09:19 17.08.2022
601 Clouds 23 993 44 10000 2.98 73 06:29 17.08.2022
602 Clouds 18 996 61 10000 1.45 33 00:50 17.08.2022
603 Rain 16 996 72 10000 1.48 32 23:18 16.08.2022
604 Clouds 14 996 78 10000 1.72 22 21:32 16.08.2022
605 Rain 14 996 81 10000 1.96 19 20:20 16.08.2022
606 Rain 15 996 78 10000 1.83 26 19:26 16.08.2022
607 Clouds 15 996 74 10000 1.65 30 17:55 16.08.2022
608 Clouds 16 996 72 10000 1.56 43 16:48 16.08.2022
609 Clouds 16 996 70 10000 1.83 39 15:45 16.08.2022
610 Clouds 17 996 67 10000 1.68 38 14:54 16.08.2022
611 Clouds 17 996 67 10000 1.68 38 14:36 16.08.2022
612 Rain 19 997 58 10000 2.48 50 12:33 16.08.2022
613 Clouds 24 997 43 10000 2.61 78 10:23 16.08.2022
614 Clouds 24 997 44 10000 2.58 81 08:54 16.08.2022
615 Clouds 24 997 45 10000 2.46 85 08:21 16.08.2022
616 Clouds 23 998 49 10000 2.18 88 06:48 16.08.2022
617 Clouds 19 1000 62 10000 1.13 62 00:32 16.08.2022
618 Clouds 14 1001 80 10000 1.41 37 22:24 15.08.2022
619 Clouds 14 1001 80 10000 1.41 37 21:51 15.08.2022
620 Clouds 13 1001 82 10000 1.51 35 20:35 15.08.2022
621 Clouds 13 1001 82 10000 1.3 46 19:59 15.08.2022
622 Clouds 14 1001 78 10000 1.81 34 18:00 15.08.2022
623 Clouds 15 1002 75 10000 1.77 34 16:25 15.08.2022
624 Clouds 15 1002 75 10000 1.77 34 15:55 15.08.2022
625 Clouds 17 1002 67 10000 2.51 42 13:54 15.08.2022
626 Clouds 21 1003 55 10000 2.47 34 12:24 15.08.2022
627 Clouds 23 1003 46 10000 1.51 64 09:54 15.08.2022
628 Clouds 22 1004 47 10000 1.34 107 07:50 15.08.2022
629 Clouds 19 1005 53 10000 2.02 95 04:36 15.08.2022
630 Clouds 15 1007 68 10000 0.93 51 01:26 15.08.2022
631 Clouds 12 1008 78 10000 0.76 69 22:39 14.08.2022
632 Clouds 11 1008 85 10000 0.83 65 21:38 14.08.2022
633 Clouds 9 1008 85 10000 1.26 48 19:54 14.08.2022
634 Clear 10 1009 84 10000 1.28 40 18:59 14.08.2022
635 Clear 10 1009 84 10000 1.32 33 18:19 14.08.2022
636 Clouds 11 1009 82 10000 1.49 29 16:53 14.08.2022
637 Clouds 11 1009 80 10000 1.73 23 15:49 14.08.2022
638 Clouds 12 1009 77 10000 1.75 20 14:33 14.08.2022
639 Clouds 13 1009 75 10000 1.15 6 13:50 14.08.2022
640 Clouds 14 1009 69 10000 0.97 9 13:20 14.08.2022
641 Clouds 14 1009 69 10000 0.97 9 12:34 14.08.2022
642 Clouds 17 1009 55 10000 0.93 60 10:50 14.08.2022
643 Clouds 17 1010 54 10000 1.23 56 08:52 14.08.2022
644 Clouds 15 1011 59 10000 1.29 42 06:22 14.08.2022
645 Clouds 13 1012 66 10000 1.76 25 03:36 14.08.2022
646 Clouds 10 1013 75 10000 2.13 12 00:33 14.08.2022
647 Clouds 8 1014 83 10000 2.02 4 22:56 13.08.2022
648 Clouds 7 1014 88 10000 1.85 1 21:43 13.08.2022
649 Clouds 6 1014 92 10000 1.95 9 20:46 13.08.2022
650 Clouds 6 1014 92 10000 2.03 3 19:46 13.08.2022
651 Clouds 6 1014 91 10000 1.9 336 18:19 13.08.2022
652 Clouds 7 1014 87 10000 2.3 337 15:40 13.08.2022
653 Clouds 8 1014 85 10000 2.32 337 14:40 13.08.2022
654 Clouds 9 1014 78 10000 2.7 338 13:46 13.08.2022
655 Clouds 12 1013 65 10000 4.93 358 11:59 13.08.2022
656 Clouds 13 1012 61 10000 5.39 3 10:33 13.08.2022
657 Clouds 14 1012 57 10000 5.75 7 09:22 13.08.2022
658 Clouds 15 1011 55 10000 5.06 6 05:59 13.08.2022
659 Clouds 12 1012 64 10000 3.32 356 00:36 13.08.2022
660 Clouds 10 1011 75 10000 2.56 356 22:37 12.08.2022
661 Clouds 8 1011 83 10000 1.89 343 21:35 12.08.2022
662 Clouds 8 1011 86 10000 2.3 334 19:46 12.08.2022
663 Clouds 8 1011 84 10000 2.49 334 19:21 12.08.2022
664 Clouds 9 1011 81 10000 2.34 339 17:58 12.08.2022
665 Clouds 11 1010 75 10000 2.44 330 16:25 12.08.2022
666 Clouds 12 1009 73 10000 2.81 333 14:50 12.08.2022
667 Clouds 15 1008 62 10000 3.63 347 13:26 12.08.2022
668 Clouds 17 1008 59 10000 4.06 3 11:40 12.08.2022
669 Clouds 18 1007 54 10000 4.89 7 08:50 12.08.2022
670 Clouds 18 1007 54 10000 5.02 2 07:45 12.08.2022
671 Clouds 18 1007 54 10000 4.51 10 04:55 12.08.2022
672 Clouds 15 1007 67 10000 3.3 3 00:31 12.08.2022
673 Clouds 14 1007 70 10000 3.12 356 23:52 11.08.2022
674 Clouds 13 1006 76 10000 2.47 342 22:45 11.08.2022
675 Clouds 12 1006 85 10000 2.04 329 21:53 11.08.2022
676 Clouds 11 1005 91 10000 2.14 329 21:28 11.08.2022
677 Clouds 11 1005 91 10000 2.14 329 20:30 11.08.2022
678 Clouds 12 1004 86 10000 2.65 341 19:33 11.08.2022
679 Clouds 13 1003 84 10000 2.94 346 18:53 11.08.2022
680 Clouds 15 1002 76 10000 3.11 356 16:46 11.08.2022
681 Clouds 16 1001 71 10000 3.17 360 15:42 11.08.2022
682 Clouds 17 1001 65 10000 2.67 5 14:36 11.08.2022
683 Clouds 22 1000 48 10000 2.96 48 11:56 11.08.2022
684 Clouds 25 1000 37 10000 3.21 42 08:57 11.08.2022
685 Clouds 24 1000 39 10000 2.87 42 05:58 11.08.2022
686 Clouds 22 1001 46 10000 1.71 27 02:38 11.08.2022
687 Clear 19 1001 56 10000 0.84 39 23:41 10.08.2022
688 Clear 15 1001 69 10000 1.04 48 21:47 10.08.2022
689 Clear 14 1001 73 10000 0.98 55 21:18 10.08.2022
690 Clear 14 1001 73 10000 0.98 55 20:35 10.08.2022
691 Clear 14 1002 70 10000 1.24 32 18:53 10.08.2022
692 Clear 15 1002 67 10000 1.2 50 17:27 10.08.2022
693 Clear 15 1002 67 10000 1.2 50 17:27 10.08.2022
694 Clear 16 1003 64 10000 1.22 85 14:57 10.08.2022
695 Clear 17 1003 59 10000 1.73 86 13:34 10.08.2022
696 Clear 23 1003 42 10000 2.34 51 10:51 10.08.2022
697 Clear 24 1003 39 10000 2.02 62 08:42 10.08.2022
698 Clear 23 1004 39 10000 2.48 61 07:35 10.08.2022
699 Clear 22 1005 41 10000 2.6 61 04:50 10.08.2022
700 Clear 19 1007 50 10000 2.83 35 02:22 10.08.2022
701 Clear 17 1007 63 10000 1.84 11 23:33 09.08.2022
702 Clear 15 1007 69 10000 1.54 12 22:47 09.08.2022
703 Clear 14 1007 77 10000 2.02 7 21:33 09.08.2022
704 Clouds 14 1007 71 10000 2.99 12 19:33 09.08.2022
705 Clouds 17 1007 65 10000 3.14 11 17:53 09.08.2022
706 Clouds 17 1007 67 10000 2.97 15 17:26 09.08.2022
707 Clouds 17 1007 67 10000 2.97 15 16:33 09.08.2022
708 Clouds 18 1007 70 10000 2.4 39 15:26 09.08.2022
709 Clouds 19 1006 66 10000 4.39 20 12:20 09.08.2022
710 Clouds 24 1005 44 10000 1.17 318 08:55 09.08.2022
711 Clouds 24 1004 43 10000 0.48 288 08:26 09.08.2022
712 Clouds 24 1005 43 10000 0.32 271 07:18 09.08.2022
713 Clouds 20 1006 57 10000 0.67 339 02:27 09.08.2022
714 Clouds 17 1006 66 10000 1.32 5 23:26 08.08.2022
715 Clouds 17 1006 66 10000 1.32 5 22:52 08.08.2022
716 Clouds 16 1006 70 10000 1.15 6 21:48 08.08.2022
717 Clouds 15 1006 69 10000 0.8 21 20:51 08.08.2022
718 Clouds 16 1006 65 10000 0.61 33 19:50 08.08.2022
719 Clouds 17 1005 62 10000 0.64 112 18:19 08.08.2022
720 Clouds 17 1005 60 10000 1.15 136 15:57 08.08.2022
721 Clouds 17 1005 60 10000 1.15 136 15:38 08.08.2022
722 Clouds 20 1004 53 10000 3.29 184 12:39 08.08.2022
723 Clouds 21 1004 50 10000 3.54 190 11:32 08.08.2022
724 Clouds 24 1003 41 10000 4.01 190 08:26 08.08.2022
725 Clear 23 1003 45 10000 5.68 192 05:35 08.08.2022
726 Clouds 20 1004 56 10000 5.79 185 01:55 08.08.2022
727 Clouds 14 1004 91 10000 2 187 21:51 07.08.2022
728 Clouds 14 1004 91 10000 2 187 21:32 07.08.2022
729 Clouds 15 1003 88 10000 2.21 180 20:25 07.08.2022
730 Clouds 15 1003 88 10000 2.21 180 19:53 07.08.2022
731 Clouds 15 1003 88 10000 2.38 195 19:29 07.08.2022
732 Clouds 15 1003 88 10000 1.49 205 18:21 07.08.2022
733 Clouds 15 1003 87 10000 1.56 218 16:53 07.08.2022
734 Clouds 15 1003 88 10000 0.89 217 15:49 07.08.2022
735 Clouds 15 1003 88 10000 0.7 281 14:38 07.08.2022
736 Clouds 16 1003 87 10000 1.55 22 12:59 07.08.2022
737 Clouds 16 1003 83 10000 1.93 18 10:59 07.08.2022
738 Clouds 17 1003 78 10000 1.85 45 10:28 07.08.2022
739 Clouds 15 1005 82 10000 1.68 45 04:58 07.08.2022
740 Clouds 13 1006 87 10000 1.79 35 03:18 07.08.2022
741 Clouds 11 1006 92 10000 1.54 17 23:30 06.08.2022
742 Clouds 11 1006 94 10000 1.49 2 22:20 06.08.2022
743 Clouds 10 1006 95 10000 1.63 356 20:24 06.08.2022
744 Clouds 10 1006 95 10000 1.63 356 19:38 06.08.2022
745 Rain 10 1007 96 10000 1.75 360 18:22 06.08.2022
746 Rain 10 1007 96 10000 1.92 2 16:40 06.08.2022
747 Rain 10 1007 97 10000 2.1 356 14:31 06.08.2022
748 Rain 10 1007 97 10000 1.94 356 13:39 06.08.2022
749 Rain 10 1006 96 10000 2.3 9 11:24 06.08.2022
750 Rain 10 1006 95 10000 2.47 11 09:50 06.08.2022
751 Rain 11 1006 90 10000 1.91 26 08:28 06.08.2022
752 Rain 10 1007 89 10000 2.29 20 03:35 06.08.2022
753 Rain 11 1007 84 10000 1.41 37 23:32 05.08.2022
754 Rain 11 1007 84 10000 1.21 16 21:54 05.08.2022
755 Clouds 13 1007 58 10000 0.81 45 19:32 05.08.2022
756 Clouds 13 1007 55 10000 1.04 26 18:44 05.08.2022
757 Clouds 14 1007 54 10000 1.14 18 17:27 05.08.2022
758 Clouds 14 1007 54 10000 1.14 18 16:48 05.08.2022
759 Clouds 14 1007 52 10000 2.15 26 15:21 05.08.2022
760 Clouds 15 1008 52 10000 2.09 29 13:59 05.08.2022
761 Clouds 15 1008 54 10000 1.8 46 13:23 05.08.2022
762 Clouds 16 1008 53 10000 2 53 12:24 05.08.2022
763 Clouds 17 1008 48 10000 2.21 50 10:44 05.08.2022
764 Clouds 17 1009 47 10000 2.6 57 07:58 05.08.2022
765 Clouds 16 1009 48 10000 2.46 57 06:41 05.08.2022
766 Clouds 13 1013 59 10000 1.97 56 00:30 05.08.2022
767 Clouds 9 1013 73 10000 1.4 33 22:29 04.08.2022
768 Clouds 9 1013 76 10000 1.5 44 21:26 04.08.2022
769 Clouds 9 1013 76 10000 1.5 44 20:43 04.08.2022
770 Clouds 10 1012 76 10000 1.44 50 19:40 04.08.2022
771 Clouds 10 1013 76 10000 1.54 41 18:36 04.08.2022
772 Clouds 10 1013 76 10000 1.5 33 17:38 04.08.2022
773 Clouds 10 1013 79 10000 0.36 274 14:18 04.08.2022
774 Clouds 12 1013 74 10000 0.09 200 12:57 04.08.2022
775 Clouds 13 1013 66 10000 0.49 15 11:18 04.08.2022
776 Clouds 10 1014 77 10000 1.56 1 07:53 04.08.2022
777 Clouds 9 1014 82 10000 1.77 4 06:40 04.08.2022
778 Rain 8 1014 91 10000 3.17 1 02:33 04.08.2022
779 Rain 8 1013 92 10000 2.84 3 23:45 03.08.2022
780 Rain 9 1013 91 10000 3.07 8 22:55 03.08.2022
781 Clouds 9 1012 83 10000 3.07 10 20:50 03.08.2022
782 Clouds 9 1011 83 10000 3.5 10 19:46 03.08.2022
783 Clouds 10 1011 81 10000 3.59 9 18:37 03.08.2022
784 Clouds 11 1010 72 10000 2.98 7 16:26 03.08.2022
785 Clouds 11 1010 72 10000 2.98 7 15:32 03.08.2022
786 Clouds 14 1009 65 10000 2.67 30 12:44 03.08.2022
787 Clouds 16 1008 58 10000 2.89 43 09:46 03.08.2022
788 Clouds 12 1009 73 10000 2.06 4 04:51 03.08.2022
789 Clouds 11 1009 74 10000 1.75 348 04:21 03.08.2022
790 Clouds 11 1009 77 10000 2.49 12 02:25 03.08.2022
791 Rain 12 1008 73 10000 2.73 8 23:41 02.08.2022
792 Clouds 11 1008 76 10000 2.46 19 21:59 02.08.2022
793 Clouds 11 1008 76 10000 2.46 19 21:40 02.08.2022
794 Clouds 11 1008 84 10000 2.85 4 20:20 02.08.2022
795 Clouds 13 1007 80 10000 2.69 358 16:49 02.08.2022
796 Clouds 14 1006 78 10000 3.13 16 13:54 02.08.2022
797 Clouds 14 1005 78 10000 3.41 23 10:34 02.08.2022
798 Clouds 14 1004 81 10000 3.22 19 08:29 02.08.2022
799 Clouds 14 1005 80 10000 3.27 20 07:50 02.08.2022
800 Clouds 13 1004 86 10000 2.78 4 04:56 02.08.2022
801 Rain 12 1003 91 10000 2.42 341 02:20 02.08.2022
802 Rain 14 1002 88 10000 2.33 351 23:25 01.08.2022
803 Rain 14 1002 90 10000 2.59 342 21:42 01.08.2022
804 Rain 14 1001 93 10000 3.18 353 20:27 01.08.2022
805 Rain 14 1001 93 6703 3.07 1 18:56 01.08.2022
806 Rain 16 1000 87 10000 3.21 0 17:22 01.08.2022
807 Rain 16 1000 87 10000 3.21 0 16:48 01.08.2022
808 Clouds 18 1000 83 10000 2.9 358 15:45 01.08.2022
809 Rain 19 999 81 10000 2.06 347 15:19 01.08.2022
810 Clouds 20 999 69 10000 1.47 309 13:39 01.08.2022
811 Clouds 23 997 61 10000 4.14 220 11:18 01.08.2022
812 Clouds 26 996 50 10000 7.09 207 09:38 01.08.2022
813 Clouds 29 996 36 10000 6.33 212 08:18 01.08.2022
814 Clouds 29 996 39 10000 6.6 215 04:43 01.08.2022
815 Clouds 25 997 52 10000 5.82 220 02:24 01.08.2022
816 Clouds 21 998 74 10000 3.34 190 22:54 31.07.2022
817 Clouds 21 998 74 10000 3.34 190 22:36 31.07.2022
818 Clouds 19 998 82 10000 2.71 198 20:46 31.07.2022
819 Clouds 20 997 79 10000 1.19 149 18:52 31.07.2022
820 Rain 20 997 77 10000 1.16 136 17:43 31.07.2022
821 Clouds 20 997 77 10000 1.55 55 15:30 31.07.2022
822 Clouds 26 996 60 10000 0.66 196 13:21 31.07.2022
823 Clouds 28 996 53 10000 0.74 190 11:45 31.07.2022
824 Clouds 28 997 48 10000 1.88 160 09:18 31.07.2022
825 Clouds 27 998 51 10000 2.23 174 06:37 31.07.2022
826 Clouds 24 1000 60 10000 1.91 148 02:56 31.07.2022
827 Clouds 19 1001 71 10000 0.89 135 23:23 30.07.2022
828 Clouds 18 1001 74 10000 0.58 128 22:19 30.07.2022
829 Clouds 18 1001 74 10000 0.58 128 21:40 30.07.2022
830 Clouds 17 1001 80 10000 0.73 86 20:51 30.07.2022
831 Clouds 16 1001 81 10000 1.11 78 19:58 30.07.2022
832 Clouds 18 1000 78 10000 1.44 53 18:26 30.07.2022
833 Clouds 18 1001 77 10000 1.78 20 16:54 30.07.2022
834 Clouds 19 1001 75 10000 1.86 10 15:35 30.07.2022
835 Clouds 20 1001 73 10000 1.97 21 14:53 30.07.2022
836 Clouds 23 1001 61 10000 3.6 42 12:47 30.07.2022
837 Clouds 25 1001 55 10000 3.94 52 11:55 30.07.2022
838 Clouds 26 1001 51 10000 2.92 49 10:25 30.07.2022
839 Clouds 26 1001 51 10000 2.92 49 09:45 30.07.2022
840 Clouds 26 1002 52 10000 2.12 28 07:47 30.07.2022
841 Clouds 23 1004 63 10000 3.01 32 02:36 30.07.2022
842 Clouds 22 1005 67 10000 2.98 27 01:46 30.07.2022
843 Clouds 18 1006 89 10000 2.9 12 22:25 29.07.2022
844 Clouds 18 1006 95 10000 2.84 5 20:59 29.07.2022
845 Rain 19 1005 91 10000 3.24 10 19:48 29.07.2022
846 Clouds 20 1005 82 10000 2.78 2 17:53 29.07.2022
847 Clouds 23 1004 65 10000 2.74 41 15:21 29.07.2022
848 Clouds 27 1004 53 10000 2.98 58 12:59 29.07.2022
849 Clouds 30 1004 39 10000 4.23 54 10:35 29.07.2022
850 Clouds 31 1004 34 10000 2.58 59 08:49 29.07.2022
851 Clouds 31 1004 34 10000 1.8 54 07:54 29.07.2022
852 Clouds 28 1007 39 10000 1.01 54 01:47 29.07.2022
853 Clouds 24 1007 49 10000 0.85 48 22:49 28.07.2022
854 Clouds 22 1008 60 10000 1.03 21 21:00 28.07.2022
855 Clouds 22 1008 60 10000 1.03 21 20:30 28.07.2022
856 Clouds 21 1007 60 10000 1.27 8 19:42 28.07.2022
857 Clouds 22 1007 59 10000 1.66 359 18:50 28.07.2022
858 Clouds 22 1007 59 10000 1.85 348 17:43 28.07.2022
859 Clouds 22 1007 58 10000 1.91 351 16:51 28.07.2022
860 Clouds 24 1007 53 10000 0.57 23 15:30 28.07.2022
861 Clouds 28 1007 49 10000 1.51 105 12:58 28.07.2022
862 Clouds 30 1007 37 10000 0.67 137 10:36 28.07.2022
863 Clouds 29 1008 38 10000 1.28 182 06:42 28.07.2022
864 Clouds 28 1009 39 10000 1.6 167 05:29 28.07.2022
865 Clouds 25 1011 46 10000 1.05 172 00:49 28.07.2022
866 Clouds 22 1011 54 10000 0.72 122 22:40 27.07.2022
867 Clouds 19 1011 66 10000 0.57 69 21:28 27.07.2022
868 Clouds 19 1011 65 10000 0.74 66 19:42 27.07.2022
869 Clouds 19 1011 64 10000 1.01 45 17:49 27.07.2022
870 Clouds 20 1011 62 10000 1.08 55 15:52 27.07.2022
871 Clouds 21 1011 58 10000 1.65 57 14:58 27.07.2022
872 Clouds 21 1011 58 10000 1.65 57 14:35 27.07.2022
873 Clouds 25 1010 52 10000 2.69 48 12:50 27.07.2022
874 Clouds 28 1010 40 10000 2.28 25 07:54 27.07.2022
875 Clouds 27 1010 41 10000 1.8 32 06:56 27.07.2022
876 Clouds 25 1012 49 10000 1.12 30 01:59 27.07.2022
877 Clouds 21 1011 63 10000 0.96 348 22:29 26.07.2022
878 Clouds 19 1011 67 10000 1.22 348 21:21 26.07.2022
879 Clouds 19 1011 67 10000 1.22 348 20:31 26.07.2022
880 Clouds 19 1011 65 10000 2.24 2 18:44 26.07.2022
881 Clouds 20 1010 64 10000 2.22 4 18:19 26.07.2022
882 Clouds 20 1010 62 10000 2.26 8 16:32 26.07.2022
883 Clouds 22 1009 58 10000 2.09 25 15:36 26.07.2022
884 Clouds 23 1009 55 10000 2.17 23 13:46 26.07.2022
885 Clouds 28 1008 44 10000 3.25 30 11:39 26.07.2022
886 Clouds 29 1007 36 10000 1.58 359 09:32 26.07.2022
887 Clouds 28 1007 39 10000 1.88 275 06:26 26.07.2022
888 Clouds 23 1009 52 10000 0.95 229 00:57 26.07.2022
889 Clouds 22 1009 56 10000 0.8 225 23:33 25.07.2022
890 Clouds 20 1009 66 10000 0.41 102 22:27 25.07.2022
891 Clouds 20 1009 66 10000 0.41 102 21:43 25.07.2022
892 Clouds 18 1009 69 10000 0.29 85 20:42 25.07.2022
893 Clouds 17 1009 71 10000 0.45 63 19:50 25.07.2022
894 Clouds 17 1009 70 10000 0.91 53 18:23 25.07.2022
895 Clouds 17 1009 70 10000 0.91 53 17:33 25.07.2022
896 Clouds 18 1009 67 10000 1.3 56 15:30 25.07.2022
897 Clear 24 1009 51 10000 1.25 27 12:33 25.07.2022
898 Clear 26 1009 38 10000 0.66 214 10:38 25.07.2022
899 Clear 25 1009 42 10000 0.55 224 06:51 25.07.2022
900 Clouds 19 1011 71 10000 0.38 273 23:56 24.07.2022
901 Clouds 18 1011 76 10000 0.25 153 23:19 24.07.2022
902 Clouds 18 1011 76 10000 0.25 153 22:41 24.07.2022
903 Clouds 16 1011 81 10000 0.34 91 21:30 24.07.2022
904 Clouds 15 1011 88 10000 0.18 46 20:56 24.07.2022
905 Clouds 13 1011 89 10000 1.15 332 20:29 24.07.2022
906 Clear 13 1011 89 10000 1.33 323 18:59 24.07.2022
907 Clear 14 1011 88 10000 1.37 318 16:53 24.07.2022
908 Clear 14 1011 87 10000 1.14 333 15:53 24.07.2022
909 Clouds 16 1011 85 10000 1.74 328 14:41 24.07.2022
910 Clouds 18 1011 78 10000 1.25 271 13:43 24.07.2022
911 Clouds 20 1010 69 10000 1.13 352 12:19 24.07.2022
912 Clouds 20 1010 69 10000 1.65 354 11:28 24.07.2022
913 Clouds 20 1010 71 10000 1.85 352 09:33 24.07.2022
914 Clouds 18 1010 77 10000 1.83 332 07:53 24.07.2022
915 Clouds 17 1010 80 10000 1.59 328 06:54 24.07.2022
916 Clouds 15 1010 87 10000 1.58 345 02:41 24.07.2022
917 Rain 15 1009 91 10000 1.41 295 22:37 23.07.2022
918 Rain 15 1009 90 10000 1.51 283 20:47 23.07.2022
919 Clouds 13 1008 95 10000 1.67 306 18:59 23.07.2022
920 Clouds 14 1008 95 10000 1.54 297 17:58 23.07.2022
921 Clouds 14 1008 94 10000 1.74 294 17:25 23.07.2022
922 Clear 15 1008 93 10000 2.18 300 16:21 23.07.2022
923 Clear 16 1007 89 10000 2.69 301 15:21 23.07.2022
924 Clear 16 1007 89 10000 2.69 301 14:52 23.07.2022
925 Clouds 18 1007 80 10000 3.58 309 13:58 23.07.2022
926 Clouds 22 1006 61 10000 5 309 11:55 23.07.2022
927 Clouds 24 1005 55 10000 6.07 317 10:37 23.07.2022
928 Clouds 24 1005 48 10000 3.82 275 09:34 23.07.2022
929 Clouds 26 1004 42 10000 4.27 285 07:18 23.07.2022
930 Clouds 25 1005 43 10000 4.91 209 03:37 23.07.2022
931 Clouds 21 1005 69 10000 3.36 207 00:34 23.07.2022
932 Rain 18 1005 84 10000 0.89 175 21:33 22.07.2022
933 Rain 17 1005 88 10000 0.63 77 20:31 22.07.2022
934 Clouds 17 1005 82 10000 0.79 245 18:42 22.07.2022
935 Rain 18 1005 79 10000 0.57 180 17:40 22.07.2022
936 Clouds 18 1005 75 10000 1.93 77 15:48 22.07.2022
937 Clouds 24 1006 55 10000 2.35 61 12:47 22.07.2022
938 Clouds 27 1007 42 10000 2.17 139 10:23 22.07.2022
939 Clouds 26 1008 42 10000 2.37 135 09:24 22.07.2022
940 Clouds 26 1008 43 10000 2.3 141 07:58 22.07.2022
941 Clouds 21 1011 50 10000 2.3 113 04:23 22.07.2022
942 Clouds 15 1013 60 10000 0.86 92 23:44 21.07.2022
943 Clouds 13 1014 66 10000 0.58 60 21:55 21.07.2022
944 Clouds 10 1015 76 10000 0.77 50 20:28 21.07.2022
945 Clouds 10 1015 78 10000 0.82 67 18:52 21.07.2022
946 Clouds 11 1015 74 10000 0.9 66 17:22 21.07.2022
947 Clouds 11 1015 74 10000 0.9 66 16:43 21.07.2022
948 Clouds 13 1015 68 10000 0.68 53 14:49 21.07.2022
949 Clouds 15 1015 64 10000 1.13 15 13:58 21.07.2022
950 Clouds 15 1015 64 10000 1.13 15 13:58 21.07.2022
951 Clouds 17 1015 53 10000 0.75 85 12:27 21.07.2022
952 Clouds 18 1016 51 10000 1.1 81 10:37 21.07.2022
953 Clouds 17 1016 50 10000 1.57 91 08:54 21.07.2022
954 Clouds 17 1016 50 10000 1.57 91 08:35 21.07.2022
955 Clouds 16 1017 50 10000 2.25 82 07:22 21.07.2022
956 Clouds 13 1019 55 10000 0.94 72 03:48 21.07.2022
957 Clouds 9 1021 70 10000 1.58 25 23:23 20.07.2022
958 Clouds 8 1021 73 10000 1.9 18 22:20 20.07.2022
959 Clouds 7 1021 77 10000 1.58 11 20:49 20.07.2022
960 Clouds 8 1022 74 10000 1.48 357 19:48 20.07.2022
961 Clouds 8 1022 75 10000 1.52 342 19:20 20.07.2022
962 Clouds 8 1022 75 10000 1.52 342 18:33 20.07.2022
963 Clouds 8 1022 74 10000 1.62 330 17:43 20.07.2022
964 Clouds 8 1022 71 10000 2.02 338 15:59 20.07.2022
965 Clouds 9 1022 70 10000 2.59 352 14:54 20.07.2022
966 Clouds 10 1020 65 10000 2.56 343 13:53 20.07.2022
967 Clouds 11 1020 63 10000 3.55 356 11:32 20.07.2022
968 Clouds 10 1020 67 10000 4.26 1 07:39 20.07.2022
969 Clouds 8 1019 74 10000 4.15 4 02:44 20.07.2022
970 Clouds 8 1017 80 10000 3.63 3 00:44 20.07.2022
971 Clouds 8 1016 80 10000 3.33 358 23:37 19.07.2022
972 Clouds 8 1015 82 10000 2.93 356 22:21 19.07.2022
973 Clouds 8 1015 82 10000 2.48 352 20:54 19.07.2022
974 Clouds 8 1014 83 10000 2.41 351 20:23 19.07.2022
975 Clouds 8 1013 82 10000 2.1 348 18:43 19.07.2022
976 Clouds 8 1012 82 10000 2.21 338 17:57 19.07.2022
977 Clouds 8 1011 82 10000 2.55 335 16:26 19.07.2022
978 Clouds 8 1011 82 10000 2.28 345 14:31 19.07.2022
979 Clouds 9 1009 78 10000 3.34 5 11:35 19.07.2022
980 Clouds 10 1008 78 10000 4.04 7 10:31 19.07.2022
981 Clouds 11 1007 79 10000 4.27 358 08:48 19.07.2022
982 Clouds 12 1007 77 10000 4.4 13 08:22 19.07.2022
983 Rain 12 1007 84 10000 3.17 9 07:18 19.07.2022
984 Clouds 12 1007 78 10000 3.86 11 05:26 19.07.2022
985 Clouds 12 1007 78 10000 3.86 11 04:46 19.07.2022
986 Clouds 14 1006 83 10000 3.78 20 00:34 19.07.2022
987 Clouds 16 1006 84 10000 3.18 10 23:22 18.07.2022
988 Clouds 16 1006 84 10000 3.18 10 22:58 18.07.2022
989 Clouds 16 1006 87 10000 2.95 10 21:58 18.07.2022
990 Clouds 15 1006 92 10000 2.24 8 20:50 18.07.2022
991 Clouds 14 1005 94 10000 2.02 29 19:25 18.07.2022
992 Clouds 15 1005 93 10000 2.25 29 17:24 18.07.2022
993 Clouds 16 1005 88 10000 2.27 36 15:51 18.07.2022
994 Clouds 16 1005 83 10000 2.64 20 14:30 18.07.2022
995 Clouds 19 1005 70 10000 2.16 23 12:45 18.07.2022
996 Clouds 21 1005 62 10000 2 321 11:30 18.07.2022
997 Clouds 22 1005 52 10000 1.75 215 08:54 18.07.2022
998 Clouds 22 1005 51 10000 1.86 177 07:38 18.07.2022
999 Clouds 15 1010 60 10000 1.84 183 01:24 18.07.2022
1000 Clouds 14 1011 65 10000 1 175 22:43 17.07.2022
1001 Clouds 14 1011 67 10000 0.66 164 21:57 17.07.2022
1002 Clouds 13 1012 70 10000 0.64 138 21:23 17.07.2022
1003 Clouds 13 1012 70 10000 0.64 138 20:44 17.07.2022
1004 Clouds 13 1012 71 10000 0.36 284 19:34 17.07.2022
1005 Clouds 13 1012 71 10000 0.87 275 18:54 17.07.2022
1006 Clouds 13 1012 71 10000 0.71 285 17:38 17.07.2022
1007 Clouds 13 1013 71 10000 0.88 258 16:51 17.07.2022
1008 Clouds 13 1013 71 10000 1.29 257 16:27 17.07.2022
1009 Clouds 13 1013 71 10000 1.4 260 14:58 17.07.2022
1010 Clouds 12 1014 77 10000 1.54 256 13:32 17.07.2022
1011 Clouds 12 1014 76 10000 1.69 268 12:22 17.07.2022
1012 Clouds 12 1014 74 10000 1.88 298 09:30 17.07.2022
1013 Clouds 13 1014 67 10000 1.83 338 06:37 17.07.2022
1014 Clouds 12 1014 78 10000 2.32 1 02:33 17.07.2022
1015 Rain 11 1012 92 10000 2.2 342 23:21 16.07.2022
1016 Rain 11 1012 88 10000 1.91 322 21:57 16.07.2022
1017 Clouds 11 1012 80 10000 2.07 308 20:26 16.07.2022
1018 Clouds 11 1012 79 10000 2.02 318 18:41 16.07.2022
1019 Clouds 11 1012 78 10000 2.16 337 17:20 16.07.2022
1020 Clouds 13 1012 72 10000 2.82 343 15:23 16.07.2022
1021 Clouds 18 1012 58 10000 5.01 19 11:55 16.07.2022
1022 Clouds 19 1012 58 10000 4.88 25 09:37 16.07.2022
1023 Clouds 17 1013 60 10000 4.5 24 08:58 16.07.2022
1024 Clouds 17 1013 60 10000 4.5 24 08:33 16.07.2022
1025 Clouds 18 1013 61 10000 5.5 9 05:59 16.07.2022
1026 Clouds 18 1013 63 10000 4.7 26 03:31 16.07.2022
1027 Clouds 16 1013 70 10000 4.6 6 23:52 15.07.2022
1028 Clouds 17 1012 70 10000 4.5 10 22:44 15.07.2022
1029 Clouds 17 1012 73 10000 4.3 1 21:31 15.07.2022
1030 Clouds 17 1012 73 10000 4.3 1 21:31 15.07.2022
1031 Clouds 17 1012 78 10000 3.57 353 20:32 15.07.2022
1032 Clouds 18 1011 77 10000 3.56 5 18:46 15.07.2022
1033 Clouds 19 1010 71 10000 2.91 5 17:49 15.07.2022
1034 Clouds 20 1010 67 10000 1.58 45 15:41 15.07.2022
1035 Clear 23 1010 59 10000 2.01 85 13:48 15.07.2022
1036 Clear 27 1010 46 10000 2.45 79 12:22 15.07.2022
1037 Clear 27 1010 42 10000 1.79 67 10:51 15.07.2022
1038 Clear 27 1011 40 10000 1.19 102 07:47 15.07.2022
1039 Clear 24 1013 46 10000 0.34 91 02:39 15.07.2022
1040 Clouds 22 1013 50 10000 0.83 127 00:39 15.07.2022
1041 Clouds 20 1013 58 10000 0.96 78 22:54 14.07.2022
1042 Clouds 19 1013 62 10000 0.87 93 21:57 14.07.2022
1043 Clouds 19 1013 62 10000 0.87 93 21:33 14.07.2022
1044 Clouds 17 1014 70 10000 0.96 84 20:57 14.07.2022
1045 Clouds 17 1014 70 10000 0.96 84 20:37 14.07.2022
1046 Clouds 16 1014 71 10000 0.48 57 20:18 14.07.2022
1047 Clouds 16 1014 72 10000 1.28 72 16:42 14.07.2022
1048 Clouds 17 1014 70 10000 1.35 72 16:18 14.07.2022
1049 Clouds 18 1014 66 10000 1.26 63 14:44 14.07.2022
1050 Clouds 20 1014 62 10000 1.36 53 13:39 14.07.2022
1051 Clouds 24 1014 49 10000 2.26 76 12:23 14.07.2022
1052 Clear 24 1014 45 10000 2.32 84 11:26 14.07.2022
1053 Clear 24 1014 45 10000 2.32 84 10:49 14.07.2022
1054 Clear 23 1015 45 10000 2.62 91 08:28 14.07.2022
1055 Clouds 19 1017 51 10000 2.23 81 03:42 14.07.2022
1056 Clouds 16 1018 60 10000 1.6 55 00:55 14.07.2022
1057 Clouds 14 1018 63 10000 1.59 40 00:18 14.07.2022
1058 Clouds 13 1018 70 10000 1.49 35 22:28 13.07.2022
1059 Clouds 13 1018 70 10000 1.49 35 21:37 13.07.2022
1060 Clouds 12 1018 74 10000 1.52 29 20:38 13.07.2022
1061 Clouds 11 1018 77 10000 2.93 11 18:26 13.07.2022
1062 Clouds 12 1018 76 10000 2.36 18 17:22 13.07.2022
1063 Clouds 12 1017 75 10000 2.55 18 16:18 13.07.2022
1064 Clouds 16 1016 64 10000 3.82 19 13:57 13.07.2022
1065 Clouds 19 1015 54 10000 5.85 23 11:33 13.07.2022
1066 Clouds 20 1014 51 10000 5.92 22 10:44 13.07.2022
1067 Clouds 21 1014 50 10000 5.43 21 09:30 13.07.2022
1068 Clear 22 1012 49 10000 5.35 20 08:24 13.07.2022
1069 Clear 22 1010 50 10000 5.72 32 05:21 13.07.2022
1070 Clouds 19 1011 62 10000 3.68 26 00:49 13.07.2022
1071 Clouds 17 1010 72 10000 2.66 27 22:48 12.07.2022
1072 Clouds 15 1010 77 10000 2.83 22 21:49 12.07.2022
1073 Clouds 15 1009 79 10000 2.83 13 20:54 12.07.2022
1074 Clouds 15 1009 79 10000 2.83 13 20:36 12.07.2022
1075 Clear 15 1008 75 10000 1.29 176 18:53 12.07.2022
1076 Clear 16 1007 72 10000 1.93 206 17:29 12.07.2022
1077 Clear 17 1007 69 10000 2.42 189 15:37 12.07.2022
1078 Clouds 19 1007 65 10000 1.44 158 13:44 12.07.2022
1079 Clouds 21 1006 57 10000 2.98 178 11:59 12.07.2022
1080 Clouds 22 1006 57 10000 2.22 157 10:47 12.07.2022
1081 Clouds 22 1005 57 10000 3 171 09:19 12.07.2022
1082 Clouds 19 1005 70 10000 1.6 166 08:18 12.07.2022
1083 Clouds 18 1005 73 10000 1.89 237 05:57 12.07.2022
1084 Clouds 18 1005 73 10000 1.89 237 05:39 12.07.2022
1085 Clouds 16 1002 81 10000 6.18 211 01:43 12.07.2022
1086 Clouds 16 1000 81 10000 3.67 183 22:52 11.07.2022
1087 Clouds 16 1000 80 10000 3.59 164 21:45 11.07.2022
1088 Clouds 16 1000 83 10000 4.29 165 20:33 11.07.2022
1089 Rain 15 1001 98 10000 1.92 152 19:33 11.07.2022
1090 Rain 14 1000 99 10000 1.77 186 18:32 11.07.2022
1091 Rain 14 1000 99 10000 1.28 46 17:39 11.07.2022
1092 Rain 15 1000 98 10000 1.61 23 16:18 11.07.2022
1093 Clouds 15 1002 97 10000 1.01 40 14:32 11.07.2022
1094 Clouds 14 1002 97 10000 1.31 37 11:40 11.07.2022
1095 Rain 14 1002 97 10000 2.39 50 10:22 11.07.2022
1096 Rain 14 1002 96 10000 2.18 42 09:42 11.07.2022
1097 Rain 14 1002 96 10000 2.81 44 08:33 11.07.2022
1098 Rain 15 1004 91 10000 2.58 38 05:51 11.07.2022
1099 Clouds 16 1006 71 10000 1.94 48 00:22 11.07.2022
1100 Clouds 15 1006 74 10000 1.98 40 22:56 10.07.2022
1101 Clouds 15 1006 73 10000 1.78 49 21:51 10.07.2022
1102 Clouds 15 1006 70 10000 2.17 38 20:54 10.07.2022
1103 Clouds 15 1005 68 10000 1.85 44 19:50 10.07.2022
1104 Clouds 15 1005 67 10000 2.17 47 18:49 10.07.2022
1105 Clouds 15 1006 65 10000 1.69 41 17:37 10.07.2022
1106 Clouds 15 1006 65 10000 1.18 52 16:57 10.07.2022
1107 Clouds 16 1006 64 10000 1.25 91 15:33 10.07.2022
1108 Clouds 16 1006 64 10000 1.3 94 14:30 10.07.2022
1109 Clouds 20 1005 55 10000 1.52 82 12:30 10.07.2022
1110 Clouds 22 1005 44 10000 1.85 126 11:25 10.07.2022
1111 Clouds 22 1005 39 10000 2.44 135 08:46 10.07.2022
1112 Clouds 21 1005 42 10000 2.83 129 07:59 10.07.2022
1113 Clouds 16 1008 58 10000 1.7 128 02:50 10.07.2022
1114 Clouds 12 1009 71 10000 1.69 85 23:30 09.07.2022
1115 Clouds 10 1010 82 10000 1.51 80 22:25 09.07.2022
1116 Clouds 9 1011 87 10000 1.47 69 21:29 09.07.2022
1117 Clouds 6 1012 95 10000 1.81 66 18:45 09.07.2022
1118 Clouds 6 1011 95 10000 2.19 60 17:59 09.07.2022
1119 Clouds 7 1012 94 10000 2.35 64 16:59 09.07.2022
1120 Clouds 7 1012 92 10000 2.41 65 15:44 09.07.2022
1121 Clouds 9 1012 87 10000 2.61 67 15:25 09.07.2022
1122 Clouds 10 1012 77 10000 4.72 90 13:51 09.07.2022
1123 Clouds 12 1012 68 10000 4.62 116 12:53 09.07.2022
1124 Clouds 13 1011 63 10000 5.15 134 11:33 09.07.2022
1125 Clouds 14 1011 58 10000 3.27 153 10:23 09.07.2022
1126 Clouds 14 1010 56 10000 2.69 155 08:25 09.07.2022
1127 Clouds 14 1011 56 10000 2.57 158 06:58 09.07.2022
1128 Clouds 11 1011 65 10000 2.06 183 04:34 09.07.2022
1129 Rain 5 1007 90 10000 1.25 277 23:22 08.07.2022
1130 Rain 5 1007 91 10000 2.02 288 21:59 08.07.2022
1131 Rain 5 1006 90 10000 3.32 304 21:18 08.07.2022
1132 Rain 5 1006 90 10000 3.32 304 20:30 08.07.2022
1133 Rain 5 1003 88 10000 5.57 313 18:33 08.07.2022
1134 Rain 6 1001 88 10000 5.09 314 17:33 08.07.2022
1135 Rain 6 1001 88 10000 5.09 314 17:33 08.07.2022
1136 Rain 7 999 90 10000 4.72 328 15:30 08.07.2022
1137 Rain 7 998 88 10000 4.46 330 14:49 08.07.2022
1138 Rain 8 995 88 10000 6.06 352 12:28 08.07.2022
1139 Rain 9 994 88 10000 5.93 1 10:45 08.07.2022
1140 Clouds 9 993 89 10000 6.57 0 08:55 08.07.2022
1141 Rain 8 992 89 10000 4.46 344 06:55 08.07.2022
1142 Clouds 10 991 88 10000 4.28 345 04:31 08.07.2022
1143 Rain 12 988 92 10000 6.51 29 23:56 07.07.2022
1144 Rain 12 988 92 9656 6.67 31 22:47 07.07.2022
1145 Rain 12 988 92 10000 8.32 32 21:39 07.07.2022
1146 Rain 12 988 95 4597 6.66 26 18:43 07.07.2022
1147 Rain 11 990 98 3300 4.86 27 17:41 07.07.2022
1148 Rain 11 993 97 9790 2.02 43 15:34 07.07.2022
1149 Rain 12 995 96 10000 1.85 39 13:30 07.07.2022
1150 Rain 12 996 95 10000 1.58 47 12:40 07.07.2022
1151 Rain 12 996 92 10000 1.03 116 12:21 07.07.2022
1152 Rain 12 996 92 10000 1.03 116 11:31 07.07.2022
1153 Rain 13 997 86 10000 1.88 135 10:44 07.07.2022
1154 Clouds 15 996 75 10000 1.69 106 10:26 07.07.2022
1155 Clouds 15 997 68 10000 1.17 106 07:58 07.07.2022
1156 Clouds 14 999 74 10000 0.59 198 04:44 07.07.2022
1157 Clouds 10 1001 88 10000 1.07 212 23:37 06.07.2022
1158 Clouds 10 1001 87 10000 0.43 249 23:19 06.07.2022
1159 Clouds 10 1001 87 10000 0.43 249 22:57 06.07.2022
1160 Clouds 10 1001 87 10000 0.43 249 22:39 06.07.2022
1161 Clouds 10 1002 89 10000 1.02 231 21:59 06.07.2022
1162 Clouds 10 1002 86 10000 1.48 209 19:41 06.07.2022
1163 Clouds 10 1002 86 10000 1.72 215 18:41 06.07.2022
1164 Clouds 10 1002 87 10000 1.31 247 16:43 06.07.2022
1165 Clouds 10 1003 87 10000 1.38 239 15:28 06.07.2022
1166 Clouds 10 1003 85 10000 1.39 268 12:44 06.07.2022
1167 Clouds 10 1003 86 10000 1.34 298 11:49 06.07.2022
1168 Clouds 9 1002 89 10000 1.47 351 10:22 06.07.2022
1169 Rain 8 1003 90 10000 1.59 329 08:41 06.07.2022
1170 Rain 8 1003 92 10000 2.48 359 07:36 06.07.2022
1171 Rain 8 1003 93 8801 3.06 9 05:31 06.07.2022
1172 Clouds 9 1006 70 10000 3.62 20 22:49 05.07.2022
1173 Clouds 10 1007 67 10000 3.32 15 21:59 05.07.2022
1174 Clouds 9 1007 68 10000 3.05 15 20:42 05.07.2022
1175 Clouds 9 1008 68 10000 3.65 3 19:44 05.07.2022
1176 Clouds 9 1008 69 10000 3.4 357 19:25 05.07.2022
1177 Clouds 9 1008 71 10000 3.55 2 17:48 05.07.2022
1178 Clouds 9 1008 71 10000 4.52 7 16:56 05.07.2022
1179 Clouds 10 1008 68 10000 5.16 14 15:38 05.07.2022
1180 Clouds 11 1007 64 10000 6.94 16 14:33 05.07.2022
1181 Clouds 12 1006 58 10000 8.76 20 12:48 05.07.2022
1182 Clouds 14 1005 52 10000 9.29 16 11:52 05.07.2022
1183 Clouds 14 1003 52 10000 9.56 19 10:42 05.07.2022
1184 Clouds 27 998 27 10000 7.4 313 09:24 05.07.2022
1185 Clouds 28 997 25 10000 6.99 276 08:18 05.07.2022
1186 Clouds 28 997 26 10000 8.29 260 05:45 05.07.2022
1187 Clouds 28 997 29 10000 9.21 254 04:25 05.07.2022
1188 Clouds 26 996 36 10000 8.59 240 00:38 05.07.2022
1189 Clouds 25 997 44 10000 7.61 227 23:34 04.07.2022
1190 Clouds 24 997 48 10000 4.9 232 22:50 04.07.2022
1191 Clouds 22 997 54 10000 3.2 230 21:48 04.07.2022
1192 Clouds 21 997 62 10000 3.12 215 20:54 04.07.2022
1193 Clouds 21 997 62 10000 3.12 215 20:34 04.07.2022
1194 Clouds 19 997 67 10000 3.18 206 19:55 04.07.2022
1195 Clouds 20 997 60 10000 2.7 241 19:36 04.07.2022
1196 Clouds 21 996 67 10000 4.54 271 18:26 04.07.2022
1197 Clouds 23 995 72 10000 5.56 249 16:34 04.07.2022
1198 Clouds 23 994 69 10000 5.42 237 15:34 04.07.2022
1199 Clouds 28 993 45 10000 6.79 224 13:33 04.07.2022
1200 Clouds 30 993 39 10000 6.27 240 12:36 04.07.2022
1201 Clouds 32 993 32 10000 6.2 224 10:35 04.07.2022
1202 Clear 33 993 29 10000 5.31 219 09:53 04.07.2022
1203 Clear 32 994 27 10000 3.52 216 08:31 04.07.2022
1204 Clouds 29 997 30 10000 2.13 151 05:18 04.07.2022
1205 Clouds 23 999 49 10000 1.77 63 00:42 04.07.2022
1206 Clouds 21 1000 56 10000 1.95 38 23:25 03.07.2022
1207 Clouds 20 1000 60 10000 1.69 22 21:58 03.07.2022
1208 Clouds 18 1000 64 10000 2.26 9 20:41 03.07.2022
1209 Clouds 17 1000 67 10000 2.65 12 19:42 03.07.2022
1210 Clouds 17 1000 63 10000 3.23 6 19:23 03.07.2022
1211 Clouds 18 999 56 10000 2.85 7 17:45 03.07.2022
1212 Clouds 20 999 49 10000 1.48 7 16:54 03.07.2022
1213 Clouds 22 998 44 10000 1.06 161 15:24 03.07.2022
1214 Clouds 22 998 44 10000 1.06 161 14:32 03.07.2022
1215 Clouds 24 998 43 10000 1.38 122 13:48 03.07.2022
1216 Clouds 25 998 40 10000 1.94 130 12:41 03.07.2022
1217 Clouds 27 998 36 10000 2.61 119 11:39 03.07.2022
1218 Clouds 29 998 29 10000 1.97 135 10:39 03.07.2022
1219 Clouds 29 998 27 10000 1.57 172 09:59 03.07.2022
1220 Clouds 28 999 29 10000 2.75 222 07:36 03.07.2022
1221 Clouds 27 1001 31 10000 3.26 193 05:18 03.07.2022
1222 Clouds 20 1003 41 10000 1.48 129 00:23 03.07.2022
1223 Clouds 19 1003 45 10000 1.64 106 22:35 02.07.2022
1224 Clouds 17 1004 49 10000 1.45 93 21:38 02.07.2022
1225 Clouds 15 1005 55 10000 1.47 97 19:53 02.07.2022
1226 Clouds 15 1005 55 10000 1.47 97 19:31 02.07.2022
1227 Clouds 15 1005 54 10000 1.51 96 17:58 02.07.2022
1228 Clouds 15 1005 54 10000 1.51 96 17:36 02.07.2022
1229 Clouds 17 1005 51 10000 1.94 123 15:32 02.07.2022
1230 Clouds 22 1006 34 10000 2.43 122 12:24 02.07.2022
1231 Clouds 23 1006 32 10000 2.24 130 11:28 02.07.2022
1232 Clouds 23 1006 32 10000 2.24 130 10:48 02.07.2022
1233 Clouds 23 1006 31 10000 1.82 134 09:49 02.07.2022
1234 Clouds 23 1006 32 10000 2.06 125 08:36 02.07.2022
1235 Clouds 22 1006 32 10000 2.01 119 08:18 02.07.2022
1236 Clouds 19 1008 41 10000 2.46 99 02:53 02.07.2022
1237 Clouds 16 1009 55 10000 1.63 87 00:27 02.07.2022
1238 Clouds 15 1009 62 10000 1.16 75 22:59 01.07.2022
1239 Clouds 14 1009 66 10000 0.46 70 22:19 01.07.2022
1240 Clouds 14 1009 66 10000 0.46 70 21:37 01.07.2022
1241 Clouds 13 1009 70 10000 0.81 87 20:58 01.07.2022
1242 Clouds 12 1009 73 10000 1.28 66 19:48 01.07.2022
1243 Clouds 10 1010 79 10000 1.05 3 19:22 01.07.2022
1244 Clouds 10 1009 79 10000 1.04 71 16:38 01.07.2022
1245 Clouds 14 1008 63 10000 3.3 44 14:27 01.07.2022
1246 Clouds 16 1007 53 10000 4.8 32 13:23 01.07.2022
1247 Clouds 18 1006 50 10000 4.42 16 10:53 01.07.2022
1248 Clouds 18 1005 52 10000 4.82 19 10:19 01.07.2022
1249 Rain 14 1004 84 10000 3.91 28 06:20 01.07.2022
1250 Clouds 16 1002 64 10000 1.41 50 01:57 01.07.2022
1251 Clouds 15 1002 69 10000 0.92 109 23:34 30.06.2022
1252 Clouds 13 1002 74 10000 1.07 86 22:50 30.06.2022
1253 Clouds 13 1002 74 10000 1.07 86 22:31 30.06.2022
1254 Rain 13 1002 77 10000 1.64 26 21:53 30.06.2022
1255 Rain 13 1002 69 10000 0.89 330 20:45 30.06.2022
1256 Clouds 14 1001 62 10000 0.73 207 20:18 30.06.2022
1257 Clouds 14 1001 62 10000 1.08 218 19:47 30.06.2022
1258 Clouds 14 1001 60 10000 1.08 132 18:52 30.06.2022
1259 Clouds 14 1002 58 10000 1.66 164 17:53 30.06.2022
1260 Clouds 12 1002 64 10000 1.5 181 17:18 30.06.2022
1261 Clouds 13 1001 62 10000 1.83 187 15:56 30.06.2022
1262 Clouds 16 1002 55 10000 0.41 68 13:59 30.06.2022
1263 Clouds 17 1002 51 10000 2.85 20 13:20 30.06.2022
1264 Clouds 17 1002 51 10000 2.85 20 12:33 30.06.2022
1265 Clouds 20 1000 41 10000 2.41 308 10:49 30.06.2022
1266 Clouds 20 1000 36 10000 2.75 229 09:47 30.06.2022
1267 Clouds 20 1000 36 10000 3.99 288 09:23 30.06.2022
1268 Clouds 21 999 35 10000 3.23 331 07:41 30.06.2022
1269 Clouds 20 999 36 10000 3.6 300 05:46 30.06.2022
1270 Clouds 15 1000 48 10000 1.6 185 23:56 29.06.2022
1271 Clouds 14 1000 53 10000 1.37 147 22:42 29.06.2022
1272 Clouds 12 1001 57 10000 1.26 127 22:20 29.06.2022
1273 Clouds 11 1001 61 10000 1.45 98 20:54 29.06.2022
1274 Clouds 11 1001 61 10000 1.45 98 20:32 29.06.2022
1275 Clouds 11 1001 61 10000 1.45 98 20:32 29.06.2022
1276 Clouds 10 1002 64 10000 1.6 92 19:33 29.06.2022
1277 Clouds 10 1002 63 10000 1.75 83 17:40 29.06.2022
1278 Clouds 10 1003 62 10000 1.69 89 16:31 29.06.2022
1279 Clouds 13 1004 53 10000 2.27 97 14:19 29.06.2022
1280 Clouds 15 1004 51 10000 0.74 141 12:38 29.06.2022
1281 Clouds 16 1005 41 10000 1.79 212 10:20 29.06.2022
1282 Clouds 16 1005 41 10000 1.79 212 09:31 29.06.2022
1283 Clouds 14 1005 45 10000 1.58 237 07:23 29.06.2022
1284 Clouds 13 1006 47 10000 1.39 214 04:49 29.06.2022
1285 Clouds 9 1006 57 10000 0.74 26 00:55 29.06.2022
1286 Clouds 9 1006 57 10000 0.74 26 00:35 29.06.2022
1287 Clouds 8 1006 65 10000 0.9 14 22:53 28.06.2022
1288 Clouds 7 1005 71 10000 0.86 14 22:23 28.06.2022
1289 Clouds 7 1005 71 10000 0.86 14 21:53 28.06.2022
1290 Clouds 7 1005 71 10000 0.86 14 21:31 28.06.2022
1291 Clouds 5 1005 81 10000 1.62 0 20:27 28.06.2022
1292 Clouds 6 1004 74 10000 1 304 19:32 28.06.2022
1293 Clouds 5 1004 78 10000 0.9 304 18:44 28.06.2022
1294 Clouds 4 1003 83 10000 0.83 311 17:38 28.06.2022
1295 Clouds 5 1003 80 10000 0.84 314 15:57 28.06.2022
1296 Clouds 7 1003 73 10000 0.85 344 15:21 28.06.2022
1297 Clouds 8 1002 68 10000 1.42 16 14:20 28.06.2022
1298 Clouds 9 1002 71 10000 1.3 196 13:50 28.06.2022
1299 Clouds 9 1002 65 10000 0.42 103 12:54 28.06.2022
1300 Clouds 10 1001 63 10000 2.35 25 10:57 28.06.2022
1301 Clouds 8 1001 70 10000 2.63 6 09:25 28.06.2022
1302 Clouds 8 1001 70 10000 2.63 6 08:43 28.06.2022
1303 Clouds 5 1001 86 10000 2.97 347 07:42 28.06.2022
1304 Clouds 6 999 84 10000 3.43 353 05:58 28.06.2022
1305 Clouds 5 998 88 10000 0.91 325 00:00 28.06.2022
1306 Clouds 5 997 86 10000 1.37 321 23:36 27.06.2022
1307 Clouds 4 997 89 10000 0.84 271 22:52 27.06.2022
1308 Clouds 4 997 90 10000 0.67 296 21:33 27.06.2022
1309 Clouds 4 998 90 10000 0.57 300 20:48 27.06.2022
1310 Clouds 3 998 93 10000 1.04 265 18:58 27.06.2022
1311 Clouds 3 998 93 10000 0.94 290 18:24 27.06.2022
1312 Clouds 3 999 93 10000 1.03 242 16:19 27.06.2022
1313 Clouds 3 999 93 10000 1.27 272 14:45 27.06.2022
1314 Clouds 3 999 93 10000 1.19 280 13:35 27.06.2022
1315 Clouds 3 1000 93 10000 1.15 256 12:52 27.06.2022
1316 Rain 3 1000 95 10000 1.29 305 10:34 27.06.2022
1317 Rain 2 1001 98 1881 1.67 330 09:18 27.06.2022
1318 Rain 3 1000 96 3090 2.4 358 08:19 27.06.2022
1319 Rain 3 1001 92 7855 3.35 5 06:38 27.06.2022
1320 Clouds 5 1003 76 10000 2.7 20 03:24 27.06.2022
1321 Clouds 4 1003 86 10000 3.45 17 23:56 26.06.2022
1322 Clouds 6 1002 77 10000 2.48 4 22:18 26.06.2022
1323 Clouds 5 1002 79 10000 2.59 20 20:44 26.06.2022
1324 Clouds 5 1002 83 10000 2.51 17 19:40 26.06.2022
1325 Rain 5 1002 86 10000 2.46 10 18:31 26.06.2022
1326 Rain 4 1002 92 6784 2 18 16:47 26.06.2022
1327 Rain 5 1002 92 10000 4 18 15:26 26.06.2022
1328 Rain 4 1003 91 8806 3.27 355 13:41 26.06.2022
1329 Rain 4 1002 90 10000 2.83 33 13:20 26.06.2022
1330 Rain 6 1001 83 6961 5.46 22 11:26 26.06.2022
1331 Rain 7 1001 74 10000 5.59 26 10:28 26.06.2022
1332 Rain 7 1001 74 10000 5.59 26 09:34 26.06.2022
1333 Clouds 11 1000 61 10000 6.86 27 07:45 26.06.2022
1334 Clouds 13 997 67 10000 6.14 21 02:28 26.06.2022
1335 Clouds 13 996 74 10000 5.55 27 00:21 26.06.2022
1336 Clouds 13 996 74 10000 5.55 27 23:50 25.06.2022
1337 Clouds 14 995 75 10000 2.96 33 23:23 25.06.2022
1338 Clouds 14 995 77 10000 5.54 16 22:27 25.06.2022
1339 Clouds 14 995 77 10000 5.54 16 21:41 25.06.2022
1340 Clouds 15 993 78 10000 3.28 21 21:18 25.06.2022
1341 Clouds 14 993 80 10000 1.76 50 20:28 25.06.2022
1342 Clouds 16 992 81 10000 1.41 77 19:42 25.06.2022
1343 Clouds 17 992 70 10000 2.12 186 18:19 25.06.2022
1344 Clouds 17 993 71 10000 2.05 185 17:24 25.06.2022
1345 Clouds 18 993 72 10000 2.33 195 15:36 25.06.2022
1346 Clouds 19 993 64 10000 3.14 237 13:48 25.06.2022
1347 Rain 19 993 65 10000 4.97 278 12:38 25.06.2022
1348 Clouds 20 992 58 10000 2.12 345 10:45 25.06.2022
1349 Clouds 29 990 25 10000 8.3 278 09:22 25.06.2022
1350 Clouds 29 990 25 10000 8.3 278 08:41 25.06.2022
1351 Clouds 29 991 28 10000 5.99 234 08:19 25.06.2022
1352 Clouds 23 995 38 10000 4.85 256 05:23 25.06.2022
1353 Clouds 16 1000 40 10000 2.43 177 00:43 25.06.2022
1354 Clouds 12 1002 45 10000 1.06 99 22:56 24.06.2022
1355 Clouds 11 1003 44 10000 0.98 90 21:44 24.06.2022
1356 Clouds 10 1003 43 10000 1.19 92 20:57 24.06.2022
1357 Clouds 9 1004 48 10000 1.72 64 20:19 24.06.2022
1358 Clouds 8 1005 51 10000 1.57 48 19:22 24.06.2022
1359 Clouds 8 1005 51 10000 1.57 48 18:49 24.06.2022
1360 Clouds 8 1005 51 10000 1.57 48 18:30 24.06.2022
1361 Clouds 8 1005 51 10000 1.77 55 17:41 24.06.2022
1362 Clouds 10 1005 50 10000 2.64 55 15:51 24.06.2022
1363 Clouds 14 1005 46 10000 4.51 57 14:28 24.06.2022
1364 Clouds 14 1005 46 10000 4.51 57 13:55 24.06.2022
1365 Clouds 16 1004 38 10000 4.37 44 11:45 24.06.2022
1366 Clouds 17 1004 36 10000 3.73 38 11:22 24.06.2022
1367 Clouds 17 1004 35 10000 3.53 36 10:22 24.06.2022
1368 Clouds 17 1004 35 10000 3.53 36 09:40 24.06.2022
1369 Clouds 17 1004 34 10000 3.32 19 08:52 24.06.2022
1370 Clouds 16 1004 34 10000 0.93 330 06:58 24.06.2022
1371 Clouds 16 1004 34 10000 0.93 330 06:40 24.06.2022
1372 Clouds 16 1004 35 10000 0.98 346 05:57 24.06.2022
1373 Clouds 14 1006 40 10000 2.62 58 02:31 24.06.2022
1374 Clouds 9 1008 47 10000 2.37 36 22:57 23.06.2022
1375 Clouds 9 1008 47 10000 2.37 36 22:38 23.06.2022
1376 Clouds 7 1008 56 10000 2.48 34 20:57 23.06.2022
1377 Clouds 7 1008 56 10000 2.48 34 20:32 23.06.2022
1378 Clouds 6 1009 64 10000 2.47 29 19:24 23.06.2022
1379 Clear 6 1009 65 10000 2.85 32 17:51 23.06.2022
1380 Clear 7 1008 64 10000 2.86 38 16:58 23.06.2022
1381 Clear 9 1008 55 10000 4.77 44 15:49 23.06.2022
1382 Clear 11 1008 49 10000 5.53 42 15:24 23.06.2022
1383 Clouds 13 1007 43 10000 5.91 32 13:33 23.06.2022
1384 Clouds 16 1005 39 10000 4.53 38 11:27 23.06.2022
1385 Clouds 16 1005 39 10000 4.53 38 10:31 23.06.2022
1386 Clouds 17 1005 38 10000 3.16 33 08:49 23.06.2022
1387 Clouds 13 1007 55 10000 1.22 297 02:46 23.06.2022
1388 Clouds 10 1008 71 10000 2.36 24 00:26 23.06.2022
1389 Clouds 9 1008 76 10000 2.79 18 23:27 22.06.2022
1390 Clouds 9 1008 76 10000 2.79 18 22:39 22.06.2022
1391 Clouds 8 1008 86 10000 3.46 13 21:22 22.06.2022
1392 Clouds 8 1008 86 10000 3.46 13 20:34 22.06.2022
1393 Clouds 8 1008 87 10000 3.26 0 19:56 22.06.2022
1394 Rain 9 1007 89 10000 3.59 12 18:40 22.06.2022
1395 Clouds 10 1005 87 10000 4.21 13 17:27 22.06.2022
1396 Clouds 11 1004 88 10000 4.49 19 16:24 22.06.2022
1397 Rain 13 1003 86 10000 4.49 25 15:26 22.06.2022
1398 Clouds 15 1002 81 10000 3.25 21 14:19 22.06.2022
1399 Rain 15 1002 81 10000 3.05 17 13:37 22.06.2022
1400 Rain 15 1001 77 10000 3.23 4 13:18 22.06.2022
1401 Rain 19 1000 52 10000 3.19 326 11:49 22.06.2022
1402 Clouds 20 1000 48 10000 2.95 291 10:55 22.06.2022
1403 Clouds 19 1000 54 10000 3.56 279 10:19 22.06.2022
1404 Clouds 17 1000 68 10000 2 187 08:27 22.06.2022
1405 Clouds 23 999 32 10000 6.23 245 03:50 22.06.2022
1406 Clouds 19 1001 39 10000 5.51 210 01:23 22.06.2022
1407 Clouds 18 1002 35 10000 4.69 200 00:24 22.06.2022
1408 Clouds 15 1004 38 10000 2.06 167 22:18 21.06.2022
1409 Clouds 12 1005 41 10000 1.83 150 19:55 21.06.2022
1410 Clear 11 1005 41 10000 1.52 134 18:35 21.06.2022
1411 Clear 11 1005 41 10000 1.36 112 17:39 21.06.2022
1412 Clouds 16 1006 36 10000 3.01 96 13:54 21.06.2022
1413 Clear 18 1005 28 10000 0.87 57 11:37 21.06.2022
1414 Clear 18 1006 27 10000 0.27 12 09:54 21.06.2022
1415 Clear 18 1006 27 10000 0.31 182 08:48 21.06.2022
1416 Clear 17 1006 31 10000 0.7 142 06:36 21.06.2022
1417 Clear 11 1010 43 10000 1.39 102 01:43 21.06.2022
1418 Clear 7 1011 55 10000 1.1 51 23:25 20.06.2022
1419 Clear 6 1012 58 10000 1.4 39 21:55 20.06.2022
1420 Clear 5 1012 61 10000 1.45 34 20:53 20.06.2022
1421 Clear 4 1012 64 10000 1.62 24 19:44 20.06.2022
1422 Clear 4 1012 66 10000 2.4 13 18:48 20.06.2022
1423 Clear 4 1012 65 10000 2.68 1 18:20 20.06.2022
1424 Clear 4 1012 65 10000 2.68 1 17:36 20.06.2022
1425 Clear 6 1012 60 10000 2.95 352 15:58 20.06.2022
1426 Clouds 10 1011 49 10000 4.51 9 13:34 20.06.2022
1427 Clouds 11 1009 43 10000 6.17 12 11:25 20.06.2022
1428 Clouds 12 1009 42 10000 6.79 14 09:47 20.06.2022
1429 Clouds 12 1008 42 10000 7.36 16 08:45 20.06.2022
1430 Clouds 12 1007 43 10000 7.48 18 06:49 20.06.2022
1431 Clouds 12 1006 45 10000 7.19 21 03:20 20.06.2022
1432 Clouds 11 1005 49 10000 7.04 14 00:37 20.06.2022
1433 Clouds 10 1004 55 10000 4.83 39 23:25 19.06.2022
1434 Clouds 10 1003 57 10000 4.68 45 22:18 19.06.2022
1435 Clouds 10 1003 57 10000 4.68 45 21:41 19.06.2022
1436 Clouds 10 1003 58 10000 4.94 58 20:46 19.06.2022
1437 Clouds 8 1003 64 10000 2.99 70 19:48 19.06.2022
1438 Clouds 8 1002 68 10000 2.64 80 19:24 19.06.2022
1439 Clouds 8 1002 68 10000 2.64 80 18:31 19.06.2022
1440 Clouds 8 1001 69 10000 3.1 74 17:39 19.06.2022
1441 Clouds 9 1000 66 10000 3.98 58 16:38 19.06.2022
1442 Clouds 11 999 62 10000 5.02 51 15:44 19.06.2022
1443 Clouds 12 998 59 10000 5.76 42 15:26 19.06.2022
1444 Clear 12 998 68 10000 2.82 28 14:35 19.06.2022
1445 Clouds 13 997 67 10000 6.5 28 13:44 19.06.2022
1446 Clouds 19 994 41 10000 5.89 305 11:53 19.06.2022
1447 Clouds 20 993 48 10000 6.85 290 10:52 19.06.2022
1448 Clouds 23 992 40 10000 9.13 263 08:55 19.06.2022
1449 Clouds 23 992 40 10000 9.13 263 08:31 19.06.2022
1450 Rain 19 994 60 10000 10.4 226 06:54 19.06.2022
1451 Clouds 26 994 25 10000 11.5 243 03:57 19.06.2022
1452 Clouds 22 996 31 10000 7.28 226 00:51 19.06.2022
1453 Clouds 19 997 36 10000 4.55 204 00:22 19.06.2022
1454 Clouds 19 997 36 10000 4.55 204 23:35 18.06.2022
1455 Clouds 18 997 40 10000 3.57 198 22:30 18.06.2022
1456 Clouds 16 998 51 10000 2.83 193 20:51 18.06.2022
1457 Clouds 15 999 51 10000 3.19 183 20:18 18.06.2022
1458 Clouds 15 999 50 10000 2.51 177 18:57 18.06.2022
1459 Clouds 15 999 50 10000 2.51 177 18:38 18.06.2022
1460 Clouds 15 999 47 10000 1.87 134 17:29 18.06.2022
1461 Clouds 16 1000 46 10000 1.97 125 16:18 18.06.2022
1462 Clouds 17 1000 45 10000 2.01 124 14:58 18.06.2022
1463 Clouds 17 1000 45 10000 2.01 124 14:37 18.06.2022
1464 Clouds 20 1001 38 10000 3.1 146 12:31 18.06.2022
1465 Clouds 22 1001 30 10000 2.82 168 11:29 18.06.2022
1466 Clouds 22 1002 29 10000 2.46 191 10:23 18.06.2022
1467 Clouds 21 1002 30 10000 2.68 201 09:19 18.06.2022
1468 Clouds 20 1003 30 10000 2.43 208 07:58 18.06.2022
1469 Clouds 19 1004 31 10000 2.55 214 06:24 18.06.2022
1470 Clouds 15 1007 34 10000 1.21 169 02:53 18.06.2022
1471 Clouds 13 1008 37 10000 0.36 221 01:23 18.06.2022
1472 Clouds 13 1008 37 10000 0.36 221 00:39 18.06.2022
1473 Clouds 12 1008 40 10000 0.17 25 23:43 17.06.2022
1474 Clouds 11 1008 43 10000 0.76 44 22:49 17.06.2022
1475 Clouds 9 1009 49 10000 1.24 6 20:40 17.06.2022
1476 Clouds 7 1009 54 10000 1.6 8 19:25 17.06.2022
1477 Clouds 7 1009 52 10000 2.05 6 18:24 17.06.2022
1478 Clouds 7 1009 52 10000 2.05 6 17:34 17.06.2022
1479 Clear 8 1009 50 10000 2.18 17 16:38 17.06.2022
1480 Clear 9 1009 46 10000 2.81 10 15:42 17.06.2022
1481 Clear 11 1008 43 10000 2.34 10 14:46 17.06.2022
1482 Clouds 13 1008 39 10000 2.4 4 14:19 17.06.2022
1483 Clouds 13 1008 39 10000 2.36 3 13:42 17.06.2022
1484 Clouds 14 1008 33 10000 3.89 8 12:42 17.06.2022
1485 Clouds 14 1008 32 10000 5.06 7 11:56 17.06.2022
1486 Clouds 14 1008 32 10000 5.06 7 11:35 17.06.2022
1487 Clouds 16 1007 33 10000 5.59 10 09:59 17.06.2022
1488 Clouds 16 1007 35 10000 5.53 10 08:27 17.06.2022
1489 Clouds 16 1008 36 10000 5.13 8 06:57 17.06.2022
1490 Clouds 15 1009 39 10000 4.82 7 04:52 17.06.2022
1491 Clouds 13 1009 44 10000 5.06 8 02:42 17.06.2022
1492 Clouds 11 1010 55 10000 4.13 4 00:33 17.06.2022
1493 Clouds 8 1010 67 10000 3.85 354 22:44 16.06.2022
1494 Clouds 8 1010 72 10000 4.25 356 21:36 16.06.2022
1495 Clouds 7 1010 75 10000 3.87 348 21:18 16.06.2022
1496 Clouds 7 1010 75 10000 3.87 348 20:36 16.06.2022
1497 Clouds 6 1009 76 10000 2.17 314 19:55 16.06.2022
1498 Clouds 6 1009 78 10000 2.59 318 18:28 16.06.2022
1499 Clouds 6 1009 78 10000 2.59 318 17:43 16.06.2022
1500 Clouds 7 1009 74 10000 3.06 329 16:40 16.06.2022
1501 Clouds 10 1008 64 10000 4.17 339 15:24 16.06.2022
1502 Clouds 10 1008 64 10000 4.17 339 14:46 16.06.2022
1503 Clouds 13 1006 57 10000 5.16 341 13:34 16.06.2022
1504 Clouds 15 1006 52 10000 6.59 354 12:37 16.06.2022
1505 Clouds 16 1005 48 10000 8.11 359 11:53 16.06.2022
1506 Clouds 18 1005 45 10000 8.44 10 11:18 16.06.2022
1507 Clouds 18 1005 45 10000 8.44 10 10:32 16.06.2022
1508 Clouds 19 1004 44 10000 8 8 09:25 16.06.2022
1509 Clouds 19 1004 44 10000 8 8 08:46 16.06.2022
1510 Clouds 18 1005 46 10000 6.96 6 07:29 16.06.2022
1511 Clouds 18 1005 46 10000 6.54 3 05:31 16.06.2022
1512 Clouds 16 1006 49 10000 6.38 6 02:54 16.06.2022
1513 Clouds 15 1005 51 10000 5.79 4 01:51 16.06.2022
1514 Clouds 14 1005 53 10000 5.25 7 01:21 16.06.2022
1515 Clouds 14 1005 53 10000 5.25 7 01:21 16.06.2022
1516 Clouds 14 1005 55 10000 4.72 5 23:56 15.06.2022
1517 Clouds 14 1005 55 10000 4.72 5 23:56 15.06.2022
1518 Clouds 13 1005 58 10000 4.24 358 22:45 15.06.2022
1519 Clouds 12 1004 65 10000 3.05 336 21:28 15.06.2022
1520 Clouds 12 1004 65 10000 3.05 336 20:57 15.06.2022
1521 Clouds 12 1004 65 10000 3.05 336 20:35 15.06.2022
1522 Clouds 12 1004 68 10000 2.99 325 19:46 15.06.2022
1523 Clouds 12 1004 69 10000 2.37 311 18:30 15.06.2022
1524 Clouds 12 1003 71 10000 2.6 316 17:42 15.06.2022
1525 Clouds 15 1002 59 10000 3.01 327 16:20 15.06.2022
1526 Clouds 18 1002 48 10000 4.01 345 14:37 15.06.2022
1527 Clouds 21 1002 36 10000 5.3 18 13:20 15.06.2022
1528 Clouds 21 1002 36 10000 5.3 18 12:39 15.06.2022
1529 Clouds 23 1001 29 10000 6.4 9 11:22 15.06.2022
1530 Clouds 23 1001 30 10000 6.24 5 10:21 15.06.2022
1531 Clouds 23 1001 30 10000 6.24 5 10:21 15.06.2022
1532 Clouds 23 1001 32 10000 6.05 10 08:59 15.06.2022
1533 Clouds 23 1001 30 10000 6.9 19 07:32 15.06.2022
1534 Clouds 22 1001 36 10000 4.29 33 05:36 15.06.2022
1535 Clouds 21 1002 38 10000 3.83 17 02:40 15.06.2022
1536 Clouds 20 1002 43 10000 3.32 19 01:36 15.06.2022
1537 Clouds 18 1003 49 10000 2.42 16 00:19 15.06.2022
1538 Clouds 18 1003 49 10000 2.42 16 23:38 14.06.2022
1539 Clouds 17 1002 51 10000 1.82 20 22:46 14.06.2022
1540 Clouds 16 1002 55 10000 1.45 28 21:43 14.06.2022
1541 Clouds 15 1002 57 10000 2.05 26 20:58 14.06.2022
1542 Clouds 15 1002 57 10000 2.05 26 20:38 14.06.2022
1543 Clouds 15 1002 57 10000 0.48 5 19:47 14.06.2022
1544 Clouds 14 1002 56 10000 0.78 276 18:39 14.06.2022
1545 Clouds 15 1002 53 10000 0.88 256 16:53 14.06.2022
1546 Clouds 15 1002 53 10000 0.88 256 16:34 14.06.2022
1547 Clouds 15 1002 51 10000 0.74 234 15:41 14.06.2022
1548 Clouds 16 1002 49 10000 0.87 231 14:53 14.06.2022
1549 Clouds 18 1002 46 10000 0.65 230 13:59 14.06.2022
1550 Clouds 20 1002 39 10000 0.75 85 12:59 14.06.2022
1551 Clouds 21 1002 31 10000 0.6 163 11:58 14.06.2022
1552 Clouds 21 1002 31 10000 1.46 186 10:52 14.06.2022
1553 Clouds 21 1001 32 10000 1.89 188 10:28 14.06.2022
1554 Clouds 20 1002 33 10000 2.2 182 09:22 14.06.2022
1555 Clouds 20 1002 33 10000 2.2 182 08:37 14.06.2022
1556 Clouds 20 1002 33 10000 3.71 138 06:32 14.06.2022
1557 Clouds 19 1002 36 10000 2.25 155 03:52 14.06.2022
1558 Clouds 18 1003 40 10000 2.92 163 01:37 14.06.2022
1559 Clouds 16 1003 46 10000 3.18 156 00:21 14.06.2022
1560 Clouds 15 1002 50 10000 2.51 144 22:58 13.06.2022
1561 Clouds 14 1002 55 10000 2.19 133 22:23 13.06.2022
1562 Clouds 14 1002 55 10000 2.19 133 21:39 13.06.2022
1563 Clouds 13 1002 68 10000 2.19 111 19:59 13.06.2022
1564 Clouds 12 1002 73 10000 1.83 122 19:18 13.06.2022
1565 Clouds 13 1002 73 10000 1.85 106 17:56 13.06.2022
1566 Clouds 14 1001 70 10000 2.15 105 17:25 13.06.2022
1567 Clouds 14 1001 70 10000 2.15 105 16:31 13.06.2022
1568 Clouds 14 1002 68 10000 2.16 97 14:51 13.06.2022
1569 Clouds 14 1002 68 10000 2.16 97 14:31 13.06.2022
1570 Clouds 16 1002 63 10000 4.2 106 13:33 13.06.2022
1571 Clouds 17 1001 54 10000 4.43 143 12:23 13.06.2022
1572 Clouds 17 1001 53 10000 3.59 164 10:56 13.06.2022
1573 Clouds 19 1001 48 10000 6.03 191 10:26 13.06.2022
1574 Clouds 20 1000 39 10000 5.62 180 08:52 13.06.2022
1575 Clouds 20 1001 42 10000 8.88 180 06:53 13.06.2022
1576 Clouds 21 1000 37 10000 10.05 188 05:35 13.06.2022
1577 Clouds 22 1001 27 10000 7.63 121 02:27 13.06.2022
1578 Clouds 22 1001 27 10000 7.63 121 01:36 13.06.2022
1579 Clouds 19 1002 36 10000 3.61 86 23:49 12.06.2022
1580 Clouds 17 1003 40 10000 3.29 74 22:44 12.06.2022
1581 Clouds 16 1003 45 10000 2.84 70 21:58 12.06.2022
1582 Clouds 15 1003 47 10000 2.91 67 20:54 12.06.2022
1583 Clouds 14 1003 47 10000 3.03 69 20:18 12.06.2022
1584 Clouds 14 1003 47 10000 3.03 69 19:30 12.06.2022
1585 Clouds 14 1004 43 10000 3.17 73 17:41 12.06.2022
1586 Clouds 16 1004 42 10000 3.26 84 15:57 12.06.2022
1587 Clouds 17 1005 41 10000 3.15 81 14:52 12.06.2022
1588 Clouds 19 1005 38 10000 3.21 87 14:20 12.06.2022
1589 Clouds 19 1005 36 10000 4.88 89 13:49 12.06.2022
1590 Clouds 21 1005 30 10000 5.61 93 12:35 12.06.2022
1591 Clouds 22 1005 27 10000 5.74 91 11:36 12.06.2022
1592 Clouds 23 1005 23 10000 3.74 103 10:21 12.06.2022
1593 Clouds 23 1006 24 10000 3.43 115 08:54 12.06.2022
1594 Clouds 23 1006 24 10000 3.43 115 08:35 12.06.2022
1595 Clouds 22 1007 28 10000 2.83 144 07:32 12.06.2022
1596 Clouds 21 1007 25 10000 1.79 131 04:35 12.06.2022
1597 Clouds 20 1008 29 10000 1.83 144 02:38 12.06.2022
1598 Clouds 19 1008 28 10000 1.95 134 01:37 12.06.2022
1599 Clouds 18 1008 30 10000 1.86 127 00:58 12.06.2022
1600 Clouds 17 1008 32 10000 1.24 122 00:20 12.06.2022
1601 Clouds 17 1008 32 10000 1.24 122 23:40 11.06.2022
1602 Clouds 17 1008 35 10000 1.03 108 22:38 11.06.2022
1603 Clouds 17 1008 35 10000 1.03 108 22:38 11.06.2022
1604 Clouds 16 1008 38 10000 0.68 114 21:42 11.06.2022
1605 Clouds 14 1008 46 10000 0.41 105 20:34 11.06.2022
1606 Clouds 13 1008 47 10000 0.91 45 19:46 11.06.2022
1607 Clear 12 1008 44 10000 0.95 311 19:19 11.06.2022
1608 Clear 12 1008 44 10000 0.95 311 18:33 11.06.2022
1609 Clear 12 1008 42 10000 1.12 335 17:50 11.06.2022
1610 Clear 12 1008 40 10000 1.05 343 17:26 11.06.2022
1611 Clear 12 1008 40 10000 1.05 343 16:55 11.06.2022
1612 Clear 13 1008 39 10000 0.82 358 16:27 11.06.2022
1613 Clear 13 1008 39 10000 0.82 358 15:30 11.06.2022
1614 Clouds 17 1007 32 10000 2.38 45 13:53 11.06.2022
1615 Clouds 19 1007 29 10000 2.79 46 12:51 11.06.2022
1616 Clouds 20 1007 21 10000 3.09 56 10:46 11.06.2022
1617 Clouds 20 1007 21 10000 3.32 59 09:51 11.06.2022
1618 Clouds 20 1006 21 10000 3.53 63 09:18 11.06.2022
1619 Clouds 20 1006 20 10000 3.51 73 07:40 11.06.2022
1620 Clouds 20 1007 21 10000 4.08 82 06:25 11.06.2022
1621 Clouds 19 1007 22 10000 4.43 83 04:30 11.06.2022
1622 Clear 17 1008 29 10000 4.61 79 01:52 11.06.2022
1623 Clear 17 1008 29 10000 4.61 79 01:32 11.06.2022
1624 Clear 15 1008 35 10000 3.34 69 23:49 10.06.2022
1625 Clear 14 1008 39 10000 2.46 63 22:31 10.06.2022
1626 Clear 13 1008 42 10000 1.96 53 21:50 10.06.2022
1627 Clear 12 1008 46 10000 1.76 50 20:41 10.06.2022
1628 Clouds 11 1008 47 10000 1.84 58 20:22 10.06.2022
1629 Clouds 10 1008 50 10000 1.84 41 19:20 10.06.2022
1630 Clouds 10 1008 50 10000 1.84 41 18:56 10.06.2022
1631 Clouds 11 1007 50 10000 1.29 49 17:59 10.06.2022
1632 Clouds 11 1007 50 10000 1.29 49 17:35 10.06.2022
1633 Clouds 11 1007 48 10000 1.14 74 16:51 10.06.2022
1634 Clear 12 1007 46 10000 1.79 68 15:45 10.06.2022
1635 Clear 14 1007 43 10000 2.21 61 14:57 10.06.2022
1636 Clear 16 1007 40 10000 1.23 63 13:36 10.06.2022
1637 Clear 18 1007 28 10000 2.18 84 12:24 10.06.2022
1638 Clear 18 1007 28 10000 2.18 84 11:30 10.06.2022
1639 Clear 19 1008 28 10000 2.45 71 10:36 10.06.2022
1640 Clear 19 1008 28 10000 2.61 61 09:40 10.06.2022
1641 Clear 19 1008 26 10000 3.67 48 08:23 10.06.2022
1642 Clear 18 1009 23 10000 2.93 54 06:51 10.06.2022
1643 Clear 18 1009 23 10000 2.93 54 06:32 10.06.2022
1644 Clear 18 1009 23 10000 3.58 66 05:35 10.06.2022
1645 Clear 16 1011 25 10000 2.89 75 02:55 10.06.2022
1646 Clear 15 1012 26 10000 3.38 81 01:37 10.06.2022
1647 Clear 13 1013 29 10000 2.48 89 23:58 09.06.2022
1648 Clear 12 1013 32 10000 1.97 82 22:56 09.06.2022
1649 Clear 11 1014 35 10000 1.61 71 21:47 09.06.2022
1650 Clear 10 1014 39 10000 0.96 56 21:28 09.06.2022
1651 Clear 10 1014 39 10000 0.96 56 20:47 09.06.2022
1652 Clear 9 1015 42 10000 1.39 62 19:54 09.06.2022
1653 Clear 8 1015 41 10000 1.26 62 18:47 09.06.2022
1654 Clear 8 1015 39 10000 1.41 63 17:56 09.06.2022
1655 Clear 9 1014 37 10000 1.98 70 16:44 09.06.2022
1656 Clear 10 1015 36 10000 2.5 79 15:44 09.06.2022
1657 Clear 12 1014 34 10000 3.37 84 14:34 09.06.2022
1658 Clear 14 1014 29 10000 5.17 94 13:46 09.06.2022
1659 Clear 16 1014 26 10000 6.28 87 13:26 09.06.2022
1660 Clear 17 1013 22 10000 7.01 81 11:53 09.06.2022
1661 Clear 19 1013 20 10000 6.36 52 10:51 09.06.2022
1662 Clear 19 1013 19 10000 6.71 33 09:42 09.06.2022
1663 Clear 19 1013 18 10000 6.68 27 09:23 09.06.2022
1664 Clear 20 1013 17 10000 5.43 39 07:34 09.06.2022
1665 Clear 19 1012 20 10000 6.16 30 05:27 09.06.2022
1666 Clouds 16 1013 24 10000 6.8 26 01:59 09.06.2022
1667 Clouds 15 1013 29 10000 5.7 18 23:34 08.06.2022
1668 Clouds 14 1013 28 10000 5.14 14 22:51 08.06.2022
1669 Clouds 14 1013 31 10000 3.56 356 22:26 08.06.2022
1670 Clouds 14 1013 31 10000 3.56 356 21:49 08.06.2022
1671 Clouds 13 1013 39 10000 2.54 339 20:43 08.06.2022
1672 Clouds 12 1013 38 10000 2.53 328 19:50 08.06.2022
1673 Clear 12 1012 38 10000 2.64 325 19:18 08.06.2022
1674 Clear 12 1012 38 10000 2.64 325 18:42 08.06.2022
1675 Clear 13 1012 36 10000 3.07 342 16:34 08.06.2022
1676 Clear 17 1012 34 10000 3.37 15 15:26 08.06.2022
1677 Clouds 19 1012 31 10000 3.96 24 13:36 08.06.2022
1678 Clouds 23 1012 25 10000 4.69 26 11:51 08.06.2022
1679 Clouds 24 1012 23 10000 4.74 29 11:24 08.06.2022
1680 Clouds 24 1012 22 10000 4.47 34 09:48 08.06.2022
1681 Clouds 25 1012 21 10000 4.12 37 09:20 08.06.2022
1682 Clouds 25 1012 21 10000 3.75 40 08:18 08.06.2022
1683 Clouds 25 1013 20 10000 3.07 46 05:36 08.06.2022
1684 Clouds 23 1014 24 10000 2.3 48 02:39 08.06.2022
1685 Clouds 21 1015 27 10000 1.35 63 00:28 08.06.2022
1686 Clouds 20 1015 29 10000 1.32 65 23:25 07.06.2022
1687 Clouds 20 1015 29 10000 1.32 65 22:42 07.06.2022
1688 Clouds 18 1015 31 10000 1.15 63 22:20 07.06.2022
1689 Clouds 17 1015 36 10000 1.34 48 21:28 07.06.2022
1690 Clouds 17 1015 36 10000 1.34 48 20:52 07.06.2022
1691 Clouds 17 1015 36 10000 1.34 48 20:31 07.06.2022
1692 Clouds 15 1015 32 10000 1.93 28 19:27 07.06.2022
1693 Clouds 15 1015 31 10000 1.71 22 18:19 07.06.2022
1694 Clouds 16 1014 31 10000 1.34 40 17:21 07.06.2022
1695 Clouds 16 1014 31 10000 1.34 40 16:41 07.06.2022
1696 Clouds 17 1014 31 10000 1.76 57 15:43 07.06.2022
1697 Clouds 18 1014 30 10000 2.28 61 15:23 07.06.2022
1698 Clouds 18 1014 30 10000 2.28 61 14:46 07.06.2022
1699 Clouds 20 1014 29 10000 2.98 59 14:27 07.06.2022
1700 Clouds 20 1014 29 10000 2.95 70 13:30 07.06.2022
1701 Clouds 23 1014 25 10000 4.34 69 12:45 07.06.2022
1702 Clouds 24 1014 20 10000 4.72 71 11:32 07.06.2022
1703 Clouds 26 1013 18 10000 4.29 79 10:26 07.06.2022
1704 Clouds 26 1014 19 10000 3.98 84 08:49 07.06.2022
1705 Clouds 26 1014 19 10000 3.98 84 08:49 07.06.2022
1706 Clouds 26 1014 19 10000 3.98 84 08:49 07.06.2022
1707 Clouds 26 1014 19 10000 3.98 84 08:49 07.06.2022
1708 Clouds 26 1013 21 10000 3.92 86 07:32 07.06.2022
1709 Clouds 26 1013 24 10000 3.71 88 05:56 07.06.2022
1710 Clouds 23 1014 32 10000 3.68 92 03:22 07.06.2022
1711 Clouds 21 1014 40 10000 2.7 87 00:44 07.06.2022
1712 Clouds 20 1014 45 10000 2.12 67 23:35 06.06.2022
1713 Clouds 18 1015 50 10000 1.85 58 22:47 06.06.2022
1714 Clouds 17 1014 56 10000 1.8 50 21:49 06.06.2022
1715 Clouds 16 1015 61 10000 1.9 36 20:35 06.06.2022
1716 Clouds 15 1015 60 10000 1.99 12 19:24 06.06.2022
1717 Clouds 15 1015 60 10000 1.99 12 18:47 06.06.2022
1718 Clouds 15 1014 59 10000 2.2 12 17:55 06.06.2022
1719 Clouds 16 1014 56 10000 2.6 17 16:51 06.06.2022
1720 Clouds 17 1014 51 10000 2.94 10 15:45 06.06.2022
1721 Clouds 19 1014 40 10000 2.84 17 14:59 06.06.2022
1722 Clouds 21 1014 37 10000 3.23 23 13:43 06.06.2022
1723 Clouds 23 1014 32 10000 3.7 19 13:19 06.06.2022
1724 Clouds 23 1014 32 10000 3.7 19 12:33 06.06.2022
1725 Clouds 25 1014 26 10000 3.43 35 11:45 06.06.2022
1726 Clouds 26 1014 22 10000 4.12 56 09:51 06.06.2022
1727 Clouds 26 1014 22 10000 4.04 44 08:57 06.06.2022
1728 Clouds 26 1014 24 10000 4.21 52 08:28 06.06.2022
1729 Clouds 26 1015 26 10000 4.12 49 07:19 06.06.2022
1730 Clouds 25 1016 30 10000 5.07 44 04:39 06.06.2022
1731 Clear 23 1017 37 10000 5.67 37 01:57 06.06.2022
1732 Clear 22 1017 41 10000 4.82 35 00:57 06.06.2022
1733 Clear 22 1017 41 10000 4.82 35 00:34 06.06.2022
1734 Clear 20 1018 51 10000 2.55 14 23:20 05.06.2022
1735 Clear 18 1018 56 10000 2.02 10 22:21 05.06.2022
1736 Clear 15 1017 64 10000 2.59 7 20:29 05.06.2022
1737 Clear 14 1019 66 10000 2.6 7 19:26 05.06.2022
1738 Clear 14 1019 64 10000 2.71 4 18:19 05.06.2022
1739 Clear 14 1019 64 10000 2.71 4 17:39 05.06.2022
1740 Clear 15 1018 61 10000 2.85 8 17:21 05.06.2022
1741 Clear 15 1018 61 10000 2.85 8 16:47 05.06.2022
1742 Clear 16 1018 56 10000 3.06 18 15:41 05.06.2022
1743 Clouds 20 1017 48 10000 4.06 29 14:21 05.06.2022
1744 Clouds 22 1016 41 10000 6.81 27 12:23 05.06.2022
1745 Clouds 23 1016 38 10000 6.91 26 10:51 05.06.2022
1746 Clouds 23 1015 36 10000 5.67 9 10:24 05.06.2022
1747 Clouds 23 1015 36 10000 5.67 9 09:58 05.06.2022
1748 Clouds 25 1013 28 10000 3.92 335 08:25 05.06.2022
1749 Clouds 26 1013 26 10000 3.39 290 06:48 05.06.2022
1750 Clouds 26 1013 27 10000 5.13 265 05:20 05.06.2022
1751 Clouds 24 1013 30 10000 5.53 245 02:58 05.06.2022
1752 Clouds 23 1013 33 10000 5.93 233 01:30 05.06.2022
1753 Clouds 21 1013 39 10000 3.36 213 23:49 04.06.2022
1754 Clouds 18 1013 49 10000 2.62 201 21:39 04.06.2022
1755 Clear 16 1013 52 10000 3.07 207 20:21 04.06.2022
1756 Clouds 16 1012 51 10000 2.57 213 17:59 04.06.2022
1757 Clouds 17 1012 51 10000 1.79 229 16:42 04.06.2022
1758 Clouds 18 1012 50 10000 2.11 239 16:18 04.06.2022
1759 Clouds 19 1011 48 10000 2.43 204 14:37 04.06.2022
1760 Clouds 24 1011 34 10000 2.26 208 11:51 04.06.2022
1761 Clouds 22 1011 39 10000 2.5 236 10:57 04.06.2022
1762 Clouds 24 1011 33 10000 6.21 240 10:26 04.06.2022
1763 Clouds 24 1011 33 10000 6.21 240 09:42 04.06.2022
1764 Clouds 26 1011 29 10000 3.86 221 08:40 04.06.2022
1765 Clouds 25 1011 29 10000 3.99 243 07:40 04.06.2022
1766 Clouds 24 1013 32 10000 3.76 220 04:38 04.06.2022
1767 Clouds 19 1015 47 10000 0.9 172 01:25 04.06.2022
1768 Clouds 18 1015 50 10000 0.48 137 23:53 03.06.2022
1769 Clouds 17 1015 53 10000 0.67 65 22:30 03.06.2022
1770 Clouds 15 1015 62 10000 1.19 37 21:21 03.06.2022
1771 Clouds 15 1015 62 10000 1.19 37 20:33 03.06.2022
1772 Clouds 13 1015 69 10000 1.7 9 18:23 03.06.2022
1773 Clouds 14 1015 64 10000 1.92 1 16:47 03.06.2022
1774 Clouds 17 1014 56 10000 1.53 324 15:18 03.06.2022
1775 Clear 21 1014 45 10000 2.29 291 13:22 03.06.2022
1776 Clouds 22 1013 40 10000 3.36 283 11:40 03.06.2022
1777 Clouds 22 1013 38 10000 5.06 269 09:45 03.06.2022
1778 Clouds 22 1013 37 10000 5.95 266 08:58 03.06.2022
1779 Clouds 21 1013 41 10000 5.3 251 07:26 03.06.2022
1780 Clouds 21 1013 41 10000 5.3 251 06:35 03.06.2022
1781 Clouds 21 1013 43 10000 5.41 243 05:52 03.06.2022
1782 Clouds 17 1015 59 10000 3.03 218 00:30 03.06.2022
1783 Clouds 16 1014 62 10000 2.1 192 22:47 02.06.2022
1784 Clouds 15 1014 66 10000 1.59 180 21:51 02.06.2022
1785 Clouds 14 1014 68 10000 1.13 156 20:22 02.06.2022
1786 Clouds 14 1014 68 10000 1.13 156 20:22 02.06.2022
1787 Clouds 13 1015 81 10000 1.29 151 19:50 02.06.2022
1788 Clouds 13 1015 81 10000 1.29 151 19:32 02.06.2022
1789 Clouds 14 1014 78 10000 1.22 119 17:35 02.06.2022
1790 Clouds 14 1014 71 10000 0.95 127 16:28 02.06.2022
1791 Clouds 14 1014 70 10000 1.13 107 14:34 02.06.2022
1792 Clouds 15 1015 69 10000 0.71 102 13:30 02.06.2022
1793 Clouds 16 1014 64 10000 0.63 139 12:40 02.06.2022
1794 Clouds 16 1014 56 10000 1.86 182 10:20 02.06.2022
1795 Clouds 16 1014 56 10000 2.31 184 09:28 02.06.2022
1796 Clouds 15 1014 55 10000 2.35 170 08:28 02.06.2022
1797 Clouds 11 1015 64 10000 1.14 145 07:34 02.06.2022
1798 Clouds 11 1014 64 10000 1.2 164 05:33 02.06.2022
1799 Clouds 12 1014 59 10000 1.69 103 03:48 02.06.2022
1800 Clouds 9 1013 66 10000 2.64 32 23:55 01.06.2022
1801 Clouds 8 1013 70 10000 2.76 25 22:55 01.06.2022
1802 Clouds 8 1012 74 10000 3.1 21 21:45 01.06.2022
1803 Clouds 8 1012 77 10000 3.09 12 21:20 01.06.2022
1804 Clouds 8 1012 77 10000 3.09 12 20:38 01.06.2022
1805 Clouds 8 1011 76 10000 3.02 14 19:48 01.06.2022
1806 Clouds 8 1010 75 10000 2.39 12 18:19 01.06.2022
1807 Clouds 8 1010 75 10000 2.59 11 16:46 01.06.2022
1808 Clouds 8 1009 75 10000 2.54 7 15:39 01.06.2022
1809 Clouds 9 1009 74 10000 2.63 10 14:31 01.06.2022
1810 Clouds 10 1007 71 10000 3.48 15 12:42 01.06.2022
1811 Clouds 11 1006 68 10000 4.3 16 10:41 01.06.2022
1812 Clouds 14 1004 63 10000 2.32 327 09:26 01.06.2022
1813 Clouds 15 1003 57 10000 2.01 280 07:57 01.06.2022
1814 Clouds 15 1004 55 10000 4.09 314 06:49 01.06.2022
1815 Clouds 13 1003 62 10000 2.81 248 01:44 01.06.2022
1816 Clouds 12 1003 68 10000 3.19 231 23:47 31.05.2022
1817 Clouds 11 1003 72 10000 2.75 218 22:38 31.05.2022
1818 Clouds 10 1003 78 10000 2.59 211 22:18 31.05.2022
1819 Clouds 9 1003 83 10000 2.43 208 21:22 31.05.2022
1820 Clouds 9 1003 83 10000 2.43 208 20:41 31.05.2022
1821 Clouds 8 1002 85 10000 3.4 186 18:57 31.05.2022
1822 Clouds 10 1001 78 10000 2.9 185 18:19 31.05.2022
1823 Clouds 10 1001 78 10000 2.9 185 17:35 31.05.2022
1824 Clouds 10 1001 78 10000 1.17 116 15:42 31.05.2022
1825 Clouds 11 1001 76 10000 1.36 84 15:21 31.05.2022
1826 Clouds 12 1002 72 10000 2.25 69 12:39 31.05.2022
1827 Clouds 12 1002 70 10000 2.13 61 12:18 31.05.2022
1828 Clouds 12 1003 69 10000 0.82 67 10:22 31.05.2022
1829 Clouds 11 1004 69 10000 1.26 95 07:43 31.05.2022
1830 Clouds 8 1005 76 10000 0.71 80 05:38 31.05.2022
1831 Clouds 7 1006 78 10000 0.45 83 03:49 31.05.2022
1832 Clouds 7 1007 71 10000 1.51 40 23:45 30.05.2022
1833 Clouds 7 1007 71 10000 2.02 34 23:23 30.05.2022
1834 Clouds 7 1007 71 10000 2.02 34 22:33 30.05.2022
1835 Clouds 6 1007 72 10000 2.36 30 21:40 30.05.2022
1836 Clouds 6 1008 70 10000 2.35 21 20:51 30.05.2022
1837 Clouds 6 1008 69 10000 2.67 17 19:43 30.05.2022
1838 Clouds 6 1008 66 10000 3.25 11 17:53 30.05.2022
1839 Clouds 7 1008 63 10000 3.78 9 17:21 30.05.2022
1840 Clouds 8 1008 61 10000 4.41 9 15:54 30.05.2022
1841 Clouds 13 1006 51 10000 3.01 33 13:26 30.05.2022
1842 Clouds 14 1006 47 10000 2.99 38 11:40 30.05.2022
1843 Clouds 14 1007 45 10000 2.7 52 09:52 30.05.2022
1844 Clouds 13 1007 48 10000 1.89 56 07:51 30.05.2022
1845 Clouds 13 1008 47 10000 2.61 39 06:22 30.05.2022
1846 Clouds 12 1008 49 10000 2.66 38 04:46 30.05.2022
1847 Clouds 8 1011 58 10000 2.73 19 00:43 30.05.2022
1848 Clouds 6 1012 65 10000 2.76 356 22:41 29.05.2022
1849 Clouds 5 1012 69 10000 2.6 349 21:46 29.05.2022
1850 Clouds 4 1012 75 10000 2.61 332 20:23 29.05.2022
1851 Clouds 4 1012 75 10000 2.63 330 19:29 29.05.2022
1852 Clouds 5 1012 71 10000 2.83 331 17:57 29.05.2022
1853 Clouds 8 1011 59 10000 3.84 357 16:25 29.05.2022
1854 Clouds 8 1011 59 10000 3.84 357 15:46 29.05.2022
1855 Clouds 10 1011 52 10000 4.58 9 14:54 29.05.2022
1856 Clouds 15 1010 37 10000 1.6 54 12:57 29.05.2022
1857 Clouds 17 1010 28 10000 2.12 62 11:20 29.05.2022
1858 Clouds 17 1011 28 10000 1.96 66 10:29 29.05.2022
1859 Clouds 16 1011 29 10000 1.65 70 07:59 29.05.2022
1860 Clouds 14 1013 34 10000 1.83 68 04:58 29.05.2022
1861 Clouds 14 1013 34 10000 1.83 68 04:36 29.05.2022
1862 Clear 10 1016 44 10000 2.32 43 01:28 29.05.2022
1863 Clear 9 1016 46 10000 2.28 24 23:48 28.05.2022
1864 Clear 8 1017 49 10000 2.57 14 23:19 28.05.2022
1865 Clear 7 1017 53 10000 2.45 7 22:19 28.05.2022
1866 Clear 6 1017 57 10000 2.34 6 20:58 28.05.2022
1867 Clouds 6 1016 53 10000 3.03 10 19:20 28.05.2022
1868 Clouds 6 1016 50 10000 2.43 16 18:24 28.05.2022
1869 Clouds 6 1016 50 10000 2.43 16 17:33 28.05.2022
1870 Clear 8 1016 45 10000 1.68 52 15:56 28.05.2022
1871 Clear 8 1016 45 10000 1.68 52 15:38 28.05.2022
1872 Clear 11 1015 37 10000 1.7 47 13:38 28.05.2022
1873 Clear 12 1015 32 10000 1.64 39 12:43 28.05.2022
1874 Clear 12 1015 30 10000 1.27 41 11:37 28.05.2022
1875 Clear 13 1015 29 10000 1.23 49 10:41 28.05.2022
1876 Clouds 12 1015 29 10000 0.68 65 09:55 28.05.2022
1877 Clouds 12 1015 29 10000 0.71 65 08:33 28.05.2022
1878 Clouds 11 1015 33 10000 0.6 132 06:50 28.05.2022
1879 Clouds 10 1015 35 10000 0.69 133 05:18 28.05.2022
1880 Clouds 7 1017 39 10000 1.2 78 02:26 28.05.2022
1881 Clouds 5 1017 46 10000 1.88 42 23:58 27.05.2022
1882 Clouds 4 1017 49 10000 2.07 31 22:48 27.05.2022
1883 Clouds 2 1018 57 10000 1.99 18 21:29 27.05.2022
1884 Clouds 2 1018 57 10000 1.99 18 20:45 27.05.2022
1885 Clear 1 1018 60 10000 2.34 17 20:19 27.05.2022
1886 Clouds 1 1018 59 10000 2.27 21 19:38 27.05.2022
1887 Clouds 1 1017 59 10000 2.5 18 19:19 27.05.2022
1888 Clouds 2 1017 52 10000 2.85 20 17:24 27.05.2022
1889 Clouds 3 1016 49 10000 2.87 27 15:57 27.05.2022
1890 Clouds 4 1016 45 10000 2.96 31 14:58 27.05.2022
1891 Clouds 6 1016 41 10000 2.97 31 13:41 27.05.2022
1892 Clouds 8 1016 33 10000 2.94 23 12:28 27.05.2022
1893 Clouds 8 1016 33 10000 2.94 23 11:31 27.05.2022
1894 Clouds 8 1015 33 10000 2.56 19 10:47 27.05.2022
1895 Clouds 8 1015 33 10000 2.38 16 09:59 27.05.2022
1896 Clouds 8 1015 33 10000 2.38 16 09:31 27.05.2022
1897 Clouds 8 1015 35 10000 2.4 18 07:41 27.05.2022
1898 Clouds 6 1016 41 10000 2.89 9 05:25 27.05.2022
1899 Clouds 3 1017 49 10000 2.95 2 01:44 27.05.2022
1900 Clouds 1 1018 56 10000 3.09 351 23:55 26.05.2022
1901 Clouds -1 1018 70 10000 3.76 342 22:29 26.05.2022
1902 Clouds -1 1018 70 10000 3.76 342 21:33 26.05.2022
1903 Clouds -2 1017 82 10000 2.63 327 19:49 26.05.2022
1904 Clouds -2 1017 84 10000 2.78 329 19:18 26.05.2022
1905 Clouds -2 1017 84 10000 2.78 329 19:18 26.05.2022
1906 Clouds -2 1016 83 10000 2.99 333 17:36 26.05.2022
1907 Clouds -2 1016 79 10000 3.62 342 16:35 26.05.2022
1908 Clouds -1 1016 76 10000 5.1 351 15:34 26.05.2022
1909 Clouds 1 1015 67 10000 6.77 360 14:21 26.05.2022
1910 Clouds 3 1014 65 10000 6.87 358 12:35 26.05.2022
1911 Clouds 4 1013 60 10000 7.49 1 11:21 26.05.2022
1912 Clouds 5 1012 59 10000 7.96 3 09:40 26.05.2022
1913 Clouds 5 1012 60 10000 7.82 2 08:57 26.05.2022
1914 Clouds 4 1012 61 10000 7.86 358 07:38 26.05.2022
1915 Clouds 3 1011 71 10000 8.88 6 02:59 26.05.2022
1916 Clouds 2 1010 77 10000 8.8 5 00:20 26.05.2022
1917 Snow 1 1009 79 10000 8.79 4 23:22 25.05.2022
1918 Snow 1 1009 82 8419 8.61 4 21:47 25.05.2022
1919 Snow 1 1009 84 6209 8.33 4 21:28 25.05.2022
1920 Snow 1 1008 88 4807 7.51 3 19:59 25.05.2022
1921 Snow 1 1007 86 4896 7.91 5 19:19 25.05.2022
1922 Snow 2 1007 85 10000 8.39 6 17:30 25.05.2022
1923 Rain 2 1006 85 10000 8.92 4 16:36 25.05.2022
1924 Rain 2 1006 85 10000 9.13 5 15:53 25.05.2022
1925 Clouds 3 1005 83 10000 9.38 8 14:51 25.05.2022
1926 Clouds 3 1005 83 10000 9.38 8 14:32 25.05.2022
1927 Clouds 3 1005 79 10000 10.29 8 13:35 25.05.2022
1928 Clouds 5 1004 73 10000 10.58 4 12:36 25.05.2022
1929 Rain 7 1002 66 10000 10.28 14 10:43 25.05.2022
1930 Rain 8 1001 70 10000 7.15 16 09:53 25.05.2022
1931 Rain 8 999 74 10000 6.42 32 08:23 25.05.2022
1932 Rain 8 999 75 10000 7.16 30 06:53 25.05.2022
1933 Rain 8 998 70 10000 6.97 46 03:22 25.05.2022
1934 Clouds 8 998 69 10000 7.22 29 23:55 24.05.2022
1935 Clouds 8 998 67 10000 6.09 36 23:25 24.05.2022
1936 Clouds 8 998 69 10000 4.33 43 22:19 24.05.2022
1937 Clouds 8 998 69 10000 4.33 43 21:39 24.05.2022
1938 Clouds 8 998 81 10000 2.48 0 21:20 24.05.2022
1939 Clouds 7 999 82 10000 1.89 8 19:45 24.05.2022
1940 Clouds 7 999 82 10000 1.21 319 18:53 24.05.2022
1941 Rain 8 999 76 10000 2.13 263 16:42 24.05.2022
1942 Rain 9 999 70 10000 1.97 239 16:22 24.05.2022
1943 Rain 10 999 60 10000 2.58 213 14:50 24.05.2022
1944 Clouds 12 999 46 10000 2.19 183 14:20 24.05.2022
1945 Clouds 13 999 43 10000 2.65 190 12:49 24.05.2022
1946 Clouds 15 999 30 10000 3.68 153 11:26 24.05.2022
1947 Clouds 15 999 29 10000 3.7 158 09:44 24.05.2022
1948 Clouds 15 999 29 10000 3.58 168 08:50 24.05.2022
1949 Clouds 14 1001 31 10000 3.89 189 06:57 24.05.2022
1950 Clouds 13 1003 39 10000 4.15 192 03:56 24.05.2022
1951 Clouds 11 1004 49 10000 4.28 195 01:55 24.05.2022
1952 Clouds 11 1004 48 10000 4.11 184 01:36 24.05.2022
1953 Clouds 9 1005 58 10000 3.68 192 23:31 23.05.2022
1954 Clouds 7 1005 68 10000 2.46 195 21:56 23.05.2022
1955 Clouds 6 1006 72 10000 2.6 197 21:29 23.05.2022
1956 Clouds 6 1006 72 10000 2.6 197 20:41 23.05.2022
1957 Clouds 5 1006 74 10000 2.21 178 19:33 23.05.2022
1958 Clouds 4 1006 75 10000 2.67 180 18:59 23.05.2022
1959 Clouds 4 1006 75 10000 2.67 180 18:31 23.05.2022
1960 Clouds 5 1007 75 10000 3.02 184 17:24 23.05.2022
1961 Clear 6 1007 75 10000 2.94 190 15:31 23.05.2022
1962 Clouds 10 1007 58 10000 2.27 227 13:22 23.05.2022
1963 Clouds 10 1007 54 10000 3.08 235 11:34 23.05.2022
1964 Clouds 11 1007 54 10000 3.66 246 10:42 23.05.2022
1965 Clouds 11 1007 53 10000 4.28 252 09:39 23.05.2022
1966 Clouds 11 1007 53 10000 4.24 251 08:38 23.05.2022
1967 Rain 11 1007 54 10000 4.24 246 06:47 23.05.2022
1968 Clouds 11 1007 56 10000 3.99 242 06:22 23.05.2022
1969 Rain 10 1008 63 10000 2.16 216 02:35 23.05.2022
1970 Clouds 9 1009 65 10000 1.7 208 01:46 23.05.2022
1971 Clouds 8 1009 68 10000 1.16 222 00:44 23.05.2022
1972 Clouds 7 1009 75 10000 0.98 318 22:43 22.05.2022
1973 Clouds 6 1009 77 10000 0.93 312 21:56 22.05.2022
1974 Clouds 6 1009 77 10000 0.93 312 21:36 22.05.2022
1975 Clouds 5 1009 82 10000 1.26 339 20:40 22.05.2022
1976 Clouds 4 1010 89 10000 1.45 316 20:19 22.05.2022
1977 Clouds 4 1010 88 10000 1.49 316 18:58 22.05.2022
1978 Clouds 4 1010 88 10000 1.49 316 18:31 22.05.2022
1979 Clouds 5 1010 86 10000 1.21 307 17:51 22.05.2022
1980 Clouds 5 1009 84 10000 1.12 295 16:51 22.05.2022
1981 Clouds 5 1009 84 10000 1.12 295 16:51 22.05.2022
1982 Clouds 7 1009 76 10000 0.97 269 15:22 22.05.2022
1983 Clouds 7 1009 76 10000 0.97 269 14:35 22.05.2022
1984 Clouds 9 1009 70 10000 1.24 15 12:54 22.05.2022
1985 Rain 9 1009 66 10000 1.97 353 11:53 22.05.2022
1986 Rain 9 1009 70 10000 1.38 187 10:29 22.05.2022
1987 Rain 11 1008 53 10000 2.71 162 09:27 22.05.2022
1988 Rain 11 1009 50 10000 1.65 290 07:44 22.05.2022
1989 Rain 11 1009 48 10000 0.56 317 06:41 22.05.2022
1990 Clouds 10 1009 54 10000 1.05 45 03:53 22.05.2022
1991 Clouds 7 1011 66 10000 1.23 11 00:49 22.05.2022
1992 Clouds 7 1011 66 10000 1.23 11 00:49 22.05.2022
1993 Clouds 6 1011 69 10000 1.34 20 23:56 21.05.2022
1994 Clouds 5 1011 73 10000 1.48 28 23:29 21.05.2022
1995 Clouds 5 1011 76 10000 1.6 20 21:59 21.05.2022
1996 Clouds 5 1011 76 10000 1.6 20 21:37 21.05.2022
1997 Clouds 4 1011 79 10000 1.74 19 20:41 21.05.2022
1998 Clouds 3 1010 80 10000 2.23 26 19:53 21.05.2022
1999 Clouds 3 1011 78 10000 2.21 30 19:20 21.05.2022
2000 Clouds 4 1011 75 10000 2.26 31 17:23 21.05.2022
2001 Clouds 6 1010 72 10000 2.29 33 14:51 21.05.2022
2002 Clouds 7 1010 68 10000 2.63 33 14:19 21.05.2022
2003 Clouds 7 1011 67 10000 2.74 25 13:34 21.05.2022
2004 Clouds 8 1010 60 10000 3.44 29 12:39 21.05.2022
2005 Clouds 10 1010 52 10000 3.43 29 11:45 21.05.2022
2006 Clouds 10 1010 47 10000 2.15 2 10:22 21.05.2022
2007 Clouds 10 1010 46 10000 2.09 346 09:18 21.05.2022
2008 Clouds 10 1010 46 10000 2.09 346 08:39 21.05.2022
2009 Clouds 9 1011 50 10000 1.21 312 06:21 21.05.2022
2010 Clouds 6 1012 58 10000 1.68 355 02:23 21.05.2022
2011 Clouds 4 1013 64 10000 1.8 357 23:42 20.05.2022
2012 Clouds 4 1013 68 10000 1.57 344 22:41 20.05.2022
2013 Clouds 3 1013 73 10000 1.4 333 22:18 20.05.2022
2014 Clouds 1 1013 79 10000 1.49 329 21:27 20.05.2022
2015 Clouds 1 1013 79 10000 1.49 329 20:51 20.05.2022
2016 Clouds 1 1013 80 10000 1.71 332 19:55 20.05.2022
2017 Clouds 1 1013 82 10000 1.93 335 18:58 20.05.2022
2018 Clouds 1 1012 82 10000 2.13 341 18:24 20.05.2022
2019 Clouds 2 1012 82 10000 2.41 347 16:28 20.05.2022
2020 Clouds 2 1012 82 10000 2.41 347 15:54 20.05.2022
2021 Clouds 2 1012 82 10000 2.41 347 15:32 20.05.2022
2022 Clouds 4 1012 78 10000 2.7 352 14:28 20.05.2022
2023 Clouds 4 1012 79 10000 2.46 355 13:31 20.05.2022
2024 Clouds 6 1011 70 10000 3.3 357 10:48 20.05.2022
2025 Clouds 6 1011 70 10000 3.41 357 09:32 20.05.2022
2026 Clouds 6 1010 70 10000 3.88 353 08:38 20.05.2022
2027 Clouds 7 1009 58 10000 3.25 360 06:45 20.05.2022
2028 Clouds 7 1009 58 10000 2.84 2 05:53 20.05.2022
2029 Clouds 6 1009 65 10000 2.96 22 02:53 20.05.2022
2030 Clouds 4 1009 75 10000 2.9 19 23:47 19.05.2022
2031 Clouds 3 1009 80 10000 2.56 17 22:44 19.05.2022
2032 Clouds 2 1009 85 10000 2.2 17 21:53 19.05.2022
2033 Clouds 1 1009 87 10000 2.19 19 21:24 19.05.2022
2034 Clouds 1 1009 87 10000 2.19 19 20:54 19.05.2022
2035 Clouds 1 1009 89 10000 2.33 22 20:21 19.05.2022
2036 Clouds 1 1009 88 10000 2.37 23 19:34 19.05.2022
2037 Clouds 1 1008 88 10000 2.68 30 17:52 19.05.2022
2038 Clouds 2 1008 87 10000 2.66 36 16:29 19.05.2022
2039 Clouds 2 1008 85 10000 2.62 42 14:52 19.05.2022
2040 Clouds 3 1008 84 10000 2.82 46 14:21 19.05.2022
2041 Clouds 6 1007 76 10000 3.15 57 12:23 19.05.2022
2042 Clouds 7 1007 72 10000 3.32 66 11:25 19.05.2022
2043 Clouds 7 1007 65 10000 2.74 69 08:59 19.05.2022
2044 Rain 7 1007 61 10000 2.38 88 07:48 19.05.2022
2045 Clouds 7 1007 59 10000 1.72 99 04:50 19.05.2022
2046 Clouds 5 1008 72 10000 1.38 99 01:58 19.05.2022
2047 Clouds 3 1009 78 10000 1.27 81 23:53 18.05.2022
2048 Clouds 2 1009 81 10000 1.27 78 22:46 18.05.2022
2049 Clouds 2 1009 81 10000 1.27 78 22:46 18.05.2022
2050 Clouds 1 1009 85 10000 1.36 74 21:47 18.05.2022
2051 Clouds 0 1010 89 10000 1.43 65 21:25 18.05.2022
2052 Clouds 0 1010 90 10000 1.66 53 20:24 18.05.2022
2053 Clouds 0 1010 90 10000 1.66 53 19:39 18.05.2022
2054 Clouds 0 1010 92 10000 1.92 29 18:21 18.05.2022
2055 Clouds 0 1010 92 10000 1.92 29 17:41 18.05.2022
2056 Clouds 0 1010 92 10000 2.22 26 17:23 18.05.2022
2057 Clouds 0 1010 92 10000 2.41 22 16:23 18.05.2022
2058 Clouds 0 1010 92 10000 2.41 22 15:39 18.05.2022
2059 Clouds 0 1010 91 10000 2.57 26 14:34 18.05.2022
2060 Clouds 3 1009 86 10000 2.64 30 13:22 18.05.2022
2061 Clouds 3 1009 86 10000 2.64 30 12:40 18.05.2022
2062 Clouds 4 1009 82 10000 2.91 33 11:34 18.05.2022
2063 Clouds 5 1009 77 10000 2.84 36 10:52 18.05.2022
2064 Clouds 6 1008 67 10000 1.36 42 08:53 18.05.2022
2065 Clouds 5 1008 66 10000 0.54 101 07:29 18.05.2022
2066 Clouds 4 1008 71 10000 1.1 88 05:21 18.05.2022
2067 Clouds 2 1008 87 10000 1.3 35 00:52 18.05.2022
2068 Clouds 1 1008 90 10000 1.25 24 00:20 18.05.2022
2069 Clouds 0 1008 95 10000 1.37 6 21:39 17.05.2022
2070 Clouds -1 1008 97 10000 1.37 360 21:19 17.05.2022
2071 Clouds -1 1008 98 10000 1.47 6 19:52 17.05.2022
2072 Clouds -1 1008 97 10000 1.6 7 19:27 17.05.2022
2073 Clouds -1 1008 97 10000 1.62 7 17:50 17.05.2022
2074 Clouds -1 1007 97 10000 1.65 9 16:58 17.05.2022
2075 Clouds -1 1007 96 10000 1.76 8 16:29 17.05.2022
2076 Clouds 0 1007 95 10000 1.7 12 15:24 17.05.2022
2077 Clouds 0 1007 95 10000 1.7 12 14:30 17.05.2022
2078 Clouds 0 1007 95 10000 1.7 12 14:30 17.05.2022
2079 Clouds 0 1007 94 10000 1.7 356 13:32 17.05.2022
2080 Clouds 2 1006 89 10000 1.5 358 11:37 17.05.2022
2081 Clouds 2 1006 84 10000 1 358 09:23 17.05.2022
2082 Clouds 2 1006 84 10000 0.64 9 08:23 17.05.2022
2083 Clouds 2 1006 78 10000 0.78 128 06:46 17.05.2022
2084 Clouds 0 1006 85 10000 0.9 124 03:20 17.05.2022
2085 Clouds -2 1007 89 2034 0.12 325 00:36 17.05.2022
2086 Clouds -3 1007 93 599 0.56 326 22:42 16.05.2022
2087 Clouds -4 1007 95 780 0.5 14 21:37 16.05.2022
2088 Clouds -5 1007 97 1686 0.75 6 20:47 16.05.2022
2089 Clouds -4 1008 96 1036 1.31 328 19:43 16.05.2022
2090 Clouds -6 1007 98 1378 1.01 333 18:20 16.05.2022
2091 Clouds -4 1007 99 5476 1.46 334 15:50 16.05.2022
2092 Clouds -3 1007 96 10000 1.12 337 13:56 16.05.2022
2093 Clouds -1 1008 94 10000 1.16 351 13:23 16.05.2022
2094 Clouds 0 1008 85 10000 1.9 28 11:20 16.05.2022
2095 Clouds 0 1008 84 10000 2.01 13 09:37 16.05.2022
2096 Clouds 0 1009 77 10000 2.36 54 06:56 16.05.2022
2097 Clouds -2 1011 78 10000 2.93 16 03:58 16.05.2022
2098 Clouds -4 1014 84 10000 2.38 356 23:30 15.05.2022
2099 Clouds -5 1014 85 10000 2.38 342 22:30 15.05.2022
2100 Clouds -6 1014 87 10000 2.01 337 21:46 15.05.2022
2101 Clouds -7 1015 89 10000 1.88 330 20:54 15.05.2022
2102 Clouds -7 1016 92 10000 1.61 339 19:52 15.05.2022
2103 Clouds -7 1017 91 10000 1.87 350 17:52 15.05.2022
2104 Clouds -7 1018 89 10000 2.96 353 16:29 15.05.2022
2105 Clouds -5 1019 87 10000 2.76 6 13:58 15.05.2022
2106 Clouds -3 1019 82 10000 2.45 9 12:50 15.05.2022
2107 Clouds -1 1019 75 10000 1.95 33 11:40 15.05.2022
2108 Clouds -1 1020 66 10000 1.67 37 10:27 15.05.2022
2109 Clouds -1 1020 66 10000 1.32 16 08:45 15.05.2022
2110 Clouds -1 1021 57 10000 1.7 39 06:58 15.05.2022
2111 Clouds -2 1021 59 10000 1.72 45 05:52 15.05.2022
2112 Clouds -5 1021 70 10000 2.36 338 00:49 15.05.2022
2113 Clouds -5 1021 74 10000 2.5 330 23:39 14.05.2022
2114 Clouds -6 1021 77 10000 2.17 321 22:59 14.05.2022
2115 Clouds -7 1020 83 10000 2.12 311 21:29 14.05.2022
2116 Clouds -7 1020 83 10000 2.12 311 20:53 14.05.2022
2117 Clouds -7 1020 86 10000 2.13 310 19:39 14.05.2022
2118 Clouds -7 1019 86 10000 2.27 313 19:19 14.05.2022
2119 Clouds -7 1019 86 10000 2.27 313 18:46 14.05.2022
2120 Clouds -6 1018 84 10000 2.56 329 16:56 14.05.2022
2121 Clouds -5 1018 81 10000 3.27 346 15:33 14.05.2022
2122 Clouds -5 1018 78 10000 3.94 351 14:34 14.05.2022
2123 Clouds -5 1018 78 10000 3.94 351 14:34 14.05.2022
2124 Clouds -3 1017 70 10000 3.99 353 12:34 14.05.2022
2125 Clouds -2 1016 65 10000 4.85 358 11:36 14.05.2022
2126 Clouds -1 1015 55 10000 5.86 3 10:22 14.05.2022
2127 Clouds -1 1015 55 10000 5.86 3 09:54 14.05.2022
2128 Clouds -1 1015 54 10000 5.99 5 08:49 14.05.2022
2129 Clouds -1 1014 53 10000 6.54 6 06:47 14.05.2022
2130 Clouds -2 1014 55 10000 6.15 11 03:27 14.05.2022
2131 Clouds -4 1015 59 10000 3.1 352 23:45 13.05.2022
2132 Clouds -5 1015 62 10000 2.52 344 23:22 13.05.2022
2133 Clouds -5 1015 62 10000 2.52 344 22:51 13.05.2022
2134 Clouds -6 1015 67 10000 2.16 335 22:19 13.05.2022
2135 Clouds -7 1015 71 10000 2.18 332 20:49 13.05.2022
2136 Clouds -6 1014 74 10000 2.35 333 20:27 13.05.2022
2137 Clouds -6 1014 74 10000 2.35 333 19:34 13.05.2022
2138 Clouds -5 1013 71 10000 2.68 334 17:53 13.05.2022
2139 Clouds -4 1013 68 10000 2.73 336 17:29 13.05.2022
2140 Clouds -4 1013 63 10000 3.31 347 16:23 13.05.2022
2141 Clouds -4 1013 63 10000 3.31 347 15:39 13.05.2022
2142 Clouds -3 1013 64 10000 4.04 4 13:54 13.05.2022
2143 Clouds -2 1012 63 10000 5.34 5 12:33 13.05.2022
2144 Clouds 0 1010 82 10000 6.99 9 11:29 13.05.2022
2145 Snow 1 1009 89 10000 5.88 12 09:43 13.05.2022
2146 Snow 1 1008 96 808 4.36 12 08:50 13.05.2022
2147 Clouds 2 1007 85 5964 4.08 3 07:49 13.05.2022
2148 Clouds 2 1007 91 10000 3.89 354 06:35 13.05.2022
2149 Clouds 6 1004 78 10000 4.79 235 04:22 13.05.2022
2150 Clouds 4 1005 82 10000 3.93 184 00:42 13.05.2022
2151 Clouds 3 1006 81 10000 5.14 192 22:47 12.05.2022
2152 Clouds 2 1007 84 10000 4.53 186 21:59 12.05.2022
2153 Clouds 1 1007 86 10000 4.12 179 20:38 12.05.2022
2154 Clouds 0 1009 88 10000 3.34 193 19:23 12.05.2022
2155 Clouds 1 1009 87 10000 3.77 198 17:59 12.05.2022
2156 Clouds 1 1010 89 10000 3.67 195 16:27 12.05.2022
2157 Clouds 1 1010 88 10000 3.89 192 14:47 12.05.2022
2158 Clouds 2 1011 89 10000 3.59 194 13:47 12.05.2022
2159 Clouds 5 1011 89 10000 3.94 201 11:25 12.05.2022
2160 Clouds 6 1011 89 10000 4.03 205 09:37 12.05.2022
2161 Clouds 6 1010 92 10000 4.15 211 08:52 12.05.2022
2162 Clouds 6 1010 95 318 4.56 217 07:57 12.05.2022
2163 Clouds 5 1010 98 201 4.7 207 06:55 12.05.2022
2164 Clouds 3 1011 99 7112 4.13 194 03:31 12.05.2022
2165 Clouds 1 1011 84 10000 4.29 182 00:41 12.05.2022
2166 Clouds -1 1011 83 10000 3.45 176 22:53 11.05.2022
2167 Clouds -2 1011 84 10000 3.3 176 21:59 11.05.2022
2168 Clouds -4 1012 86 10000 3.25 172 21:24 11.05.2022
2169 Clouds -6 1012 86 10000 3.25 166 19:42 11.05.2022
2170 Clouds -4 1012 86 10000 2.84 149 17:27 11.05.2022
2171 Clouds -4 1012 86 10000 3.01 143 16:19 11.05.2022
2172 Clouds -3 1012 85 10000 3.08 144 14:45 11.05.2022
2173 Clouds -4 1013 86 10000 2.95 149 14:24 11.05.2022
2174 Clouds -3 1013 84 10000 2.84 155 12:39 11.05.2022
2175 Clouds -1 1013 80 10000 3.97 174 11:47 11.05.2022
2176 Clouds 0 1013 71 10000 5.36 197 09:29 11.05.2022
2177 Clouds -2 1014 73 10000 4.83 205 06:27 11.05.2022
2178 Clouds -5 1015 75 10000 3.7 199 01:53 11.05.2022
2179 Clouds -10 1016 82 10000 2.15 200 22:58 10.05.2022
2180 Clouds -12 1017 87 10000 1.83 208 22:24 10.05.2022
2181 Clouds -16 1017 91 10000 1.67 198 21:26 10.05.2022
2182 Clouds -17 1017 92 10000 1.52 200 20:26 10.05.2022
2183 Clear -17 1017 92 10000 1.55 208 18:38 10.05.2022
2184 Clear -17 1018 90 10000 1.24 215 17:38 10.05.2022
2185 Clear -15 1018 88 10000 0.06 148 15:56 10.05.2022
2186 Clouds -9 1017 83 10000 1.58 20 13:19 10.05.2022
2187 Clouds -6 1017 77 10000 2.15 23 11:53 10.05.2022
2188 Clouds -6 1017 77 10000 2.15 23 11:30 10.05.2022
2189 Clouds -5 1016 67 10000 3.14 16 10:56 10.05.2022
2190 Clouds -5 1016 63 10000 3.8 12 09:36 10.05.2022
2191 Clouds -5 1014 65 10000 4.86 11 07:58 10.05.2022
2192 Clouds -5 1014 66 10000 4.78 10 05:54 10.05.2022
2193 Clouds -6 1015 70 10000 5 7 01:53 10.05.2022
2194 Clouds -7 1014 72 10000 4.67 8 23:43 09.05.2022
2195 Clouds -7 1014 76 10000 4.04 2 22:35 09.05.2022
2196 Clouds -8 1014 82 10000 3.55 358 21:38 09.05.2022
2197 Clouds -8 1013 92 4986 2.32 333 19:56 09.05.2022
2198 Snow -8 1011 95 421 2.17 319 18:25 09.05.2022
2199 Clouds -8 1010 95 2249 1.99 304 17:25 09.05.2022
2200 Clouds -8 1009 95 2267 2.06 306 16:19 09.05.2022
2201 Clouds -8 1009 95 2267 2.06 306 15:47 09.05.2022
2202 Clouds -7 1007 95 3340 2.24 313 14:36 09.05.2022
2203 Clouds -6 1006 94 1701 2.58 317 13:57 09.05.2022
2204 Snow -5 1005 93 1874 2.94 319 13:21 09.05.2022
2205 Snow -4 1003 93 2043 3.18 321 11:53 09.05.2022
2206 Snow -3 1002 92 679 3.71 328 10:48 09.05.2022
2207 Snow -2 1000 91 646 4.36 330 10:23 09.05.2022
2208 Snow 0 997 96 275 4.18 329 07:57 09.05.2022
2209 Snow 1 995 100 102 1.49 293 04:52 09.05.2022
2210 Snow 0 994 99 128 0.57 220 00:59 09.05.2022
2211 Snow -1 995 97 146 1.15 97 23:28 08.05.2022
2212 Snow -1 995 97 146 1.15 97 22:32 08.05.2022
2213 Snow -3 996 97 112 1.42 81 21:20 08.05.2022
2214 Snow -4 996 97 188 1.74 64 20:23 08.05.2022
2215 Snow -4 996 97 188 1.74 64 19:33 08.05.2022
2216 Clouds -5 997 97 10000 1.38 83 18:38 08.05.2022
2217 Clouds -5 997 96 10000 1.87 73 17:39 08.05.2022
2218 Clouds -5 999 94 10000 1.64 88 15:46 08.05.2022
2219 Clouds -5 1000 94 10000 1.71 95 15:22 08.05.2022
2220 Clouds -2 1000 91 10000 2.04 86 12:48 08.05.2022
2221 Clouds -1 1001 89 10000 1.85 79 11:45 08.05.2022
2222 Clouds 2 1001 83 10000 2.82 129 10:25 08.05.2022
2223 Clouds 2 1001 83 10000 2.82 129 09:53 08.05.2022
2224 Clouds 1 1002 77 10000 3.32 144 07:57 08.05.2022
2225 Clouds 0 1004 73 10000 3.16 155 06:18 08.05.2022
2226 Clouds -4 1007 68 10000 1.93 122 03:22 08.05.2022
2227 Clouds -6 1008 73 10000 1.69 109 01:19 08.05.2022
2228 Clouds -7 1009 78 10000 1.55 106 23:57 07.05.2022
2229 Clouds -7 1009 78 10000 1.55 106 23:32 07.05.2022
2230 Clouds -9 1010 83 10000 1.27 104 22:42 07.05.2022
2231 Clouds -11 1010 90 10000 1.08 110 21:56 07.05.2022
2232 Clouds -13 1011 92 10000 0.68 108 21:28 07.05.2022
2233 Clouds -13 1011 93 10000 0.3 52 20:25 07.05.2022
2234 Clouds -13 1011 93 10000 0.3 52 20:25 07.05.2022
2235 Clouds -14 1011 93 10000 0.66 282 18:49 07.05.2022
2236 Clouds -13 1011 92 10000 0.91 294 16:49 07.05.2022
2237 Clouds -12 1011 89 10000 1.65 310 14:54 07.05.2022
2238 Clouds -3 1007 75 10000 6.29 26 11:28 07.05.2022
2239 Clouds -2 1006 75 10000 7.15 22 09:44 07.05.2022
2240 Snow -1 1005 81 9246 7.51 13 08:33 07.05.2022
2241 Clouds 0 1002 84 10000 4.35 334 07:25 07.05.2022
2242 Clouds 0 1002 84 10000 4.35 334 06:42 07.05.2022
2243 Clouds 0 1002 81 10000 1.68 270 04:18 07.05.2022
2244 Clouds -3 1003 82 10000 3.84 194 00:45 07.05.2022
2245 Clouds -5 1004 88 10000 3.02 178 22:40 06.05.2022
2246 Clouds -7 1005 92 10000 2.21 188 21:54 06.05.2022
2247 Clouds -7 1005 92 10000 2.21 188 21:30 06.05.2022
2248 Clouds -11 1006 94 10000 2.09 159 19:48 06.05.2022
2249 Clouds -10 1007 94 10000 2.16 164 19:25 06.05.2022
2250 Clouds -10 1007 94 10000 2.16 164 18:34 06.05.2022
2251 Clouds -10 1007 93 10000 2.09 153 17:36 06.05.2022
2252 Clouds -9 1008 90 10000 2 145 15:53 06.05.2022
2253 Clouds -8 1009 89 10000 1.92 150 15:28 06.05.2022
2254 Clouds -7 1009 87 10000 1.71 158 13:50 06.05.2022
2255 Clouds -4 1008 85 10000 1.39 161 12:51 06.05.2022
2256 Clouds -2 1008 84 10000 1.09 182 11:58 06.05.2022
2257 Clouds 0 1008 80 10000 1.09 209 11:24 06.05.2022
2258 Clouds 0 1008 76 10000 1.43 241 09:47 06.05.2022
2259 Clouds 0 1008 78 10000 1.52 249 09:18 06.05.2022
2260 Clouds 0 1008 81 10000 1.44 256 07:54 06.05.2022
2261 Clouds -1 1008 83 10000 1.32 268 06:26 06.05.2022
2262 Clouds -1 1008 84 10000 1.46 304 03:42 06.05.2022
2263 Clouds -2 1008 85 10000 1.51 298 02:38 06.05.2022
2264 Clouds -4 1007 94 2053 1.42 298 23:24 05.05.2022
2265 Clouds -5 1007 96 1392 1.39 298 21:50 05.05.2022
2266 Clouds -6 1007 97 1179 1.24 300 20:37 05.05.2022
2267 Clouds -6 1006 97 594 1.27 304 19:19 05.05.2022
2268 Clouds -5 1006 96 1481 1.23 316 16:42 05.05.2022
2269 Clouds -5 1006 96 2443 1.33 323 15:31 05.05.2022
2270 Clouds -4 1006 97 700 1.78 336 13:41 05.05.2022
2271 Clouds -2 1005 96 2106 1.94 356 13:18 05.05.2022
2272 Clouds -1 1005 93 4542 2.39 9 11:42 05.05.2022
2273 Clouds 0 1005 86 10000 3.16 14 09:46 05.05.2022
2274 Clouds 0 1005 87 10000 2.83 12 08:54 05.05.2022
2275 Clouds 0 1006 85 10000 2.1 35 06:28 05.05.2022
2276 Clouds -3 1008 89 10000 2.07 19 02:28 05.05.2022
2277 Clouds -3 1008 89 10000 2.07 19 01:44 05.05.2022
2278 Clouds -4 1008 90 10000 1.98 16 00:57 05.05.2022
2279 Clouds -6 1008 94 5104 1.34 19 23:22 04.05.2022
2280 Clouds -8 1009 96 10000 1.66 10 22:18 04.05.2022
2281 Clouds -8 1009 96 10000 1.66 10 21:45 04.05.2022
2282 Clouds -11 1010 98 6453 1.32 0 20:55 04.05.2022
2283 Clouds -12 1010 98 6949 1.29 7 20:18 04.05.2022
2284 Clouds -11 1010 98 6997 1.32 11 19:35 04.05.2022
2285 Clouds -12 1010 98 10000 1.39 14 18:43 04.05.2022
2286 Clouds -12 1010 98 10000 1.39 14 18:43 04.05.2022
2287 Clouds -11 1010 97 10000 1.76 18 18:19 04.05.2022
2288 Clouds -10 1010 95 10000 1.47 22 17:22 04.05.2022
2289 Clouds -9 1010 94 10000 1.53 21 15:34 04.05.2022
2290 Clouds -8 1010 91 10000 1.4 20 14:45 04.05.2022
2291 Clouds -7 1010 89 10000 1.13 17 14:19 04.05.2022
2292 Clouds -5 1010 87 10000 1.02 12 12:50 04.05.2022
2293 Clouds -3 1009 85 10000 0.47 326 11:59 04.05.2022
2294 Clouds -1 1009 74 10000 1.07 260 10:27 04.05.2022
2295 Clouds -1 1009 75 10000 1.3 242 09:22 04.05.2022
2296 Clouds -1 1009 76 10000 1.3 232 07:59 04.05.2022
2297 Clouds -2 1009 78 10000 1.58 194 05:34 04.05.2022
2298 Clouds -3 1010 79 10000 1.44 169 02:37 04.05.2022
2299 Clouds -6 1010 93 2253 0.82 58 23:23 03.05.2022
2300 Clouds -7 1010 95 1264 0.98 55 21:55 03.05.2022
2301 Clouds -7 1010 95 1264 0.98 55 21:31 03.05.2022
2302 Clouds -8 1010 97 592 1.02 46 20:52 03.05.2022
2303 Snow -8 1010 97 339 1.59 14 19:36 03.05.2022
2304 Snow -7 1010 97 363 1.66 9 18:47 03.05.2022
2305 Clouds -8 1009 97 1549 1.08 345 17:22 03.05.2022
2306 Clouds -9 1009 95 10000 0.57 324 16:20 03.05.2022
2307 Clouds -8 1009 93 10000 0.29 261 14:34 03.05.2022
2308 Clouds -4 1008 90 10000 0.57 219 12:46 03.05.2022
2309 Clouds -3 1007 89 10000 0.41 204 12:22 03.05.2022
2310 Clouds -2 1007 82 10000 0.79 289 10:50 03.05.2022
2311 Snow -2 1007 87 2419 1.33 274 08:33 03.05.2022
2312 Clouds -3 1008 83 10000 2.2 257 06:46 03.05.2022
2313 Clouds -3 1008 83 10000 2.2 257 06:46 03.05.2022
2314 Snow -5 1008 85 491 1.39 276 03:26 03.05.2022
2315 Snow -7 1007 93 147 1.94 318 23:32 02.05.2022
2316 Snow -7 1007 95 118 2 330 22:34 02.05.2022
2317 Snow -8 1007 95 114 2.73 3 21:48 02.05.2022
2318 Snow -8 1007 95 124 3.15 11 20:48 02.05.2022
2319 Clouds -7 1007 95 1771 3.74 4 18:28 02.05.2022
2320 Clouds -7 1007 95 1771 3.74 4 17:44 02.05.2022
2321 Clouds -7 1008 95 1200 3.13 352 16:50 02.05.2022
2322 Snow -5 1007 96 274 3.53 352 15:56 02.05.2022
2323 Snow -5 1007 96 239 3.68 354 14:57 02.05.2022
2324 Snow -4 1006 96 227 4 1 13:47 02.05.2022
2325 Snow -1 1005 96 423 4.06 17 12:18 02.05.2022
2326 Snow 1 1005 99 68 3.06 36 10:20 02.05.2022
2327 Clouds 1 1005 92 4593 3.79 20 08:46 02.05.2022
2328 Snow 1 1005 92 4428 3.74 33 07:30 02.05.2022
2329 Clouds -1 1006 88 2909 2.4 35 01:58 02.05.2022
2330 Clouds -2 1005 80 10000 1.35 22 00:23 02.05.2022
2331 Clouds -2 1005 80 10000 1.35 22 23:46 01.05.2022
2332 Clouds -7 1004 87 10000 1.09 101 21:56 01.05.2022
2333 Clouds -8 1005 86 10000 1.52 152 20:50 01.05.2022
2334 Clouds -7 1004 85 10000 2.04 155 19:49 01.05.2022
2335 Clouds -5 1004 85 10000 2.48 151 18:55 01.05.2022
2336 Clouds -3 1003 82 10000 3.11 154 18:18 01.05.2022
2337 Clouds -2 1003 78 10000 4.32 170 16:55 01.05.2022
2338 Clouds 0 1003 74 10000 5.64 183 16:23 01.05.2022
2339 Clouds 0 1003 73 10000 6.24 183 15:23 01.05.2022
2340 Clouds 1 1003 72 10000 6.73 184 13:42 01.05.2022
2341 Clouds 3 1003 74 10000 8.87 187 10:50 01.05.2022
2342 Clouds 4 1004 81 10000 10.41 199 08:51 01.05.2022
2343 Clouds 3 1004 83 10000 9.56 196 07:42 01.05.2022
2344 Clear 0 1007 79 10000 6.97 183 02:51 01.05.2022
2345 Clouds -7 1010 85 10000 2.73 159 23:23 30.04.2022
2346 Clouds -11 1011 90 10000 2.14 161 21:35 30.04.2022
2347 Clouds -14 1011 91 10000 1.89 161 20:36 30.04.2022
2348 Clouds -14 1011 92 10000 2.04 155 19:36 30.04.2022
2349 Clouds -13 1012 91 10000 2.11 140 17:40 30.04.2022
2350 Clouds -12 1012 91 10000 2.25 132 16:37 30.04.2022
2351 Clear -11 1013 90 10000 2.41 130 15:21 30.04.2022
2352 Clear -11 1013 90 10000 2.41 130 14:33 30.04.2022
2353 Clouds -6 1014 87 10000 2.37 136 12:40 30.04.2022
2354 Clouds -2 1014 84 10000 2.35 145 11:33 30.04.2022
2355 Clouds 0 1014 79 10000 3.17 165 10:40 30.04.2022
2356 Clouds 1 1015 76 10000 4.08 172 08:59 30.04.2022
2357 Clouds -1 1017 79 10000 3.5 168 05:51 30.04.2022
2358 Clouds -5 1021 82 10000 1.96 158 01:51 30.04.2022
2359 Clouds -9 1023 88 10000 1.08 196 23:37 29.04.2022
2360 Clouds -11 1023 92 10000 1.02 183 22:31 29.04.2022
2361 Clouds -17 1025 98 10000 0.91 157 21:27 29.04.2022
2362 Clouds -17 1025 98 10000 0.91 157 20:40 29.04.2022
2363 Clouds -17 1025 97 10000 0.94 137 19:43 29.04.2022
2364 Clouds -16 1025 95 10000 1.15 125 17:54 29.04.2022
2365 Clouds -15 1025 93 10000 1.24 129 17:21 29.04.2022
2366 Clouds -13 1025 90 10000 1.62 144 15:23 29.04.2022
2367 Clouds -11 1025 88 10000 1.54 138 14:20 29.04.2022
2368 Clouds -8 1025 85 10000 1.57 133 12:52 29.04.2022
2369 Clouds -5 1024 83 10000 1.22 139 11:40 29.04.2022
2370 Clouds -2 1024 72 10000 2.12 198 08:46 29.04.2022
2371 Clouds -3 1024 76 10000 2.44 187 07:27 29.04.2022
2372 Clouds -3 1024 76 10000 2.44 187 06:38 29.04.2022
2373 Clouds -4 1024 76 10000 1.94 205 04:52 29.04.2022
2374 Clouds -10 1026 90 7917 0.99 220 00:39 29.04.2022
2375 Clouds -13 1026 98 3334 0.94 205 23:27 28.04.2022
2376 Clouds -13 1026 98 3334 0.94 205 22:41 28.04.2022
2377 Clouds -18 1026 100 2993 0.5 219 21:47 28.04.2022
2378 Clouds -19 1026 100 3610 0.4 204 21:19 28.04.2022
2379 Clouds -19 1025 100 4775 0.32 279 20:25 28.04.2022
2380 Clouds -19 1025 100 6064 0.36 276 19:41 28.04.2022
2381 Clouds -18 1025 100 10000 0.3 210 19:22 28.04.2022
2382 Clouds -18 1025 100 10000 0.3 210 18:35 28.04.2022
2383 Clouds -16 1024 99 10000 0.18 317 17:20 28.04.2022
2384 Clouds -16 1024 99 10000 0.18 317 16:40 28.04.2022
2385 Clouds -14 1023 96 10000 0.49 334 16:18 28.04.2022
2386 Clouds -12 1023 93 10000 0.43 17 15:28 28.04.2022
2387 Clouds -10 1022 91 10000 0.86 45 14:19 28.04.2022
2388 Clouds -8 1022 88 10000 1.22 23 12:44 28.04.2022
2389 Clouds -6 1021 85 10000 1.33 12 11:58 28.04.2022
2390 Clouds -5 1021 76 10000 1.76 15 10:46 28.04.2022
2391 Clouds -5 1020 73 10000 1.97 5 09:56 28.04.2022
2392 Clouds -5 1020 73 10000 2.24 3 08:31 28.04.2022
2393 Clouds -5 1019 74 10000 2.41 5 07:19 28.04.2022
2394 Clouds -6 1019 75 10000 2.49 1 05:56 28.04.2022
2395 Clouds -6 1019 75 10000 2.49 1 05:38 28.04.2022
2396 Clouds -6 1019 76 10000 2.59 359 04:40 28.04.2022
2397 Clouds -9 1019 84 10000 2 327 00:30 28.04.2022
2398 Clouds -11 1019 91 10000 1.57 314 22:45 27.04.2022
2399 Clouds -13 1019 96 10000 1.47 303 21:56 27.04.2022
2400 Clouds -14 1018 97 10000 1.51 302 21:26 27.04.2022
2401 Clouds -14 1018 97 10000 1.51 302 20:38 27.04.2022
2402 Clouds -14 1018 97 10000 1.58 304 19:38 27.04.2022
2403 Clouds -13 1018 97 10000 1.66 305 19:18 27.04.2022
2404 Clouds -13 1018 96 10000 1.68 309 18:25 27.04.2022
2405 Clouds -13 1018 96 10000 1.78 313 17:26 27.04.2022
2406 Clouds -11 1018 94 10000 2 329 15:22 27.04.2022
2407 Clouds -6 1018 87 10000 2.56 5 12:27 27.04.2022
2408 Clouds -4 1017 81 10000 3.25 16 11:23 27.04.2022
2409 Clouds -4 1017 76 10000 3.8 15 09:59 27.04.2022
2410 Clouds -4 1017 72 10000 3.48 7 07:25 27.04.2022
2411 Clouds -4 1017 72 10000 3.32 9 05:50 27.04.2022
2412 Clouds -7 1018 85 10000 2.33 18 01:52 27.04.2022
2413 Clouds -9 1019 89 10000 1.88 15 00:52 27.04.2022
2414 Clouds -11 1019 93 10000 1.54 9 23:58 26.04.2022
2415 Clouds -13 1019 97 10000 1.25 360 23:23 26.04.2022
2416 Clouds -13 1019 97 10000 1.25 360 22:42 26.04.2022
2417 Clouds -17 1019 99 6708 0.87 344 21:49 26.04.2022
2418 Clouds -18 1019 100 8364 1.11 342 20:56 26.04.2022
2419 Clouds -18 1019 100 8364 1.11 342 20:35 26.04.2022
2420 Clouds -18 1019 100 6986 1.04 351 19:34 26.04.2022
2421 Clouds -17 1019 100 8244 1.1 359 18:51 26.04.2022
2422 Clouds -16 1019 100 7605 1.16 9 18:18 26.04.2022
2423 Clouds -16 1019 100 7605 1.16 9 18:18 26.04.2022
2424 Clouds -16 1019 100 7605 1.16 9 17:33 26.04.2022
2425 Clouds -12 1018 95 10000 1.65 27 14:46 26.04.2022
2426 Clouds -12 1018 91 10000 1.57 40 13:34 26.04.2022
2427 Clouds -5 1017 84 10000 0.9 60 12:25 26.04.2022
2428 Clouds -3 1016 81 10000 0.88 76 10:46 26.04.2022
2429 Clouds -3 1016 73 10000 1.07 78 09:41 26.04.2022
2430 Clouds -3 1016 72 10000 0.86 87 08:28 26.04.2022
2431 Clouds -5 1017 76 10000 0.71 73 04:37 26.04.2022
2432 Clouds -7 1017 83 10000 0.79 57 02:40 26.04.2022
2433 Clouds -11 1018 95 3676 0.92 64 00:28 26.04.2022
2434 Clouds -13 1018 99 2731 0.7 57 22:50 25.04.2022
2435 Clouds -17 1018 100 2858 0.49 33 21:44 25.04.2022
2436 Clouds -17 1018 100 3177 0.52 39 20:46 25.04.2022
2437 Clouds -16 1018 100 3835 0.68 54 19:39 25.04.2022
2438 Clouds -15 1017 100 3266 0.74 13 18:25 25.04.2022
2439 Clouds -15 1017 100 3266 0.74 13 17:32 25.04.2022
2440 Clouds -12 1016 99 4478 0.81 33 15:38 25.04.2022
2441 Clouds -10 1016 98 4531 1.04 50 15:18 25.04.2022
2442 Clouds -8 1016 96 4740 1.15 55 13:43 25.04.2022
2443 Clouds -4 1014 89 10000 0.91 56 12:22 25.04.2022
2444 Clouds -3 1014 78 9890 0.93 50 10:27 25.04.2022
2445 Clouds -3 1014 75 10000 0.95 51 09:23 25.04.2022
2446 Clouds -4 1013 77 9563 0.73 45 07:19 25.04.2022
2447 Clouds -4 1013 73 10000 1.11 37 05:32 25.04.2022
2448 Clouds -9 1014 92 6598 0.89 356 01:24 25.04.2022
2449 Clouds -11 1014 95 5655 0.78 348 23:54 24.04.2022
2450 Clouds -13 1014 98 5268 0.72 344 22:53 24.04.2022
2451 Clouds -13 1014 98 5268 0.72 344 22:32 24.04.2022
2452 Clouds -13 1014 98 5268 0.72 344 22:32 24.04.2022
2453 Clouds -17 1014 100 5755 0.62 337 21:54 24.04.2022
2454 Clouds -18 1014 100 6815 0.56 347 21:20 24.04.2022
2455 Clouds -18 1014 100 6815 0.56 347 20:39 24.04.2022
2456 Clouds -18 1014 100 6527 0.66 347 19:51 24.04.2022
2457 Clouds -16 1014 100 9182 0.86 12 18:28 24.04.2022
2458 Clouds -16 1014 100 9182 0.86 12 17:40 24.04.2022
2459 Clouds -16 1013 100 7939 1.08 18 17:20 24.04.2022
2460 Clouds -16 1013 100 7939 1.08 18 16:49 24.04.2022
2461 Clouds -15 1013 99 10000 1.34 18 16:20 24.04.2022
2462 Clouds -15 1013 99 10000 1.34 18 15:36 24.04.2022
2463 Clouds -13 1013 97 10000 1.57 21 14:30 24.04.2022
2464 Clouds -7 1012 93 10000 1.72 37 13:26 24.04.2022
2465 Clouds -7 1012 93 10000 1.72 37 12:44 24.04.2022
2466 Clouds -4 1011 91 7194 1.77 44 11:44 24.04.2022
2467 Clouds -3 1011 84 9145 1.88 49 10:33 24.04.2022
2468 Clouds -3 1011 81 10000 1.79 49 09:41 24.04.2022
2469 Clouds -3 1011 78 10000 2.02 34 07:41 24.04.2022
2470 Clouds -4 1011 78 10000 2.19 42 05:32 24.04.2022
2471 Clouds -8 1012 88 5031 1.87 27 01:51 24.04.2022
2472 Clouds -9 1012 91 3207 1.63 25 00:38 24.04.2022
2473 Clouds -11 1013 94 2394 1.5 22 23:45 23.04.2022
2474 Clouds -13 1012 97 1839 1.31 9 23:25 23.04.2022
2475 Clouds -17 1013 100 1772 0.97 344 21:56 23.04.2022
2476 Clouds -17 1013 100 1772 0.97 344 21:36 23.04.2022
2477 Clouds -18 1013 100 2284 1.05 345 20:58 23.04.2022
2478 Clouds -18 1013 100 3649 1.05 337 19:54 23.04.2022
2479 Clouds -17 1013 100 6200 1.27 346 19:19 23.04.2022
2480 Clouds -17 1013 100 6200 1.27 346 18:53 23.04.2022
2481 Clouds -16 1013 100 8928 1.49 355 18:28 23.04.2022
2482 Clouds -16 1013 100 8928 1.49 355 17:43 23.04.2022
2483 Clouds -16 1012 99 9840 1.7 358 16:43 23.04.2022
2484 Clouds -15 1012 99 10000 1.83 358 15:35 23.04.2022
2485 Clouds -9 1012 93 10000 1.99 26 12:54 23.04.2022
2486 Clouds -3 1010 86 10000 3.48 44 10:53 23.04.2022
2487 Clouds -3 1010 82 10000 3.51 41 09:38 23.04.2022
2488 Clouds -3 1010 79 10000 2.65 29 07:52 23.04.2022
2489 Clouds -5 1010 84 10000 2.46 29 03:56 23.04.2022
2490 Clouds -6 1010 88 10000 2.22 29 01:55 23.04.2022
2491 Clouds -8 1010 93 8875 1.81 29 23:33 22.04.2022
2492 Clouds -12 1010 97 9232 1.27 17 22:28 22.04.2022
2493 Clouds -12 1010 97 9232 1.27 17 21:44 22.04.2022
2494 Clouds -12 1010 97 9232 1.27 17 21:44 22.04.2022
2495 Clouds -12 1010 97 10000 1.31 15 21:20 22.04.2022
2496 Clouds -12 1010 97 10000 1.55 12 20:28 22.04.2022
2497 Clouds -12 1010 98 7886 1.48 1 19:23 22.04.2022
2498 Clouds -12 1010 98 7886 1.48 1 18:52 22.04.2022
2499 Clouds -12 1010 99 8557 1.58 356 17:54 22.04.2022
2500 Clouds -13 1010 99 4993 1.57 353 16:53 22.04.2022
2501 Clouds -12 1010 100 5504 1.55 355 15:56 22.04.2022
2502 Clouds -11 1010 98 7856 1.49 5 15:22 22.04.2022
2503 Clouds -9 1009 96 10000 1.61 23 14:21 22.04.2022
2504 Clouds -6 1009 94 10000 1.87 25 13:27 22.04.2022
2505 Clouds -6 1009 94 10000 1.87 25 12:30 22.04.2022
2506 Clouds -2 1008 86 10000 2.18 29 11:23 22.04.2022
2507 Clouds -2 1008 86 10000 2.18 29 10:53 22.04.2022
2508 Clouds -2 1008 86 10000 2.18 29 10:32 22.04.2022
2509 Clouds -2 1008 84 9986 2.16 26 09:54 22.04.2022
2510 Clouds -2 1008 84 8305 2.08 20 08:56 22.04.2022
2511 Clouds -2 1008 82 10000 1.83 15 08:25 22.04.2022
2512 Clouds -2 1008 80 10000 1.84 6 05:31 22.04.2022
2513 Clouds -6 1008 90 6055 1.85 342 00:53 22.04.2022
2514 Clouds -8 1008 94 4452 1.71 337 23:29 21.04.2022
2515 Clouds -9 1008 96 5848 1.68 333 22:29 21.04.2022
2516 Clouds -9 1008 96 5848 1.68 333 22:29 21.04.2022
2517 Clouds -9 1008 97 5955 1.71 339 21:22 21.04.2022
2518 Clouds -8 1007 97 4923 1.69 344 20:27 21.04.2022
2519 Clouds -8 1007 97 3579 1.43 5 18:49 21.04.2022
2520 Clouds -8 1007 97 2681 1.37 16 18:19 21.04.2022
2521 Clouds -7 1007 97 1258 1.55 21 16:53 21.04.2022
2522 Snow -5 1006 97 648 1.85 4 15:24 21.04.2022
2523 Snow -5 1006 97 648 1.85 4 14:51 21.04.2022
2524 Snow -4 1006 97 1152 1.61 346 13:56 21.04.2022
2525 Snow -3 1006 98 2881 1.21 329 13:20 21.04.2022
2526 Snow -2 1005 97 1104 0.92 310 11:37 21.04.2022
2527 Clouds -1 1004 91 5634 0.89 260 09:24 21.04.2022
2528 Snow -1 1004 93 2017 0.75 262 08:29 21.04.2022
2529 Clouds -1 1004 90 3933 0.81 295 06:26 21.04.2022
2530 Clouds -2 1004 90 2547 0.77 302 03:39 21.04.2022
2531 Clouds -3 1004 90 1716 0.72 303 03:18 21.04.2022
2532 Clouds -3 1004 90 1716 0.72 303 02:43 21.04.2022
2533 Clouds -6 1003 94 2386 0.06 260 00:27 21.04.2022
2534 Clouds -7 1003 96 2369 0.15 103 23:25 20.04.2022
2535 Clouds -7 1003 96 2369 0.15 103 22:59 20.04.2022
2536 Clouds -7 1003 96 2369 0.15 103 22:33 20.04.2022
2537 Clouds -9 1003 98 2393 0.38 79 21:36 20.04.2022
2538 Clouds -10 1002 98 2612 0.62 65 20:43 20.04.2022
2539 Clouds -8 1002 97 3237 0.93 64 20:21 20.04.2022
2540 Clouds -8 1002 97 3237 0.93 64 19:39 20.04.2022
2541 Clouds -8 1001 97 1696 1.12 64 18:45 20.04.2022
2542 Clouds -8 1001 97 998 0.96 65 17:18 20.04.2022
2543 Clouds -8 1001 97 998 0.96 65 16:39 20.04.2022
2544 Clouds -8 1000 96 10000 0.91 55 14:58 20.04.2022
2545 Clouds -4 999 89 10000 1.16 69 12:22 20.04.2022
2546 Clouds -4 999 89 10000 1.16 69 11:40 20.04.2022
2547 Clouds -1 998 86 10000 1.01 86 10:43 20.04.2022
2548 Clouds 0 997 79 10000 1.29 138 09:28 20.04.2022
2549 Clouds 0 997 81 10000 1.52 153 08:29 20.04.2022
2550 Clouds 0 997 83 10000 1.56 167 07:53 20.04.2022
2551 Clouds -1 996 84 10000 0.99 164 06:18 20.04.2022
2552 Clouds -3 995 85 10000 1.32 183 01:37 20.04.2022
2553 Clouds -5 994 91 10000 0.86 132 00:21 20.04.2022
2554 Clouds -6 994 93 10000 0.79 104 22:53 19.04.2022
2555 Clouds -7 994 96 9001 0.64 132 22:23 19.04.2022
2556 Clouds -7 994 96 9001 0.64 132 21:49 19.04.2022
2557 Clouds -7 994 96 10000 1.02 51 20:59 19.04.2022
2558 Clouds -7 994 96 10000 1.02 51 20:37 19.04.2022
2559 Clouds -8 994 96 10000 0.9 52 19:32 19.04.2022
2560 Clouds -8 993 96 10000 1.02 65 18:31 19.04.2022
2561 Clouds -8 993 96 10000 1.22 62 16:55 19.04.2022
2562 Clouds -8 993 96 10000 1.22 62 16:33 19.04.2022
2563 Clouds -7 993 95 10000 1.14 71 15:59 19.04.2022
2564 Clouds -7 993 95 10000 1.3 70 14:46 19.04.2022
2565 Clouds -5 992 93 10000 1.54 67 12:58 19.04.2022
2566 Clouds -5 992 93 10000 1.54 67 12:36 19.04.2022
2567 Clouds -4 992 92 10000 1.71 59 11:35 19.04.2022
2568 Clouds -1 992 83 10000 2.6 76 09:52 19.04.2022
2569 Clouds -1 991 81 10000 3 91 08:22 19.04.2022
2570 Clouds -3 991 78 10000 1.73 91 04:26 19.04.2022
2571 Clouds -4 991 78 10000 1.65 80 02:41 19.04.2022
2572 Clouds -8 992 83 10000 1.59 78 00:23 19.04.2022
2573 Clouds -9 992 87 10000 1.62 86 22:58 18.04.2022
2574 Clouds -12 993 92 10000 1.72 88 21:29 18.04.2022
2575 Clouds -12 993 92 10000 1.72 88 20:46 18.04.2022
2576 Clouds -12 993 92 10000 1.82 92 20:25 18.04.2022
2577 Clouds -13 993 92 10000 1.77 87 19:41 18.04.2022
2578 Clouds -14 993 93 10000 1.73 93 18:52 18.04.2022
2579 Clouds -14 993 93 10000 1.86 94 17:53 18.04.2022
2580 Clouds -14 994 92 10000 2.08 95 17:28 18.04.2022
2581 Clouds -14 994 92 10000 2.08 95 16:40 18.04.2022
2582 Clouds -14 994 91 10000 2.29 96 15:54 18.04.2022
2583 Clouds -13 995 90 10000 2.41 96 14:42 18.04.2022
2584 Clouds -13 995 90 10000 2.41 96 14:42 18.04.2022
2585 Clouds -13 995 88 10000 2.43 95 13:31 18.04.2022
2586 Clouds -7 995 83 10000 2.25 113 12:28 18.04.2022
2587 Clouds -4 995 77 10000 3.41 145 11:20 18.04.2022
2588 Clouds -2 996 73 10000 6.06 159 10:29 18.04.2022
2589 Clouds -2 996 73 10000 6.06 159 09:30 18.04.2022
2590 Clouds -1 996 68 10000 6.62 160 07:35 18.04.2022
2591 Clouds -3 999 71 10000 3.87 166 04:40 18.04.2022
2592 Clouds -15 1004 92 10000 0.64 178 23:51 17.04.2022
2593 Clouds -19 1005 98 10000 0.75 212 22:40 17.04.2022
2594 Clouds -22 1006 99 10000 0.76 210 21:42 17.04.2022
2595 Clouds -22 1007 99 10000 0.76 222 21:21 17.04.2022
2596 Clouds -22 1007 99 10000 0.76 222 20:32 17.04.2022
2597 Clouds -20 1007 99 10000 1.23 116 19:23 17.04.2022
2598 Clouds -19 1008 99 10000 1.43 108 17:43 17.04.2022
2599 Clouds -17 1009 98 10000 1.71 105 15:39 17.04.2022
2600 Clouds -16 1009 95 10000 1.83 109 14:54 17.04.2022
2601 Clouds -14 1010 91 10000 1.65 114 13:47 17.04.2022
2602 Clouds -11 1011 87 10000 1.48 118 12:58 17.04.2022
2603 Clouds -8 1011 83 10000 1.29 123 12:18 17.04.2022
2604 Clouds -5 1011 80 10000 1.21 155 10:46 17.04.2022
2605 Clouds -3 1011 70 10000 2.34 173 10:27 17.04.2022
2606 Clouds -3 1012 67 10000 2.75 178 09:28 17.04.2022
2607 Clouds -3 1012 67 10000 2.75 178 08:42 17.04.2022
2608 Clouds -4 1013 72 10000 2.72 187 07:26 17.04.2022
2609 Clouds -8 1016 80 10000 2.04 187 03:53 17.04.2022
2610 Clouds -13 1019 93 6444 1.07 217 00:55 17.04.2022
2611 Clouds -15 1019 97 4039 0.95 209 23:50 16.04.2022
2612 Clouds -20 1020 100 3378 0.49 220 22:27 16.04.2022
2613 Clouds -20 1020 100 3378 0.49 220 21:31 16.04.2022
2614 Clouds -20 1021 100 4822 0.21 222 20:18 16.04.2022
2615 Clouds -21 1021 100 7845 0.12 201 18:55 16.04.2022
2616 Clouds -20 1021 100 10000 0.12 168 17:41 16.04.2022
2617 Clouds -19 1021 100 10000 0.17 109 16:38 16.04.2022
2618 Clouds -19 1021 99 10000 0.37 43 15:43 16.04.2022
2619 Clouds -17 1021 97 10000 0.59 25 14:55 16.04.2022
2620 Clouds -16 1021 94 10000 0.73 15 13:58 16.04.2022
2621 Clouds -15 1021 91 10000 0.65 32 13:28 16.04.2022
2622 Clouds -11 1020 86 10000 0.87 50 12:20 16.04.2022
2623 Clouds -8 1020 84 10000 1.06 49 10:49 16.04.2022
2624 Clouds -7 1020 73 10000 1.36 44 09:56 16.04.2022
2625 Clouds -7 1019 71 10000 1.51 40 08:57 16.04.2022
2626 Clouds -7 1019 65 10000 1.33 35 07:35 16.04.2022
2627 Clouds -8 1019 66 10000 1.41 31 06:58 16.04.2022
2628 Clouds -11 1020 84 10000 1.43 2 02:46 16.04.2022
2629 Clouds -14 1020 94 10000 1.15 346 00:30 16.04.2022
2630 Clouds -20 1020 100 6791 0.98 312 22:58 15.04.2022
2631 Clouds -20 1020 100 6791 0.98 312 22:32 15.04.2022
2632 Clouds -23 1020 100 4870 1.19 307 21:50 15.04.2022
2633 Clouds -23 1020 100 5146 1.31 301 21:18 15.04.2022
2634 Clouds -21 1019 100 5446 1.37 295 20:21 15.04.2022
2635 Clouds -22 1019 100 4471 1.4 297 19:39 15.04.2022
2636 Clouds -20 1019 100 4454 1.45 293 18:53 15.04.2022
2637 Clouds -19 1018 100 4225 1.5 289 18:25 15.04.2022
2638 Clouds -19 1018 100 4225 1.5 289 17:34 15.04.2022
2639 Clouds -19 1018 100 5155 1.57 295 16:48 15.04.2022
2640 Clouds -18 1017 100 6909 1.65 297 16:18 15.04.2022
2641 Clouds -17 1017 100 10000 1.75 303 14:51 15.04.2022
2642 Clouds -15 1016 98 10000 1.71 313 13:40 15.04.2022
2643 Clouds -13 1016 94 10000 1.72 333 12:40 15.04.2022
2644 Clouds -9 1015 90 10000 2.01 356 11:56 15.04.2022
2645 Clouds -9 1015 90 10000 2.01 356 11:30 15.04.2022
2646 Clouds -5 1014 85 10000 2.53 6 10:40 15.04.2022
2647 Clouds -3 1014 78 10000 3.52 12 09:46 15.04.2022
2648 Clouds -3 1013 72 10000 4.06 17 09:21 15.04.2022
2649 Clouds -3 1013 72 10000 3.3 21 07:32 15.04.2022
2650 Clouds -3 1013 74 10000 2.66 23 06:36 15.04.2022
2651 Clouds -9 1014 80 10000 1.4 33 02:48 15.04.2022
2652 Clouds -15 1014 97 10000 0.68 36 23:31 14.04.2022
2653 Clouds -19 1014 100 7561 0.49 28 22:49 14.04.2022
2654 Clouds -19 1014 100 7561 0.49 28 22:30 14.04.2022
2655 Clouds -21 1014 100 6593 0.79 38 21:59 14.04.2022
2656 Clouds -21 1014 100 5520 1.15 55 20:57 14.04.2022
2657 Clouds -20 1013 100 5868 1.48 65 19:23 14.04.2022
2658 Clouds -20 1013 100 5868 1.48 65 18:30 14.04.2022
2659 Clouds -19 1013 100 6383 1.65 71 17:44 14.04.2022
2660 Clouds -18 1013 100 6809 1.83 77 16:46 14.04.2022
2661 Clouds -15 1012 99 9756 2.1 81 15:26 14.04.2022
2662 Clouds -14 1012 96 10000 1.95 87 13:47 14.04.2022
2663 Clouds -11 1012 92 10000 1.85 98 12:57 14.04.2022
2664 Clouds -11 1012 92 10000 1.85 98 12:31 14.04.2022
2665 Clouds -6 1011 90 10000 1.77 100 11:30 14.04.2022
2666 Clouds -4 1011 88 5821 2.19 109 10:54 14.04.2022
2667 Snow -4 1012 87 2712 2.34 100 10:27 14.04.2022
2668 Clouds -4 1012 85 3814 2.24 92 09:25 14.04.2022
2669 Clouds -5 1013 85 5176 1.77 90 07:36 14.04.2022
2670 Clouds -8 1015 80 3167 1.22 117 04:35 14.04.2022
2671 Clouds -17 1019 99 1789 0.29 24 23:45 13.04.2022
2672 Clouds -23 1021 100 1573 0.52 26 22:24 13.04.2022
2673 Clouds -23 1021 100 1573 0.52 26 21:42 13.04.2022
2674 Clouds -22 1022 100 1848 0.59 47 20:27 13.04.2022
2675 Clouds -22 1022 100 1848 0.59 47 19:46 13.04.2022
2676 Clouds -23 1022 100 1855 0.44 56 18:36 13.04.2022
2677 Clouds -21 1023 100 2010 0.58 28 17:24 13.04.2022
2678 Clouds -21 1023 100 2010 0.58 28 16:44 13.04.2022
2679 Clouds -21 1023 100 2585 0.68 40 15:44 13.04.2022
2680 Clouds -19 1024 100 4325 0.71 37 15:19 13.04.2022
2681 Clouds -19 1024 100 4325 0.71 37 14:34 13.04.2022
2682 Clouds -14 1023 100 5371 0.89 52 13:37 13.04.2022
2683 Clouds -12 1024 98 5679 0.87 56 12:41 13.04.2022
2684 Clouds -9 1024 91 797 0.93 44 11:24 13.04.2022
2685 Clouds -9 1024 88 557 1.05 56 09:53 13.04.2022
2686 Clouds -10 1024 85 544 1.18 56 08:44 13.04.2022
2687 Snow -9 1025 84 589 1.42 50 07:38 13.04.2022
2688 Clouds -10 1025 83 617 1.45 54 06:46 13.04.2022
2689 Snow -10 1026 82 561 1.39 50 06:23 13.04.2022
2690 Clouds -14 1029 93 733 1.89 18 00:28 13.04.2022
2691 Clouds -14 1029 93 733 1.89 18 23:55 12.04.2022
2692 Clouds -15 1029 93 1632 1.82 13 22:31 12.04.2022
2693 Clouds -16 1029 95 3803 1.94 4 21:42 12.04.2022
2694 Clouds -15 1029 95 5999 2.11 360 20:44 12.04.2022
2695 Clouds -15 1029 95 5087 2.31 2 20:18 12.04.2022
2696 Clouds -14 1029 95 3543 2.22 5 19:39 12.04.2022
2697 Clouds -14 1029 96 2037 2.48 2 18:52 12.04.2022
2698 Clouds -13 1029 96 949 2.56 358 17:38 12.04.2022
2699 Clouds -13 1028 96 917 2.58 358 16:34 12.04.2022
2700 Clouds -12 1028 96 1353 2.4 357 15:33 12.04.2022
2701 Clouds -13 1028 96 3448 1.91 359 14:41 12.04.2022
2702 Clouds -12 1028 96 10000 1.54 9 13:45 12.04.2022
2703 Clouds -11 1028 94 10000 1.63 15 13:23 12.04.2022
2704 Clouds -9 1028 93 10000 1.78 10 11:49 12.04.2022
2705 Clouds -7 1027 88 10000 1.88 4 11:28 12.04.2022
2706 Clouds -6 1027 79 10000 1.44 2 09:32 12.04.2022
2707 Clouds -6 1026 72 10000 0.78 350 08:32 12.04.2022
2708 Clouds -8 1027 68 10000 0.34 318 06:46 12.04.2022
2709 Clouds -9 1027 69 10000 0.49 242 05:38 12.04.2022
2710 Clouds -14 1028 85 10000 1.31 232 01:48 12.04.2022
2711 Clouds -23 1029 100 10000 1.22 244 23:20 11.04.2022
2712 Clouds -25 1029 100 10000 1.2 222 21:59 11.04.2022
2713 Clouds -24 1029 100 10000 1.16 207 21:18 11.04.2022
2714 Clouds -24 1029 100 10000 1.16 207 20:34 11.04.2022
2715 Clouds -23 1029 100 10000 0.91 200 19:58 11.04.2022
2716 Clouds -23 1028 100 10000 0.89 174 19:26 11.04.2022
2717 Clouds -23 1028 100 10000 0.89 174 18:53 11.04.2022
2718 Clouds -22 1028 100 10000 1.08 152 17:58 11.04.2022
2719 Clouds -22 1028 100 10000 1.08 152 17:33 11.04.2022
2720 Clouds -20 1028 99 10000 1.5 141 16:26 11.04.2022
2721 Clouds -19 1028 97 10000 1.59 143 14:42 11.04.2022
2722 Clouds -17 1028 95 10000 1.6 145 13:34 11.04.2022
2723 Clouds -14 1027 91 10000 1.57 150 12:38 11.04.2022
2724 Clouds -11 1027 88 10000 1.48 159 12:19 11.04.2022
2725 Clouds -8 1026 85 10000 1.37 171 10:36 11.04.2022
2726 Clouds -6 1026 78 10000 1.77 178 09:49 11.04.2022
2727 Clouds -7 1027 74 10000 2.29 171 07:58 11.04.2022
2728 Clouds -12 1028 81 10000 1.92 190 04:18 11.04.2022
2729 Clouds -20 1030 100 6073 1.19 214 23:30 10.04.2022
2730 Clouds -27 1031 100 6080 1.12 233 22:27 10.04.2022
2731 Clouds -27 1031 100 6080 1.12 233 21:49 10.04.2022
2732 Clouds -26 1030 100 6965 1.07 225 20:50 10.04.2022
2733 Clouds -26 1030 100 6965 1.07 225 20:50 10.04.2022
2734 Clouds -26 1030 100 8927 0.64 229 19:56 10.04.2022
2735 Clouds -26 1030 100 7834 0.92 223 19:34 10.04.2022
2736 Clouds -25 1029 100 9738 0.58 259 18:48 10.04.2022
2737 Clouds -25 1029 100 10000 0.78 277 18:24 10.04.2022
2738 Clouds -25 1029 100 10000 0.78 277 17:42 10.04.2022
2739 Clouds -24 1029 100 10000 0.94 278 16:51 10.04.2022
2740 Clouds -23 1029 100 10000 1.04 284 15:38 10.04.2022
2741 Clouds -21 1029 100 10000 1.01 294 14:37 10.04.2022
2742 Clouds -18 1028 96 10000 1.19 317 12:58 10.04.2022
2743 Clouds -15 1027 90 10000 1.27 326 12:26 10.04.2022
2744 Clouds -15 1027 90 10000 1.27 326 11:35 10.04.2022
2745 Clouds -11 1026 86 10000 1.43 340 10:58 10.04.2022
2746 Clouds -9 1026 77 10000 2.18 0 10:22 10.04.2022
2747 Clouds -9 1026 77 10000 2.18 0 09:41 10.04.2022
2748 Clouds -9 1025 75 10000 2.51 17 08:26 10.04.2022
2749 Clouds -9 1025 76 10000 2.34 18 07:47 10.04.2022
2750 Clouds -10 1025 77 10000 2.46 26 06:43 10.04.2022
2751 Clouds -13 1024 82 10000 2.79 17 03:36 10.04.2022
2752 Clouds -17 1023 89 10000 2.06 354 01:29 10.04.2022
2753 Clouds -19 1023 94 10000 1.68 330 23:52 09.04.2022
2754 Clouds -22 1023 98 10000 1.48 313 22:52 09.04.2022
2755 Clouds -23 1022 98 10000 1.55 309 21:48 09.04.2022
2756 Clouds -23 1021 99 10000 1.64 311 20:58 09.04.2022
2757 Clouds -23 1021 99 10000 1.72 311 20:26 09.04.2022
2758 Clouds -22 1021 98 10000 1.68 309 19:43 09.04.2022
2759 Clouds -20 1020 97 10000 1.78 308 19:21 09.04.2022
2760 Clouds -19 1019 97 10000 1.86 311 18:22 09.04.2022
2761 Clouds -19 1019 97 10000 1.86 311 17:42 09.04.2022
2762 Clouds -18 1019 97 10000 1.86 314 16:55 09.04.2022
2763 Clouds -17 1019 96 10000 1.82 327 16:28 09.04.2022
2764 Clouds -17 1019 96 10000 1.82 327 15:48 09.04.2022
2765 Clouds -16 1018 96 10000 2.02 333 14:45 09.04.2022
2766 Clouds -15 1018 95 10000 2.09 338 14:24 09.04.2022
2767 Clouds -13 1017 92 10000 2.18 341 13:21 09.04.2022
2768 Clouds -13 1017 92 10000 2.18 341 12:52 09.04.2022
2769 Clouds -11 1016 90 10000 2.37 350 11:44 09.04.2022
2770 Clouds -6 1015 82 10000 3.8 9 10:22 09.04.2022
2771 Clouds -6 1015 82 10000 3.8 9 09:53 09.04.2022
2772 Clouds -5 1014 76 10000 4.05 14 08:59 09.04.2022
2773 Clouds -5 1014 75 10000 2.98 14 07:44 09.04.2022
2774 Clouds -10 1015 88 5926 1.03 320 03:21 09.04.2022
2775 Clouds -12 1015 94 3227 0.95 302 00:32 09.04.2022
2776 Clouds -17 1015 99 2173 0.71 283 22:58 08.04.2022
2777 Clouds -20 1015 100 2552 0.88 262 21:42 08.04.2022
2778 Clouds -19 1015 100 3486 1.07 254 20:41 08.04.2022
2779 Clouds -19 1015 100 3792 1.03 254 19:41 08.04.2022
2780 Clouds -19 1015 100 3021 0.85 283 18:38 08.04.2022
2781 Clouds -18 1014 100 3400 0.91 282 18:18 08.04.2022
2782 Clouds -18 1014 100 4000 0.92 281 17:27 08.04.2022
2783 Clouds -18 1014 100 4000 0.92 281 16:52 08.04.2022
2784 Clouds -17 1014 100 5269 0.88 280 16:22 08.04.2022
2785 Clouds -16 1013 99 9210 0.95 284 15:28 08.04.2022
2786 Clouds -16 1013 99 9210 0.95 284 14:44 08.04.2022
2787 Clouds -14 1013 97 10000 0.86 275 13:59 08.04.2022
2788 Clouds -15 1013 97 10000 0.88 263 13:30 08.04.2022
2789 Clouds -13 1012 94 10000 0.84 252 12:45 08.04.2022
2790 Clouds -7 1011 89 10000 0.84 249 10:56 08.04.2022
2791 Clouds -6 1011 82 10000 0.5 270 09:57 08.04.2022
2792 Clouds -6 1011 78 10000 0.53 322 08:59 08.04.2022
2793 Clouds -7 1011 77 10000 0.89 323 07:43 08.04.2022
2794 Clouds -7 1011 77 10000 1.08 322 06:44 08.04.2022
2795 Clouds -12 1012 84 10000 0.76 286 02:53 08.04.2022
2796 Clouds -17 1013 98 9551 0.99 257 00:29 08.04.2022
2797 Clouds -17 1013 98 9551 0.99 257 23:43 07.04.2022
2798 Clouds -22 1013 100 6747 0.88 247 22:44 07.04.2022
2799 Clouds -23 1013 100 6915 0.8 258 22:23 07.04.2022
2800 Clouds -23 1013 100 6915 0.8 258 21:58 07.04.2022
2801 Clouds -23 1013 100 6915 0.8 258 21:30 07.04.2022
2802 Clouds -22 1013 100 7213 0.8 267 20:42 07.04.2022
2803 Clouds -22 1013 100 7688 0.49 274 20:20 07.04.2022
2804 Clouds -21 1013 100 10000 0.55 290 17:43 07.04.2022
2805 Clouds -20 1013 100 10000 0.31 287 17:22 07.04.2022
2806 Clouds -20 1013 100 10000 0.31 287 16:34 07.04.2022
2807 Clouds -19 1013 100 10000 0.2 353 15:47 07.04.2022
2808 Clouds -17 1013 97 10000 0.1 115 13:54 07.04.2022
2809 Clouds -17 1013 97 10000 0.24 66 13:24 07.04.2022
2810 Clouds -14 1013 92 10000 0.56 55 11:53 07.04.2022
2811 Clouds -11 1013 89 10000 0.94 47 10:54 07.04.2022
2812 Clouds -9 1013 77 10000 0.79 43 09:19 07.04.2022
2813 Clouds -11 1014 73 10000 0.63 105 06:59 07.04.2022
2814 Clouds -13 1016 76 10000 0.78 92 05:28 07.04.2022
2815 Clouds -15 1018 84 10000 0.63 90 02:37 07.04.2022
2816 Clouds -17 1019 94 8772 0.43 57 00:44 07.04.2022
2817 Clouds -19 1020 99 6201 0.49 87 23:36 06.04.2022
2818 Clouds -21 1020 100 4760 0.34 43 22:45 06.04.2022
2819 Clouds -23 1021 100 4597 0.33 50 22:20 06.04.2022
2820 Clouds -23 1022 100 4775 0.46 38 20:50 06.04.2022
2821 Clouds -23 1022 100 4967 0.68 18 20:26 06.04.2022
2822 Clouds -23 1023 100 5060 0.69 12 19:48 06.04.2022
2823 Clouds -23 1023 100 4899 0.59 29 18:48 06.04.2022
2824 Clouds -23 1024 100 4995 0.48 13 17:38 06.04.2022
2825 Clouds -22 1024 100 6376 0.42 69 17:20 06.04.2022
2826 Clouds -22 1024 100 6376 0.42 69 16:34 06.04.2022
2827 Clouds -23 1024 100 6766 0.87 2 15:45 06.04.2022
2828 Clouds -21 1025 100 10000 0.55 358 13:57 06.04.2022
2829 Clouds -20 1025 98 10000 0.41 29 12:37 06.04.2022
2830 Clouds -18 1024 94 10000 0.34 51 11:48 06.04.2022
2831 Clouds -14 1024 88 10000 0.79 58 10:42 06.04.2022
2832 Clouds -12 1024 81 10000 1.19 42 10:18 06.04.2022
2833 Clouds -12 1024 76 10000 1.14 62 09:26 06.04.2022
2834 Clouds -12 1024 76 10000 1.52 60 08:26 06.04.2022
2835 Clouds -13 1024 76 10000 1.28 74 07:37 06.04.2022
2836 Clouds -20 1027 96 6889 0.58 57 02:19 06.04.2022
2837 Clouds -24 1027 100 2953 0.22 356 23:50 05.04.2022
2838 Clouds -29 1027 100 2838 0.41 30 22:20 05.04.2022
2839 Clouds -29 1026 100 2790 0.43 26 21:18 05.04.2022
2840 Clouds -28 1026 100 3292 0.52 13 20:25 05.04.2022
2841 Clouds -27 1025 100 3137 0.55 17 18:56 05.04.2022
2842 Clouds -26 1025 100 4228 0.75 13 17:31 05.04.2022
2843 Clouds -26 1025 100 4607 0.45 24 16:47 05.04.2022
2844 Clouds -25 1024 100 5905 0.53 27 15:53 05.04.2022
2845 Clouds -25 1024 100 5905 0.53 27 15:33 05.04.2022
2846 Clouds -22 1023 100 10000 1.08 27 14:22 05.04.2022
2847 Clouds -21 1022 98 10000 1.18 32 12:56 05.04.2022
2848 Clouds -18 1022 94 10000 1.53 30 11:50 05.04.2022
2849 Clouds -18 1022 94 10000 1.53 30 11:32 05.04.2022
2850 Clouds -11 1020 78 10000 1.67 25 09:49 05.04.2022
2851 Clouds -11 1020 73 10000 1.8 23 08:52 05.04.2022
2852 Clouds -13 1020 73 10000 1.57 35 06:52 05.04.2022
2853 Clouds -21 1022 99 5133 0.55 16 00:41 05.04.2022
2854 Clouds -28 1022 100 3373 0.5 322 22:41 04.04.2022
2855 Clouds -29 1022 100 3186 0.58 318 22:19 04.04.2022
2856 Clouds -28 1022 100 3368 0.54 301 21:21 04.04.2022
2857 Clouds -28 1022 100 3368 0.54 301 20:49 04.04.2022
2858 Clouds -28 1021 100 3600 0.61 307 19:45 04.04.2022
2859 Clouds -27 1021 100 3991 0.71 318 19:25 04.04.2022
2860 Clouds -26 1021 100 4262 0.69 326 18:20 04.04.2022
2861 Clouds -25 1020 100 4871 0.91 340 16:36 04.04.2022
2862 Clouds -24 1020 100 6126 1.09 350 15:43 04.04.2022
2863 Clouds -23 1019 100 7780 1.16 1 15:25 04.04.2022
2864 Clouds -23 1019 100 7780 1.16 1 14:46 04.04.2022
2865 Clouds -21 1019 100 5984 1.47 6 13:30 04.04.2022
2866 Clouds -16 1017 96 10000 1.69 15 11:55 04.04.2022
2867 Clouds -13 1016 89 10000 1.19 34 11:28 04.04.2022
2868 Clouds -10 1015 77 10000 2.05 45 08:54 04.04.2022
2869 Clouds -13 1015 83 10000 1.59 50 04:45 04.04.2022
2870 Clouds -18 1014 99 2533 1.27 59 01:28 04.04.2022
2871 Clouds -24 1014 100 2258 0.95 46 22:43 03.04.2022
2872 Clouds -24 1013 100 2757 1.1 48 21:46 03.04.2022
2873 Clouds -22 1013 100 2687 1 56 20:56 03.04.2022
2874 Clouds -22 1012 100 1757 0.97 58 19:50 03.04.2022
2875 Clouds -21 1011 100 1638 1.03 51 18:33 03.04.2022
2876 Clouds -20 1011 100 1292 0.82 60 17:47 03.04.2022
2877 Clouds -20 1010 100 1734 0.93 49 16:59 03.04.2022
2878 Clouds -20 1010 100 1734 0.93 49 16:41 03.04.2022
2879 Clouds -18 1009 100 4262 0.38 68 14:52 03.04.2022
2880 Clouds -17 1009 98 6412 0.3 104 13:55 03.04.2022
2881 Clouds -16 1008 95 10000 0.39 147 12:46 03.04.2022
2882 Clouds -11 1006 87 10000 0.8 139 11:29 03.04.2022
2883 Clouds -8 1006 84 10000 0.73 97 09:39 03.04.2022
2884 Clouds -8 1005 76 10000 0.92 59 08:40 03.04.2022
2885 Clouds -10 1005 76 10000 0.89 7 05:42 03.04.2022
2886 Clouds -13 1006 86 10000 0.41 289 02:54 03.04.2022
2887 Clouds -20 1006 99 9830 0.96 250 23:22 02.04.2022
2888 Clouds -20 1006 99 9830 0.96 250 22:38 02.04.2022
2889 Clouds -20 1006 99 10000 0.84 254 21:49 02.04.2022
2890 Clouds -20 1006 99 10000 0.72 259 21:19 02.04.2022
2891 Clouds -20 1006 99 10000 0.72 259 20:35 02.04.2022
2892 Clouds -22 1006 100 10000 0.26 10 18:27 02.04.2022
2893 Clouds -22 1006 100 10000 0.26 10 17:54 02.04.2022
2894 Clouds -21 1006 100 9912 0.4 48 16:39 02.04.2022
2895 Clouds -20 1006 100 10000 0.75 62 15:23 02.04.2022
2896 Clouds -20 1006 100 10000 0.75 62 14:51 02.04.2022
2897 Clouds -20 1007 100 10000 0.88 52 13:57 02.04.2022
2898 Clouds -17 1006 98 10000 0.87 54 13:23 02.04.2022
2899 Clouds -16 1006 95 10000 1.16 56 11:54 02.04.2022
2900 Clouds -9 1006 86 10000 1.35 52 09:57 02.04.2022
2901 Clouds -10 1006 77 10000 1.25 72 07:33 02.04.2022
2902 Clouds -14 1008 78 10000 0.71 92 03:59 02.04.2022
2903 Clouds -23 1011 99 10000 0.5 224 00:27 02.04.2022
2904 Clouds -23 1011 99 10000 0.5 224 23:53 01.04.2022
2905 Clouds -27 1012 100 10000 0.75 238 22:34 01.04.2022
2906 Clouds -26 1012 100 10000 0.28 162 20:54 01.04.2022
2907 Clouds -26 1012 100 10000 0.28 162 20:32 01.04.2022
2908 Clouds -26 1012 100 10000 0.59 99 19:39 01.04.2022
2909 Clouds -26 1012 100 10000 0.59 99 19:39 01.04.2022
2910 Clouds -25 1012 100 10000 0.95 95 19:18 01.04.2022
2911 Clouds -25 1012 100 10000 0.95 95 18:36 01.04.2022
2912 Clouds -25 1012 100 10000 1.09 95 17:36 01.04.2022
2913 Clouds -23 1013 100 10000 1.44 94 15:46 01.04.2022
2914 Clouds -22 1013 100 10000 1.54 93 14:51 01.04.2022
2915 Clouds -21 1014 99 10000 1.61 95 13:39 01.04.2022
2916 Clouds -20 1014 98 10000 1.55 94 12:33 01.04.2022
2917 Clouds -17 1014 95 10000 1.69 91 11:47 01.04.2022
2918 Clouds -13 1013 90 10000 1.97 88 10:49 01.04.2022
2919 Clouds -9 1013 84 10000 2.81 103 09:35 01.04.2022
2920 Clouds -9 1014 73 10000 2.69 153 07:31 01.04.2022
2921 Clouds -13 1017 79 10000 1.83 145 04:59 01.04.2022
2922 Clouds -13 1017 79 10000 1.83 145 04:39 01.04.2022
2923 Clouds -17 1019 89 10000 1.41 152 02:37 01.04.2022
2924 Clouds -19 1020 95 7857 0.9 167 01:34 01.04.2022
2925 Clouds -28 1023 100 4207 0.96 206 22:31 31.03.2022
2926 Clouds -28 1023 100 4751 0.98 210 21:40 31.03.2022
2927 Clouds -29 1023 100 5030 0.89 195 20:51 31.03.2022
2928 Clouds -28 1023 100 7218 0.66 189 20:28 31.03.2022
2929 Clouds -27 1023 100 6749 0.72 133 19:29 31.03.2022
2930 Clouds -27 1023 100 6749 0.72 133 18:33 31.03.2022
2931 Clouds -25 1023 100 10000 0.91 117 16:47 31.03.2022
2932 Clouds -24 1023 100 10000 0.83 121 15:55 31.03.2022
2933 Clouds -24 1023 100 10000 0.93 132 15:26 31.03.2022
2934 Clouds -24 1023 100 10000 0.93 132 14:48 31.03.2022
2935 Clouds -22 1023 99 10000 1.04 132 13:42 31.03.2022
2936 Clouds -19 1023 94 10000 0.71 112 11:31 31.03.2022
2937 Clouds -11 1022 83 10000 0.37 242 10:26 31.03.2022
2938 Clouds -11 1022 83 10000 0.37 242 09:39 31.03.2022
2939 Clouds -11 1022 73 10000 1.53 260 07:49 31.03.2022
2940 Clouds -13 1022 82 5217 0.92 268 03:30 31.03.2022
2941 Clouds -20 1022 100 711 0.56 284 23:25 30.03.2022
2942 Clouds -20 1022 100 1026 0.65 279 21:57 30.03.2022
2943 Clouds -20 1022 100 1026 0.65 279 21:31 30.03.2022
2944 Clouds -20 1021 100 671 0.64 279 20:44 30.03.2022
2945 Clouds -20 1021 100 803 0.73 273 19:48 30.03.2022
2946 Clouds -21 1021 100 606 0.6 291 18:44 30.03.2022
2947 Clouds -22 1020 100 1071 0.61 296 17:51 30.03.2022
2948 Clouds -21 1020 100 2876 0.63 293 17:23 30.03.2022
2949 Clouds -21 1020 100 2876 0.63 293 16:41 30.03.2022
2950 Clouds -20 1019 100 4189 0.71 300 15:59 30.03.2022
2951 Clouds -20 1019 100 10000 0.76 318 14:36 30.03.2022
2952 Clouds -20 1018 99 10000 0.63 306 13:22 30.03.2022
2953 Clouds -20 1018 99 10000 0.63 306 12:32 30.03.2022
2954 Clouds -15 1017 91 10000 0.62 284 10:48 30.03.2022
2955 Clouds -11 1016 87 10000 0.75 295 09:55 30.03.2022
2956 Clouds -10 1015 75 10000 0.57 305 08:27 30.03.2022
2957 Clouds -12 1016 75 10000 0.49 288 07:28 30.03.2022
2958 Clouds -13 1016 77 10000 0.63 268 05:40 30.03.2022
2959 Clouds -17 1016 88 10000 0.4 220 02:32 30.03.2022
2960 Clouds -26 1016 100 3441 1.19 210 22:43 29.03.2022
2961 Clouds -25 1015 100 3151 1.31 214 21:52 29.03.2022
2962 Clouds -25 1015 100 3151 1.31 214 21:34 29.03.2022
2963 Clouds -23 1014 100 2512 1 203 20:26 29.03.2022
2964 Clouds -20 1014 100 807 0.75 182 19:32 29.03.2022
2965 Clouds -20 1013 100 793 0.6 151 18:53 29.03.2022
2966 Clouds -19 1013 100 746 0.47 113 17:52 29.03.2022
2967 Clouds -20 1013 100 859 0.69 100 17:19 29.03.2022
2968 Clouds -20 1013 100 859 0.69 100 16:53 29.03.2022
2969 Clouds -20 1012 100 1405 0.81 114 15:41 29.03.2022
2970 Clouds -19 1012 100 2207 0.85 116 14:43 29.03.2022
2971 Clouds -19 1012 100 2207 0.85 116 14:43 29.03.2022
2972 Clouds -17 1012 98 10000 0.66 81 13:35 29.03.2022
2973 Clouds -14 1011 93 10000 0.84 59 12:22 29.03.2022
2974 Clouds -11 1010 89 10000 0.91 48 11:18 29.03.2022
2975 Clouds -9 1010 84 10000 0.62 75 09:58 29.03.2022
2976 Clouds -9 1009 78 10000 0.76 106 08:44 29.03.2022
2977 Clouds -11 1009 78 10000 0.6 137 06:53 29.03.2022
2978 Clouds -16 1010 88 10000 0.63 215 02:52 29.03.2022
2979 Clouds -23 1010 100 7386 0.78 232 23:37 28.03.2022
2980 Clouds -24 1010 100 7695 0.68 223 22:57 28.03.2022
2981 Clouds -24 1010 100 7695 0.68 223 22:33 28.03.2022
2982 Clouds -24 1010 100 7256 0.66 236 21:43 28.03.2022
2983 Clouds -24 1010 100 7537 0.66 225 20:35 28.03.2022
2984 Clouds -26 1010 100 6165 0.59 220 19:48 28.03.2022
2985 Clouds -26 1010 100 6165 0.59 220 19:48 28.03.2022
2986 Clouds -26 1010 100 6165 0.59 220 19:30 28.03.2022
2987 Clouds -25 1010 100 7748 0.53 215 18:51 28.03.2022
2988 Clouds -24 1009 100 10000 0.56 155 17:41 28.03.2022
2989 Clouds -23 1009 100 10000 0.59 126 16:56 28.03.2022
2990 Clouds -22 1008 100 10000 0.88 96 15:22 28.03.2022
2991 Clouds -21 1008 99 10000 1.11 93 14:24 28.03.2022
2992 Clouds -19 1008 99 10000 1.02 85 13:19 28.03.2022
2993 Clouds -17 1008 97 10000 1.05 72 11:52 28.03.2022
2994 Clouds -10 1006 86 10000 1.18 66 09:55 28.03.2022
2995 Clouds -9 1006 77 10000 1.12 108 09:21 28.03.2022
2996 Clouds -9 1006 77 10000 1.12 108 08:39 28.03.2022
2997 Clouds -9 1007 76 10000 1.12 108 08:18 28.03.2022
2998 Clouds -10 1007 74 10000 1.11 111 06:31 28.03.2022
2999 Clouds -21 1011 94 10000 0.79 214 00:30 28.03.2022
3000 Clouds -29 1012 99 10000 1.03 217 22:35 27.03.2022
3001 Clouds -28 1012 99 10000 1.13 211 21:43 27.03.2022
3002 Clouds -27 1012 99 10000 1.02 207 21:18 27.03.2022
3003 Clouds -26 1012 99 10000 0.96 203 20:24 27.03.2022
3004 Clouds -27 1012 99 10000 1.12 201 19:37 27.03.2022
3005 Clouds -26 1012 99 10000 0.95 195 18:44 27.03.2022
3006 Clouds -25 1012 99 10000 0.99 183 18:23 27.03.2022
3007 Clouds -25 1012 99 10000 0.99 183 17:35 27.03.2022
3008 Clouds -23 1012 99 10000 0.94 147 15:51 27.03.2022
3009 Clouds -21 1012 97 10000 1.47 134 13:58 27.03.2022
3010 Clouds -19 1012 96 10000 1.55 142 13:20 27.03.2022
3011 Clouds -17 1012 93 10000 1.46 161 11:35 27.03.2022
3012 Clouds -10 1011 84 10000 1.46 199 09:37 27.03.2022
3013 Clouds -10 1012 75 10000 2.16 199 07:31 27.03.2022
3014 Clouds -14 1015 84 10000 2.14 193 03:45 27.03.2022
3015 Clouds -19 1017 95 10000 1.31 194 00:26 27.03.2022
3016 Clouds -23 1018 98 10000 1.1 186 22:52 26.03.2022
3017 Clouds -23 1018 99 10000 0.96 176 21:57 26.03.2022
3018 Clouds -23 1018 99 10000 0.96 176 21:30 26.03.2022
3019 Clouds -21 1018 99 10000 0.77 155 19:32 26.03.2022
3020 Clouds -21 1018 99 10000 0.77 155 19:32 26.03.2022
3021 Clouds -24 1019 100 7564 0.83 166 18:40 26.03.2022
3022 Clouds -24 1019 100 7568 0.82 167 17:36 26.03.2022
3023 Clouds -25 1020 100 7468 0.9 162 16:34 26.03.2022
3024 Clouds -25 1020 100 8727 0.93 142 15:42 26.03.2022
3025 Clouds -23 1021 100 10000 1.06 123 13:56 26.03.2022
3026 Clouds -23 1021 100 10000 1.06 123 13:36 26.03.2022
3027 Clouds -21 1021 100 10000 1.16 143 11:50 26.03.2022
3028 Clouds -19 1021 99 10000 0.95 145 10:48 26.03.2022
3029 Clouds -12 1021 88 10000 0.62 151 08:50 26.03.2022
3030 Clouds -11 1022 81 10000 0.81 169 06:39 26.03.2022
3031 Clouds -12 1022 81 10000 0.97 211 05:30 26.03.2022
3032 Clouds -18 1025 96 5445 1.27 244 02:24 26.03.2022
3033 Clouds -27 1026 100 2303 1.07 246 22:30 25.03.2022
3034 Clouds -28 1026 100 2663 1.07 251 20:58 25.03.2022
3035 Clouds -28 1025 100 3044 0.94 254 20:26 25.03.2022
3036 Clouds -27 1025 100 2639 0.81 256 19:19 25.03.2022
3037 Clouds -27 1025 100 2639 0.81 256 18:35 25.03.2022
3038 Clouds -26 1024 100 3111 0.57 263 17:30 25.03.2022
3039 Clouds -25 1023 100 6308 0.48 315 16:27 25.03.2022
3040 Clouds -25 1023 100 6308 0.48 315 15:34 25.03.2022
3041 Clouds -21 1022 100 10000 0.43 69 13:29 25.03.2022
3042 Clouds -18 1020 97 10000 0.31 62 11:21 25.03.2022
3043 Clouds -15 1019 91 10000 0.25 299 09:37 25.03.2022
3044 Clouds -11 1019 86 10000 0.64 267 08:50 25.03.2022
3045 Clouds -9 1018 78 10000 1.25 227 07:42 25.03.2022
3046 Clouds -10 1018 75 10000 1.32 197 07:19 25.03.2022
3047 Clouds -15 1018 80 10000 1.25 193 02:37 25.03.2022
3048 Clouds -26 1019 99 10000 0.71 242 22:59 24.03.2022
3049 Clouds -26 1019 100 10000 0.51 212 22:24 24.03.2022
3050 Clouds -26 1018 100 10000 0.55 217 20:58 24.03.2022
3051 Clouds -26 1018 100 10000 0.55 231 19:49 24.03.2022
3052 Clouds -26 1017 100 10000 0.35 206 18:45 24.03.2022
3053 Clouds -25 1017 100 10000 0.29 133 17:36 24.03.2022
3054 Clouds -24 1017 100 10000 0.58 109 16:33 24.03.2022
3055 Clouds -24 1016 100 10000 0.81 102 14:52 24.03.2022
3056 Clouds -23 1016 100 10000 0.73 99 14:22 24.03.2022
3057 Clouds -23 1016 100 10000 0.73 99 13:34 24.03.2022
3058 Clouds -22 1015 99 10000 0.46 93 12:29 24.03.2022
3059 Clouds -21 1015 98 10000 0.36 49 11:27 24.03.2022
3060 Clouds -13 1013 87 10000 0.24 163 09:28 24.03.2022
3061 Clouds -13 1013 87 10000 0.24 163 08:34 24.03.2022
3062 Clouds -13 1013 78 10000 1.61 170 05:36 24.03.2022
3063 Clouds -20 1014 97 3693 1.62 233 00:38 24.03.2022
3064 Clouds -24 1013 100 2408 1.57 227 22:21 23.03.2022
3065 Clouds -23 1013 100 1324 1.5 226 21:24 23.03.2022
3066 Clouds -23 1013 100 1324 1.5 226 20:36 23.03.2022
3067 Clouds -21 1012 100 1712 1.3 223 19:28 23.03.2022
3068 Clouds -22 1012 100 2825 1.2 223 17:52 23.03.2022
3069 Clouds -22 1011 100 3630 1.07 206 17:25 23.03.2022
3070 Clouds -20 1011 100 6469 1.12 196 15:43 23.03.2022
3071 Clouds -20 1010 100 5222 1.19 187 14:47 23.03.2022
3072 Clouds -19 1010 100 6647 1.15 179 13:31 23.03.2022
3073 Clouds -16 1009 98 6155 0.81 167 11:33 23.03.2022
3074 Clouds -13 1007 88 3330 0.84 202 08:41 23.03.2022
3075 Clouds -13 1006 79 2707 1.33 215 05:50 23.03.2022
3076 Clouds -15 1006 85 1989 1.23 229 02:50 23.03.2022
3077 Clouds -17 1006 95 639 1.02 230 00:27 23.03.2022
3078 Clouds -19 1006 100 507 1.05 228 21:53 22.03.2022
3079 Clouds -19 1005 100 482 0.9 233 21:23 22.03.2022
3080 Clouds -19 1005 100 460 0.96 236 20:29 22.03.2022
3081 Clouds -18 1005 99 413 1.01 226 19:27 22.03.2022
3082 Clouds -18 1005 99 413 1.01 226 18:49 22.03.2022
3083 Clouds -18 1004 99 448 1.02 225 17:44 22.03.2022
3084 Snow -17 1004 98 332 1.04 218 16:58 22.03.2022
3085 Clouds -18 1004 99 287 1.09 225 15:48 22.03.2022
3086 Snow -18 1004 99 381 1.12 232 15:21 22.03.2022
3087 Snow -18 1004 99 381 1.12 232 14:45 22.03.2022
3088 Clouds -18 1004 99 382 1.14 230 13:52 22.03.2022
3089 Clouds -18 1004 98 447 1.37 221 12:34 22.03.2022
3090 Clouds -17 1004 98 493 1.33 212 11:24 22.03.2022
3091 Clouds -16 1004 94 1211 1.13 223 09:52 22.03.2022
3092 Clouds -16 1004 81 10000 1.38 246 07:44 22.03.2022
3093 Clouds -18 1004 89 1593 1.8 264 04:29 22.03.2022
3094 Clouds -19 1004 88 3878 1.79 262 02:52 22.03.2022
3095 Clouds -26 1006 98 10000 1.6 258 23:21 21.03.2022
3096 Clouds -27 1007 100 10000 1.77 264 21:47 21.03.2022
3097 Clouds -32 1008 100 7474 1.53 261 20:45 21.03.2022
3098 Clouds -33 1008 100 7280 1.45 262 20:26 21.03.2022
3099 Clouds -33 1008 100 7280 1.45 262 19:53 21.03.2022
3100 Clouds -33 1008 100 7544 1.61 266 19:22 21.03.2022
3101 Clouds -32 1008 100 7984 1.57 270 17:43 21.03.2022
3102 Clouds -31 1008 100 9029 1.5 271 17:00 21.03.2022
3103 Clouds -31 1008 100 9029 1.5 271 16:36 21.03.2022
3104 Clouds -31 1008 100 9474 1.36 269 15:45 21.03.2022
3105 Clouds -30 1008 100 10000 1.5 271 14:47 21.03.2022
3106 Clouds -29 1008 100 10000 1.25 275 13:35 21.03.2022
3107 Clear -28 1009 100 10000 1.31 277 12:31 21.03.2022
3108 Clear -27 1009 100 10000 1.13 281 11:39 21.03.2022
3109 Clouds -22 1009 97 10000 1.09 301 09:54 21.03.2022
3110 Clouds -16 1008 84 10000 1.11 310 08:26 21.03.2022
3111 Clouds -16 1009 82 10000 1.01 298 06:31 21.03.2022
3112 Clouds -21 1011 88 10000 1.2 264 02:33 21.03.2022
3113 Clouds -28 1014 99 8694 1.24 247 23:32 20.03.2022
3114 Clouds -34 1015 100 9956 1.25 256 22:43 20.03.2022
3115 Clouds -34 1015 100 10000 1.24 258 21:49 20.03.2022
3116 Clouds -33 1014 100 10000 1.24 246 21:20 20.03.2022
3117 Clouds -33 1014 100 10000 1.24 246 20:42 20.03.2022
3118 Clouds -32 1014 100 10000 1.09 249 19:57 20.03.2022
3119 Clouds -31 1014 100 10000 1.13 244 19:26 20.03.2022
3120 Clear -30 1014 99 10000 1.06 235 17:52 20.03.2022
3121 Clear -30 1014 99 10000 1.06 235 17:30 20.03.2022
3122 Clear -29 1013 98 10000 0.97 232 16:52 20.03.2022
3123 Clear -27 1013 95 10000 1.18 164 15:27 20.03.2022
3124 Clear -26 1013 90 10000 1.68 150 13:49 20.03.2022
3125 Clear -24 1013 89 10000 2.42 160 12:29 20.03.2022
3126 Clear -22 1013 89 10000 2.49 165 10:55 20.03.2022
3127 Clear -15 1012 83 10000 2.43 178 08:42 20.03.2022
3128 Clear -13 1012 71 10000 4.58 193 07:26 20.03.2022
3129 Clear -16 1012 76 10000 4.38 196 04:23 20.03.2022
3130 Clouds -22 1014 88 10000 2.29 214 01:29 20.03.2022
3131 Clouds -22 1014 89 10000 2.28 214 00:37 20.03.2022
3132 Clouds -31 1015 98 10000 1.78 223 23:19 19.03.2022
3133 Clouds -31 1015 98 10000 1.82 216 21:27 19.03.2022
3134 Clouds -31 1015 98 10000 1.82 216 20:39 19.03.2022
3135 Clouds -29 1015 97 10000 2.19 214 18:58 19.03.2022
3136 Clouds -28 1015 98 10000 2.34 208 18:23 19.03.2022
3137 Clouds -28 1015 98 10000 2.34 208 17:35 19.03.2022
3138 Clouds -28 1015 98 10000 2.34 208 17:35 19.03.2022
3139 Clouds -27 1015 98 10000 1.94 191 15:43 19.03.2022
3140 Clouds -27 1015 97 10000 1.74 190 14:44 19.03.2022
3141 Clear -25 1015 96 10000 2.1 178 12:59 19.03.2022
3142 Clear -25 1016 97 10000 1.79 173 12:39 19.03.2022
3143 Clear -24 1016 97 10000 2.16 168 11:51 19.03.2022
3144 Clear -23 1016 96 10000 2.17 169 10:47 19.03.2022
3145 Clouds -14 1016 79 10000 3.47 197 06:51 19.03.2022
3146 Clouds -20 1020 90 10000 2.57 205 03:24 19.03.2022
3147 Clouds -23 1021 94 10000 2.21 220 02:29 19.03.2022
3148 Clouds -30 1023 100 6950 1.64 232 23:45 18.03.2022
3149 Clouds -35 1024 100 9631 1.4 232 22:28 18.03.2022
3150 Clouds -35 1024 100 9631 1.4 232 21:45 18.03.2022
3151 Clouds -34 1024 100 9603 1.36 236 19:52 18.03.2022
3152 Clouds -33 1024 100 8653 1.21 233 19:21 18.03.2022
3153 Clouds -32 1024 100 10000 1.15 223 17:52 18.03.2022
3154 Clouds -32 1024 100 10000 1.15 202 16:49 18.03.2022
3155 Clouds -31 1024 100 10000 0.92 200 15:32 18.03.2022
3156 Clouds -29 1025 100 10000 0.99 160 14:23 18.03.2022
3157 Clear -28 1025 100 10000 1.26 149 12:36 18.03.2022
3158 Clear -26 1025 97 10000 1.39 145 10:58 18.03.2022
3159 Clear -24 1025 96 10000 0.86 150 09:30 18.03.2022
3160 Clear -19 1025 90 10000 0.63 196 08:42 18.03.2022
3161 Clouds -17 1025 80 10000 2.28 203 06:37 18.03.2022
3162 Clouds -23 1028 88 10000 1.9 216 03:19 18.03.2022
3163 Clouds -28 1030 96 10000 1.39 229 00:39 18.03.2022
3164 Clouds -31 1031 99 10000 1.33 226 23:44 17.03.2022
3165 Clouds -35 1031 100 10000 1.13 220 22:25 17.03.2022
3166 Clouds -35 1031 100 10000 1.13 220 21:48 17.03.2022
3167 Clouds -35 1031 100 10000 1.13 220 21:48 17.03.2022
3168 Clouds -34 1031 100 10000 1.02 226 21:26 17.03.2022
3169 Clouds -34 1031 100 10000 1.02 226 20:50 17.03.2022
3170 Clouds -34 1031 100 10000 1 230 19:53 17.03.2022
3171 Clouds -34 1031 100 10000 1 230 19:32 17.03.2022
3172 Clouds -34 1032 100 10000 1.1 218 18:49 17.03.2022
3173 Clouds -33 1032 100 10000 0.84 217 17:18 17.03.2022
3174 Clouds -32 1033 100 10000 0.73 214 15:44 17.03.2022
3175 Clouds -31 1033 99 10000 0.6 199 15:26 17.03.2022
3176 Clouds -31 1033 99 10000 0.6 199 14:38 17.03.2022
3177 Clouds -28 1033 98 10000 0.22 183 12:59 17.03.2022
3178 Clouds -28 1033 98 10000 0.22 183 12:37 17.03.2022
3179 Clouds -27 1033 96 10000 0.13 166 11:30 17.03.2022
3180 Clouds -26 1033 96 10000 0.19 12 10:32 17.03.2022
3181 Clouds -22 1033 91 10000 0.65 311 08:40 17.03.2022
3182 Clouds -20 1033 85 10000 0.66 260 07:36 17.03.2022
3183 Clouds -22 1033 84 10000 0.9 252 05:48 17.03.2022
3184 Clouds -27 1036 93 10000 1.26 242 01:37 17.03.2022
3185 Clouds -33 1038 99 8784 1.17 240 23:57 16.03.2022
3186 Clouds -37 1038 100 10000 1.21 238 22:51 16.03.2022
3187 Clouds -37 1038 100 10000 1.21 238 22:33 16.03.2022
3188 Clouds -37 1038 100 10000 1.2 237 21:46 16.03.2022
3189 Clouds -36 1037 100 10000 1.32 231 20:28 16.03.2022
3190 Clouds -35 1037 100 10000 1.31 226 19:22 16.03.2022
3191 Clouds -35 1037 100 10000 1.35 223 18:40 16.03.2022
3192 Clouds -34 1037 100 10000 1.22 218 17:43 16.03.2022
3193 Clouds -33 1036 99 10000 1.13 211 17:25 16.03.2022
3194 Clouds -32 1036 99 10000 1.02 210 15:56 16.03.2022
3195 Clouds -31 1035 99 10000 0.79 202 14:31 16.03.2022
3196 Clouds -30 1035 98 10000 0.72 176 13:32 16.03.2022
3197 Clouds -27 1034 96 10000 0.98 161 11:59 16.03.2022
3198 Clouds -26 1033 94 10000 0.78 164 11:22 16.03.2022
3199 Clouds -24 1033 93 10000 0.45 200 10:28 16.03.2022
3200 Clouds -24 1033 93 10000 0.45 200 09:55 16.03.2022
3201 Clouds -17 1030 76 10000 2.03 214 06:33 16.03.2022
3202 Clouds -19 1029 90 3895 1.93 211 02:29 16.03.2022
3203 Clouds -23 1028 99 622 0.75 229 22:54 15.03.2022
3204 Clouds -23 1028 99 622 0.75 229 22:33 15.03.2022
3205 Clouds -23 1027 100 555 0.67 214 20:42 15.03.2022
3206 Clouds -23 1026 100 684 0.3 158 19:27 15.03.2022
3207 Clouds -24 1026 100 770 0.26 219 17:41 15.03.2022
3208 Clouds -25 1026 100 971 0.18 131 16:34 15.03.2022
3209 Clouds -26 1025 100 2551 0.71 101 15:26 15.03.2022
3210 Clouds -26 1025 100 2551 0.71 101 14:47 15.03.2022
3211 Clouds -26 1025 100 4395 0.89 95 13:55 15.03.2022
3212 Clouds -26 1025 99 6934 0.92 87 13:20 15.03.2022
3213 Clouds -25 1024 99 10000 1.01 89 11:32 15.03.2022
3214 Clouds -22 1024 95 10000 0.93 93 10:21 15.03.2022
3215 Clouds -19 1023 90 10000 0.81 91 08:53 15.03.2022
3216 Clouds -17 1023 82 10000 0.86 136 07:53 15.03.2022
3217 Clouds -17 1023 82 10000 0.86 136 07:35 15.03.2022
3218 Clouds -18 1023 80 10000 1.25 146 05:45 15.03.2022
3219 Clouds -24 1025 97 1904 0.63 101 00:25 15.03.2022
3220 Clouds -25 1026 99 1143 0.57 79 23:27 14.03.2022
3221 Clouds -25 1026 99 1143 0.57 79 22:44 14.03.2022
3222 Clouds -25 1026 100 734 0.55 76 21:51 14.03.2022
3223 Clouds -25 1026 99 666 0.55 63 20:55 14.03.2022
3224 Clouds -25 1026 99 933 0.65 61 20:24 14.03.2022
3225 Clouds -25 1026 99 1573 0.64 40 19:22 14.03.2022
3226 Clouds -25 1026 99 960 0.45 351 17:55 14.03.2022
3227 Clouds -25 1026 99 960 0.45 351 17:33 14.03.2022
3228 Clouds -26 1027 100 3406 0.58 353 16:27 14.03.2022
3229 Clouds -27 1027 100 4440 0.78 355 14:47 14.03.2022
3230 Clouds -27 1027 100 5637 0.76 341 13:20 14.03.2022
3231 Clouds -26 1028 100 5518 0.52 343 10:59 14.03.2022
3232 Clouds -25 1027 99 7175 0.34 14 09:56 14.03.2022
3233 Clouds -21 1027 94 10000 0.57 35 09:24 14.03.2022
3234 Clouds -21 1027 94 10000 0.57 35 08:57 14.03.2022
3235 Clouds -19 1027 88 10000 0.98 33 08:24 14.03.2022
3236 Clouds -19 1027 84 7429 1.39 11 06:19 14.03.2022
3237 Clouds -21 1029 92 3852 1.08 0 02:58 14.03.2022
3238 Clouds -22 1029 94 4022 1.16 342 01:36 14.03.2022
3239 Clouds -27 1030 100 1848 0.6 311 23:29 13.03.2022
3240 Clouds -26 1030 100 2052 0.63 326 21:46 13.03.2022
3241 Clouds -26 1030 100 1996 0.71 332 21:21 13.03.2022
3242 Clouds -26 1030 100 1996 0.71 332 20:46 13.03.2022
3243 Clouds -26 1030 100 2061 0.71 343 20:21 13.03.2022
3244 Clouds -26 1030 100 2061 0.71 343 19:41 13.03.2022
3245 Clouds -26 1030 100 1963 0.72 350 19:21 13.03.2022
3246 Clouds -26 1030 100 1963 0.72 350 18:41 13.03.2022
3247 Clouds -27 1030 100 1759 0.65 336 18:22 13.03.2022
3248 Clouds -27 1030 100 1759 0.65 336 17:35 13.03.2022
3249 Clouds -26 1030 100 1594 0.82 331 16:44 13.03.2022
3250 Clouds -26 1030 100 1502 0.76 325 16:21 13.03.2022
3251 Clouds -26 1030 100 1502 0.76 325 15:36 13.03.2022
3252 Clouds -24 1030 100 2136 0.65 309 14:20 13.03.2022
3253 Clouds -24 1030 100 2456 0.56 292 13:27 13.03.2022
3254 Clouds -23 1029 100 2709 0.56 276 12:21 13.03.2022
3255 Clouds -23 1029 100 2709 0.56 276 11:36 13.03.2022
3256 Clouds -22 1029 100 3373 0.63 251 10:49 13.03.2022
3257 Clouds -21 1029 99 4725 0.73 241 10:25 13.03.2022
3258 Clouds -21 1029 99 4725 0.73 241 09:41 13.03.2022
3259 Clouds -18 1028 96 5970 0.71 222 08:49 13.03.2022
3260 Clouds -16 1028 90 6040 0.26 228 08:23 13.03.2022
3261 Clouds -16 1028 87 5950 0.38 335 06:40 13.03.2022
3262 Clouds -19 1028 92 5309 1 292 03:56 13.03.2022
3263 Clouds -23 1029 98 3757 0.83 293 00:48 13.03.2022
3264 Clouds -28 1029 100 5211 0.95 294 22:51 12.03.2022
3265 Clouds -28 1029 100 10000 0.8 296 21:29 12.03.2022
3266 Clouds -27 1029 99 10000 0.84 284 20:18 12.03.2022
3267 Clouds -27 1029 99 10000 0.84 284 19:43 12.03.2022
3268 Clouds -26 1029 99 10000 0.96 284 18:34 12.03.2022
3269 Clouds -26 1029 99 10000 0.94 281 17:48 12.03.2022
3270 Clouds -25 1029 98 10000 0.9 298 16:28 12.03.2022
3271 Clouds -25 1029 98 10000 0.9 298 15:40 12.03.2022
3272 Clouds -24 1029 98 10000 0.73 319 15:18 12.03.2022
3273 Clouds -24 1029 98 10000 0.82 330 13:53 12.03.2022
3274 Clouds -23 1029 98 10000 1.08 358 12:27 12.03.2022
3275 Clouds -23 1029 98 10000 1.08 358 11:52 12.03.2022
3276 Clouds -22 1028 97 10000 1.23 7 11:21 12.03.2022
3277 Clouds -21 1028 95 10000 1.35 2 10:18 12.03.2022
3278 Clouds -21 1028 95 10000 1.35 2 09:41 12.03.2022
3279 Clouds -16 1028 88 10000 0.95 341 07:52 12.03.2022
3280 Clouds -16 1027 77 10000 0.65 193 05:46 12.03.2022
3281 Clouds -23 1029 99 2626 1.42 215 00:27 12.03.2022
3282 Clouds -23 1029 99 2626 1.42 215 23:38 11.03.2022
3283 Clouds -23 1028 100 1639 1.36 204 22:29 11.03.2022
3284 Clouds -21 1027 100 1740 1.24 200 21:23 11.03.2022
3285 Clouds -21 1027 100 1740 1.24 200 20:42 11.03.2022
3286 Clouds -20 1026 100 1318 0.85 197 20:22 11.03.2022
3287 Clouds -19 1025 100 1512 0.73 178 19:29 11.03.2022
3288 Clouds -17 1025 99 690 0.47 128 17:53 11.03.2022
3289 Snow -16 1024 98 385 0.5 98 17:24 11.03.2022
3290 Snow -16 1023 98 263 0.5 93 15:58 11.03.2022
3291 Snow -16 1023 98 244 0.56 82 15:29 11.03.2022
3292 Snow -16 1022 98 216 0.63 85 13:28 11.03.2022
3293 Snow -16 1023 98 277 0.57 101 12:30 11.03.2022
3294 Snow -16 1022 98 225 0.4 117 11:57 11.03.2022
3295 Snow -16 1022 98 206 0.47 165 10:30 11.03.2022
3296 Snow -16 1022 98 260 0.73 177 09:33 11.03.2022
3297 Clouds -15 1021 89 672 1.58 174 08:27 11.03.2022
3298 Clouds -15 1021 89 672 1.58 174 07:46 11.03.2022
3299 Clouds -16 1021 83 10000 1.99 187 06:25 11.03.2022
3300 Clouds -17 1022 86 9982 2.01 198 04:28 11.03.2022
3301 Clouds -19 1023 94 2086 1.57 200 01:20 11.03.2022
3302 Clouds -21 1022 99 574 1.39 197 22:32 10.03.2022
3303 Clouds -21 1022 99 444 1.15 207 21:53 10.03.2022
3304 Clouds -21 1022 99 434 1.1 220 21:24 10.03.2022
3305 Clouds -21 1022 99 434 1.1 220 21:24 10.03.2022
3306 Clouds -21 1022 98 338 1 230 20:18 10.03.2022
3307 Clouds -21 1022 99 592 0.95 242 18:56 10.03.2022
3308 Snow -21 1022 97 1695 1.05 253 17:50 10.03.2022
3309 Clouds -21 1022 97 4314 0.96 251 16:52 10.03.2022
3310 Clouds -22 1023 94 10000 0.92 260 15:27 10.03.2022
3311 Clouds -24 1024 96 10000 0.97 259 13:42 10.03.2022
3312 Clouds -25 1024 98 10000 0.93 267 12:38 10.03.2022
3313 Clouds -25 1024 97 10000 0.55 268 11:28 10.03.2022
3314 Clouds -22 1024 93 10000 0.17 66 09:29 10.03.2022
3315 Clouds -20 1024 90 10000 0.49 319 07:48 10.03.2022
3316 Clouds -20 1025 85 10000 0.78 288 05:30 10.03.2022
3317 Clouds -25 1027 92 10000 0.72 267 01:59 10.03.2022
3318 Clouds -31 1028 98 10000 0.5 124 23:32 09.03.2022
3319 Clouds -31 1027 98 10000 0.49 132 22:20 09.03.2022
3320 Clouds -31 1027 98 10000 0.49 132 21:36 09.03.2022
3321 Clouds -30 1027 98 10000 0.64 135 20:36 09.03.2022
3322 Clouds -32 1027 99 10000 0.55 141 18:41 09.03.2022
3323 Clouds -30 1027 98 10000 0.52 129 17:28 09.03.2022
3324 Clouds -30 1027 98 10000 0.52 129 16:36 09.03.2022
3325 Clouds -31 1027 99 10000 1.03 152 15:32 09.03.2022
3326 Clouds -31 1026 98 10000 0.98 186 13:58 09.03.2022
3327 Clouds -30 1025 98 10000 1.18 194 12:59 09.03.2022
3328 Clouds -29 1025 97 10000 1.12 181 12:20 09.03.2022
3329 Clouds -29 1025 97 10000 1.12 181 11:45 09.03.2022
3330 Clouds -27 1025 96 10000 0.72 185 10:49 09.03.2022
3331 Clouds -24 1024 94 10000 0.68 204 09:22 09.03.2022
3332 Clouds -24 1024 94 10000 0.68 204 08:42 09.03.2022
3333 Clouds -25 1023 89 10000 0.86 241 04:49 09.03.2022
3334 Clouds -32 1026 99 6319 1.21 265 00:55 09.03.2022
3335 Clouds -38 1027 100 9124 0.98 257 23:21 08.03.2022
3336 Clouds -38 1027 100 9124 0.98 257 22:45 08.03.2022
3337 Clouds -38 1027 100 6993 0.45 241 21:43 08.03.2022
3338 Clouds -37 1027 100 8880 0.43 286 21:18 08.03.2022
3339 Clouds -37 1027 100 8819 0.79 279 19:59 08.03.2022
3340 Clouds -37 1027 100 7692 0.44 271 18:53 08.03.2022
3341 Clouds -36 1027 100 7539 0.06 293 17:51 08.03.2022
3342 Clouds -36 1026 100 8600 0.23 59 16:35 08.03.2022
3343 Clouds -33 1025 100 10000 0.69 84 14:23 08.03.2022
3344 Clouds -33 1025 100 10000 0.81 91 12:44 08.03.2022
3345 Clouds -32 1025 100 10000 0.75 94 12:19 08.03.2022
3346 Clouds -32 1025 100 10000 0.75 94 11:41 08.03.2022
3347 Clouds -30 1024 100 10000 0.91 68 10:27 08.03.2022
3348 Clouds -23 1022 92 10000 0.81 62 08:28 08.03.2022
3349 Clouds -23 1021 86 10000 1.04 140 05:48 08.03.2022
3350 Clouds -28 1021 93 10000 1.03 221 01:48 08.03.2022
3351 Clouds -33 1022 99 10000 1.15 219 22:24 07.03.2022
3352 Clouds -33 1022 99 10000 1.15 219 21:35 07.03.2022
3353 Clouds -33 1021 99 10000 1.19 227 20:54 07.03.2022
3354 Clouds -33 1021 100 10000 1.21 235 20:26 07.03.2022
3355 Clouds -33 1021 100 10000 1.21 235 19:41 07.03.2022
3356 Clouds -32 1021 100 10000 1.23 234 18:47 07.03.2022
3357 Clouds -32 1021 100 10000 1.16 222 17:58 07.03.2022
3358 Clouds -32 1020 100 10000 1.1 228 16:56 07.03.2022
3359 Clouds -32 1020 100 10000 1.1 228 16:34 07.03.2022
3360 Clouds -31 1021 100 10000 1.14 240 14:40 07.03.2022
3361 Clouds -32 1021 100 10000 0.94 238 12:33 07.03.2022
3362 Clouds -31 1021 100 10000 0.8 248 10:48 07.03.2022
3363 Clouds -30 1021 100 10000 0.74 256 10:25 07.03.2022
3364 Clouds -24 1020 89 10000 0.72 259 07:24 07.03.2022
3365 Clouds -38 1025 100 9882 1.21 241 00:24 07.03.2022
3366 Clouds -38 1025 100 9882 1.21 241 23:58 06.03.2022
3367 Clouds -39 1025 100 10000 1.18 240 23:18 06.03.2022
3368 Clouds -38 1025 100 10000 1.12 237 22:24 06.03.2022
3369 Clouds -38 1024 100 10000 0.96 240 20:56 06.03.2022
3370 Clouds -37 1024 100 10000 0.98 242 20:28 06.03.2022
3371 Clouds -37 1024 100 10000 0.98 242 19:31 06.03.2022
3372 Clouds -37 1024 100 10000 0.91 238 18:40 06.03.2022
3373 Clouds -36 1024 100 10000 0.84 247 17:36 06.03.2022
3374 Clouds -36 1024 100 10000 0.9 246 17:18 06.03.2022
3375 Clouds -35 1024 100 10000 0.83 248 16:24 06.03.2022
3376 Clouds -35 1024 100 10000 0.78 259 15:23 06.03.2022
3377 Clouds -35 1024 100 10000 0.78 259 14:41 06.03.2022
3378 Clouds -34 1024 100 10000 0.66 265 13:48 06.03.2022
3379 Clouds -33 1024 100 10000 0.55 269 12:36 06.03.2022
3380 Clouds -33 1024 100 10000 0.2 285 11:39 06.03.2022
3381 Clouds -32 1024 100 10000 0.26 336 10:33 06.03.2022
3382 Clouds -28 1023 98 10000 0.62 2 08:51 06.03.2022
3383 Clouds -24 1023 93 10000 0.49 342 08:27 06.03.2022
3384 Clouds -23 1023 88 10000 0.36 307 07:23 06.03.2022
3385 Clouds -29 1025 95 10000 1.15 261 01:54 06.03.2022
3386 Clouds -32 1026 98 10000 0.95 253 00:34 06.03.2022
3387 Clouds -37 1026 100 10000 1.04 252 23:57 05.03.2022
3388 Clouds -38 1026 100 10000 1.08 247 23:18 05.03.2022
3389 Clouds -38 1026 100 10000 1.08 247 22:31 05.03.2022
3390 Clouds -38 1026 100 10000 1.08 247 22:31 05.03.2022
3391 Clouds -37 1025 100 10000 1.12 241 21:25 05.03.2022
3392 Clouds -36 1025 100 10000 1.05 248 20:27 05.03.2022
3393 Clouds -36 1024 100 10000 0.99 242 19:18 05.03.2022
3394 Clouds -36 1024 100 10000 0.99 242 18:37 05.03.2022
3395 Clouds -35 1024 99 10000 1.05 239 17:31 05.03.2022
3396 Clouds -33 1023 99 10000 0.66 197 16:18 05.03.2022
3397 Clouds -32 1022 99 10000 0.81 168 14:54 05.03.2022
3398 Clouds -32 1022 99 10000 0.81 168 14:35 05.03.2022
3399 Clouds -32 1022 99 10000 0.81 168 14:35 05.03.2022
3400 Clouds -31 1022 100 10000 1.03 158 13:37 05.03.2022
3401 Clouds -30 1021 100 10000 1.09 152 12:35 05.03.2022
3402 Clouds -29 1020 99 10000 1 152 11:20 05.03.2022
3403 Clouds -29 1020 99 10000 1 152 10:52 05.03.2022
3404 Clouds -27 1020 98 10000 0.91 142 09:30 05.03.2022
3405 Clouds -20 1018 92 10000 0.88 143 08:24 05.03.2022
3406 Clouds -18 1017 87 10000 1 136 06:33 05.03.2022
3407 Clouds -19 1016 89 10000 1.18 149 05:22 05.03.2022
3408 Clouds -27 1018 98 9894 0.57 149 00:30 05.03.2022
3409 Clouds -32 1018 100 10000 0.42 108 22:45 04.03.2022
3410 Clouds -32 1017 100 10000 0.63 108 22:24 04.03.2022
3411 Clouds -32 1017 100 10000 0.63 108 21:42 04.03.2022
3412 Clouds -30 1017 100 10000 0.55 103 20:36 04.03.2022
3413 Clouds -28 1016 100 10000 0.16 72 19:36 04.03.2022
3414 Clouds -27 1016 99 10000 0.13 143 18:54 04.03.2022
3415 Clouds -27 1016 99 10000 0.13 143 18:33 04.03.2022
3416 Clouds -27 1016 99 10000 0.06 82 17:29 04.03.2022
3417 Clouds -27 1016 99 10000 0.27 290 15:48 04.03.2022
3418 Clouds -27 1016 99 10000 0.19 232 15:24 04.03.2022
3419 Clouds -28 1016 100 10000 0.24 118 13:35 04.03.2022
3420 Clouds -28 1016 100 10000 0.32 126 12:38 04.03.2022
3421 Clouds -26 1016 99 10000 0.46 67 11:37 04.03.2022
3422 Clouds -26 1015 99 10000 0.3 79 10:24 04.03.2022
3423 Clouds -25 1014 98 10000 0.66 61 09:27 04.03.2022
3424 Clouds -22 1014 94 10000 0.69 67 07:48 04.03.2022
3425 Clouds -20 1013 88 10000 0.61 125 05:49 04.03.2022
3426 Clouds -24 1013 92 10000 1.16 135 01:46 04.03.2022
3427 Clouds -28 1014 97 10000 0.9 131 23:35 03.03.2022
3428 Clouds -27 1013 97 10000 0.66 129 22:18 03.03.2022
3429 Clouds -27 1013 97 10000 0.66 129 21:36 03.03.2022
3430 Clouds -27 1013 97 10000 0.6 137 20:45 03.03.2022
3431 Clouds -27 1012 97 10000 0.57 140 19:29 03.03.2022
3432 Clouds -26 1012 95 10000 0.1 116 18:26 03.03.2022
3433 Clouds -26 1012 95 10000 0.1 116 17:31 03.03.2022
3434 Clouds -25 1012 94 10000 0.36 231 16:41 03.03.2022
3435 Clouds -25 1012 93 10000 0.3 250 15:44 03.03.2022
3436 Clouds -25 1012 94 10000 0.42 253 14:45 03.03.2022
3437 Clouds -27 1012 96 10000 0.66 189 14:27 03.03.2022
3438 Clouds -28 1013 97 10000 0.37 194 12:43 03.03.2022
3439 Clouds -29 1013 97 10000 0.37 210 11:31 03.03.2022
3440 Clouds -28 1013 97 10000 0.58 238 10:38 03.03.2022
3441 Clouds -27 1012 96 10000 0.16 253 08:44 03.03.2022
3442 Clouds -25 1012 90 10000 0.21 249 06:58 03.03.2022
3443 Clouds -25 1012 89 10000 0.56 262 06:23 03.03.2022
3444 Clouds -34 1015 98 7989 0.93 233 00:40 03.03.2022
3445 Clouds -38 1015 100 10000 0.9 244 23:28 02.03.2022
3446 Clouds -38 1015 100 10000 0.9 244 22:44 02.03.2022
3447 Clouds -37 1015 100 10000 0.81 219 21:23 02.03.2022
3448 Clouds -37 1015 100 10000 0.81 219 21:23 02.03.2022
3449 Clouds -37 1015 100 10000 0.81 219 20:30 02.03.2022
3450 Clouds -37 1015 100 10000 0.69 261 19:49 02.03.2022
3451 Clouds -37 1015 100 10000 0.69 261 19:30 02.03.2022
3452 Clouds -36 1015 100 10000 0.39 254 18:39 02.03.2022
3453 Clouds -36 1015 100 10000 0.17 268 17:50 02.03.2022
3454 Clouds -36 1015 100 10000 0.2 130 16:59 02.03.2022
3455 Clouds -36 1015 100 10000 0.2 130 16:41 02.03.2022
3456 Clouds -35 1014 100 10000 0.49 86 14:42 02.03.2022
3457 Clouds -34 1014 100 10000 0.48 91 13:24 02.03.2022
3458 Clouds -34 1014 100 10000 0.64 95 12:42 02.03.2022
3459 Clouds -33 1014 100 10000 0.62 97 11:40 02.03.2022
3460 Clouds -32 1014 100 10000 0.78 83 11:21 02.03.2022
3461 Clouds -31 1014 100 10000 0.68 65 09:41 02.03.2022
3462 Clouds -30 1013 99 10000 0.95 63 08:54 02.03.2022
3463 Clouds -25 1012 91 10000 0.57 77 07:28 02.03.2022
3464 Clouds -23 1012 90 10000 0.63 77 06:40 02.03.2022
3465 Clouds -29 1013 97 8008 0.48 169 01:32 02.03.2022
3466 Clouds -35 1013 100 6210 0.47 196 23:49 01.03.2022
3467 Clouds -35 1013 100 6163 0.27 210 22:45 01.03.2022
3468 Clouds -35 1012 100 6548 0.17 238 21:58 01.03.2022
3469 Clouds -34 1012 100 5625 0.32 163 21:24 01.03.2022
3470 Clouds -34 1012 100 5625 0.32 163 20:30 01.03.2022
3471 Clouds -34 1012 100 5625 0.32 163 20:30 01.03.2022
3472 Clouds -34 1011 100 5238 0.39 110 19:28 01.03.2022
3473 Clouds -35 1011 100 7665 0.46 125 18:49 01.03.2022
3474 Clouds -34 1011 100 8324 0.45 100 18:20 01.03.2022
3475 Clouds -34 1011 100 10000 0.47 99 17:22 01.03.2022
3476 Clouds -34 1011 100 10000 0.47 99 16:33 01.03.2022
3477 Clouds -33 1010 100 9352 0.71 99 15:38 01.03.2022
3478 Clouds -33 1010 100 8411 0.66 91 14:35 01.03.2022
3479 Clouds -32 1010 100 10000 0.63 102 13:52 01.03.2022
3480 Clouds -31 1010 100 10000 0.69 113 13:24 01.03.2022
3481 Clouds -27 1009 99 10000 0.75 108 12:32 01.03.2022
3482 Clouds -25 1009 97 10000 0.65 106 10:36 01.03.2022
3483 Clouds -24 1008 95 10000 0.4 91 08:42 01.03.2022
3484 Clouds -22 1007 93 10000 0.63 77 07:53 01.03.2022
3485 Clouds -22 1007 90 10000 0.9 37 06:20 01.03.2022
3486 Clouds -24 1007 97 7672 0.76 23 02:44 01.03.2022
3487 Clouds -28 1008 100 4038 0.64 319 00:34 01.03.2022
3488 Clouds -30 1008 100 3742 0.76 327 23:31 28.02.2022
3489 Clouds -29 1008 100 3102 0.61 337 22:18 28.02.2022
3490 Clouds -29 1008 100 3102 0.61 337 21:37 28.02.2022
3491 Clouds -27 1008 100 2528 0.7 345 19:59 28.02.2022
3492 Clouds -27 1008 100 2528 0.7 345 19:40 28.02.2022
3493 Clouds -28 1008 100 1856 0.82 12 18:44 28.02.2022
3494 Clouds -27 1008 100 1818 0.9 357 17:33 28.02.2022
3495 Clouds -26 1008 100 1870 0.83 348 16:43 28.02.2022
3496 Clouds -25 1009 100 2328 0.8 333 15:27 28.02.2022
3497 Clouds -25 1009 100 2328 0.8 333 14:32 28.02.2022
3498 Clouds -24 1009 100 2219 0.8 347 13:48 28.02.2022
3499 Clouds -22 1009 100 1953 0.51 340 12:50 28.02.2022
3500 Clouds -22 1009 100 1908 0.31 337 11:58 28.02.2022
3501 Clouds -21 1009 100 1657 0.13 322 11:18 28.02.2022
3502 Clouds -21 1009 100 1422 0.17 67 10:21 28.02.2022
3503 Clouds -21 1009 100 1422 0.17 67 09:41 28.02.2022
3504 Clouds -20 1009 99 1488 0.28 114 08:48 28.02.2022
3505 Clouds -18 1009 97 1403 0.52 81 07:43 28.02.2022
3506 Clouds -18 1009 90 1354 1.12 47 05:52 28.02.2022
3507 Clouds -19 1010 91 1306 1.26 35 04:30 28.02.2022
3508 Clouds -22 1011 98 779 0.71 44 00:42 28.02.2022
3509 Clouds -23 1011 100 827 0.56 28 22:38 27.02.2022
3510 Clouds -23 1011 100 896 0.54 43 21:58 27.02.2022
3511 Clouds -23 1011 100 896 0.54 43 21:36 27.02.2022
3512 Clouds -22 1011 100 1035 0.63 20 20:41 27.02.2022
3513 Clouds -22 1011 100 947 0.72 7 20:18 27.02.2022
3514 Clouds -22 1011 100 947 0.72 7 19:43 27.02.2022
3515 Clouds -22 1012 100 1005 0.55 333 19:18 27.02.2022
3516 Clouds -21 1012 100 921 0.58 339 18:24 27.02.2022
3517 Clouds -21 1012 100 921 0.58 339 17:45 27.02.2022
3518 Clouds -21 1012 100 890 0.81 326 16:23 27.02.2022
3519 Clouds -21 1012 100 901 0.73 309 14:29 27.02.2022
3520 Clouds -21 1012 100 1068 0.71 305 12:36 27.02.2022
3521 Clouds -22 1013 100 975 0.68 287 11:46 27.02.2022
3522 Clouds -22 1013 100 1075 0.73 272 10:36 27.02.2022
3523 Clouds -22 1013 100 1271 0.71 214 09:58 27.02.2022
3524 Clouds -21 1012 100 1341 0.81 178 09:23 27.02.2022
3525 Clouds -21 1012 100 1341 0.81 178 08:45 27.02.2022
3526 Clouds -21 1012 100 1341 0.81 178 08:45 27.02.2022
3527 Clouds -20 1011 91 1389 0.22 34 05:45 27.02.2022
3528 Clouds -21 1012 92 1123 0.14 59 03:35 27.02.2022
3529 Clouds -26 1012 100 1037 0.64 210 23:52 26.02.2022
3530 Clouds -26 1012 100 1150 0.63 221 22:43 26.02.2022
3531 Clouds -26 1011 100 1220 0.69 235 21:29 26.02.2022
3532 Clouds -26 1011 100 1220 0.69 235 20:43 26.02.2022
3533 Clouds -26 1010 99 1704 0.73 252 19:57 26.02.2022
3534 Clouds -26 1010 99 1704 0.73 252 19:33 26.02.2022
3535 Clouds -26 1010 99 1704 0.73 252 19:33 26.02.2022
3536 Clouds -28 1011 100 2039 0.73 258 18:33 26.02.2022
3537 Clouds -28 1011 100 2502 0.74 261 17:37 26.02.2022
3538 Clouds -29 1010 100 2327 0.67 276 16:39 26.02.2022
3539 Clouds -29 1010 100 2399 0.64 299 15:42 26.02.2022
3540 Clouds -29 1010 100 2915 0.73 304 15:19 26.02.2022
3541 Clouds -29 1010 100 2915 0.73 304 14:44 26.02.2022
3542 Clouds -28 1010 100 3584 0.75 315 14:19 26.02.2022
3543 Clouds -28 1009 100 4480 0.84 332 12:53 26.02.2022
3544 Clouds -26 1009 100 6006 1.11 348 11:53 26.02.2022
3545 Clouds -24 1008 100 5028 1.3 355 11:27 26.02.2022
3546 Clouds -22 1008 99 3105 1.59 357 10:22 26.02.2022
3547 Clouds -20 1007 99 1079 1.61 12 08:45 26.02.2022
3548 Clouds -19 1007 89 1288 2.75 19 06:46 26.02.2022
3549 Snow -19 1006 98 157 2.31 331 00:38 26.02.2022
3550 Snow -19 1006 99 163 2.62 331 22:45 25.02.2022
3551 Snow -19 1006 98 164 2.79 333 21:37 25.02.2022
3552 Snow -19 1006 98 158 2.88 334 21:18 25.02.2022
3553 Snow -19 1006 98 158 2.88 334 20:31 25.02.2022
3554 Snow -20 1006 99 149 2.31 315 18:41 25.02.2022
3555 Snow -19 1007 99 181 2.36 314 17:23 25.02.2022
3556 Snow -19 1007 99 150 2.39 319 16:21 25.02.2022
3557 Snow -19 1007 99 150 2.39 319 15:42 25.02.2022
3558 Snow -19 1007 99 167 2.39 320 15:20 25.02.2022
3559 Snow -19 1007 99 167 2.39 320 14:42 25.02.2022
3560 Snow -19 1007 98 235 2.41 319 13:36 25.02.2022
3561 Clouds -20 1007 97 1856 2.01 320 12:56 25.02.2022
3562 Clouds -20 1007 99 2961 1.84 319 11:28 25.02.2022
3563 Clouds -20 1007 99 2961 1.84 319 10:40 25.02.2022
3564 Clouds -20 1007 99 2283 0.95 323 10:22 25.02.2022
3565 Clouds -19 1007 99 2469 0.63 9 09:18 25.02.2022
3566 Clouds -18 1006 96 2659 1.24 28 07:41 25.02.2022
3567 Clouds -17 1006 90 2838 2.19 25 05:49 25.02.2022
3568 Clouds -17 1006 91 2457 1.98 22 04:32 25.02.2022
3569 Clouds -19 1007 99 266 0.62 285 00:22 25.02.2022
3570 Snow -19 1007 99 245 0.76 294 21:58 24.02.2022
3571 Snow -19 1007 99 245 0.76 294 21:58 24.02.2022
3572 Snow -19 1007 99 245 0.76 294 21:39 24.02.2022
3573 Clouds -20 1007 100 332 0.58 293 21:19 24.02.2022
3574 Snow -20 1007 99 307 0.76 295 19:42 24.02.2022
3575 Clouds -20 1007 99 267 0.82 300 18:45 24.02.2022
3576 Snow -20 1007 99 347 0.93 302 18:19 24.02.2022
3577 Snow -20 1007 99 347 0.93 302 17:40 24.02.2022
3578 Clouds -21 1007 98 261 0.63 345 16:50 24.02.2022
3579 Clouds -21 1008 98 710 0.23 300 16:24 24.02.2022
3580 Clouds -22 1008 97 2042 0.53 282 14:56 24.02.2022
3581 Clouds -22 1008 97 2042 0.53 282 14:36 24.02.2022
3582 Clouds -22 1008 95 10000 0.88 295 13:41 24.02.2022
3583 Clouds -22 1008 95 10000 0.66 321 13:21 24.02.2022
3584 Clouds -23 1008 95 10000 0.53 24 10:43 24.02.2022
3585 Clouds -23 1008 94 10000 0.66 20 09:40 24.02.2022
3586 Clouds -22 1008 93 10000 0.68 38 08:42 24.02.2022
3587 Clouds -21 1007 88 10000 0.78 40 06:25 24.02.2022
3588 Clouds -21 1007 88 10000 0.78 40 05:36 24.02.2022
3589 Clouds -30 1009 98 10000 0.24 285 00:30 24.02.2022
3590 Clouds -33 1009 100 10000 0.25 300 21:55 23.02.2022
3591 Clouds -32 1009 99 10000 0.18 296 20:32 23.02.2022
3592 Clouds -32 1009 99 10000 0.14 238 19:55 23.02.2022
3593 Clouds -31 1009 99 10000 0.17 167 18:59 23.02.2022
3594 Clouds -32 1009 99 10000 0.48 154 17:47 23.02.2022
3595 Clouds -31 1009 100 10000 0.79 121 15:47 23.02.2022
3596 Clouds -31 1010 100 10000 1.05 101 13:34 23.02.2022
3597 Clouds -31 1011 100 10000 1.25 100 12:28 23.02.2022
3598 Clouds -30 1012 100 10000 1.27 102 10:55 23.02.2022
3599 Clouds -29 1012 99 10000 1.18 101 09:38 23.02.2022
3600 Clouds -28 1012 99 10000 1.28 96 08:36 23.02.2022
3601 Clouds -23 1012 95 10000 0.93 95 07:25 23.02.2022
3602 Clouds -29 1016 98 6694 0.97 173 02:23 23.02.2022
3603 Clouds -34 1018 100 5323 0.87 204 23:50 22.02.2022
3604 Clouds -34 1018 100 5323 0.87 204 23:31 22.02.2022
3605 Clouds -33 1018 100 4428 0.63 166 22:28 22.02.2022
3606 Clouds -33 1018 100 4428 0.63 166 21:44 22.02.2022
3607 Clouds -32 1018 100 3958 0.79 170 21:20 22.02.2022
3608 Clouds -32 1018 100 3958 0.79 170 20:31 22.02.2022
3609 Clouds -32 1018 100 3210 0.76 168 19:56 22.02.2022
3610 Clouds -32 1018 100 3210 0.76 168 19:33 22.02.2022
3611 Clouds -32 1018 100 3039 0.77 149 18:35 22.02.2022
3612 Clouds -31 1018 100 2795 0.91 134 17:27 22.02.2022
3613 Clouds -31 1018 100 2795 0.91 134 16:56 22.02.2022
3614 Clouds -31 1018 100 2631 0.83 117 16:20 22.02.2022
3615 Clouds -31 1018 100 2631 0.83 117 15:30 22.02.2022
3616 Clouds -30 1018 100 2972 1.02 110 14:28 22.02.2022
3617 Clouds -30 1018 100 4259 1 110 11:38 22.02.2022
3618 Clouds -29 1017 100 5948 0.91 100 09:45 22.02.2022
3619 Clouds -25 1016 100 10000 0.95 66 07:30 22.02.2022
3620 Clouds -22 1016 98 10000 0.76 71 06:54 22.02.2022
3621 Clouds -23 1016 96 3571 0.61 96 02:50 22.02.2022
3622 Clouds -25 1016 99 1109 0.81 91 23:18 21.02.2022
3623 Clouds -25 1016 99 1109 0.81 91 22:36 21.02.2022
3624 Clouds -25 1016 99 601 0.84 79 21:21 21.02.2022
3625 Clouds -25 1016 98 318 0.79 90 18:56 21.02.2022
3626 Clouds -26 1017 97 440 0.78 99 18:37 21.02.2022
3627 Clouds -28 1017 86 10000 0.83 85 16:23 21.02.2022
3628 Clouds -29 1018 87 10000 0.89 96 14:23 21.02.2022
3629 Clouds -29 1018 87 10000 0.89 96 13:31 21.02.2022
3630 Clouds -35 1019 97 10000 0.64 94 12:46 21.02.2022
3631 Clouds -35 1020 97 10000 0.79 87 12:21 21.02.2022
3632 Clouds -35 1020 97 10000 0.79 87 12:21 21.02.2022
3633 Clouds -35 1020 97 10000 0.85 74 10:29 21.02.2022
3634 Clouds -32 1020 95 10000 0.92 46 07:51 21.02.2022
3635 Clouds -42 1026 100 10000 0.61 238 00:36 21.02.2022
3636 Clouds -42 1027 100 10000 0.69 203 22:32 20.02.2022
3637 Clouds -42 1027 100 10000 0.68 247 21:44 20.02.2022
3638 Clouds -42 1027 100 10000 0.74 187 21:25 20.02.2022
3639 Clouds -42 1027 100 10000 0.74 187 20:43 20.02.2022
3640 Clouds -42 1028 100 10000 0.73 207 19:51 20.02.2022
3641 Clouds -41 1028 100 10000 0.57 224 18:57 20.02.2022
3642 Clouds -41 1028 100 10000 0.57 224 18:37 20.02.2022
3643 Clouds -41 1029 100 10000 0.56 228 17:56 20.02.2022
3644 Clouds -41 1029 100 10000 0.65 184 17:24 20.02.2022
3645 Clouds -41 1029 100 10000 0.65 184 17:24 20.02.2022
3646 Clouds -40 1030 100 10000 0.63 147 15:28 20.02.2022
3647 Clouds -39 1030 100 10000 0.67 127 13:59 20.02.2022
3648 Clouds -39 1031 100 10000 0.78 127 12:47 20.02.2022
3649 Clouds -38 1031 100 10000 0.82 122 11:55 20.02.2022
3650 Clouds -37 1032 99 10000 0.81 130 10:21 20.02.2022
3651 Clouds -37 1032 99 10000 0.81 130 09:35 20.02.2022
3652 Clouds -31 1032 92 10000 0.36 157 06:29 20.02.2022
3653 Clouds -42 1036 99 10000 0.75 221 00:32 20.02.2022
3654 Clouds -42 1036 99 10000 0.75 221 00:32 20.02.2022
3655 Clouds -43 1037 100 10000 0.81 221 23:33 19.02.2022
3656 Clouds -42 1037 100 10000 0.84 222 22:24 19.02.2022
3657 Clouds -42 1037 100 10000 0.84 222 21:47 19.02.2022
3658 Clouds -42 1037 100 10000 0.82 225 20:28 19.02.2022
3659 Clouds -42 1037 100 10000 0.82 225 19:35 19.02.2022
3660 Clouds -41 1037 100 10000 0.82 214 18:40 19.02.2022
3661 Clouds -41 1037 100 10000 0.67 213 17:57 19.02.2022
3662 Clouds -41 1037 100 10000 0.59 236 17:21 19.02.2022
3663 Clouds -40 1037 100 10000 0.69 217 15:59 19.02.2022
3664 Clouds -40 1037 100 10000 0.5 201 14:54 19.02.2022
3665 Clouds -39 1037 100 10000 0.41 210 13:58 19.02.2022
3666 Clouds -39 1037 100 10000 0.49 170 11:53 19.02.2022
3667 Clouds -38 1037 100 10000 0.32 157 10:54 19.02.2022
3668 Clouds -37 1037 100 10000 0.04 111 08:57 19.02.2022
3669 Clouds -32 1036 95 10000 0.19 295 06:48 19.02.2022
3670 Clouds -42 1040 100 10000 0.9 232 00:42 19.02.2022
3671 Clouds -42 1040 100 10000 0.89 238 22:28 18.02.2022
3672 Clouds -42 1040 100 10000 0.9 241 21:22 18.02.2022
3673 Clouds -42 1040 100 10000 0.93 225 20:18 18.02.2022
3674 Clouds -42 1040 100 10000 0.82 232 19:25 18.02.2022
3675 Clouds -41 1039 100 10000 0.74 227 18:29 18.02.2022
3676 Clouds -41 1039 100 10000 0.74 227 17:56 18.02.2022
3677 Clouds -40 1039 100 10000 0.67 228 16:19 18.02.2022
3678 Clouds -40 1039 100 10000 0.54 221 14:19 18.02.2022
3679 Clouds -40 1039 100 10000 0.54 221 13:45 18.02.2022
3680 Clouds -39 1039 100 10000 0.65 220 12:48 18.02.2022
3681 Clouds -39 1039 100 10000 0.61 220 11:57 18.02.2022
3682 Clouds -38 1039 100 10000 0.56 215 10:42 18.02.2022
3683 Clouds -32 1038 96 10000 0.48 276 07:21 18.02.2022
3684 Clouds -31 1038 94 10000 0.42 257 05:52 18.02.2022
3685 Clouds -31 1038 94 10000 0.42 257 05:34 18.02.2022
3686 Clouds -42 1041 100 10000 0.95 222 22:20 17.02.2022
3687 Clouds -42 1041 100 10000 0.95 222 21:38 17.02.2022
3688 Clouds -42 1042 100 10000 1.08 234 20:43 17.02.2022
3689 Clouds -42 1042 100 10000 0.97 235 19:55 17.02.2022
3690 Clouds -41 1042 100 10000 0.78 236 19:22 17.02.2022
3691 Clouds -41 1042 100 10000 0.75 238 18:29 17.02.2022
3692 Clouds -41 1042 100 10000 0.75 238 17:42 17.02.2022
3693 Clouds -40 1042 100 10000 0.37 235 15:57 17.02.2022
3694 Clouds -40 1042 100 10000 0.42 213 14:30 17.02.2022
3695 Clouds -40 1042 100 10000 0.3 210 13:31 17.02.2022
3696 Clouds -39 1042 100 10000 0.28 234 11:52 17.02.2022
3697 Clouds -38 1042 100 10000 0.04 153 10:20 17.02.2022
3698 Clouds -35 1042 100 10000 0.48 49 07:45 17.02.2022
3699 Clouds -41 1045 100 10000 0.85 236 23:50 16.02.2022
3700 Clouds -41 1045 100 10000 0.7 219 22:36 16.02.2022
3701 Clouds -41 1045 100 10000 0.76 210 20:22 16.02.2022
3702 Clouds -40 1045 100 10000 0.78 222 18:56 16.02.2022
3703 Clouds -40 1045 100 10000 0.78 222 18:34 16.02.2022
3704 Clouds -39 1045 100 10000 0.75 216 17:24 16.02.2022
3705 Clouds -39 1046 100 10000 0.55 206 15:23 16.02.2022
3706 Clouds -38 1046 100 10000 0.54 188 13:46 16.02.2022
3707 Clouds -38 1046 100 10000 0.46 191 12:26 16.02.2022
3708 Clouds -38 1046 100 10000 0.46 191 11:46 16.02.2022
3709 Clouds -37 1046 100 10000 0.46 182 10:35 16.02.2022
3710 Clouds -37 1046 100 10000 0.43 174 09:39 16.02.2022
3711 Clouds -32 1045 96 10000 0.16 234 06:44 16.02.2022
3712 Clouds -35 1046 96 10000 0.75 228 02:47 16.02.2022
3713 Clouds -41 1047 100 10000 0.78 217 22:34 15.02.2022
3714 Clouds -40 1047 100 10000 0.71 231 21:51 15.02.2022
3715 Clouds -40 1047 100 10000 0.71 231 21:30 15.02.2022
3716 Clouds -40 1047 100 10000 0.79 229 20:58 15.02.2022
3717 Clouds -40 1047 100 10000 0.85 225 20:27 15.02.2022
3718 Clouds -40 1047 100 10000 0.85 225 19:46 15.02.2022
3719 Clouds -39 1046 100 10000 0.68 217 18:27 15.02.2022
3720 Clouds -39 1046 100 10000 0.68 217 17:55 15.02.2022
3721 Clouds -39 1046 100 10000 0.68 217 17:37 15.02.2022
3722 Clouds -38 1046 100 10000 0.6 204 15:44 15.02.2022
3723 Clouds -38 1046 100 10000 0.45 192 14:31 15.02.2022
3724 Clouds -37 1046 100 10000 0.63 189 13:26 15.02.2022
3725 Clouds -36 1046 100 10000 0.49 175 11:41 15.02.2022
3726 Clear -36 1046 100 10000 0.49 163 10:32 15.02.2022
3727 Clear -35 1045 100 10000 0.17 124 08:56 15.02.2022
3728 Clouds -31 1044 97 10000 0.21 97 06:47 15.02.2022
3729 Clouds -39 1047 100 10000 0.6 242 00:26 15.02.2022
3730 Clouds -38 1047 100 10000 0.57 190 21:58 14.02.2022
3731 Clouds -38 1047 100 10000 0.24 192 20:57 14.02.2022
3732 Clouds -38 1047 100 10000 0.31 217 19:52 14.02.2022
3733 Clouds -38 1047 100 10000 0.31 217 19:30 14.02.2022
3734 Clouds -36 1046 99 10000 0.48 163 18:24 14.02.2022
3735 Clouds -36 1046 99 10000 0.48 163 18:24 14.02.2022
3736 Clouds -36 1046 99 10000 0.48 163 17:31 14.02.2022
3737 Clouds -36 1046 99 10000 0.43 157 16:49 14.02.2022
3738 Clouds -35 1046 99 10000 0.42 135 15:42 14.02.2022
3739 Clouds -34 1046 98 10000 0.47 121 13:36 14.02.2022
3740 Clouds -34 1046 98 10000 0.68 136 12:59 14.02.2022
3741 Clouds -34 1047 98 10000 0.57 139 12:32 14.02.2022
3742 Clouds -34 1047 98 10000 0.63 153 11:39 14.02.2022
3743 Clouds -33 1046 97 10000 0.43 141 10:22 14.02.2022
3744 Clouds -32 1046 97 10000 0.41 125 08:32 14.02.2022
3745 Clouds -28 1045 93 10000 0.35 127 07:26 14.02.2022
3746 Clouds -30 1046 93 10000 0.3 150 23:19 13.02.2022
3747 Clouds -30 1046 93 10000 0.3 150 22:41 13.02.2022
3748 Clouds -29 1045 93 10000 0.26 167 22:22 13.02.2022
3749 Clouds -29 1045 93 10000 0.52 171 21:27 13.02.2022
3750 Clouds -29 1045 93 10000 0.52 171 20:30 13.02.2022
3751 Clouds -28 1044 94 10000 0.56 134 19:24 13.02.2022
3752 Clouds -28 1044 94 10000 0.56 134 18:42 13.02.2022
3753 Clouds -28 1044 93 10000 0.54 124 17:52 13.02.2022
3754 Clouds -27 1044 92 10000 0.59 137 15:54 13.02.2022
3755 Clouds -27 1044 92 10000 0.59 137 15:54 13.02.2022
3756 Clouds -27 1044 91 10000 0.59 147 14:57 13.02.2022
3757 Clouds -27 1044 90 10000 0.75 166 13:59 13.02.2022
3758 Clouds -27 1044 90 10000 1 154 12:50 13.02.2022
3759 Clouds -29 1044 93 10000 0.77 152 11:26 13.02.2022
3760 Clouds -29 1044 93 10000 0.77 152 10:30 13.02.2022
3761 Clouds -30 1044 95 10000 0.57 147 09:41 13.02.2022
3762 Clouds -30 1043 94 10000 0.18 207 07:19 13.02.2022
3763 Clouds -32 1044 96 10000 1.38 199 00:35 13.02.2022
3764 Clouds -33 1044 97 10000 1.33 192 23:39 12.02.2022
3765 Clouds -34 1044 97 10000 0.99 181 22:33 12.02.2022
3766 Clouds -37 1044 99 10000 0.61 213 21:20 12.02.2022
3767 Clouds -37 1044 99 10000 0.61 213 20:32 12.02.2022
3768 Clouds -37 1044 99 10000 0.79 200 19:21 12.02.2022
3769 Clouds -37 1044 99 10000 0.79 200 18:52 12.02.2022
3770 Clouds -37 1044 99 10000 0.79 200 18:34 12.02.2022
3771 Clouds -36 1043 99 10000 0.79 210 16:58 12.02.2022
3772 Clouds -36 1043 98 10000 0.74 204 16:25 12.02.2022
3773 Clouds -36 1043 98 10000 0.74 204 15:50 12.02.2022
3774 Clouds -36 1043 98 10000 0.52 202 14:31 12.02.2022
3775 Clouds -36 1043 98 10000 0.38 153 13:19 12.02.2022
3776 Clouds -35 1043 98 10000 0.29 118 10:41 12.02.2022
3777 Clouds -35 1043 98 10000 0.43 116 09:39 12.02.2022
3778 Clouds -34 1043 97 10000 0.56 108 09:21 12.02.2022
3779 Clouds -33 1042 97 10000 0.57 63 08:18 12.02.2022
3780 Clouds -28 1041 93 10000 0.42 107 05:33 12.02.2022
3781 Clouds -27 1041 90 10000 0.56 178 04:30 12.02.2022
3782 Clouds -31 1042 96 10000 0.73 188 02:18 12.02.2022
3783 Clouds -31 1042 95 10000 0.49 193 22:37 11.02.2022
3784 Clouds -30 1042 94 10000 0.94 204 22:18 11.02.2022
3785 Clouds -30 1042 93 10000 0.96 211 20:41 11.02.2022
3786 Clouds -31 1042 95 10000 0.99 213 19:48 11.02.2022
3787 Clouds -33 1043 96 10000 0.96 214 19:27 11.02.2022
3788 Clouds -36 1043 99 10000 0.84 227 18:26 11.02.2022
3789 Clouds -36 1042 99 10000 0.89 220 17:26 11.02.2022
3790 Clouds -36 1043 100 10000 0.73 216 16:26 11.02.2022
3791 Clouds -36 1043 99 10000 0.74 202 14:57 11.02.2022
3792 Clouds -36 1043 99 10000 0.74 202 14:36 11.02.2022
3793 Clouds -35 1042 99 10000 0.49 209 14:18 11.02.2022
3794 Clouds -35 1042 99 10000 0.49 209 13:39 11.02.2022
3795 Clouds -34 1042 98 10000 0.59 247 12:19 11.02.2022
3796 Clouds -34 1041 98 10000 0.45 214 10:24 11.02.2022
3797 Clouds -34 1041 98 10000 0.21 224 09:19 11.02.2022
3798 Clouds -34 1041 99 10000 0.15 147 08:28 11.02.2022
3799 Clouds -34 1040 98 10000 0.18 116 07:34 11.02.2022
3800 Clouds -34 1040 96 10000 0.85 236 02:40 11.02.2022
3801 Clouds -36 1041 97 10000 0.83 233 02:20 11.02.2022
3802 Clouds -39 1041 99 10000 0.77 257 23:36 10.02.2022
3803 Clouds -40 1040 100 10000 0.72 251 21:53 10.02.2022
3804 Clouds -40 1040 100 10000 0.73 255 21:24 10.02.2022
3805 Clouds -40 1040 100 10000 0.73 255 20:48 10.02.2022
3806 Clouds -40 1040 100 10000 0.73 250 19:37 10.02.2022
3807 Clouds -40 1040 100 10000 0.65 257 19:18 10.02.2022
3808 Clouds -40 1040 100 10000 0.67 238 17:39 10.02.2022
3809 Clouds -40 1040 100 10000 0.71 235 17:19 10.02.2022
3810 Clouds -40 1040 100 10000 0.63 237 16:20 10.02.2022
3811 Clouds -40 1040 100 10000 0.63 237 15:33 10.02.2022
3812 Clouds -40 1040 100 10000 0.59 259 14:49 10.02.2022
3813 Clouds -40 1040 100 10000 0.59 259 14:30 10.02.2022
3814 Clouds -40 1040 100 10000 0.56 267 13:33 10.02.2022
3815 Clouds -39 1040 100 10000 0.23 237 12:51 10.02.2022
3816 Clouds -40 1040 100 10000 0.14 315 11:44 10.02.2022
3817 Clouds -39 1039 100 10000 0.2 51 11:25 10.02.2022
3818 Clouds -39 1039 100 10000 0.32 43 10:21 10.02.2022
3819 Clouds -39 1039 100 10000 0.51 60 09:27 10.02.2022
3820 Clouds -38 1038 100 10000 0.58 44 07:57 10.02.2022
3821 Clouds -34 1038 98 8024 0.1 336 05:53 10.02.2022
3822 Clouds -41 1040 98 9269 0.46 248 02:28 10.02.2022
3823 Clouds -43 1040 99 10000 0.36 248 00:51 10.02.2022
3824 Clouds -43 1040 100 10000 0.4 270 00:30 10.02.2022
3825 Clouds -43 1040 100 10000 0.4 270 23:49 09.02.2022
3826 Clouds -43 1040 100 10000 0.37 261 22:45 09.02.2022
3827 Clouds -43 1040 100 10000 0.13 216 22:25 09.02.2022
3828 Clouds -43 1040 100 10000 0.13 216 21:45 09.02.2022
3829 Clouds -43 1040 100 10000 0.07 16 21:24 09.02.2022
3830 Clouds -43 1040 100 10000 0.07 16 20:41 09.02.2022
3831 Clouds -43 1040 100 10000 0.15 122 20:21 09.02.2022
3832 Clouds -43 1040 100 10000 0.15 122 19:39 09.02.2022
3833 Clouds -42 1039 100 10000 0.23 120 17:50 09.02.2022
3834 Clouds -42 1039 100 10000 0.31 128 16:54 09.02.2022
3835 Clouds -42 1039 100 10000 0.42 106 15:55 09.02.2022
3836 Clouds -42 1039 100 10000 0.33 110 15:19 09.02.2022
3837 Clouds -41 1039 100 10000 0.61 104 12:42 09.02.2022
3838 Clouds -41 1038 100 10000 0.68 104 11:20 09.02.2022
3839 Clouds -41 1038 100 10000 0.68 104 10:33 09.02.2022
3840 Clouds -40 1038 100 10000 0.59 95 09:45 09.02.2022
3841 Clouds -40 1038 100 10000 0.59 86 09:20 09.02.2022
3842 Clouds -40 1038 100 10000 0.59 86 08:43 09.02.2022
3843 Clouds -35 1037 94 10000 0.43 132 05:37 09.02.2022
3844 Clouds -37 1037 96 10000 0.45 206 03:51 09.02.2022
3845 Clouds -42 1039 98 10000 0.58 209 01:55 09.02.2022
3846 Clouds -44 1039 99 10000 0.51 216 23:42 08.02.2022
3847 Clouds -43 1039 99 10000 0.56 206 23:18 08.02.2022
3848 Clouds -43 1039 99 10000 0.56 206 22:38 08.02.2022
3849 Clouds -43 1038 99 10000 0.72 178 22:18 08.02.2022
3850 Clouds -43 1038 100 10000 0.62 186 21:22 08.02.2022
3851 Clouds -43 1038 100 10000 0.62 186 21:22 08.02.2022
3852 Clouds -43 1038 100 10000 0.62 186 20:56 08.02.2022
3853 Clouds -43 1038 100 10000 0.62 186 20:31 08.02.2022
3854 Clouds -43 1038 100 10000 0.58 192 19:18 08.02.2022
3855 Clouds -42 1038 100 10000 0.59 196 17:57 08.02.2022
3856 Clouds -42 1038 100 10000 0.6 176 16:55 08.02.2022
3857 Clouds -42 1038 100 10000 0.47 181 15:45 08.02.2022
3858 Clouds -42 1038 100 10000 0.61 157 14:58 08.02.2022
3859 Clouds -42 1038 100 10000 0.49 165 13:39 08.02.2022
3860 Clouds -41 1037 100 10000 0.58 169 12:24 08.02.2022
3861 Clouds -41 1037 100 10000 0.65 176 10:48 08.02.2022
3862 Clouds -40 1037 100 10000 0.79 177 09:47 08.02.2022
3863 Clouds -40 1037 100 10000 0.7 173 08:38 08.02.2022
3864 Clouds -36 1036 97 10000 0.44 214 06:24 08.02.2022
3865 Clouds -36 1036 96 7081 0.52 226 04:40 08.02.2022
3866 Clouds -37 1036 97 6512 0.63 229 04:22 08.02.2022
3867 Clouds -37 1036 97 6512 0.63 229 03:36 08.02.2022
3868 Clouds -39 1037 98 6416 0.83 231 03:18 08.02.2022
3869 Clouds -39 1037 98 6416 0.83 231 02:59 08.02.2022
3870 Clouds -39 1037 98 6416 0.83 231 02:36 08.02.2022
3871 Clouds -42 1037 100 10000 0.8 224 02:18 08.02.2022
3872 Clouds -42 1037 100 10000 0.8 224 01:44 08.02.2022
3873 Clouds -43 1037 100 10000 0.9 238 01:25 08.02.2022
3874 Clouds -43 1037 100 10000 0.9 238 00:55 08.02.2022
3875 Clouds -42 1037 100 10000 0.84 232 00:21 08.02.2022
3876 Clouds -42 1037 100 10000 0.84 232 23:44 07.02.2022
3877 Clouds -42 1037 100 7610 0.84 234 23:18 07.02.2022
3878 Clouds -42 1037 100 7610 0.84 234 22:59 07.02.2022
3879 Clouds -42 1036 100 8705 0.81 232 22:19 07.02.2022
3880 Clouds -42 1036 100 8705 0.81 232 21:50 07.02.2022
3881 Clouds -42 1036 100 7534 0.76 228 21:27 07.02.2022
3882 Clouds -42 1036 100 7534 0.76 228 20:45 07.02.2022
3883 Clouds -42 1036 100 9785 0.75 242 20:27 07.02.2022
3884 Clouds -42 1036 100 9785 0.75 242 19:47 07.02.2022
3885 Clouds -42 1036 100 10000 0.76 238 18:35 07.02.2022
3886 Clouds -41 1036 100 10000 0.67 259 17:23 07.02.2022
3887 Clouds -41 1036 100 10000 0.67 259 16:52 07.02.2022
3888 Clouds -41 1035 100 10000 0.62 257 15:48 07.02.2022
3889 Clouds -40 1035 100 10000 0.41 225 13:58 07.02.2022
3890 Clouds -40 1034 100 10000 0.52 262 13:27 07.02.2022
3891 Clouds -39 1034 100 10000 0.52 259 12:18 07.02.2022
3892 Clouds -39 1034 100 10000 0.52 259 11:40 07.02.2022
3893 Clouds -39 1034 99 10000 0.58 272 11:22 07.02.2022
3894 Clouds -39 1034 99 10000 0.58 272 10:41 07.02.2022
3895 Clouds -39 1033 100 10000 0.42 256 10:22 07.02.2022
3896 Clouds -39 1033 100 10000 0.42 256 09:51 07.02.2022
3897 Clouds -39 1033 99 10000 0.2 234 09:18 07.02.2022
3898 Clouds -38 1032 99 10000 0.19 336 07:44 07.02.2022
3899 Clouds -36 1032 98 10000 0.26 291 06:34 07.02.2022
3900 Clouds -33 1031 95 10000 0.51 228 04:49 07.02.2022
3901 Clouds -35 1031 96 10000 0.68 224 02:37 07.02.2022
3902 Clouds -38 1030 99 10000 0.45 261 00:20 07.02.2022
3903 Clouds -36 1030 98 10000 0.51 250 23:20 06.02.2022
3904 Clouds -36 1030 98 10000 0.51 250 22:42 06.02.2022
3905 Clouds -35 1029 96 10000 0.61 210 21:46 06.02.2022
3906 Clouds -35 1029 97 10000 0.48 214 21:21 06.02.2022
3907 Clouds -35 1029 97 10000 0.48 214 20:48 06.02.2022
3908 Clouds -36 1029 97 10000 0.19 161 20:23 06.02.2022
3909 Clouds -37 1028 97 10000 0.17 212 19:22 06.02.2022
3910 Clouds -36 1029 97 10000 0.29 106 18:33 06.02.2022
3911 Clouds -36 1028 96 10000 0.37 145 17:38 06.02.2022
3912 Clouds -37 1028 98 10000 0.42 146 16:52 06.02.2022
3913 Clouds -39 1028 99 10000 0.33 91 16:29 06.02.2022
3914 Clouds -39 1028 99 10000 0.33 91 15:47 06.02.2022
3915 Clouds -40 1028 99 10000 0.47 109 15:25 06.02.2022
3916 Clouds -40 1028 100 10000 0.39 154 14:19 06.02.2022
3917 Clouds -41 1028 100 10000 0.29 133 13:21 06.02.2022
3918 Clouds -40 1028 100 10000 0.22 141 12:33 06.02.2022
3919 Clouds -41 1028 100 10000 0.31 184 10:37 06.02.2022
3920 Clouds -41 1028 100 10000 0.35 147 09:48 06.02.2022
3921 Clouds -40 1027 100 10000 0.39 110 08:41 06.02.2022
3922 Clouds -40 1027 100 10000 0.64 110 07:31 06.02.2022
3923 Clouds -36 1027 97 7882 0.37 170 05:28 06.02.2022
3924 Clouds -41 1028 99 10000 0.33 233 02:25 06.02.2022
3925 Clouds -41 1028 99 10000 0.43 256 00:49 06.02.2022
3926 Clouds -41 1029 99 10000 0.63 238 00:22 06.02.2022
3927 Clouds -40 1029 99 10000 0.68 242 21:59 05.02.2022
3928 Clouds -43 1029 100 8592 0.63 246 20:48 05.02.2022
3929 Clouds -43 1029 100 8641 0.79 236 20:23 05.02.2022
3930 Clouds -43 1029 100 8641 0.79 236 19:44 05.02.2022
3931 Clouds -43 1029 100 9750 0.68 230 18:45 05.02.2022
3932 Clouds -43 1029 100 10000 0.69 234 17:36 05.02.2022
3933 Clouds -42 1029 100 10000 0.6 218 16:24 05.02.2022
3934 Clouds -42 1029 100 10000 0.6 218 15:31 05.02.2022
3935 Clouds -42 1029 100 10000 0.36 227 13:57 05.02.2022
3936 Clouds -41 1029 100 10000 0.31 200 12:46 05.02.2022
3937 Clouds -41 1028 100 10000 0.13 125 11:47 05.02.2022
3938 Clouds -40 1028 100 10000 0.14 143 10:44 05.02.2022
3939 Clouds -40 1028 100 10000 0.35 144 09:51 05.02.2022
3940 Clouds -39 1028 100 10000 0.22 103 08:51 05.02.2022
3941 Clouds -38 1028 100 10000 0.3 58 07:32 05.02.2022
3942 Clouds -37 1027 99 10000 0.27 55 06:55 05.02.2022
3943 Clouds -37 1028 97 10000 0.57 208 02:43 05.02.2022
3944 Clouds -40 1029 100 10000 0.6 233 01:18 05.02.2022
3945 Clouds -40 1029 100 10000 0.57 241 00:36 05.02.2022
3946 Clouds -40 1029 100 10000 0.46 245 23:33 04.02.2022
3947 Clouds -40 1028 100 10000 0.32 239 22:50 04.02.2022
3948 Clouds -40 1028 100 10000 0.43 232 21:36 04.02.2022
3949 Clouds -39 1028 100 10000 0.6 226 21:18 04.02.2022
3950 Clouds -39 1028 100 10000 0.6 226 20:38 04.02.2022
3951 Clouds -39 1029 100 10000 0.28 206 19:29 04.02.2022
3952 Clouds -40 1030 100 10000 0.22 169 16:50 04.02.2022
3953 Clouds -40 1030 100 10000 0.08 209 15:33 04.02.2022
3954 Clouds -40 1030 100 9147 0.36 148 14:51 04.02.2022
3955 Clouds -39 1031 100 10000 0.63 141 12:43 04.02.2022
3956 Clouds -39 1031 100 10000 0.65 117 11:46 04.02.2022
3957 Clouds -39 1031 100 10000 0.42 125 10:59 04.02.2022
3958 Clouds -39 1032 100 10000 0.79 138 10:22 04.02.2022
3959 Clouds -38 1032 100 10000 0.42 144 08:31 04.02.2022
3960 Clouds -33 1032 97 7369 0.48 222 04:52 04.02.2022
3961 Clouds -37 1033 100 10000 0.78 231 02:38 04.02.2022
3962 Clouds -38 1034 100 5689 0.42 188 00:18 04.02.2022
3963 Clouds -37 1034 100 5863 0.37 258 22:52 03.02.2022
3964 Clouds -37 1034 100 4493 0.46 208 22:22 03.02.2022
3965 Clouds -37 1034 100 4493 0.46 208 21:41 03.02.2022
3966 Clouds -37 1034 100 5326 0.78 213 20:22 03.02.2022
3967 Clouds -37 1034 100 5326 0.78 213 19:49 03.02.2022
3968 Clouds -37 1034 100 9435 0.48 210 19:23 03.02.2022
3969 Clouds -37 1035 100 10000 0.59 253 18:24 03.02.2022
3970 Clouds -37 1035 100 10000 0.84 226 17:26 03.02.2022
3971 Clouds -38 1035 100 10000 0.7 248 15:38 03.02.2022
3972 Clouds -37 1035 100 10000 0.66 221 14:22 03.02.2022
3973 Clouds -37 1035 100 10000 0.55 266 12:32 03.02.2022
3974 Clouds -36 1034 100 10000 0.68 263 08:59 03.02.2022
3975 Clouds -36 1034 99 10000 0.8 267 08:18 03.02.2022
3976 Clouds -36 1033 99 10000 0.49 247 02:56 03.02.2022
3977 Clouds -37 1033 100 10000 0.74 154 00:29 03.02.2022
3978 Clouds -37 1032 100 10000 0.37 113 22:41 02.02.2022
3979 Clouds -37 1032 100 10000 0.67 126 21:52 02.02.2022
3980 Clouds -36 1032 100 10000 0.55 127 21:29 02.02.2022
3981 Clouds -36 1031 100 10000 0.98 133 20:27 02.02.2022
3982 Clouds -36 1031 100 10000 0.98 133 19:48 02.02.2022
3983 Clouds -35 1030 100 10000 1.06 108 19:00 02.02.2022
3984 Clouds -35 1030 100 10000 1.07 109 18:25 02.02.2022
3985 Clouds -34 1029 100 10000 1.12 104 17:23 02.02.2022
3986 Clouds -34 1029 100 10000 1.12 104 16:59 02.02.2022
3987 Clouds -33 1029 100 9323 1.08 99 15:49 02.02.2022
3988 Clouds -30 1029 100 4324 1.16 125 12:47 02.02.2022
3989 Clouds -30 1028 100 3261 0.98 114 11:51 02.02.2022
3990 Clouds -30 1028 100 3261 0.98 114 11:51 02.02.2022
3991 Clouds -30 1028 100 3261 0.98 114 11:30 02.02.2022
3992 Clouds -27 1027 99 2196 0.57 146 09:18 02.02.2022
3993 Clouds -26 1027 95 3639 0.36 183 05:29 02.02.2022
3994 Clouds -27 1029 97 2138 0.23 148 22:36 01.02.2022
3995 Clouds -27 1029 97 1370 0.22 289 20:58 01.02.2022
3996 Clouds -27 1029 98 593 0.47 273 19:56 01.02.2022
3997 Clouds -29 1030 97 1111 0.43 251 17:38 01.02.2022
3998 Clouds -30 1030 96 1905 0.48 252 16:31 01.02.2022
3999 Clouds -34 1032 99 2201 0.54 291 13:27 01.02.2022
4000 Clouds -34 1032 100 2092 0.29 267 12:28 01.02.2022
4001 Clouds -34 1032 100 2092 0.29 267 12:28 01.02.2022
4002 Clouds -34 1032 100 2518 0.31 237 10:42 01.02.2022
4003 Clouds -34 1033 99 2057 0.68 256 02:29 01.02.2022
4004 Clouds -35 1033 100 2299 0.42 261 23:40 31.01.2022
4005 Clouds -35 1033 100 2265 0.31 218 22:43 31.01.2022
4006 Clouds -35 1033 100 2039 0.14 203 21:38 31.01.2022
4007 Clouds -34 1033 99 2212 0.49 253 20:44 31.01.2022
4008 Clouds -34 1033 99 1675 0.61 244 20:24 31.01.2022
4009 Clouds -34 1033 99 1522 0.6 230 18:54 31.01.2022
4010 Clouds -35 1034 100 1824 0.58 190 18:20 31.01.2022
4011 Clouds -35 1034 99 1828 0.75 235 17:25 31.01.2022
4012 Clouds -35 1034 99 1682 0.77 244 16:25 31.01.2022
4013 Clouds -36 1034 100 1946 0.77 237 14:54 31.01.2022
4014 Clouds -37 1034 100 2050 0.63 245 13:43 31.01.2022
4015 Clouds -37 1034 100 2885 0.53 239 12:38 31.01.2022
4016 Clouds -37 1034 100 3153 0.54 237 11:34 31.01.2022
4017 Clouds -38 1034 100 4046 0.56 225 10:49 31.01.2022
4018 Clouds -38 1034 100 5474 0.59 232 09:45 31.01.2022
4019 Clouds -37 1034 100 6775 0.56 248 08:58 31.01.2022
4020 Clouds -37 1034 100 6775 0.56 248 08:38 31.01.2022
4021 Clouds -37 1033 100 9266 0.61 259 08:19 31.01.2022
4022 Clouds -35 1033 99 6404 0.54 229 06:18 31.01.2022
4023 Clouds -38 1033 100 7452 0.77 243 00:44 31.01.2022
4024 Clouds -38 1033 100 5754 0.48 233 22:38 30.01.2022
4025 Clouds -37 1033 100 5949 0.57 249 22:20 30.01.2022
4026 Clouds -37 1033 100 6697 0.34 230 21:38 30.01.2022
4027 Clouds -37 1033 100 6402 0.58 250 21:18 30.01.2022
4028 Clouds -37 1033 100 6402 0.58 250 20:45 30.01.2022
4029 Clouds -37 1033 100 5899 0.58 210 20:26 30.01.2022
4030 Clouds -36 1033 100 5766 0.56 196 19:24 30.01.2022
4031 Clouds -36 1033 100 5766 0.56 196 18:36 30.01.2022
4032 Clouds -36 1033 100 6099 0.68 188 17:54 30.01.2022
4033 Clouds -36 1033 100 6332 0.58 198 17:21 30.01.2022
4034 Clouds -36 1033 100 6332 0.58 198 16:39 30.01.2022
4035 Clouds -35 1033 100 6390 0.47 210 16:21 30.01.2022
4036 Clouds -35 1033 100 6390 0.47 210 15:50 30.01.2022
4037 Clouds -35 1033 100 6390 0.47 210 15:31 30.01.2022
4038 Clouds -34 1033 100 8348 0.56 196 14:46 30.01.2022
4039 Clouds -33 1033 99 7550 0.52 176 12:47 30.01.2022
4040 Clouds -34 1033 99 7499 0.33 128 11:57 30.01.2022
4041 Clouds -34 1033 99 5113 0.48 109 10:32 30.01.2022
4042 Clouds -34 1033 100 5729 0.42 112 09:50 30.01.2022
4043 Clouds -35 1033 100 4984 0.71 102 08:54 30.01.2022
4044 Clouds -35 1032 100 4760 0.59 99 07:28 30.01.2022
4045 Clouds -35 1033 100 2319 0.58 143 01:56 30.01.2022
4046 Clouds -35 1033 100 2319 0.58 143 01:56 30.01.2022
4047 Clouds -36 1033 100 2143 0.67 103 00:23 30.01.2022
4048 Clouds -36 1032 100 2175 0.63 117 23:18 29.01.2022
4049 Clouds -36 1032 100 2037 0.7 113 21:50 29.01.2022
4050 Clouds -36 1032 100 2071 0.78 108 21:24 29.01.2022
4051 Clouds -36 1032 100 2071 0.78 108 20:32 29.01.2022
4052 Clouds -37 1032 100 2311 0.86 105 19:34 29.01.2022
4053 Clouds -36 1032 100 2679 0.82 108 18:52 29.01.2022
4054 Clouds -36 1032 100 2058 0.79 120 18:24 29.01.2022
4055 Clouds -36 1032 100 2058 0.79 120 17:31 29.01.2022
4056 Clouds -35 1031 100 1976 0.91 128 16:25 29.01.2022
4057 Clouds -33 1030 100 1317 0.81 132 14:23 29.01.2022
4058 Clouds -33 1030 100 1317 0.81 132 13:44 29.01.2022
4059 Clouds -33 1030 100 1282 0.9 142 13:24 29.01.2022
4060 Clouds -33 1030 99 1048 0.78 150 11:50 29.01.2022
4061 Clouds -33 1030 99 1074 0.87 152 11:24 29.01.2022
4062 Clouds -32 1029 99 1318 0.91 176 08:57 29.01.2022
4063 Clouds -32 1029 99 1034 1.26 178 06:55 29.01.2022
4064 Clouds -38 1030 100 4466 1.3 228 00:36 29.01.2022
4065 Clouds -38 1029 100 5084 1.21 231 23:59 28.01.2022
4066 Clouds -38 1029 100 5839 1.24 221 22:51 28.01.2022
4067 Clouds -38 1029 100 6518 1.15 204 22:22 28.01.2022
4068 Clouds -38 1029 100 6518 1.15 204 21:37 28.01.2022
4069 Clouds -38 1029 100 8849 0.96 221 20:30 28.01.2022
4070 Clouds -38 1029 100 10000 0.98 225 19:33 28.01.2022
4071 Clouds -38 1029 100 10000 0.91 200 18:46 28.01.2022
4072 Clouds -38 1028 100 10000 0.67 205 17:42 28.01.2022
4073 Clouds -37 1028 100 10000 0.68 125 15:21 28.01.2022
4074 Clouds -37 1028 100 10000 0.67 116 13:57 28.01.2022
4075 Clouds -38 1029 100 10000 0.45 87 12:32 28.01.2022
4076 Clouds -38 1029 100 10000 0.51 89 11:36 28.01.2022
4077 Clouds -37 1029 100 10000 0.52 64 09:53 28.01.2022
4078 Clouds -37 1029 99 10000 0.73 91 08:41 28.01.2022
4079 Clouds -37 1029 99 10000 0.82 102 07:36 28.01.2022
4080 Clouds -28 1027 96 10000 1.25 111 05:23 28.01.2022
4081 Clouds -27 1027 94 10000 1.38 118 03:45 28.01.2022
4082 Clouds -28 1028 97 10000 1.04 103 02:22 28.01.2022
4083 Clouds -28 1028 97 10000 1.04 103 01:33 28.01.2022
4084 Clouds -29 1028 98 10000 1.14 98 23:25 27.01.2022
4085 Clouds -29 1028 99 10000 1.15 102 21:49 27.01.2022
4086 Clouds -28 1028 99 10000 1.21 106 21:29 27.01.2022
4087 Clouds -28 1028 99 10000 1.21 106 20:44 27.01.2022
4088 Clouds -24 1027 99 5906 1.17 98 18:55 27.01.2022
4089 Clouds -24 1027 99 5186 1.06 104 17:56 27.01.2022
4090 Clouds -24 1027 98 1495 1.19 123 15:18 27.01.2022
4091 Clouds -24 1028 98 1278 1.29 123 13:36 27.01.2022
4092 Clouds -24 1028 99 851 1.13 122 12:45 27.01.2022
4093 Clouds -24 1028 99 690 0.94 140 10:24 27.01.2022
4094 Clouds -25 1028 98 710 0.95 150 08:57 27.01.2022
4095 Clouds -25 1028 98 710 0.95 150 08:34 27.01.2022
4096 Clouds -28 1027 99 9290 1.11 120 05:59 27.01.2022
4097 Clouds -24 1026 99 6348 1.19 132 02:57 27.01.2022
4098 Clouds -23 1025 99 344 1.43 134 23:32 26.01.2022
4099 Clouds -24 1025 99 264 1.25 132 21:59 26.01.2022
4100 Clouds -24 1025 99 264 1.25 132 21:35 26.01.2022
4101 Clouds -25 1024 98 276 1.35 131 20:41 26.01.2022
4102 Clouds -25 1024 98 272 1.38 131 20:22 26.01.2022
4103 Clouds -26 1024 98 313 1.31 135 19:20 26.01.2022
4104 Clouds -26 1024 98 313 1.31 135 18:45 26.01.2022
4105 Clouds -26 1024 98 307 1.33 135 17:50 26.01.2022
4106 Clouds -26 1024 98 354 1.35 134 17:23 26.01.2022
4107 Clouds -26 1024 98 354 1.35 134 16:33 26.01.2022
4108 Clouds -28 1024 97 786 1.4 138 15:49 26.01.2022
4109 Clouds -31 1025 99 6373 1.1 130 14:20 26.01.2022
4110 Clouds -32 1024 100 6233 1.24 123 11:52 26.01.2022
4111 Clouds -31 1024 100 4941 1.16 123 10:28 26.01.2022
4112 Clouds -31 1024 100 4941 1.16 123 09:48 26.01.2022
4113 Clouds -30 1023 100 3853 0.95 120 08:27 26.01.2022
4114 Clouds -27 1022 100 3194 0.81 114 04:24 26.01.2022
4115 Clouds -26 1022 100 1039 0.94 101 23:58 25.01.2022
4116 Clouds -26 1022 100 728 0.94 100 23:20 25.01.2022
4117 Clouds -26 1021 100 740 0.98 105 22:22 25.01.2022
4118 Clouds -26 1021 100 740 0.98 105 21:59 25.01.2022
4119 Clouds -25 1021 100 563 1.09 113 20:59 25.01.2022
4120 Clouds -25 1021 100 563 1.09 113 20:40 25.01.2022
4121 Clouds -25 1021 100 499 0.96 117 19:53 25.01.2022
4122 Clouds -26 1021 99 613 0.96 135 18:38 25.01.2022
4123 Clouds -25 1021 99 679 0.96 145 17:45 25.01.2022
4124 Clouds -25 1021 99 660 1.05 160 16:47 25.01.2022
4125 Clouds -25 1021 99 600 1.38 177 16:21 25.01.2022
4126 Clouds -25 1021 99 600 1.38 177 15:38 25.01.2022
4127 Clouds -25 1021 99 545 1.57 183 14:58 25.01.2022
4128 Clouds -26 1022 99 590 1.44 187 13:46 25.01.2022
4129 Clouds -26 1022 98 1122 1.4 208 10:58 25.01.2022
4130 Clouds -27 1022 98 1417 1.48 207 08:38 25.01.2022
4131 Clouds -28 1022 99 2805 1.08 218 07:30 25.01.2022
4132 Clouds -27 1021 99 1968 1.1 215 06:50 25.01.2022
4133 Clouds -27 1021 97 766 1.11 231 05:22 25.01.2022
4134 Clouds -33 1022 100 3652 0.89 248 23:37 24.01.2022
4135 Clouds -32 1022 100 3678 0.95 253 23:19 24.01.2022
4136 Clouds -32 1022 100 3678 0.95 253 22:59 24.01.2022
4137 Clouds -32 1022 100 3678 0.95 253 22:41 24.01.2022
4138 Clouds -31 1022 100 3528 0.92 250 21:55 24.01.2022
4139 Clouds -30 1022 100 2775 0.74 265 21:29 24.01.2022
4140 Clouds -30 1022 100 2775 0.74 265 20:33 24.01.2022
4141 Clouds -29 1021 100 2686 0.54 259 19:52 24.01.2022
4142 Clouds -29 1021 100 2686 0.54 259 19:30 24.01.2022
4143 Clouds -29 1021 100 3209 0.35 5 18:19 24.01.2022
4144 Clouds -28 1021 100 2404 0.1 329 17:24 24.01.2022
4145 Clouds -28 1021 100 2404 0.1 329 16:55 24.01.2022
4146 Clouds -27 1021 100 1746 0.17 74 16:19 24.01.2022
4147 Clouds -27 1021 100 1654 0.49 100 14:44 24.01.2022
4148 Clouds -26 1021 99 1904 0.58 93 13:26 24.01.2022
4149 Clouds -27 1021 100 2448 0.56 89 12:30 24.01.2022
4150 Clouds -26 1021 100 873 0.76 76 10:46 24.01.2022
4151 Clouds -26 1021 100 736 0.83 84 09:48 24.01.2022
4152 Clouds -25 1021 99 657 0.92 84 08:54 24.01.2022
4153 Clouds -26 1021 99 1312 0.69 86 06:41 24.01.2022
4154 Clouds -26 1022 99 938 0.83 116 01:31 24.01.2022
4155 Clouds -26 1023 99 887 1.03 114 00:45 24.01.2022
4156 Clouds -26 1023 98 865 1.16 119 00:26 24.01.2022
4157 Clouds -27 1023 98 1414 0.88 138 22:43 23.01.2022
4158 Clouds -28 1023 99 3182 0.72 147 21:50 23.01.2022
4159 Clouds -28 1024 99 3740 0.85 140 21:26 23.01.2022
4160 Clouds -28 1024 99 3740 0.85 140 20:48 23.01.2022
4161 Clouds -29 1024 100 3900 0.87 152 19:54 23.01.2022
4162 Clouds -33 1025 100 4517 0.48 176 18:52 23.01.2022
4163 Clouds -33 1025 100 4483 0.62 173 17:50 23.01.2022
4164 Clouds -34 1025 100 4287 0.76 184 16:48 23.01.2022
4165 Clouds -35 1026 100 5226 0.61 199 15:18 23.01.2022
4166 Clouds -35 1026 100 5226 0.61 199 14:32 23.01.2022
4167 Clouds -34 1026 100 6247 0.61 210 13:27 23.01.2022
4168 Clouds -34 1026 100 5803 0.7 219 12:36 23.01.2022
4169 Clouds -34 1026 100 5956 0.78 224 12:18 23.01.2022
4170 Clouds -33 1025 100 6410 0.34 243 11:24 23.01.2022
4171 Clouds -33 1025 100 6410 0.34 243 10:57 23.01.2022
4172 Clouds -33 1025 100 9714 0.1 128 10:21 23.01.2022
4173 Clouds -32 1025 100 10000 0.31 116 09:22 23.01.2022
4174 Clouds -29 1023 100 10000 0.47 57 05:59 23.01.2022
4175 Clouds -25 1022 99 510 0.76 95 02:25 23.01.2022
4176 Clouds -25 1022 99 510 0.76 95 01:35 23.01.2022
4177 Clouds -26 1022 99 415 0.48 95 00:41 23.01.2022
4178 Clouds -27 1022 99 518 0.52 114 23:57 22.01.2022
4179 Clouds -27 1022 96 788 0.63 138 22:47 22.01.2022
4180 Clouds -28 1022 96 3186 0.35 146 21:38 22.01.2022
4181 Clouds -30 1022 97 10000 0.42 306 20:26 22.01.2022
4182 Clouds -30 1022 97 10000 0.42 306 19:34 22.01.2022
4183 Clouds -29 1022 97 10000 0.46 189 18:36 22.01.2022
4184 Clouds -27 1022 95 2099 1.02 150 17:42 22.01.2022
4185 Clouds -27 1022 95 2099 1.02 150 17:42 22.01.2022
4186 Clouds -29 1023 96 1880 0.7 123 17:18 22.01.2022
4187 Clouds -30 1023 95 7345 0.41 115 16:22 22.01.2022
4188 Clouds -30 1023 95 7345 0.41 115 15:44 22.01.2022
4189 Clouds -31 1024 94 10000 0.87 173 14:22 22.01.2022
4190 Clouds -33 1025 96 10000 0.52 164 13:27 22.01.2022
4191 Clouds -33 1025 96 10000 0.52 164 12:32 22.01.2022
4192 Clouds -35 1025 97 10000 0.34 198 11:58 22.01.2022
4193 Clouds -35 1026 97 10000 0.46 243 10:39 22.01.2022
4194 Clouds -35 1026 97 10000 0.62 213 10:20 22.01.2022
4195 Clouds -35 1026 96 10000 0.74 180 08:55 22.01.2022
4196 Clouds -35 1026 96 10000 0.74 180 08:31 22.01.2022
4197 Clouds -37 1027 96 10000 0.63 213 05:20 22.01.2022
4198 Clouds -38 1028 96 10000 0.6 234 02:39 22.01.2022
4199 Clouds -37 1029 94 10000 0.56 220 23:50 21.01.2022
4200 Clouds -37 1028 94 10000 0.45 234 22:59 21.01.2022
4201 Clouds -36 1028 93 10000 0.49 217 21:18 21.01.2022
4202 Clouds -36 1028 93 10000 0.36 181 19:30 21.01.2022
4203 Clouds -34 1028 91 10000 0.21 41 17:50 21.01.2022
4204 Clouds -31 1028 88 10000 0.4 98 15:54 21.01.2022
4205 Clouds -33 1029 91 10000 0.29 1 14:58 21.01.2022
4206 Clouds -32 1029 89 10000 0.55 107 12:43 21.01.2022
4207 Clouds -34 1030 91 10000 0.32 54 11:29 21.01.2022
4208 Clouds -34 1030 91 10000 0.32 54 10:33 21.01.2022
4209 Clouds -39 1031 97 10000 0.3 33 08:58 21.01.2022
4210 Clouds -40 1031 97 10000 0.22 49 07:58 21.01.2022
4211 Clouds -39 1030 96 10000 0.16 302 01:51 21.01.2022
4212 Clouds -39 1029 97 10000 0.3 305 22:47 20.01.2022
4213 Clouds -39 1029 97 10000 0.45 285 21:49 20.01.2022
4214 Clouds -39 1029 97 10000 0.52 251 21:25 20.01.2022
4215 Clouds -38 1029 97 10000 0.56 223 19:54 20.01.2022
4216 Clouds -39 1029 98 10000 0.51 261 19:18 20.01.2022
4217 Clouds -40 1029 98 10000 0.42 257 17:37 20.01.2022
4218 Clouds -40 1029 98 10000 0.35 211 16:24 20.01.2022
4219 Clouds -40 1029 98 10000 0.35 211 15:31 20.01.2022
4220 Clouds -40 1029 99 10000 0.13 282 14:20 20.01.2022
4221 Clouds -40 1029 99 10000 0.45 262 12:53 20.01.2022
4222 Clouds -41 1030 99 10000 0.59 273 12:29 20.01.2022
4223 Clouds -41 1030 99 10000 0.41 245 11:19 20.01.2022
4224 Clouds -41 1030 99 10000 0.48 244 10:19 20.01.2022
4225 Clouds -42 1030 99 10000 0.4 232 09:18 20.01.2022
4226 Clouds -42 1030 99 10000 0.51 289 07:23 20.01.2022
4227 Clouds -42 1030 99 10000 0.52 255 00:41 20.01.2022
4228 Clouds -43 1031 99 10000 0.64 258 22:40 19.01.2022
4229 Clouds -43 1031 100 10000 0.8 257 21:41 19.01.2022
4230 Clouds -43 1031 100 10000 0.7 253 21:21 19.01.2022
4231 Clouds -43 1031 100 10000 0.7 253 20:45 19.01.2022
4232 Clouds -43 1032 99 10000 0.8 253 19:18 19.01.2022
4233 Clouds -43 1032 100 10000 0.7 250 17:51 19.01.2022
4234 Clouds -43 1032 100 10000 0.8 274 17:28 19.01.2022
4235 Clouds -43 1033 100 10000 0.78 270 15:36 19.01.2022
4236 Clouds -43 1034 100 10000 0.47 251 13:38 19.01.2022
4237 Clouds -43 1034 100 10000 0.79 262 12:24 19.01.2022
4238 Clouds -43 1034 100 10000 0.79 262 11:38 19.01.2022
4239 Clouds -43 1035 99 10000 0.69 252 09:52 19.01.2022
4240 Clouds -43 1035 99 10000 0.69 252 09:33 19.01.2022
4241 Clouds -43 1036 99 10000 0.78 261 06:34 19.01.2022
4242 Clouds -44 1039 100 10000 0.56 237 01:40 19.01.2022
4243 Clouds -44 1040 100 10000 0.8 271 23:18 18.01.2022
4244 Clouds -44 1040 100 10000 0.81 270 21:55 18.01.2022
4245 Clouds -44 1041 100 10000 0.82 267 20:47 18.01.2022
4246 Clouds -44 1041 100 10000 0.72 250 19:53 18.01.2022
4247 Clouds -44 1041 100 10000 0.68 244 19:35 18.01.2022
4248 Clouds -44 1041 100 10000 0.64 210 18:36 18.01.2022
4249 Clouds -44 1042 100 10000 0.58 241 17:48 18.01.2022
4250 Clouds -44 1042 100 10000 0.73 259 16:33 18.01.2022
4251 Clouds -44 1043 100 10000 0.7 261 15:26 18.01.2022
4252 Clouds -44 1043 100 10000 0.7 261 14:54 18.01.2022
4253 Clouds -44 1044 100 10000 0.35 239 11:52 18.01.2022
4254 Clouds -44 1044 100 10000 0.39 263 10:41 18.01.2022
4255 Clouds -44 1044 99 10000 0.41 202 08:49 18.01.2022
4256 Clouds -44 1044 99 10000 0.38 258 07:46 18.01.2022
4257 Clouds -45 1045 100 10000 0.47 228 02:20 18.01.2022
4258 Clouds -44 1044 100 10000 0.37 231 23:22 17.01.2022
4259 Clouds -44 1044 100 10000 0.3 217 22:19 17.01.2022
4260 Clouds -44 1044 100 10000 0.3 217 21:32 17.01.2022
4261 Clouds -44 1044 100 10000 0.35 214 19:51 17.01.2022
4262 Clouds -44 1044 100 10000 0.41 212 18:29 17.01.2022
4263 Clouds -44 1044 100 10000 0.32 203 17:24 17.01.2022
4264 Clouds -44 1043 100 10000 0.35 252 16:27 17.01.2022
4265 Clouds -44 1044 100 10000 0.41 206 14:59 17.01.2022
4266 Clouds -44 1044 100 10000 0.41 206 14:33 17.01.2022
4267 Clouds -44 1044 100 10000 0.29 236 13:20 17.01.2022
4268 Clouds -44 1044 100 10000 0.33 240 12:54 17.01.2022
4269 Clouds -44 1044 100 10000 0.3 210 11:48 17.01.2022
4270 Clouds -44 1044 100 10000 0.37 218 10:21 17.01.2022
4271 Clouds -44 1044 100 10000 0.37 218 09:33 17.01.2022
4272 Clouds -44 1044 100 10000 0.39 248 07:22 17.01.2022
4273 Clouds -43 1044 99 10000 0.54 214 02:54 17.01.2022
4274 Clouds -43 1045 99 10000 0.52 220 00:54 17.01.2022
4275 Clouds -43 1044 99 10000 0.51 216 21:44 16.01.2022
4276 Clouds -42 1044 99 10000 0.62 233 20:34 16.01.2022
4277 Clouds -43 1044 100 10000 0.55 225 18:51 16.01.2022
4278 Clouds -41 1044 99 10000 0.51 237 17:57 16.01.2022
4279 Clouds -41 1044 99 10000 0.61 242 16:59 16.01.2022
4280 Clouds -42 1044 100 9513 0.72 225 16:29 16.01.2022
4281 Clouds -42 1044 100 10000 0.65 241 14:30 16.01.2022
4282 Clouds -42 1044 100 10000 0.65 241 14:30 16.01.2022
4283 Clouds -42 1044 100 10000 0.68 227 13:33 16.01.2022
4284 Clouds -41 1044 100 10000 0.68 234 12:26 16.01.2022
4285 Clouds -41 1044 100 10000 0.68 234 11:38 16.01.2022
4286 Clouds -41 1044 100 10000 0.57 228 10:45 16.01.2022
4287 Clouds -41 1044 100 10000 0.56 246 09:59 16.01.2022
4288 Clouds -41 1044 100 10000 0.56 246 09:38 16.01.2022
4289 Clouds -40 1044 100 10000 0.7 254 09:20 16.01.2022
4290 Clouds -40 1043 100 10000 0.77 230 07:23 16.01.2022
4291 Clouds -39 1041 100 10000 0.95 223 00:36 16.01.2022
4292 Clouds -39 1040 99 10000 0.91 212 22:55 15.01.2022
4293 Clouds -37 1039 98 10000 0.84 221 21:23 15.01.2022
4294 Clouds -37 1039 98 10000 0.84 221 20:48 15.01.2022
4295 Clouds -37 1039 98 10000 0.84 223 20:29 15.01.2022
4296 Clouds -37 1039 98 10000 0.89 230 19:27 15.01.2022
4297 Clouds -36 1038 97 10000 0.91 235 18:23 15.01.2022
4298 Clouds -36 1038 97 10000 0.92 240 16:49 15.01.2022
4299 Clouds -35 1037 97 10000 0.88 253 14:48 15.01.2022
4300 Clouds -34 1037 96 10000 0.71 249 13:29 15.01.2022
4301 Clouds -35 1037 97 10000 0.91 260 11:32 15.01.2022
4302 Clouds -34 1037 96 10000 1.16 267 09:46 15.01.2022
4303 Clouds -35 1035 98 10000 0.93 265 05:18 15.01.2022
4304 Clouds -34 1033 96 10000 0.52 234 23:32 14.01.2022
4305 Clouds -34 1032 96 10000 0.75 173 21:19 14.01.2022
4306 Clouds -34 1032 96 10000 0.75 173 20:37 14.01.2022
4307 Clouds -34 1032 96 10000 0.71 201 19:55 14.01.2022
4308 Clouds -35 1033 98 10000 0.71 232 18:42 14.01.2022
4309 Clouds -36 1033 98 10000 0.74 246 17:39 14.01.2022
4310 Clouds -36 1032 98 10000 0.85 247 16:43 14.01.2022
4311 Clouds -37 1032 99 10000 0.84 246 15:33 14.01.2022
4312 Clouds -39 1032 100 10000 0.85 246 14:28 14.01.2022
4313 Clouds -39 1033 100 10000 0.81 236 12:58 14.01.2022
4314 Clouds -39 1032 100 10000 0.93 231 11:53 14.01.2022
4315 Clouds -39 1032 100 10000 1.01 252 10:40 14.01.2022
4316 Clouds -39 1031 100 10000 1.09 247 08:53 14.01.2022
4317 Clouds -39 1031 100 10000 1.22 241 07:32 14.01.2022
4318 Clouds -33 1028 100 4697 1.04 225 02:27 14.01.2022
4319 Clouds -32 1028 100 4186 1 221 00:33 14.01.2022
4320 Clouds -30 1026 100 2380 1.21 194 21:52 13.01.2022
4321 Clouds -29 1025 100 3424 1.1 194 21:29 13.01.2022
4322 Clouds -27 1025 100 3393 0.88 211 19:58 13.01.2022
4323 Clouds -26 1024 99 2005 1.06 224 19:29 13.01.2022
4324 Clouds -27 1025 99 2735 1.02 233 18:49 13.01.2022
4325 Clouds -26 1024 99 594 0.76 215 16:57 13.01.2022
4326 Clouds -26 1024 99 555 0.72 224 15:45 13.01.2022
4327 Clouds -26 1023 99 612 0.84 232 15:26 13.01.2022
4328 Clouds -26 1023 99 645 0.82 232 13:29 13.01.2022
4329 Clouds -25 1022 99 560 0.81 246 11:18 13.01.2022
4330 Clouds -25 1022 98 539 0.71 244 09:24 13.01.2022
4331 Clouds -25 1022 98 419 0.67 233 08:30 13.01.2022
4332 Clouds -25 1022 98 419 0.67 233 07:59 13.01.2022
4333 Clouds -26 1021 98 449 0.55 238 07:20 13.01.2022
4334 Clouds -26 1021 98 321 0.69 254 05:21 13.01.2022
4335 Clouds -26 1021 98 321 0.69 254 04:55 13.01.2022
4336 Clouds -27 1022 98 534 0.59 257 01:41 13.01.2022
4337 Clouds -27 1021 97 2694 0.51 272 23:54 12.01.2022
4338 Clouds -27 1021 97 2694 0.51 272 23:34 12.01.2022
4339 Clouds -27 1021 97 1741 0.32 270 22:35 12.01.2022
4340 Clouds -28 1022 97 943 0.31 292 21:49 12.01.2022
4341 Clouds -28 1022 97 1042 0.08 316 21:20 12.01.2022
4342 Clouds -28 1022 97 1042 0.08 316 20:49 12.01.2022
4343 Clouds -31 1023 99 1740 0.33 306 19:22 12.01.2022
4344 Clouds -31 1023 100 1780 0.27 306 18:25 12.01.2022
4345 Clouds -33 1023 100 2266 0.32 300 16:57 12.01.2022
4346 Clouds -33 1023 100 2710 0.44 311 15:49 12.01.2022
4347 Clouds -33 1023 100 2900 0.45 304 14:45 12.01.2022
4348 Clouds -33 1024 100 3351 0.06 323 12:57 12.01.2022
4349 Clouds -34 1024 100 3750 0.28 218 09:57 12.01.2022
4350 Clouds -33 1023 100 3788 0.11 107 07:59 12.01.2022
4351 Clouds -33 1023 100 3788 0.11 107 07:33 12.01.2022
4352 Clouds -30 1023 99 1559 0.37 100 04:54 12.01.2022
4353 Clouds -33 1023 98 10000 0.64 106 23:27 11.01.2022
4354 Clouds -33 1023 98 10000 0.64 106 22:40 11.01.2022
4355 Clouds -33 1023 98 10000 0.78 112 22:18 11.01.2022
4356 Clouds -32 1022 97 10000 0.86 114 20:40 11.01.2022
4357 Clouds -31 1022 97 10000 0.8 113 19:41 11.01.2022
4358 Clouds -28 1022 94 10000 0.79 92 18:22 11.01.2022
4359 Clouds -26 1022 93 10000 0.74 94 16:59 11.01.2022
4360 Clouds -26 1022 93 10000 0.74 94 16:35 11.01.2022
4361 Clouds -26 1022 90 10000 0.6 122 14:57 11.01.2022
4362 Clouds -26 1022 90 10000 0.6 122 14:39 11.01.2022
4363 Clouds -27 1022 91 10000 0.51 118 13:53 11.01.2022
4364 Clouds -27 1022 91 10000 0.51 118 13:31 11.01.2022
4365 Clouds -27 1023 91 10000 0.59 132 12:37 11.01.2022
4366 Clouds -29 1023 94 10000 0.22 130 10:45 11.01.2022
4367 Clouds -29 1024 93 10000 0.68 282 08:53 11.01.2022
4368 Clouds -33 1025 96 10000 0.53 251 06:22 11.01.2022
4369 Clouds -41 1029 100 10000 0.89 261 00:28 11.01.2022
4370 Clouds -41 1029 100 10000 0.89 261 23:40 10.01.2022
4371 Clouds -42 1029 100 10000 0.89 242 22:43 10.01.2022
4372 Clouds -42 1029 100 10000 0.89 265 22:18 10.01.2022
4373 Clouds -42 1029 100 10000 0.89 265 21:42 10.01.2022
4374 Clouds -42 1029 100 10000 0.75 246 21:18 10.01.2022
4375 Clouds -42 1029 100 10000 0.75 246 20:55 10.01.2022
4376 Clouds -42 1030 100 10000 0.79 265 20:24 10.01.2022
4377 Clouds -42 1030 100 10000 0.79 265 19:41 10.01.2022
4378 Clouds -42 1030 100 10000 0.79 250 19:19 10.01.2022
4379 Clouds -42 1030 100 10000 0.8 254 18:48 10.01.2022
4380 Clouds -42 1031 100 10000 0.86 262 16:59 10.01.2022
4381 Clouds -42 1031 100 10000 0.86 262 16:41 10.01.2022
4382 Clouds -41 1031 100 10000 0.8 259 14:58 10.01.2022
4383 Clouds -42 1032 100 10000 0.69 258 13:39 10.01.2022
4384 Clouds -42 1033 100 10000 0.73 252 11:57 10.01.2022
4385 Clouds -42 1033 100 10000 0.73 257 11:24 10.01.2022
4386 Clouds -41 1033 100 10000 0.78 256 09:41 10.01.2022
4387 Clouds -40 1033 100 10000 0.59 232 05:52 10.01.2022
4388 Clouds -40 1034 100 10000 0.75 250 05:23 10.01.2022
4389 Clouds -39 1035 100 10000 0.77 231 01:24 10.01.2022
4390 Clouds -39 1035 100 10000 0.73 219 00:23 10.01.2022
4391 Clouds -38 1035 99 10000 1.11 199 23:28 09.01.2022
4392 Clouds -38 1035 99 10000 1.11 199 22:33 09.01.2022
4393 Clouds -38 1036 100 10000 0.73 247 21:44 09.01.2022
4394 Clouds -38 1035 99 10000 0.67 229 21:23 09.01.2022
4395 Clouds -38 1035 99 10000 0.67 229 21:23 09.01.2022
4396 Clouds -38 1035 99 10000 0.67 229 20:50 09.01.2022
4397 Clouds -37 1035 99 10000 1.16 180 20:29 09.01.2022
4398 Clouds -37 1035 99 10000 1.16 180 19:44 09.01.2022
4399 Clouds -37 1036 99 10000 0.99 202 19:23 09.01.2022
4400 Clouds -37 1036 100 10000 1.08 215 18:51 09.01.2022
4401 Clouds -37 1036 100 10000 1.08 215 18:33 09.01.2022
4402 Clouds -37 1035 100 10000 0.85 238 17:30 09.01.2022
4403 Clouds -37 1035 100 10000 1.01 183 16:51 09.01.2022
4404 Clouds -37 1036 100 10000 1.07 200 15:57 09.01.2022
4405 Clouds -37 1036 100 10000 1.07 200 15:35 09.01.2022
4406 Clouds -36 1036 100 10000 1.11 210 14:40 09.01.2022
4407 Clouds -36 1036 100 10000 1.03 214 13:50 09.01.2022
4408 Clouds -36 1036 100 10000 0.81 193 12:50 09.01.2022
4409 Clouds -34 1036 100 10000 1 153 11:54 09.01.2022
4410 Clouds -34 1036 99 10000 1.1 145 10:53 09.01.2022
4411 Clouds -34 1035 99 10000 1 138 09:47 09.01.2022
4412 Clouds -33 1035 99 10000 1.09 134 08:51 09.01.2022
4413 Clouds -26 1032 99 7443 1.07 122 05:21 09.01.2022
4414 Snow -25 1032 99 240 1.1 150 01:24 09.01.2022
4415 Snow -25 1032 99 205 1.02 152 23:47 08.01.2022
4416 Snow -26 1031 99 178 1.08 162 23:26 08.01.2022
4417 Snow -26 1031 99 178 1.08 162 22:30 08.01.2022
4418 Snow -26 1031 99 176 1.16 166 21:25 08.01.2022
4419 Snow -26 1031 99 176 1.16 166 20:42 08.01.2022
4420 Snow -26 1031 99 160 1.18 171 20:21 08.01.2022
4421 Snow -26 1030 99 184 1.03 181 18:45 08.01.2022
4422 Snow -26 1030 99 153 0.81 202 17:22 08.01.2022
4423 Snow -26 1030 99 143 0.95 205 15:56 08.01.2022
4424 Snow -27 1030 99 160 0.88 209 14:46 08.01.2022
4425 Snow -27 1030 99 150 0.86 224 13:29 08.01.2022
4426 Snow -28 1031 99 155 0.88 241 11:28 08.01.2022
4427 Snow -28 1031 99 155 0.88 241 10:30 08.01.2022
4428 Snow -28 1031 98 150 0.91 252 09:54 08.01.2022
4429 Clouds -28 1031 92 271 1.08 248 09:28 08.01.2022
4430 Clouds -32 1031 91 10000 1.19 250 03:45 08.01.2022
4431 Clouds -37 1033 97 10000 1.08 246 00:57 08.01.2022
4432 Clouds -40 1034 99 10000 1.05 241 22:54 07.01.2022
4433 Clouds -41 1034 99 10000 1.09 239 21:34 07.01.2022
4434 Clouds -41 1034 99 10000 1.04 246 20:23 07.01.2022
4435 Clouds -41 1034 99 10000 0.98 247 19:26 07.01.2022
4436 Clouds -41 1034 99 10000 0.98 247 19:26 07.01.2022
4437 Clouds -39 1034 99 10000 0.82 242 18:45 07.01.2022
4438 Clouds -39 1034 99 10000 0.91 252 17:57 07.01.2022
4439 Clouds -38 1034 98 10000 0.82 233 17:22 07.01.2022
4440 Clouds -37 1035 97 10000 0.58 226 14:50 07.01.2022
4441 Clouds -37 1034 97 10000 0.58 234 13:50 07.01.2022
4442 Clouds -36 1035 96 10000 0.55 246 12:50 07.01.2022
4443 Clouds -33 1036 91 10000 0.86 263 10:18 07.01.2022
4444 Clouds -39 1039 95 10000 1.04 236 02:59 07.01.2022
4445 Clouds -39 1039 96 10000 1.02 239 02:21 07.01.2022
4446 Clouds -39 1039 96 10000 1.02 239 01:45 07.01.2022
4447 Clouds -40 1040 96 10000 1.01 242 01:23 07.01.2022
4448 Clouds -42 1040 96 10000 0.97 240 00:29 07.01.2022
4449 Clouds -44 1041 97 10000 1.05 259 21:56 06.01.2022
4450 Clouds -45 1042 98 10000 1.03 254 20:37 06.01.2022
4451 Clouds -47 1042 99 10000 1.05 265 19:54 06.01.2022
4452 Clouds -47 1042 99 10000 0.98 255 19:29 06.01.2022
4453 Clouds -47 1042 99 10000 0.92 266 17:51 06.01.2022
4454 Clouds -47 1042 99 10000 1.04 258 17:21 06.01.2022
4455 Clouds -47 1042 99 10000 1.04 258 16:31 06.01.2022
4456 Clouds -47 1043 99 10000 0.77 247 15:43 06.01.2022
4457 Clouds -47 1043 99 10000 0.93 249 15:20 06.01.2022
4458 Clouds -48 1043 99 10000 1.01 253 14:19 06.01.2022
4459 Clouds -48 1043 99 10000 1.01 253 13:30 06.01.2022
4460 Clouds -47 1044 99 10000 0.83 252 12:20 06.01.2022
4461 Clouds -47 1043 98 10000 1.11 256 11:29 06.01.2022
4462 Clouds -47 1043 98 10000 0.86 257 09:56 06.01.2022
4463 Clouds -45 1042 96 10000 0.46 274 06:37 06.01.2022
4464 Clouds -48 1043 98 10000 0.77 234 00:27 06.01.2022
4465 Clouds -48 1043 98 10000 0.57 214 23:22 05.01.2022
4466 Clouds -48 1043 98 10000 0.57 214 22:48 05.01.2022
4467 Clouds -48 1042 98 10000 0.66 247 22:21 05.01.2022
4468 Clouds -49 1043 98 10000 0.84 222 21:28 05.01.2022
4469 Clouds -49 1043 98 10000 0.84 222 20:30 05.01.2022
4470 Clouds -49 1043 98 10000 0.9 225 19:29 05.01.2022
4471 Clouds -50 1043 98 10000 0.84 224 18:21 05.01.2022
4472 Clouds -50 1043 99 10000 1 237 16:57 05.01.2022
4473 Clouds -50 1043 99 10000 0.83 242 16:19 05.01.2022
4474 Clouds -50 1043 98 10000 0.92 242 15:19 05.01.2022
4475 Clouds -50 1043 98 10000 0.82 233 13:34 05.01.2022
4476 Clouds -50 1043 98 10000 0.89 228 12:20 05.01.2022
4477 Clouds -49 1042 98 10000 0.89 235 08:46 05.01.2022
4478 Clouds -49 1041 98 10000 0.93 226 06:46 05.01.2022
4479 Clouds -49 1039 98 10000 1.18 239 01:49 05.01.2022
4480 Clouds -49 1039 98 10000 1.02 238 23:44 04.01.2022
4481 Clouds -49 1038 98 10000 1.22 241 23:25 04.01.2022
4482 Clouds -49 1038 98 10000 1.01 236 22:19 04.01.2022
4483 Clouds -49 1037 98 10000 1.14 243 20:46 04.01.2022
4484 Clouds -49 1036 98 10000 0.93 241 18:44 04.01.2022
4485 Clouds -49 1036 98 10000 1 255 17:34 04.01.2022
4486 Clouds -49 1035 98 10000 1.01 252 16:39 04.01.2022
4487 Clouds -49 1035 98 10000 0.91 239 16:20 04.01.2022
4488 Clouds -49 1034 99 10000 0.98 254 14:46 04.01.2022
4489 Clouds -49 1034 99 10000 0.96 251 14:23 04.01.2022
4490 Clouds -49 1034 98 10000 0.91 250 12:37 04.01.2022
4491 Clouds -48 1032 99 10000 1.03 246 10:28 04.01.2022
4492 Clouds -48 1031 99 10000 1.07 248 08:59 04.01.2022
4493 Clouds -47 1029 100 10000 1.1 246 06:46 04.01.2022
4494 Clouds -43 1025 100 10000 1.07 223 00:50 04.01.2022
4495 Clouds -43 1025 100 10000 1.07 223 00:31 04.01.2022
4496 Clouds -41 1024 99 5825 1.05 212 22:41 03.01.2022
4497 Clouds -40 1023 99 3918 1 197 21:41 03.01.2022
4498 Clouds -39 1023 98 3464 0.94 202 21:23 03.01.2022
4499 Clouds -39 1022 97 2765 0.9 188 19:46 03.01.2022
4500 Clouds -39 1022 96 2471 1.15 211 18:33 03.01.2022
4501 Clouds -39 1021 95 1989 1.39 217 17:40 03.01.2022
4502 Clouds -39 1021 95 2058 1.24 226 16:57 03.01.2022
4503 Clouds -40 1022 95 1420 1.3 246 14:54 03.01.2022
4504 Clouds -41 1022 95 1616 1.37 221 14:29 03.01.2022
4505 Clouds -41 1022 95 2157 0.77 235 12:35 03.01.2022
4506 Clouds -42 1023 95 2835 1.23 251 11:33 03.01.2022
4507 Clouds -43 1024 96 1859 1.02 235 09:49 03.01.2022
4508 Clouds -44 1024 96 2166 1.02 242 08:46 03.01.2022
4509 Clouds -48 1026 100 4342 1.04 249 06:48 03.01.2022
4510 Clouds -50 1029 99 10000 0.53 246 23:54 02.01.2022
4511 Clouds -50 1029 99 8546 0.25 183 23:18 02.01.2022
4512 Clouds -50 1029 99 8546 0.25 183 22:43 02.01.2022
4513 Clouds -50 1029 99 10000 0.16 231 21:38 02.01.2022
4514 Clouds -50 1030 99 7597 0.41 161 20:31 02.01.2022
4515 Clouds -50 1029 98 10000 0.56 172 19:52 02.01.2022
4516 Clouds -50 1029 99 10000 0.48 217 19:25 02.01.2022
4517 Clouds -50 1029 98 10000 0.63 229 18:33 02.01.2022
4518 Clouds -50 1029 98 10000 0.44 238 17:43 02.01.2022
4519 Clouds -50 1030 98 10000 0.78 235 17:21 02.01.2022
4520 Clouds -50 1030 98 10000 0.78 235 16:33 02.01.2022
4521 Clouds -50 1030 98 10000 0.61 210 15:51 02.01.2022
4522 Clouds -50 1030 98 10000 0.73 238 14:19 02.01.2022
4523 Clouds -50 1031 98 10000 0.73 239 12:34 02.01.2022
4524 Clouds -50 1031 98 10000 0.61 232 11:56 02.01.2022
4525 Clouds -50 1031 98 10000 0.98 245 10:59 02.01.2022
4526 Clouds -50 1031 98 10000 0.98 245 10:37 02.01.2022
4527 Clouds -50 1031 99 10000 0.95 234 08:27 02.01.2022
4528 Clouds -50 1033 99 10000 0.77 233 03:22 02.01.2022
4529 Clouds -49 1033 99 10000 0.63 259 23:56 01.01.2022
4530 Clouds -49 1033 99 10000 0.63 259 23:36 01.01.2022
4531 Clouds -49 1033 99 10000 0.99 261 22:45 01.01.2022
4532 Clouds -49 1034 99 10000 0.63 247 22:18 01.01.2022
4533 Clouds -49 1034 99 10000 0.63 247 21:43 01.01.2022
4534 Clouds -49 1034 99 10000 0.88 247 20:52 01.01.2022
4535 Clouds -49 1033 99 10000 0.64 230 19:55 01.01.2022
4536 Clouds -49 1034 99 10000 0.74 226 18:58 01.01.2022
4537 Clouds -47 1033 99 10000 0.58 218 17:56 01.01.2022
4538 Clouds -47 1033 99 10000 0.7 251 16:35 01.01.2022
4539 Clouds -47 1033 99 10000 0.77 233 15:57 01.01.2022
4540 Clouds -47 1033 99 10000 0.79 234 14:57 01.01.2022
4541 Clouds -47 1033 99 10000 0.6 218 13:42 01.01.2022
4542 Clouds -48 1034 99 10000 0.68 214 12:49 01.01.2022
4543 Clouds -47 1034 99 10000 0.8 229 11:47 01.01.2022
4544 Clouds -47 1034 99 10000 0.82 225 11:20 01.01.2022
4545 Clouds -47 1034 99 7733 0.95 224 09:49 01.01.2022
4546 Clouds -46 1034 99 9163 0.93 227 09:21 01.01.2022
4547 Clouds -45 1033 99 5469 0.94 235 08:25 01.01.2022
4548 Clouds -45 1033 99 5469 0.94 235 07:43 01.01.2022
4549 Clouds -42 1033 99 4235 0.86 199 06:46 01.01.2022
4550 Clouds -41 1032 99 2666 0.79 207 05:26 01.01.2022
4551 Clouds -41 1032 99 2666 0.79 207 04:37 01.01.2022
4552 Clouds -40 1033 97 1980 0.85 243 00:53 01.01.2022
4553 Clouds -41 1033 96 1442 1.04 250 23:22 31.12.2021
4554 Clouds -42 1033 96 1310 1.11 250 21:52 31.12.2021
4555 Clouds -42 1033 96 1520 1.05 250 20:33 31.12.2021
4556 Clouds -43 1033 96 2087 1.07 247 19:30 31.12.2021
4557 Clouds -46 1034 99 5805 0.72 250 18:32 31.12.2021
4558 Clouds -46 1034 98 6344 0.61 249 17:38 31.12.2021
4559 Clouds -46 1035 98 9491 0.43 247 17:18 31.12.2021
4560 Clouds -47 1035 98 10000 0.33 240 16:24 31.12.2021
4561 Clouds -47 1035 98 10000 0.33 240 15:56 31.12.2021
4562 Clouds -47 1035 97 10000 0.31 242 15:28 31.12.2021
4563 Clouds -47 1035 97 10000 0.31 242 14:52 31.12.2021
4564 Clouds -47 1035 97 10000 0.37 240 14:29 31.12.2021
4565 Clouds -47 1035 97 10000 0.37 240 13:36 31.12.2021
4566 Clouds -48 1036 98 10000 0.53 230 12:45 31.12.2021
4567 Clouds -48 1036 98 10000 0.52 203 11:47 31.12.2021
4568 Clouds -48 1036 98 10000 0.45 201 11:29 31.12.2021
4569 Clouds -48 1036 98 10000 0.45 201 10:35 31.12.2021
4570 Clouds -48 1036 98 10000 0.47 204 09:54 31.12.2021
4571 Clouds -48 1036 98 10000 0.47 204 09:32 31.12.2021
4572 Clouds -47 1036 97 10000 0.43 218 08:27 31.12.2021
4573 Clouds -47 1036 97 10000 0.43 218 07:30 31.12.2021
4574 Clouds -49 1036 99 10000 0.2 245 23:32 30.12.2021
4575 Clouds -49 1036 99 10000 0.39 198 22:33 30.12.2021
4576 Clouds -49 1036 99 10000 0.32 184 21:56 30.12.2021
4577 Clouds -49 1036 99 10000 0.32 184 21:56 30.12.2021
4578 Clouds -49 1036 99 10000 0.32 184 21:37 30.12.2021
4579 Clouds -49 1036 100 10000 0.34 164 20:47 30.12.2021
4580 Clouds -49 1036 100 10000 0.28 143 20:27 30.12.2021
4581 Clouds -49 1036 100 10000 0.28 143 19:47 30.12.2021
4582 Clouds -49 1036 100 10000 0.44 134 18:45 30.12.2021
4583 Clouds -49 1036 100 10000 0.29 158 18:18 30.12.2021
4584 Clouds -48 1036 100 10000 0.13 177 16:20 30.12.2021
4585 Clouds -48 1036 100 10000 0.13 177 15:52 30.12.2021
4586 Clouds -48 1037 100 10000 0.22 123 14:40 30.12.2021
4587 Clouds -48 1037 100 10000 0.38 113 13:55 30.12.2021
4588 Clouds -48 1037 100 10000 0.46 112 12:44 30.12.2021
4589 Clouds -48 1038 100 10000 0.54 106 10:59 30.12.2021
4590 Clouds -48 1038 100 10000 0.43 101 09:59 30.12.2021
4591 Clouds -48 1038 100 10000 0.39 105 09:21 30.12.2021
4592 Clouds -48 1038 100 10000 0.68 93 06:54 30.12.2021
4593 Clouds -47 1038 100 9673 0.71 91 04:20 30.12.2021
4594 Clouds -47 1038 100 9673 0.71 91 04:20 30.12.2021
4595 Clouds -47 1038 100 9673 0.71 91 03:38 30.12.2021
4596 Clouds -46 1039 100 5028 0.97 94 00:35 30.12.2021
4597 Clouds -46 1039 100 4681 0.92 93 23:31 29.12.2021
4598 Clouds -45 1039 100 3759 1.11 89 22:24 29.12.2021
4599 Clouds -45 1039 100 3759 1.11 89 21:53 29.12.2021
4600 Clouds -44 1039 100 3364 1.04 90 20:40 29.12.2021
4601 Clouds -44 1039 100 2874 0.94 92 19:54 29.12.2021
4602 Clouds -43 1039 100 2328 1.09 102 19:25 29.12.2021
4603 Clouds -44 1039 100 3024 1.17 95 18:26 29.12.2021
4604 Clouds -43 1039 100 2678 1.12 96 17:29 29.12.2021
4605 Clouds -43 1039 100 2678 1.12 96 16:58 29.12.2021
4606 Clouds -42 1039 100 2099 1.03 99 16:19 29.12.2021
4607 Clouds -42 1039 100 1654 1.21 99 14:46 29.12.2021
4608 Clouds -41 1039 100 1705 1 106 12:50 29.12.2021
4609 Clouds -41 1039 100 1754 1.05 110 12:27 29.12.2021
4610 Clouds -41 1039 100 1680 1.07 113 10:38 29.12.2021
4611 Clouds -42 1040 100 1693 0.84 134 08:37 29.12.2021
4612 Clouds -42 1040 100 1952 0.72 132 06:49 29.12.2021
4613 Clouds -42 1040 100 2196 0.57 131 06:28 29.12.2021
4614 Clouds -42 1040 100 2196 0.57 131 05:50 29.12.2021
4615 Clouds -42 1040 100 2113 0.75 121 03:46 29.12.2021
4616 Clouds -40 1039 100 1947 0.93 101 00:28 29.12.2021
4617 Clouds -40 1039 100 1947 0.93 101 23:57 28.12.2021
4618 Clouds -40 1038 100 1726 0.99 106 22:56 28.12.2021
4619 Clouds -39 1038 100 1726 0.84 104 22:24 28.12.2021
4620 Clouds -39 1038 100 1726 0.84 104 21:54 28.12.2021
4621 Clouds -39 1038 100 1469 0.69 112 21:28 28.12.2021
4622 Clouds -39 1038 99 1226 1.03 111 19:53 28.12.2021
4623 Clouds -39 1038 100 1248 1.08 108 18:53 28.12.2021
4624 Clouds -39 1037 100 1474 0.76 98 18:25 28.12.2021
4625 Clouds -39 1037 100 1291 0.95 107 17:29 28.12.2021
4626 Clouds -38 1037 100 1276 1.07 116 15:53 28.12.2021
4627 Clouds -38 1037 100 1127 1.19 118 15:29 28.12.2021
4628 Clouds -38 1037 100 1127 1.19 118 14:55 28.12.2021
4629 Clouds -38 1037 100 1114 1.03 113 14:22 28.12.2021
4630 Clouds -38 1037 100 1114 1.03 113 13:58 28.12.2021
4631 Clouds -38 1037 100 1114 1.03 113 13:37 28.12.2021
4632 Clouds -38 1037 99 1272 0.61 130 12:56 28.12.2021
4633 Clouds -38 1037 100 1130 0.62 125 12:20 28.12.2021
4634 Clouds -38 1037 99 1130 1.02 135 10:19 28.12.2021
4635 Clouds -38 1037 100 1374 0.85 123 07:33 28.12.2021
4636 Clouds -38 1036 100 934 0.88 117 03:35 28.12.2021
4637 Clouds -38 1036 100 901 0.89 112 23:40 27.12.2021
4638 Clouds -38 1036 100 1096 0.69 106 22:21 27.12.2021
4639 Clouds -38 1036 100 1096 0.69 106 21:30 27.12.2021
4640 Clouds -38 1036 100 1153 0.79 106 20:39 27.12.2021
4641 Clouds -38 1036 100 1198 0.67 93 19:48 27.12.2021
4642 Clouds -38 1036 100 1163 0.83 103 19:27 27.12.2021
4643 Clouds -38 1036 100 1167 0.8 109 17:54 27.12.2021
4644 Clouds -38 1036 100 1167 0.8 109 17:54 27.12.2021
4645 Clouds -38 1035 100 1185 0.93 113 17:28 27.12.2021
4646 Clouds -38 1035 100 1216 0.82 111 16:23 27.12.2021
4647 Clouds -38 1035 100 1216 0.82 111 15:44 27.12.2021
4648 Clouds -37 1036 99 1169 0.83 111 14:24 27.12.2021
4649 Clouds -37 1036 99 1169 0.83 111 13:31 27.12.2021
4650 Clouds -38 1036 99 1212 0.47 88 11:20 27.12.2021
4651 Clouds -38 1036 100 1353 0.76 105 10:27 27.12.2021
4652 Clouds -39 1036 100 1609 0.76 105 09:27 27.12.2021
4653 Clouds -38 1036 100 1645 0.81 104 07:34 27.12.2021
4654 Clouds -38 1035 100 1706 0.84 86 06:29 27.12.2021
4655 Clouds -36 1034 100 1887 0.87 76 01:58 27.12.2021
4656 Clouds -35 1034 99 2016 0.85 102 23:50 26.12.2021
4657 Clouds -35 1034 99 2016 0.85 102 23:32 26.12.2021
4658 Clouds -34 1034 97 1051 0.62 109 21:48 26.12.2021
4659 Clouds -35 1034 97 955 0.68 126 20:25 26.12.2021
4660 Clouds -35 1034 97 1112 0.82 127 18:53 26.12.2021
4661 Clouds -36 1034 97 1115 0.73 136 18:22 26.12.2021
4662 Clouds -37 1034 97 1172 1.01 142 15:55 26.12.2021
4663 Clouds -38 1035 98 1459 0.99 152 13:52 26.12.2021
4664 Clouds -38 1035 98 1459 0.99 152 13:32 26.12.2021
4665 Clouds -37 1035 97 1222 0.7 155 12:37 26.12.2021
4666 Clouds -38 1035 97 1311 0.63 163 11:57 26.12.2021
4667 Clouds -39 1036 97 1013 0.61 151 09:44 26.12.2021
4668 Clouds -40 1036 98 1356 0.75 153 09:18 26.12.2021
4669 Clouds -40 1036 98 1356 0.75 153 08:39 26.12.2021
4670 Clouds -42 1037 100 2167 0.73 122 06:47 26.12.2021
4671 Clouds -44 1038 100 3110 0.81 134 00:58 26.12.2021
4672 Clouds -44 1038 100 2841 0.76 124 23:51 25.12.2021
4673 Clouds -43 1038 100 2820 0.84 119 23:26 25.12.2021
4674 Clouds -43 1039 100 2904 0.82 115 22:23 25.12.2021
4675 Clouds -43 1039 100 2816 0.79 117 20:48 25.12.2021
4676 Clouds -43 1039 100 2514 0.79 131 19:23 25.12.2021
4677 Clouds -43 1039 100 2514 0.79 131 18:54 25.12.2021
4678 Clouds -42 1039 100 2470 0.71 118 17:29 25.12.2021
4679 Clouds -42 1039 100 2470 0.71 118 16:35 25.12.2021
4680 Clouds -42 1040 100 2061 0.75 120 14:46 25.12.2021
4681 Clouds -41 1041 100 2056 0.7 117 13:30 25.12.2021
4682 Clouds -41 1041 100 1756 0.76 121 11:46 25.12.2021
4683 Clouds -41 1042 100 1989 0.62 122 09:51 25.12.2021
4684 Clouds -41 1042 100 1869 0.57 125 08:38 25.12.2021
4685 Clouds -42 1043 100 2103 0.61 93 02:59 25.12.2021
4686 Clouds -42 1044 100 2130 0.61 99 01:23 25.12.2021
4687 Clouds -42 1044 100 2079 0.72 107 23:40 24.12.2021
4688 Clouds -43 1045 100 2691 0.6 98 19:45 24.12.2021
4689 Clouds -42 1045 100 2743 0.74 98 19:23 24.12.2021
4690 Clouds -43 1046 100 2953 0.36 113 16:57 24.12.2021
4691 Clouds -43 1046 100 2867 0.29 102 16:22 24.12.2021
4692 Clouds -43 1046 100 2867 0.29 102 15:48 24.12.2021
4693 Clouds -43 1046 100 2975 0.48 117 14:47 24.12.2021
4694 Clouds -43 1046 100 3171 0.51 101 14:26 24.12.2021
4695 Clouds -43 1046 100 3171 0.51 101 13:41 24.12.2021
4696 Clouds -43 1046 100 3308 0.55 107 12:49 24.12.2021
4697 Clouds -43 1047 100 3676 0.65 105 12:21 24.12.2021
4698 Clouds -43 1047 100 3676 0.65 105 11:30 24.12.2021
4699 Clouds -43 1046 100 4414 0.64 108 10:59 24.12.2021
4700 Clouds -43 1046 100 4414 0.64 108 10:31 24.12.2021
4701 Clouds -43 1047 100 3958 0.61 124 08:28 24.12.2021
4702 Clouds -43 1047 100 3958 0.61 124 07:57 24.12.2021
4703 Clouds -44 1047 100 6641 0.34 148 06:18 24.12.2021
4704 Clouds -44 1048 100 7498 0.3 125 00:20 24.12.2021
4705 Clouds -44 1048 100 7498 0.3 125 23:33 23.12.2021
4706 Clouds -44 1048 100 7559 0.36 137 22:44 23.12.2021
4707 Clouds -44 1048 100 7910 0.26 105 22:21 23.12.2021
4708 Clouds -44 1048 100 7910 0.26 105 21:39 23.12.2021
4709 Clouds -44 1048 100 7236 0.35 123 20:22 23.12.2021
4710 Clouds -44 1048 100 6344 0.35 120 19:27 23.12.2021
4711 Clouds -43 1048 100 7592 0.45 117 17:58 23.12.2021
4712 Clouds -43 1048 100 6311 0.51 119 17:18 23.12.2021
4713 Clouds -42 1048 100 5729 0.4 113 16:26 23.12.2021
4714 Clouds -42 1048 100 5729 0.4 113 15:32 23.12.2021
4715 Clouds -42 1048 100 4958 0.51 132 14:58 23.12.2021
4716 Clouds -42 1048 100 4958 0.51 132 14:38 23.12.2021
4717 Clouds -42 1048 100 5227 0.56 139 13:25 23.12.2021
4718 Clouds -42 1048 100 4786 0.57 143 11:27 23.12.2021
4719 Clouds -39 1048 100 4290 0.52 160 09:53 23.12.2021
4720 Clouds -39 1048 100 4290 0.52 160 09:33 23.12.2021
4721 Clouds -38 1047 99 3472 0.58 175 08:28 23.12.2021
4722 Clouds -38 1047 99 2860 0.95 198 05:30 23.12.2021
4723 Clouds -38 1047 99 2908 0.77 220 01:31 23.12.2021
4724 Clouds -37 1046 98 3943 0.74 233 22:51 22.12.2021
4725 Clouds -36 1046 97 5314 0.82 249 21:59 22.12.2021
4726 Clouds -36 1046 97 5314 0.82 249 21:36 22.12.2021
4727 Clouds -36 1046 95 5472 1.06 239 21:18 22.12.2021
4728 Clouds -36 1046 95 5472 1.06 239 20:40 22.12.2021
4729 Clouds -36 1046 93 8059 1.33 221 19:54 22.12.2021
4730 Clouds -36 1046 92 10000 1.38 209 18:55 22.12.2021
4731 Clouds -34 1045 95 4190 1.5 205 17:38 22.12.2021
4732 Clouds -33 1045 92 10000 1.43 208 16:22 22.12.2021
4733 Clouds -33 1045 90 10000 1.54 208 14:33 22.12.2021
4734 Clouds -34 1046 87 10000 1.55 197 12:55 22.12.2021
4735 Clouds -35 1046 87 10000 1.54 195 11:48 22.12.2021
4736 Clouds -35 1046 87 10000 1.52 190 09:52 22.12.2021
4737 Clouds -36 1046 87 10000 1.56 191 08:23 22.12.2021
4738 Clouds -32 1044 86 10000 1.04 175 05:56 22.12.2021
4739 Clouds -32 1044 86 10000 1.04 175 05:37 22.12.2021
4740 Clouds -32 1044 86 10000 1 181 05:19 22.12.2021
4741 Clouds -32 1044 86 10000 1 181 04:40 22.12.2021
4742 Clouds -33 1044 86 10000 0.92 175 03:52 22.12.2021
4743 Clouds -33 1044 86 10000 0.92 175 03:31 22.12.2021
4744 Clouds -35 1043 88 10000 0.77 191 23:48 21.12.2021
4745 Clouds -36 1043 88 10000 0.95 191 22:41 21.12.2021
4746 Clouds -37 1043 90 10000 1 192 21:57 21.12.2021
4747 Clouds -37 1043 90 10000 1 192 21:33 21.12.2021
4748 Clouds -37 1043 91 10000 1.1 205 20:42 21.12.2021
4749 Clouds -38 1043 92 10000 1.32 197 20:18 21.12.2021
4750 Clouds -38 1043 92 10000 1.32 197 19:34 21.12.2021
4751 Clouds -43 1043 95 10000 0.86 221 18:28 21.12.2021
4752 Clouds -43 1043 95 10000 0.86 221 17:58 21.12.2021
4753 Clouds -43 1043 95 10000 0.86 221 17:39 21.12.2021
4754 Clouds -44 1043 96 10000 1.06 237 15:39 21.12.2021
4755 Clouds -46 1043 97 10000 1.06 208 14:24 21.12.2021
4756 Clouds -46 1043 97 10000 1.06 208 13:42 21.12.2021
4757 Clouds -47 1043 97 10000 0.69 230 12:29 21.12.2021
4758 Clouds -47 1042 97 10000 0.95 228 10:39 21.12.2021
4759 Clouds -47 1041 97 10000 0.95 219 09:56 21.12.2021
4760 Clouds -47 1041 97 10000 0.96 210 08:57 21.12.2021
4761 Clouds -47 1040 97 10000 0.9 215 07:45 21.12.2021
4762 Clouds -47 1039 97 10000 0.92 215 07:23 21.12.2021
4763 Clouds -44 1037 96 10000 1.15 208 04:26 21.12.2021
4764 Clouds -42 1036 96 10000 1.15 209 02:30 21.12.2021
4765 Clouds -41 1035 95 10000 1.34 199 23:54 20.12.2021
4766 Clouds -42 1034 96 10000 1.48 198 22:36 20.12.2021
4767 Clouds -42 1033 96 10000 1.37 198 21:59 20.12.2021
4768 Clouds -41 1033 96 10000 1.42 203 21:27 20.12.2021
4769 Clouds -41 1033 96 10000 1.42 203 20:54 20.12.2021
4770 Clouds -41 1032 96 10000 1.58 203 20:24 20.12.2021
4771 Clouds -41 1032 96 10000 1.58 203 19:38 20.12.2021
4772 Clouds -41 1032 96 10000 1.58 203 19:38 20.12.2021
4773 Clouds -41 1032 95 10000 1.54 206 19:19 20.12.2021
4774 Clouds -39 1032 95 10000 1.53 210 18:33 20.12.2021
4775 Clouds -40 1031 95 10000 1.48 207 17:51 20.12.2021
4776 Clouds -41 1031 96 10000 1.28 200 16:47 20.12.2021
4777 Clouds -42 1030 97 9682 1.26 204 16:25 20.12.2021
4778 Clouds -42 1030 97 9682 1.26 204 15:40 20.12.2021
4779 Clouds -43 1030 98 10000 1.13 200 14:26 20.12.2021
4780 Clouds -44 1029 98 10000 1.18 192 12:40 20.12.2021
4781 Clouds -45 1028 99 10000 1.09 194 10:50 20.12.2021
4782 Clouds -45 1027 100 10000 0.82 193 09:40 20.12.2021
4783 Clouds -46 1026 100 10000 0.8 197 08:56 20.12.2021
4784 Clouds -46 1026 100 10000 0.8 197 08:38 20.12.2021
4785 Clouds -46 1025 100 10000 0.56 192 07:38 20.12.2021
4786 Clouds -45 1024 100 10000 0.52 134 06:39 20.12.2021
4787 Clouds -44 1021 100 10000 0.83 112 01:33 20.12.2021
4788 Clouds -41 1018 100 6191 0.91 105 23:28 19.12.2021
4789 Clouds -41 1018 100 6191 0.91 105 22:44 19.12.2021
4790 Clouds -40 1017 100 4938 0.94 102 21:32 19.12.2021
4791 Clouds -38 1017 100 4318 0.96 107 20:44 19.12.2021
4792 Clouds -37 1016 100 3678 0.94 104 20:24 19.12.2021
4793 Clouds -37 1016 100 3678 0.94 104 19:42 19.12.2021
4794 Clouds -37 1015 100 3362 0.84 105 18:50 19.12.2021
4795 Clouds -35 1015 100 2493 0.94 101 17:54 19.12.2021
4796 Clouds -35 1015 100 2493 0.94 101 17:35 19.12.2021
4797 Clouds -34 1014 100 2260 0.71 95 16:45 19.12.2021
4798 Clouds -33 1014 99 1693 0.76 120 15:56 19.12.2021
4799 Clouds -33 1014 98 1321 0.73 117 15:25 19.12.2021
4800 Clouds -33 1014 98 1321 0.73 117 14:48 19.12.2021
4801 Clouds -33 1014 98 1127 0.63 116 13:38 19.12.2021
4802 Clouds -33 1014 97 1162 0.46 142 12:59 19.12.2021
4803 Clouds -33 1014 97 1162 0.46 142 12:32 19.12.2021
4804 Clouds -33 1014 97 1015 0.38 172 11:38 19.12.2021
4805 Clouds -33 1014 97 896 0.38 192 10:51 19.12.2021
4806 Clouds -34 1014 97 849 0.5 196 10:23 19.12.2021
4807 Clouds -34 1014 98 777 0.53 191 08:55 19.12.2021
4808 Clouds -33 1014 98 970 0.22 239 06:54 19.12.2021
4809 Clouds -33 1015 98 643 0.16 256 02:30 19.12.2021
4810 Clouds -33 1015 97 830 0.23 323 00:55 19.12.2021
4811 Clouds -33 1015 98 713 0.24 1 23:21 18.12.2021
4812 Clouds -33 1015 98 713 0.24 1 22:30 18.12.2021
4813 Clouds -33 1016 97 675 0.36 355 21:51 18.12.2021
4814 Clouds -33 1016 97 675 0.36 355 21:30 18.12.2021
4815 Clouds -34 1016 97 747 0.32 333 20:43 18.12.2021
4816 Clouds -34 1016 97 1091 0.23 310 19:50 18.12.2021
4817 Clouds -34 1016 97 1341 0.3 293 19:18 18.12.2021
4818 Clouds -33 1016 98 1656 0.43 256 18:18 18.12.2021
4819 Clouds -33 1016 98 1656 0.43 256 17:46 18.12.2021
4820 Clouds -33 1017 98 1544 0.53 252 16:22 18.12.2021
4821 Clouds -33 1017 98 1649 0.53 229 15:25 18.12.2021
4822 Clouds -33 1017 98 1649 0.54 241 14:19 18.12.2021
4823 Clouds -34 1017 98 1472 0.33 236 12:21 18.12.2021
4824 Clouds -34 1018 97 1241 0.26 259 10:43 18.12.2021
4825 Clouds -34 1018 97 981 0.4 252 09:33 18.12.2021
4826 Clouds -34 1018 97 806 0.44 254 08:37 18.12.2021
4827 Clouds -34 1018 97 806 0.46 238 08:18 18.12.2021
4828 Clouds -35 1019 96 827 0.66 248 01:48 18.12.2021
4829 Clouds -36 1019 96 717 0.52 245 00:27 18.12.2021
4830 Clouds -36 1019 96 717 0.52 245 23:37 17.12.2021
4831 Clouds -37 1019 96 1191 0.33 250 21:55 17.12.2021
4832 Clouds -38 1019 96 1631 0.46 263 20:50 17.12.2021
4833 Clouds -39 1020 97 2511 0.44 222 20:28 17.12.2021
4834 Clouds -40 1020 98 4921 0.37 187 18:54 17.12.2021
4835 Clouds -39 1020 98 3022 0.48 230 18:21 17.12.2021
4836 Clouds -39 1020 98 3032 0.51 237 17:25 17.12.2021
4837 Clouds -39 1020 98 4297 0.69 225 16:29 17.12.2021
4838 Clouds -39 1020 98 4297 0.69 225 15:51 17.12.2021
4839 Clouds -39 1020 96 4363 0.76 216 15:18 17.12.2021
4840 Clouds -39 1020 96 4363 0.76 216 14:34 17.12.2021
4841 Clouds -42 1020 99 5834 0.71 236 12:45 17.12.2021
4842 Clouds -43 1020 99 7453 0.49 223 11:22 17.12.2021
4843 Clouds -44 1020 99 7853 0.61 221 09:55 17.12.2021
4844 Clouds -43 1020 99 9480 0.52 206 08:58 17.12.2021
4845 Clouds -43 1020 99 10000 0.41 219 08:19 17.12.2021
4846 Clouds -42 1018 99 6428 0.71 206 05:25 17.12.2021
4847 Clouds -42 1018 100 5778 0.6 220 02:52 17.12.2021
4848 Clouds -42 1018 100 8397 0.6 215 22:52 16.12.2021
4849 Clouds -42 1018 100 5821 0.67 225 22:23 16.12.2021
4850 Clouds -42 1018 100 5821 0.67 225 22:23 16.12.2021
4851 Clouds -42 1018 100 5821 0.67 225 21:45 16.12.2021
4852 Clouds -41 1018 100 6366 0.74 215 21:20 16.12.2021
4853 Clouds -41 1018 99 6662 0.85 235 20:27 16.12.2021
4854 Clouds -41 1018 99 6662 0.85 235 19:36 16.12.2021
4855 Clouds -41 1018 100 5178 0.45 219 18:38 16.12.2021
4856 Clouds -41 1018 100 6418 0.58 243 17:49 16.12.2021
4857 Clouds -41 1018 99 6429 0.44 250 17:19 16.12.2021
4858 Clouds -41 1018 99 10000 0.64 250 16:20 16.12.2021
4859 Clouds -40 1018 99 10000 0.55 249 14:50 16.12.2021
4860 Clouds -37 1018 96 10000 0.76 260 12:57 16.12.2021
4861 Clouds -42 1020 99 10000 0.83 229 11:20 16.12.2021
4862 Clouds -42 1020 99 10000 0.83 229 10:48 16.12.2021
4863 Clouds -43 1020 100 10000 0.68 234 09:59 16.12.2021
4864 Clouds -42 1020 100 10000 0.66 216 07:31 16.12.2021
4865 Clouds -41 1019 100 10000 0.49 209 06:19 16.12.2021
4866 Clouds -40 1019 99 10000 0.61 164 00:54 16.12.2021
4867 Clouds -39 1019 99 10000 0.64 129 23:22 15.12.2021
4868 Clouds -38 1019 100 10000 0.86 116 22:29 15.12.2021
4869 Clouds -38 1019 100 10000 0.86 116 21:52 15.12.2021
4870 Clouds -37 1018 99 10000 0.89 130 21:26 15.12.2021
4871 Clouds -37 1018 99 10000 0.85 128 19:55 15.12.2021
4872 Clouds -37 1018 99 10000 0.85 128 19:36 15.12.2021
4873 Clouds -34 1018 99 10000 1.05 109 18:37 15.12.2021
4874 Clouds -34 1018 99 5464 0.7 120 17:51 15.12.2021
4875 Clouds -34 1018 99 5464 0.7 120 17:32 15.12.2021
4876 Clouds -33 1017 99 3938 1.03 106 16:27 15.12.2021
4877 Clouds -33 1017 99 3938 1.03 106 15:46 15.12.2021
4878 Clouds -32 1017 98 2173 0.78 104 15:27 15.12.2021
4879 Clouds -34 1018 99 3444 0.88 100 14:18 15.12.2021
4880 Clouds -33 1018 99 2752 0.97 89 12:32 15.12.2021
4881 Clouds -32 1018 93 2595 0.79 84 10:25 15.12.2021
4882 Clouds -33 1018 93 10000 0.82 88 08:54 15.12.2021
4883 Clouds -33 1018 97 10000 0.91 89 06:54 15.12.2021
4884 Clouds -33 1018 94 3775 0.54 111 01:20 15.12.2021
4885 Clouds -33 1018 95 3153 0.42 92 23:42 14.12.2021
4886 Clouds -33 1019 94 2430 0.15 98 22:48 14.12.2021
4887 Clouds -34 1019 94 2876 0.08 172 22:19 14.12.2021
4888 Clouds -34 1019 93 6534 0.21 216 20:28 14.12.2021
4889 Clouds -34 1019 93 6534 0.21 216 19:40 14.12.2021
4890 Clouds -35 1019 93 6044 0.62 274 18:53 14.12.2021
4891 Clouds -35 1020 94 5574 0.63 278 18:22 14.12.2021
4892 Clouds -35 1020 94 5574 0.63 278 17:30 14.12.2021
4893 Clouds -36 1020 94 5637 0.82 272 16:39 14.12.2021
4894 Clouds -36 1021 95 5300 0.69 255 15:35 14.12.2021
4895 Clouds -37 1022 95 5396 0.67 261 13:31 14.12.2021
4896 Clouds -39 1023 95 5208 0.64 259 11:59 14.12.2021
4897 Clouds -40 1024 96 5472 0.99 263 11:24 14.12.2021
4898 Clouds -42 1024 99 4720 0.82 245 10:23 14.12.2021
4899 Clouds -42 1024 99 4720 0.82 245 09:43 14.12.2021
4900 Clouds -43 1025 99 4779 0.68 245 08:27 14.12.2021
4901 Clouds -43 1025 99 4779 0.68 245 07:43 14.12.2021
4902 Clouds -42 1025 100 4021 0.7 202 05:35 14.12.2021
4903 Clouds -40 1026 99 2417 1.04 214 22:56 13.12.2021
4904 Clouds -40 1026 99 2239 1.13 205 21:53 13.12.2021
4905 Clouds -40 1026 99 2239 1.13 205 21:33 13.12.2021
4906 Clouds -40 1026 99 2396 1.16 204 20:43 13.12.2021
4907 Clouds -40 1026 99 2835 1.01 220 19:53 13.12.2021
4908 Clouds -40 1026 99 2977 1 229 18:33 13.12.2021
4909 Clouds -39 1026 99 3179 0.94 232 17:26 13.12.2021
4910 Clouds -39 1027 99 3485 0.91 255 15:56 13.12.2021
4911 Clouds -39 1027 99 3485 0.91 255 15:38 13.12.2021
4912 Clouds -40 1028 99 3546 0.96 244 13:47 13.12.2021
4913 Clouds -40 1028 99 4005 1.01 244 12:59 13.12.2021
4914 Clouds -43 1029 100 4287 1.02 245 12:19 13.12.2021
4915 Clouds -43 1029 100 4287 1.02 245 11:35 13.12.2021
4916 Clouds -44 1029 100 4422 1.12 234 10:47 13.12.2021
4917 Clouds -44 1029 100 4671 1.27 230 10:21 13.12.2021
4918 Clouds -44 1030 100 6329 1.18 242 07:57 13.12.2021
4919 Clouds -43 1030 100 5297 1.16 233 05:37 13.12.2021
4920 Clouds -43 1031 100 7077 1.14 239 03:31 13.12.2021
4921 Clouds -41 1031 100 5706 0.96 237 23:27 12.12.2021
4922 Clouds -40 1031 100 4683 1.03 225 21:50 12.12.2021
4923 Clouds -39 1031 100 4767 0.87 218 20:28 12.12.2021
4924 Clouds -39 1031 100 4767 0.87 218 19:30 12.12.2021
4925 Clouds -38 1031 100 3909 0.21 187 17:46 12.12.2021
4926 Clouds -36 1031 100 3490 0.26 135 16:28 12.12.2021
4927 Clouds -36 1031 100 3490 0.26 135 15:51 12.12.2021
4928 Clouds -35 1031 100 2990 0.35 94 15:26 12.12.2021
4929 Clouds -35 1031 100 2990 0.35 94 14:37 12.12.2021
4930 Clouds -34 1031 100 2263 0.32 87 13:34 12.12.2021
4931 Clouds -33 1031 100 2156 0.42 108 12:37 12.12.2021
4932 Clouds -33 1031 99 2034 0.42 81 11:44 12.12.2021
4933 Clouds -32 1031 98 1747 0.3 45 11:25 12.12.2021
4934 Clouds -32 1031 98 1747 0.3 45 10:39 12.12.2021
4935 Clouds -33 1032 99 1749 0.38 10 09:44 12.12.2021
4936 Clouds -34 1032 99 1913 0.27 339 08:38 12.12.2021
4937 Clouds -34 1033 100 1859 0.65 240 06:34 12.12.2021
4938 Clouds -35 1033 100 3067 0.61 245 05:27 12.12.2021
4939 Clouds -33 1032 99 2375 0.68 263 03:58 12.12.2021
4940 Clouds -35 1033 100 6764 0.61 220 00:42 12.12.2021
4941 Clouds -34 1033 99 10000 0.8 232 22:42 11.12.2021
4942 Clouds -34 1033 99 9424 0.64 236 22:19 11.12.2021
4943 Clouds -33 1033 99 7037 0.55 206 21:22 11.12.2021
4944 Clouds -33 1033 99 4727 0.5 207 19:40 11.12.2021
4945 Clouds -32 1033 98 3100 0.4 215 19:20 11.12.2021
4946 Clouds -32 1033 100 2479 0.29 253 18:38 11.12.2021
4947 Clouds -32 1033 100 2216 0.35 273 17:41 11.12.2021
4948 Clouds -32 1033 99 2534 0.09 163 15:57 11.12.2021
4949 Clouds -32 1033 99 2534 0.09 163 15:37 11.12.2021
4950 Clouds -31 1033 99 2254 0.25 42 14:21 11.12.2021
4951 Clouds -32 1033 95 8616 0.42 298 12:20 11.12.2021
4952 Clouds -31 1033 94 10000 0.45 292 10:43 11.12.2021
4953 Clouds -31 1033 93 10000 0.5 307 09:38 11.12.2021
4954 Clouds -38 1033 98 10000 0.77 253 03:26 11.12.2021
4955 Clouds -39 1032 98 10000 0.69 260 00:45 11.12.2021
4956 Clouds -38 1032 97 10000 0.58 258 23:42 10.12.2021
4957 Clouds -38 1031 97 10000 0.73 267 22:33 10.12.2021
4958 Clouds -38 1031 97 10000 0.69 259 21:40 10.12.2021
4959 Clouds -38 1030 98 10000 0.7 250 20:22 10.12.2021
4960 Clouds -37 1030 97 10000 0.65 252 19:18 10.12.2021
4961 Clouds -38 1029 98 10000 0.51 249 17:31 10.12.2021
4962 Clouds -37 1029 97 10000 0.29 251 16:35 10.12.2021
4963 Clouds -36 1028 96 10000 0.24 215 15:43 10.12.2021
4964 Clouds -38 1028 98 10000 0.41 251 15:25 10.12.2021
4965 Clouds -41 1028 99 10000 0.59 286 14:29 10.12.2021
4966 Clouds -41 1028 99 10000 0.59 286 13:48 10.12.2021
4967 Clouds -42 1028 99 10000 0.73 265 12:55 10.12.2021
4968 Clouds -42 1028 99 10000 0.73 265 12:55 10.12.2021
4969 Clouds -43 1028 100 10000 0.81 244 11:41 10.12.2021
4970 Clouds -43 1028 100 10000 0.81 250 10:56 10.12.2021
4971 Clouds -43 1027 100 10000 0.82 258 09:36 10.12.2021
4972 Clouds -42 1025 100 10000 0.62 248 07:25 10.12.2021
4973 Clouds -42 1025 100 10000 0.84 240 04:57 10.12.2021
4974 Clouds -42 1025 100 10000 0.97 246 02:39 10.12.2021
4975 Clouds -41 1024 99 10000 0.8 250 23:40 09.12.2021
4976 Clouds -41 1024 99 10000 0.8 250 23:40 09.12.2021
4977 Clouds -40 1023 99 10000 0.7 249 22:41 09.12.2021
4978 Clouds -40 1023 99 10000 0.7 249 22:41 09.12.2021
4979 Clouds -40 1023 99 10000 0.66 240 22:21 09.12.2021
4980 Clouds -40 1023 99 10000 0.66 240 21:40 09.12.2021
4981 Clouds -40 1023 99 10000 0.57 253 20:35 09.12.2021
4982 Clouds -41 1023 100 10000 0.73 251 19:43 09.12.2021
4983 Clouds -41 1023 100 10000 0.78 244 19:20 09.12.2021
4984 Clouds -42 1023 100 10000 0.9 242 18:19 09.12.2021
4985 Clouds -42 1023 100 10000 0.9 242 17:48 09.12.2021
4986 Clouds -42 1023 100 10000 0.89 241 17:24 09.12.2021
4987 Clouds -42 1023 100 10000 0.89 241 16:36 09.12.2021
4988 Clouds -42 1022 100 8453 0.94 248 15:18 09.12.2021
4989 Clouds -42 1022 100 8453 0.94 248 14:36 09.12.2021
4990 Clouds -42 1022 100 10000 1.13 248 12:48 09.12.2021
4991 Clouds -42 1022 100 9863 0.99 250 11:51 09.12.2021
4992 Clouds -40 1020 100 6756 1 266 10:28 09.12.2021
4993 Clouds -38 1019 99 7529 0.71 262 07:34 09.12.2021
4994 Clouds -40 1019 96 10000 0.48 272 03:58 09.12.2021
4995 Clouds -41 1018 94 10000 0.43 275 00:26 09.12.2021
4996 Clouds -41 1018 94 10000 0.43 275 23:37 08.12.2021
4997 Clouds -40 1018 94 10000 0.46 304 22:57 08.12.2021
4998 Clouds -40 1018 94 10000 0.46 304 22:36 08.12.2021
4999 Clouds -39 1017 93 10000 0.52 312 21:38 08.12.2021
5000 Clouds -38 1017 92 10000 0.49 297 20:50 08.12.2021
5001 Clouds -37 1017 92 10000 0.41 287 19:57 08.12.2021
5002 Clouds -36 1017 90 10000 0.16 250 19:29 08.12.2021
5003 Clouds -36 1017 91 10000 0.45 157 18:22 08.12.2021
5004 Clouds -36 1017 90 10000 0.49 140 16:55 08.12.2021
5005 Clouds -37 1017 91 10000 0.37 157 15:45 08.12.2021
5006 Clouds -37 1017 92 10000 0.23 140 15:23 08.12.2021
5007 Clouds -37 1018 92 10000 0.36 131 13:27 08.12.2021
5008 Clouds -39 1018 94 10000 0.64 164 10:45 08.12.2021
5009 Clouds -40 1018 96 10000 0.59 207 10:23 08.12.2021
5010 Clouds -42 1019 97 10000 0.7 229 08:54 08.12.2021
5011 Clouds -43 1019 97 10000 0.86 200 06:36 08.12.2021
5012 Clouds -38 1018 94 10000 0.8 146 01:21 08.12.2021
5013 Clouds -37 1018 93 10000 1.08 130 23:29 07.12.2021
5014 Clouds -37 1018 92 10000 1.23 147 21:26 07.12.2021
5015 Clouds -38 1018 93 10000 1.32 158 20:26 07.12.2021
5016 Clouds -38 1018 93 10000 1.32 158 20:26 07.12.2021
5017 Clouds -39 1019 96 10000 1.33 161 19:23 07.12.2021
5018 Clouds -39 1019 96 10000 1.33 161 18:32 07.12.2021
5019 Clouds -41 1019 97 10000 1.1 190 17:27 07.12.2021
5020 Clouds -41 1019 97 10000 1.1 190 16:57 07.12.2021
5021 Clouds -42 1019 98 10000 1 199 16:27 07.12.2021
5022 Clouds -43 1020 98 10000 1.05 201 14:47 07.12.2021
5023 Clouds -43 1020 99 10000 1.1 213 13:45 07.12.2021
5024 Clouds -44 1020 99 10000 1.01 217 12:27 07.12.2021
5025 Clouds -44 1019 98 10000 1.16 221 11:23 07.12.2021
5026 Clouds -44 1019 97 10000 1.26 212 09:43 07.12.2021
5027 Clouds -44 1018 95 10000 1.44 206 07:52 07.12.2021
5028 Clouds -44 1018 94 10000 1.55 206 05:54 07.12.2021
5029 Clouds -43 1017 93 10000 1.49 213 05:26 07.12.2021
5030 Clouds -41 1015 93 10000 1.71 203 23:41 06.12.2021
5031 Clouds -40 1014 93 10000 1.67 205 22:44 06.12.2021
5032 Clouds -39 1013 93 10000 1.65 206 22:18 06.12.2021
5033 Clouds -39 1013 93 10000 1.65 206 21:37 06.12.2021
5034 Clouds -39 1013 94 10000 1.84 205 20:33 06.12.2021
5035 Clouds -36 1011 95 10000 2.3 195 19:25 06.12.2021
5036 Clouds -36 1011 95 10000 2.3 195 18:57 06.12.2021
5037 Clouds -34 1010 97 7200 2.32 191 17:55 06.12.2021
5038 Clouds -34 1010 97 7200 2.32 191 17:34 06.12.2021
5039 Clouds -34 1010 97 7200 2.32 191 17:34 06.12.2021
5040 Clouds -31 1009 99 2144 1.49 199 16:21 06.12.2021
5041 Clouds -31 1008 99 2178 1.14 191 14:51 06.12.2021
5042 Clouds -30 1008 99 1887 0.84 203 13:36 06.12.2021
5043 Clouds -30 1007 99 1933 0.74 223 12:39 06.12.2021
5044 Clouds -29 1006 99 837 0.73 225 10:31 06.12.2021
5045 Clouds -29 1005 99 660 0.61 237 07:59 06.12.2021
5046 Clouds -30 1003 99 3347 0.47 267 03:52 06.12.2021
5047 Clouds -29 1002 99 686 0.45 311 22:30 05.12.2021
5048 Clouds -29 1001 98 882 0.54 1 21:26 05.12.2021
5049 Clouds -29 1001 98 882 0.54 1 20:59 05.12.2021
5050 Clouds -29 1001 98 1124 0.51 355 20:18 05.12.2021
5051 Clouds -29 1001 98 1124 0.51 355 19:33 05.12.2021
5052 Clouds -29 1000 97 3340 0.33 304 18:39 05.12.2021
5053 Clouds -30 1000 98 10000 0.39 325 18:19 05.12.2021
5054 Clouds -30 1000 98 10000 0.39 325 17:45 05.12.2021
5055 Clouds -31 1000 99 10000 0.61 302 16:45 05.12.2021
5056 Clouds -31 999 99 10000 0.73 306 16:24 05.12.2021
5057 Clouds -31 999 100 9960 0.76 317 14:49 05.12.2021
5058 Clouds -31 999 100 9960 0.76 317 14:30 05.12.2021
5059 Clouds -30 999 99 4399 0.69 324 13:43 05.12.2021
5060 Clouds -29 998 99 2005 0.6 339 12:55 05.12.2021
5061 Clouds -29 998 98 1504 0.63 345 12:29 05.12.2021
5062 Clouds -29 998 98 1504 0.63 345 11:56 05.12.2021
5063 Clouds -29 998 98 898 0.45 0 10:52 05.12.2021
5064 Clouds -29 998 98 655 0.44 28 09:58 05.12.2021
5065 Clouds -29 997 98 400 0.61 56 07:33 05.12.2021
5066 Clouds -31 998 97 775 0.67 70 02:28 05.12.2021
5067 Clouds -32 999 97 671 0.85 82 23:31 04.12.2021
5068 Clouds -33 1000 96 868 0.77 82 21:54 04.12.2021
5069 Clouds -34 1000 96 882 0.86 86 20:55 04.12.2021
5070 Clouds -34 1001 94 1164 0.68 67 19:55 04.12.2021
5071 Clouds -34 1001 94 1164 0.68 67 19:31 04.12.2021
5072 Clouds -34 1002 90 10000 0.84 75 17:59 04.12.2021
5073 Clouds -34 1002 90 10000 0.84 75 17:38 04.12.2021
5074 Clouds -35 1003 90 10000 0.77 86 16:48 04.12.2021
5075 Clouds -35 1003 90 10000 0.77 86 16:30 04.12.2021
5076 Clouds -37 1005 92 10000 0.57 90 15:22 04.12.2021
5077 Clouds -39 1009 95 10000 0.59 107 11:50 04.12.2021
5078 Clouds -39 1009 95 10000 0.59 107 11:32 04.12.2021
5079 Clouds -41 1010 96 10000 0.59 152 10:44 04.12.2021
5080 Clouds -46 1013 99 10000 0.88 257 08:47 04.12.2021
5081 Clouds -46 1014 100 10000 0.54 226 06:28 04.12.2021
5082 Clouds -46 1015 100 10000 0.95 252 04:42 04.12.2021
5083 Clouds -45 1017 100 10000 0.5 230 00:24 04.12.2021
5084 Clouds -45 1017 100 10000 0.3 217 23:26 03.12.2021
5085 Clouds -45 1017 100 10000 0.3 217 23:26 03.12.2021
5086 Clouds -45 1017 100 10000 0.3 217 22:46 03.12.2021
5087 Clouds -44 1018 100 10000 0.47 236 21:26 03.12.2021
5088 Clouds -44 1018 100 10000 0.47 236 20:54 03.12.2021
5089 Clouds -44 1018 100 10000 0.41 215 19:53 03.12.2021
5090 Clouds -42 1018 100 10000 0.53 239 18:34 03.12.2021
5091 Clouds -41 1017 100 10000 0.36 226 17:59 03.12.2021
5092 Clouds -40 1017 100 10000 0.27 216 16:33 03.12.2021
5093 Clouds -36 1017 97 8825 0.57 212 12:59 03.12.2021
5094 Clouds -36 1017 95 6416 0.86 197 12:19 03.12.2021
5095 Clouds -37 1017 96 5099 0.59 197 10:55 03.12.2021
5096 Clouds -38 1017 96 1934 1.06 226 08:29 03.12.2021
5097 Clouds -38 1017 96 1934 1.06 226 07:43 03.12.2021
5098 Clouds -38 1017 96 1934 1.06 226 07:43 03.12.2021
5099 Clouds -40 1016 99 2352 0.75 208 04:44 03.12.2021
5100 Clouds -40 1016 99 1580 1.03 249 00:48 03.12.2021
5101 Clouds -41 1016 99 1476 0.8 207 23:47 02.12.2021
5102 Clouds -41 1015 99 1811 0.79 236 22:38 02.12.2021
5103 Clouds -41 1015 99 1626 1.15 253 21:41 02.12.2021
5104 Clouds -41 1015 99 1480 1.03 247 20:44 02.12.2021
5105 Clouds -42 1016 99 1688 1.04 207 20:22 02.12.2021
5106 Clouds -41 1016 99 1851 1.22 253 18:36 02.12.2021
5107 Clouds -42 1017 100 1834 1.03 243 16:35 02.12.2021
5108 Clouds -43 1017 100 2175 1.03 243 15:41 02.12.2021
5109 Clouds -43 1017 100 2175 1.03 243 15:41 02.12.2021
5110 Clouds -43 1018 100 2799 1.06 243 14:52 02.12.2021
5111 Clouds -44 1018 100 3208 1.03 242 13:36 02.12.2021
5112 Clouds -44 1019 100 3637 1.18 253 12:24 02.12.2021
5113 Clouds -44 1020 100 4182 1.06 236 10:42 02.12.2021
5114 Clouds -44 1021 100 4842 1.17 255 09:26 02.12.2021
5115 Clouds -44 1021 100 5861 1.05 247 07:19 02.12.2021
5116 Clouds -42 1024 100 8914 0.88 251 01:26 02.12.2021
5117 Clouds -42 1024 100 6617 0.88 254 00:26 02.12.2021
5118 Clouds -42 1024 100 8401 0.78 250 22:31 01.12.2021
5119 Clouds -41 1024 100 10000 0.77 253 21:44 01.12.2021
5120 Clouds -40 1024 100 6962 0.57 244 20:24 01.12.2021
5121 Clouds -40 1024 100 6962 0.57 244 19:43 01.12.2021
5122 Clouds -40 1024 100 5955 0.54 252 18:47 01.12.2021
5123 Clouds -38 1024 100 3929 0.59 258 17:24 01.12.2021
5124 Clouds -38 1024 100 3929 0.59 258 16:34 01.12.2021
5125 Clouds -37 1024 100 3923 0.47 258 14:35 01.12.2021
5126 Clouds -37 1024 100 3580 0.33 249 13:37 01.12.2021
5127 Clouds -35 1023 100 2740 0.38 288 10:45 01.12.2021
5128 Clouds -34 1023 100 3180 0.4 271 10:27 01.12.2021
5129 Clouds -33 1023 100 2770 0.37 225 08:52 01.12.2021
5130 Clouds -33 1022 99 2356 0.25 177 08:26 01.12.2021
5131 Clouds -33 1022 99 2356 0.25 177 07:31 01.12.2021
5132 Clouds -33 1021 100 2454 0.05 330 03:59 01.12.2021
5133 Clouds -33 1021 100 2230 0.04 167 03:28 01.12.2021
5134 Clouds -32 1021 98 1892 0.15 219 00:45 01.12.2021
5135 Clouds -34 1022 99 2432 0.35 255 23:33 30.11.2021
5136 Clouds -33 1021 99 2820 0.23 219 22:39 30.11.2021
5137 Clouds -34 1021 99 2691 0.4 208 20:48 30.11.2021
5138 Clouds -35 1021 99 3658 0.24 207 20:27 30.11.2021
5139 Clouds -35 1021 99 3658 0.24 207 19:47 30.11.2021
5140 Clouds -35 1021 100 4118 0.42 240 19:24 30.11.2021
5141 Clouds -34 1021 100 3761 0.59 246 17:57 30.11.2021
5142 Clouds -33 1021 99 3587 0.73 244 16:25 30.11.2021
5143 Clouds -33 1021 99 3301 0.85 236 14:35 30.11.2021
5144 Clouds -32 1021 98 2626 0.91 228 13:48 30.11.2021
5145 Clouds -32 1022 98 2133 0.99 232 13:23 30.11.2021
5146 Clouds -33 1022 98 2467 1.03 229 12:44 30.11.2021
5147 Clouds -35 1023 99 3403 1.09 239 11:26 30.11.2021
5148 Clouds -35 1023 99 3403 1.09 239 10:37 30.11.2021
5149 Clouds -35 1023 100 3738 1.14 236 09:44 30.11.2021
5150 Clouds -35 1023 99 4342 1.09 231 08:48 30.11.2021
5151 Clouds -35 1023 99 4091 1.19 228 08:19 30.11.2021
5152 Clouds -35 1023 99 4091 1.19 228 07:34 30.11.2021
5153 Clouds -36 1023 100 2616 1.17 227 01:52 30.11.2021
5154 Clouds -36 1023 100 2616 1.17 227 01:31 30.11.2021
5155 Clouds -35 1022 100 2636 1.16 240 23:55 29.11.2021
5156 Clouds -35 1022 100 2736 1.07 241 23:20 29.11.2021
5157 Clouds -35 1022 100 2736 1.07 241 22:44 29.11.2021
5158 Clouds -34 1022 100 2341 1.18 243 22:25 29.11.2021
5159 Clouds -34 1022 100 1942 1.09 239 21:21 29.11.2021
5160 Clouds -34 1022 100 1942 1.09 239 20:56 29.11.2021
5161 Clouds -34 1022 100 1783 1.02 239 20:22 29.11.2021
5162 Clouds -34 1022 100 1783 1.02 239 19:44 29.11.2021
5163 Clouds -34 1022 100 1783 1.02 239 19:44 29.11.2021
5164 Clouds -34 1022 100 1909 1.03 243 19:26 29.11.2021
5165 Clouds -34 1022 100 1909 1.03 243 18:47 29.11.2021
5166 Clouds -34 1022 100 1999 1.13 242 17:22 29.11.2021
5167 Clouds -34 1022 100 1999 1.13 242 16:56 29.11.2021
5168 Clouds -34 1022 100 2146 1.08 244 16:25 29.11.2021
5169 Clouds -33 1022 100 2233 1.11 250 15:24 29.11.2021
5170 Clouds -33 1022 100 2233 1.11 250 14:41 29.11.2021
5171 Clouds -33 1022 100 1801 0.91 238 13:28 29.11.2021
5172 Clouds -34 1023 100 2116 0.85 230 12:22 29.11.2021
5173 Clouds -34 1023 100 2116 0.85 230 11:31 29.11.2021
5174 Clouds -34 1023 100 2761 0.93 246 10:27 29.11.2021
5175 Clouds -34 1023 100 2884 0.91 239 08:45 29.11.2021
5176 Clouds -33 1022 100 3213 0.77 232 05:58 29.11.2021
5177 Clouds -32 1022 100 3160 0.78 247 01:35 29.11.2021
5178 Clouds -31 1021 100 3548 0.75 247 00:36 29.11.2021
5179 Clouds -30 1021 100 3230 0.64 244 23:42 28.11.2021
5180 Clouds -29 1021 100 2972 0.65 245 22:30 28.11.2021
5181 Clouds -29 1021 100 3183 0.57 243 21:41 28.11.2021
5182 Clouds -29 1021 100 3518 0.54 238 20:58 28.11.2021
5183 Clouds -28 1021 100 3904 0.42 233 19:55 28.11.2021
5184 Clouds -27 1020 100 4468 0.54 218 18:45 28.11.2021
5185 Clouds -26 1020 100 4321 0.6 221 18:26 28.11.2021
5186 Clouds -26 1020 100 4321 0.6 221 17:49 28.11.2021
5187 Clouds -26 1020 100 4321 0.6 221 17:30 28.11.2021
5188 Clouds -25 1020 100 4053 0.62 214 16:28 28.11.2021
5189 Clouds -25 1020 100 4053 0.62 214 15:52 28.11.2021
5190 Clouds -25 1019 100 5403 0.58 207 14:56 28.11.2021
5191 Clouds -25 1019 100 5403 0.58 207 14:35 28.11.2021
5192 Clouds -25 1020 100 10000 0.57 210 12:58 28.11.2021
5193 Clouds -25 1019 100 10000 0.81 232 11:57 28.11.2021
5194 Clouds -24 1019 100 10000 0.84 239 10:53 28.11.2021
5195 Clouds -24 1019 100 8735 0.84 243 10:20 28.11.2021
5196 Clouds -24 1019 100 8735 0.84 243 09:36 28.11.2021
5197 Clouds -22 1018 100 1104 0.82 255 06:29 28.11.2021
5198 Clouds -21 1015 99 353 0.9 242 23:33 27.11.2021
5199 Snow -21 1013 99 282 0.96 255 20:33 27.11.2021
5200 Clouds -21 1012 99 330 0.8 250 18:57 27.11.2021
5201 Snow -21 1012 99 240 1.04 256 16:52 27.11.2021
5202 Snow -21 1012 99 214 0.99 245 15:55 27.11.2021
5203 Clouds -22 1011 99 412 0.82 251 13:47 27.11.2021
5204 Snow -22 1011 99 178 0.43 304 12:29 27.11.2021
5205 Snow -22 1011 99 144 0.62 300 10:42 27.11.2021
5206 Snow -22 1012 99 164 0.34 314 09:51 27.11.2021
5207 Snow -23 1012 98 255 0.85 48 08:40 27.11.2021
5208 Clouds -25 1015 87 10000 0.29 13 04:58 27.11.2021
5209 Clouds -29 1017 96 10000 0.4 279 01:53 27.11.2021
5210 Clouds -33 1018 99 10000 0.51 278 23:35 26.11.2021
5211 Clouds -33 1019 99 10000 0.76 286 22:25 26.11.2021
5212 Clouds -33 1019 99 10000 0.76 286 21:36 26.11.2021
5213 Clouds -33 1018 98 10000 0.71 305 20:53 26.11.2021
5214 Clouds -32 1018 97 10000 0.51 345 20:19 26.11.2021
5215 Clouds -32 1018 97 10000 0.51 345 19:47 26.11.2021
5216 Clouds -32 1019 90 10000 0.78 316 18:33 26.11.2021
5217 Clouds -28 1018 85 10000 0.34 27 17:23 26.11.2021
5218 Clouds -27 1018 80 10000 0.7 88 15:57 26.11.2021
5219 Clouds -29 1020 84 10000 0.44 94 13:36 26.11.2021
5220 Clouds -30 1020 86 10000 0.53 99 12:40 26.11.2021
5221 Clouds -32 1022 92 10000 0.65 162 10:38 26.11.2021
5222 Clouds -38 1024 98 10000 0.41 246 08:59 26.11.2021
5223 Clouds -38 1024 99 10000 0.3 260 08:21 26.11.2021
5224 Clouds -38 1024 99 10000 0.3 260 07:33 26.11.2021
5225 Clouds -39 1025 99 10000 0.32 218 06:28 26.11.2021
5226 Clouds -39 1025 99 10000 0.4 240 04:51 26.11.2021
5227 Clouds -39 1027 99 10000 0.61 239 03:25 26.11.2021
5228 Clouds -39 1028 100 10000 0.67 221 23:27 25.11.2021
5229 Clouds -39 1028 100 10000 0.72 238 21:50 25.11.2021
5230 Clouds -39 1028 100 10000 0.8 231 20:37 25.11.2021
5231 Clouds -38 1028 100 10000 0.62 237 18:49 25.11.2021
5232 Clouds -38 1029 99 10000 0.64 231 17:58 25.11.2021
5233 Clouds -37 1029 99 10000 0.62 227 17:26 25.11.2021
5234 Clouds -37 1029 99 10000 0.62 227 16:38 25.11.2021
5235 Clouds -37 1030 99 10000 0.68 217 15:58 25.11.2021
5236 Clouds -35 1030 98 10000 0.42 214 14:19 25.11.2021
5237 Clouds -35 1031 98 10000 0.48 179 12:48 25.11.2021
5238 Clouds -35 1031 97 10000 0.52 155 11:55 25.11.2021
5239 Clouds -34 1032 97 10000 0.54 143 10:25 25.11.2021
5240 Clouds -36 1034 98 10000 0.42 90 06:25 25.11.2021
5241 Clouds -37 1035 98 10000 0.24 118 02:54 25.11.2021
5242 Clouds -40 1037 99 10000 0.19 175 23:39 24.11.2021
5243 Clouds -41 1038 100 10000 0.31 177 22:28 24.11.2021
5244 Clouds -41 1038 100 10000 0.31 177 21:48 24.11.2021
5245 Clouds -41 1039 100 10000 0.32 234 21:19 24.11.2021
5246 Clouds -41 1039 100 10000 0.63 229 20:26 24.11.2021
5247 Clouds -41 1039 100 10000 0.7 188 19:20 24.11.2021
5248 Clouds -40 1040 100 10000 0.03 175 18:18 24.11.2021
5249 Clouds -40 1040 100 10000 0.44 225 16:20 24.11.2021
5250 Clouds -40 1040 99 10000 0.42 207 14:57 24.11.2021
5251 Clouds -40 1040 100 10000 0.67 203 14:21 24.11.2021
5252 Clouds -40 1040 100 10000 0.89 209 13:34 24.11.2021
5253 Clouds -40 1040 100 10000 0.93 234 11:26 24.11.2021
5254 Clouds -40 1040 100 10000 0.93 234 10:55 24.11.2021
5255 Clouds -40 1040 100 10000 0.93 234 10:35 24.11.2021
5256 Clouds -40 1039 100 10000 0.84 244 09:29 24.11.2021
5257 Clouds -40 1039 100 10000 0.91 245 07:41 24.11.2021
5258 Clouds -40 1038 100 10000 0.85 252 05:38 24.11.2021
5259 Clouds -39 1038 99 10000 0.91 255 03:32 24.11.2021
5260 Clouds -39 1038 100 10000 0.87 261 23:33 23.11.2021
5261 Clouds -39 1038 100 10000 0.8 234 22:39 23.11.2021
5262 Clouds -39 1037 100 10000 0.63 245 21:45 23.11.2021
5263 Clouds -38 1038 99 10000 0.62 243 20:23 23.11.2021
5264 Clouds -38 1038 99 10000 0.62 243 19:34 23.11.2021
5265 Clouds -37 1038 99 10000 0.58 225 18:34 23.11.2021
5266 Clouds -34 1037 98 10000 0.68 216 17:41 23.11.2021
5267 Clouds -34 1037 98 10000 0.68 216 17:41 23.11.2021
5268 Clouds -35 1038 98 10000 0.58 239 16:37 23.11.2021
5269 Clouds -36 1039 99 10000 0.86 220 15:27 23.11.2021
5270 Clouds -36 1039 99 10000 0.86 220 14:56 23.11.2021
5271 Clouds -37 1040 100 10000 0.79 216 13:29 23.11.2021
5272 Clouds -36 1041 100 10000 0.88 239 10:28 23.11.2021
5273 Clouds -36 1041 100 10000 0.88 239 09:48 23.11.2021
5274 Clouds -36 1041 100 10000 0.99 221 08:41 23.11.2021
5275 Clouds -34 1041 100 8769 0.83 213 05:25 23.11.2021
5276 Clouds -34 1041 100 8112 1.2 200 03:37 23.11.2021
5277 Clouds -33 1040 100 6215 1.2 192 23:42 22.11.2021
5278 Clouds -33 1040 100 6383 1.02 151 23:20 22.11.2021
5279 Clouds -33 1040 100 6383 1.02 151 22:31 22.11.2021
5280 Clouds -32 1039 100 6727 1.06 141 21:45 22.11.2021
5281 Clouds -31 1039 100 5269 1.04 138 21:21 22.11.2021
5282 Clouds -31 1039 100 5269 1.04 138 20:43 22.11.2021
5283 Clouds -29 1039 100 4225 1.14 140 19:24 22.11.2021
5284 Clouds -29 1039 100 4455 1.12 143 18:41 22.11.2021
5285 Clouds -29 1039 100 4225 1.14 140 18:41 22.11.2021
5286 Clouds -28 1038 100 4556 1.09 130 18:22 22.11.2021
5287 Clouds -27 1038 100 3426 1.16 125 16:50 22.11.2021
5288 Clouds -26 1038 99 2521 1.09 124 15:39 22.11.2021
5289 Clouds -24 1038 99 843 0.82 115 12:52 22.11.2021
5290 Clouds -24 1038 99 672 0.87 107 11:39 22.11.2021
5291 Clouds -24 1038 98 553 0.79 111 10:36 22.11.2021
5292 Clouds -25 1038 98 776 0.76 110 08:46 22.11.2021
5293 Clouds -25 1038 98 1313 0.92 102 08:24 22.11.2021
5294 Clouds -28 1039 100 2240 0.55 143 02:31 22.11.2021
5295 Clouds -26 1039 100 2516 0.74 117 23:22 21.11.2021
5296 Clouds -26 1039 100 2516 0.74 117 22:46 21.11.2021
5297 Clouds -25 1039 99 2796 0.74 104 21:40 21.11.2021
5298 Clouds -26 1040 97 2575 0.59 58 20:41 21.11.2021
5299 Clouds -27 1040 97 2331 0.21 43 19:45 21.11.2021
5300 Clouds -28 1041 99 2231 0.14 111 17:59 21.11.2021
5301 Clouds -28 1041 99 2231 0.14 111 17:37 21.11.2021
5302 Clouds -28 1041 99 2231 0.14 111 17:37 21.11.2021
5303 Clouds -28 1041 99 2115 0.05 204 15:25 21.11.2021
5304 Clouds -28 1041 99 2115 0.05 204 14:44 21.11.2021
5305 Clouds -28 1041 98 1673 0.3 261 13:40 21.11.2021
5306 Clouds -28 1042 98 1845 0.55 268 12:32 21.11.2021
5307 Clouds -30 1042 99 2400 0.56 272 11:42 21.11.2021
5308 Clouds -30 1042 99 3492 0.61 289 10:55 21.11.2021
5309 Clouds -30 1042 99 4128 0.69 291 10:18 21.11.2021
5310 Clouds -29 1042 99 3799 0.76 264 08:40 21.11.2021
5311 Clouds -29 1042 98 2206 0.69 259 08:20 21.11.2021
5312 Clouds -29 1042 98 2206 0.69 259 07:41 21.11.2021
5313 Clouds -30 1042 99 2040 0.91 274 05:49 21.11.2021
5314 Clouds -30 1042 99 3681 0.94 264 05:19 21.11.2021
5315 Clouds -30 1041 99 2272 1.22 245 03:18 21.11.2021
5316 Clouds -30 1041 99 2272 1.22 245 02:50 21.11.2021
5317 Clouds -30 1041 99 2921 1.25 242 00:56 21.11.2021
5318 Clouds -29 1041 98 2091 1.39 244 23:43 20.11.2021
5319 Clouds -29 1040 99 1371 1.12 241 21:41 20.11.2021
5320 Clouds -29 1040 100 2272 1 251 21:23 20.11.2021
5321 Clouds -28 1039 99 2705 1.05 262 18:46 20.11.2021
5322 Clouds -27 1039 98 1789 1.2 246 18:26 20.11.2021
5323 Clouds -28 1039 98 1533 1.33 244 17:26 20.11.2021
5324 Clouds -28 1039 98 1533 1.33 244 16:46 20.11.2021
5325 Clouds -29 1039 99 1618 1.43 244 14:47 20.11.2021
5326 Clouds -29 1039 99 1590 1.46 242 14:24 20.11.2021
5327 Clouds -30 1039 99 3105 1.24 244 12:22 20.11.2021
5328 Clouds -30 1039 99 3016 1.13 244 10:52 20.11.2021
5329 Clouds -30 1039 99 3233 1.21 248 09:39 20.11.2021
5330 Clouds -29 1038 99 3097 1.4 242 07:37 20.11.2021
5331 Clouds -25 1036 97 3217 0.97 236 05:28 20.11.2021
5332 Clouds -25 1036 97 3217 0.97 236 04:50 20.11.2021
5333 Clouds -28 1036 98 3527 1.2 245 01:58 20.11.2021
5334 Clouds -29 1036 99 7275 1.34 241 00:40 20.11.2021
5335 Clouds -28 1035 99 7246 1.31 233 23:41 19.11.2021
5336 Clouds -28 1035 99 10000 1.17 224 22:21 19.11.2021
5337 Clouds -26 1034 99 9505 1.15 226 20:59 19.11.2021
5338 Clouds -26 1034 99 9505 1.15 226 20:37 19.11.2021
5339 Clouds -26 1034 98 4177 0.96 229 19:56 19.11.2021
5340 Clouds -26 1033 99 3502 0.71 233 18:55 19.11.2021
5341 Clouds -29 1033 99 10000 0.69 212 18:24 19.11.2021
5342 Clouds -29 1033 99 10000 0.69 212 17:36 19.11.2021
5343 Clouds -28 1032 99 10000 0.58 219 15:58 19.11.2021
5344 Clouds -28 1031 99 9142 0.85 208 13:56 19.11.2021
5345 Clouds -27 1030 100 10000 0.94 164 10:30 19.11.2021
5346 Clouds -26 1030 100 10000 0.78 159 09:38 19.11.2021
5347 Clouds -23 1028 100 10000 0.76 145 08:26 19.11.2021
5348 Clouds -20 1026 98 484 0.54 101 04:54 19.11.2021
5349 Clouds -20 1026 98 442 0.48 106 02:40 19.11.2021
5350 Clouds -21 1025 98 396 0.36 107 23:52 18.11.2021
5351 Clouds -21 1025 98 401 0.38 112 22:35 18.11.2021
5352 Clouds -21 1025 98 556 0.49 106 20:56 18.11.2021
5353 Clouds -21 1025 98 556 0.49 106 20:32 18.11.2021
5354 Clouds -22 1024 98 643 0.35 122 19:58 18.11.2021
5355 Clouds -22 1024 98 643 0.35 122 19:35 18.11.2021
5356 Clouds -21 1024 98 681 0.47 131 18:34 18.11.2021
5357 Clouds -21 1024 98 833 0.55 129 17:51 18.11.2021
5358 Clouds -22 1024 99 2550 0.6 132 16:45 18.11.2021
5359 Clouds -22 1023 99 1629 0.69 127 15:52 18.11.2021
5360 Clouds -21 1023 99 494 0.59 110 14:19 18.11.2021
5361 Snow -21 1024 98 329 0.43 59 12:53 18.11.2021
5362 Snow -21 1024 98 238 0.37 64 11:44 18.11.2021
5363 Snow -21 1024 99 180 0.48 99 11:25 18.11.2021
5364 Clouds -22 1024 98 275 0.55 91 10:21 18.11.2021
5365 Clouds -22 1024 97 769 0.4 353 07:42 18.11.2021
5366 Clouds -22 1024 98 1891 0.4 77 06:39 18.11.2021
5367 Clouds -22 1024 97 2503 0.37 78 05:43 18.11.2021
5368 Clouds -24 1024 98 6881 0.36 248 01:25 18.11.2021
5369 Clouds -24 1025 98 7914 0.37 244 23:30 17.11.2021
5370 Clouds -24 1025 98 10000 0.47 264 22:39 17.11.2021
5371 Clouds -23 1025 97 8716 0.39 261 22:18 17.11.2021
5372 Clouds -23 1025 97 8716 0.39 261 21:35 17.11.2021
5373 Clouds -24 1024 97 8282 0.49 247 19:31 17.11.2021
5374 Clouds -24 1025 96 10000 0.56 253 17:35 17.11.2021
5375 Clouds -25 1025 98 10000 0.72 257 15:55 17.11.2021
5376 Clouds -28 1026 99 10000 0.78 256 13:18 17.11.2021
5377 Clouds -28 1026 99 10000 0.78 256 12:36 17.11.2021
5378 Clouds -29 1026 100 9858 0.79 254 10:54 17.11.2021
5379 Clouds -30 1025 100 8107 0.68 243 09:38 17.11.2021
5380 Clouds -29 1024 100 8779 0.48 240 07:46 17.11.2021
5381 Clouds -29 1024 100 10000 0.53 256 07:23 17.11.2021
5382 Clouds -26 1023 100 6613 0.29 149 02:48 17.11.2021
5383 Clouds -25 1022 100 6230 0.28 151 00:34 17.11.2021
5384 Clouds -21 1021 99 2804 0.65 143 22:30 16.11.2021
5385 Clouds -21 1020 99 488 0.84 208 20:19 16.11.2021
5386 Clouds -21 1020 99 488 0.84 208 19:39 16.11.2021
5387 Clouds -20 1020 99 529 0.78 213 18:49 16.11.2021
5388 Clouds -20 1019 99 440 0.68 221 18:28 16.11.2021
5389 Clouds -20 1019 99 399 0.68 231 17:18 16.11.2021
5390 Clouds -20 1018 99 380 0.77 235 16:20 16.11.2021
5391 Clouds -20 1018 99 380 0.77 235 15:44 16.11.2021
5392 Clouds -21 1018 99 464 0.83 237 13:47 16.11.2021
5393 Clouds -21 1018 99 461 0.94 246 10:27 16.11.2021
5394 Clouds -21 1018 99 461 0.94 246 09:42 16.11.2021
5395 Clouds -22 1017 98 454 0.95 248 08:23 16.11.2021
5396 Clouds -22 1017 98 921 0.95 246 07:29 16.11.2021
5397 Clouds -26 1018 94 10000 1.23 254 23:54 15.11.2021
5398 Clouds -27 1018 95 10000 1.22 249 22:43 15.11.2021
5399 Clouds -28 1017 96 10000 1.2 246 22:20 15.11.2021
5400 Clouds -28 1017 96 10000 1.2 246 21:46 15.11.2021
5401 Clouds -27 1017 96 10000 1.18 254 21:21 15.11.2021
5402 Clouds -27 1017 96 10000 1.15 245 19:39 15.11.2021
5403 Clouds -26 1017 95 10000 1.12 256 17:50 15.11.2021
5404 Clouds -27 1017 94 10000 0.98 258 16:19 15.11.2021
5405 Clouds -27 1017 94 10000 0.98 258 15:39 15.11.2021
5406 Clouds -28 1017 96 10000 0.99 260 15:19 15.11.2021
5407 Clouds -28 1018 97 10000 0.86 262 12:43 15.11.2021
5408 Clouds -29 1018 97 10000 0.78 262 10:54 15.11.2021
5409 Clouds -31 1018 99 10000 0.77 242 09:26 15.11.2021
5410 Clouds -31 1018 99 10000 0.68 253 07:45 15.11.2021
5411 Clouds -25 1017 94 10000 0.45 262 04:46 15.11.2021
5412 Clouds -27 1017 96 10000 0.74 248 23:37 14.11.2021
5413 Clouds -28 1017 96 10000 0.82 257 22:34 14.11.2021
5414 Clouds -32 1018 99 10000 0.82 240 19:53 14.11.2021
5415 Clouds -29 1017 98 10000 0.8 249 19:18 14.11.2021
5416 Clouds -29 1017 98 10000 0.8 249 18:54 14.11.2021
5417 Clouds -29 1017 98 10000 0.8 249 18:36 14.11.2021
5418 Clouds -31 1017 100 10000 0.95 248 18:18 14.11.2021
5419 Clouds -31 1017 100 10000 0.95 248 17:55 14.11.2021
5420 Clouds -31 1017 100 10000 0.95 248 17:37 14.11.2021
5421 Clouds -32 1018 100 10000 0.9 238 17:19 14.11.2021
5422 Clouds -32 1018 100 10000 0.9 238 16:45 14.11.2021
5423 Clouds -32 1018 100 10000 0.85 238 16:19 14.11.2021
5424 Clouds -32 1017 100 10000 0.86 234 15:22 14.11.2021
5425 Clouds -32 1017 100 10000 0.86 234 14:45 14.11.2021
5426 Clouds -32 1017 100 10000 0.88 230 14:26 14.11.2021
5427 Clouds -32 1017 100 10000 0.88 230 13:53 14.11.2021
5428 Clouds -32 1017 100 10000 0.88 230 13:35 14.11.2021
5429 Clouds -31 1017 100 10000 0.88 237 12:27 14.11.2021
5430 Clouds -31 1017 100 10000 0.88 237 11:41 14.11.2021
5431 Clouds -31 1017 100 10000 0.87 229 10:41 14.11.2021
5432 Clouds -31 1017 100 10000 0.94 219 09:47 14.11.2021
5433 Clouds -30 1017 100 10000 0.89 221 08:53 14.11.2021
5434 Clouds -30 1016 100 10000 0.91 243 06:54 14.11.2021
5435 Clouds -27 1015 100 10000 0.93 204 23:47 13.11.2021
5436 Clouds -25 1014 100 10000 0.81 192 22:25 13.11.2021
5437 Clouds -25 1014 100 10000 0.81 192 21:50 13.11.2021
5438 Clouds -26 1014 100 10000 0.84 184 21:22 13.11.2021
5439 Clouds -25 1014 100 10000 0.81 169 19:38 13.11.2021
5440 Clouds -26 1014 100 9324 0.64 193 18:33 13.11.2021
5441 Clouds -25 1014 100 10000 0.59 171 17:55 13.11.2021
5442 Clouds -23 1014 100 10000 0.57 150 16:37 13.11.2021
5443 Clouds -21 1013 99 5281 0.6 132 15:29 13.11.2021
5444 Clouds -21 1013 99 4570 0.49 121 14:20 13.11.2021
5445 Clouds -21 1013 99 4570 0.49 121 13:32 13.11.2021
5446 Clouds -21 1014 99 3534 0.42 116 12:24 13.11.2021
5447 Clouds -21 1014 99 3534 0.42 116 11:34 13.11.2021
5448 Clouds -20 1014 99 2047 0.34 107 10:45 13.11.2021
5449 Clouds -21 1014 99 1177 0.42 110 10:20 13.11.2021
5450 Clouds -21 1014 99 1177 0.42 110 09:37 13.11.2021
5451 Clouds -21 1014 100 903 0.38 101 08:56 13.11.2021
5452 Clouds -21 1014 100 903 0.38 101 08:30 13.11.2021
5453 Clouds -20 1013 97 1189 0.32 92 04:48 13.11.2021
5454 Clouds -20 1013 97 1239 0.34 104 04:30 13.11.2021
5455 Clouds -21 1013 98 986 0.29 82 01:36 13.11.2021
5456 Clouds -22 1013 99 1354 0.17 9 22:58 12.11.2021
5457 Clouds -22 1013 99 1136 0.27 308 21:46 12.11.2021
5458 Clouds -23 1012 99 969 0.54 307 19:55 12.11.2021
5459 Clouds -23 1012 100 830 0.61 311 19:28 12.11.2021
5460 Clouds -24 1013 100 879 0.29 299 18:46 12.11.2021
5461 Clouds -24 1013 100 664 0.78 301 16:39 12.11.2021
5462 Clouds -23 1013 100 706 0.84 306 15:33 12.11.2021
5463 Clouds -22 1013 100 774 1.15 303 12:54 12.11.2021
5464 Clouds -22 1013 100 774 1.15 303 12:54 12.11.2021
5465 Clouds -21 1013 99 1283 1.01 299 10:51 12.11.2021
5466 Clouds -20 1013 99 1522 1.02 296 09:45 12.11.2021
5467 Clouds -20 1013 99 1230 1 289 08:39 12.11.2021
5468 Clouds -23 1013 99 2585 0.93 290 03:27 12.11.2021
5469 Clouds -25 1013 100 4677 0.83 278 23:42 11.11.2021
5470 Clouds -24 1013 100 5156 0.84 255 22:39 11.11.2021
5471 Clouds -23 1013 100 5422 0.76 264 21:29 11.11.2021
5472 Clouds -23 1013 100 5422 0.76 264 20:48 11.11.2021
5473 Clouds -25 1014 100 3426 0.82 287 19:24 11.11.2021
5474 Clouds -25 1015 100 3120 0.59 276 18:22 11.11.2021
5475 Clouds -25 1015 100 3120 0.59 276 17:37 11.11.2021
5476 Clouds -24 1015 100 2937 0.7 291 15:19 11.11.2021
5477 Clouds -24 1015 100 2937 0.7 291 14:30 11.11.2021
5478 Clouds -25 1015 100 2254 0.44 282 13:40 11.11.2021
5479 Clouds -26 1017 100 2491 0.28 268 12:52 11.11.2021
5480 Clouds -26 1017 100 3345 0.54 266 11:30 11.11.2021
5481 Clouds -25 1017 100 4198 0.79 246 09:54 11.11.2021
5482 Clouds -25 1017 100 9848 0.74 240 08:21 11.11.2021
5483 Clouds -24 1017 99 10000 1.23 244 06:19 11.11.2021
5484 Clouds -23 1016 97 10000 1.03 295 00:37 11.11.2021
5485 Clouds -20 1014 93 10000 1.25 213 22:38 10.11.2021
5486 Clouds -19 1013 92 10000 2.14 189 21:33 10.11.2021
5487 Clouds -17 1013 92 10000 2.29 187 20:53 10.11.2021
5488 Clouds -16 1013 91 10000 2.2 192 19:50 10.11.2021
5489 Clouds -16 1013 91 10000 2.2 192 19:32 10.11.2021
5490 Clouds -18 1012 98 10000 1.34 208 16:50 10.11.2021
5491 Clouds -17 1012 98 10000 1.43 199 15:46 10.11.2021
5492 Clouds -15 1011 98 10000 1.05 173 14:23 10.11.2021
5493 Clouds -14 1011 98 8857 0.74 158 13:27 10.11.2021
5494 Clouds -14 1011 98 5603 0.39 154 11:39 10.11.2021
5495 Snow -13 1010 97 734 0.22 34 09:18 10.11.2021
5496 Snow -13 1010 97 734 0.22 34 08:40 10.11.2021
5497 Snow -12 1009 97 157 0.36 119 06:44 10.11.2021
5498 Snow -11 1009 96 164 0.71 147 05:57 10.11.2021
5499 Snow -15 1010 96 209 0.71 109 01:56 10.11.2021
5500 Clouds -19 1009 96 10000 0.56 74 21:59 09.11.2021
5501 Clouds -20 1010 95 10000 0.62 86 20:39 09.11.2021
5502 Clouds -24 1010 96 10000 0.28 119 19:29 09.11.2021
5503 Clouds -24 1010 96 10000 0.28 119 18:48 09.11.2021
5504 Clouds -23 1010 95 10000 0.65 113 16:53 09.11.2021
5505 Clouds -22 1010 94 10000 0.96 122 15:20 09.11.2021
5506 Clouds -22 1010 94 10000 1.16 123 13:31 09.11.2021
5507 Clouds -22 1009 94 10000 1.1 115 12:47 09.11.2021
5508 Clouds -21 1009 93 10000 1.31 118 10:58 09.11.2021
5509 Clouds -22 1009 93 10000 1.43 123 09:59 09.11.2021
5510 Clouds -22 1009 93 10000 1.5 124 08:54 09.11.2021
5511 Clouds -21 1009 93 10000 1.7 129 07:28 09.11.2021
5512 Clouds -22 1010 94 10000 1.4 119 02:37 09.11.2021
5513 Clouds -24 1010 95 10000 1.34 121 01:51 09.11.2021
5514 Clouds -25 1010 95 10000 1.43 116 00:39 09.11.2021
5515 Clouds -24 1010 94 10000 1.53 116 23:30 08.11.2021
5516 Clouds -24 1010 94 10000 1.64 121 22:45 08.11.2021
5517 Clouds -24 1010 94 10000 1.67 126 21:45 08.11.2021
5518 Clouds -25 1011 95 10000 1.56 119 20:34 08.11.2021
5519 Clouds -25 1010 93 10000 1.79 121 19:27 08.11.2021
5520 Clouds -24 1010 91 10000 1.8 122 17:44 08.11.2021
5521 Clouds -23 1009 90 10000 2 121 15:56 08.11.2021
5522 Clouds -23 1010 91 10000 1.97 120 14:56 08.11.2021
5523 Clouds -23 1010 90 10000 1.96 119 14:25 08.11.2021
5524 Clouds -23 1009 89 10000 1.94 120 13:18 08.11.2021
5525 Clouds -23 1009 88 10000 1.89 119 11:55 08.11.2021
5526 Clouds -24 1009 89 10000 1.75 118 10:50 08.11.2021
5527 Clouds -25 1009 90 10000 1.66 118 08:58 08.11.2021
5528 Clouds -25 1009 90 10000 1.49 115 08:19 08.11.2021
5529 Clouds -27 1010 91 10000 1.46 115 06:56 08.11.2021
5530 Clouds -26 1010 89 10000 1.17 122 03:35 08.11.2021
5531 Clouds -31 1012 93 10000 1.01 120 01:24 08.11.2021
5532 Clouds -31 1013 93 10000 0.98 123 22:58 07.11.2021
5533 Clouds -31 1013 92 10000 0.96 130 21:26 07.11.2021
5534 Clouds -31 1013 92 10000 1.05 127 20:28 07.11.2021
5535 Clouds -30 1014 91 10000 1.1 132 18:47 07.11.2021
5536 Clouds -30 1014 90 10000 1.18 135 17:43 07.11.2021
5537 Clouds -30 1014 90 10000 1.18 132 16:42 07.11.2021
5538 Clouds -29 1014 89 10000 1.17 131 15:41 07.11.2021
5539 Clouds -28 1015 88 10000 1.31 151 14:27 07.11.2021
5540 Clouds -28 1015 88 10000 1.44 155 12:50 07.11.2021
5541 Clouds -28 1015 88 10000 1.63 164 11:41 07.11.2021
5542 Clouds -25 1015 87 10000 2.53 179 09:21 07.11.2021
5543 Clouds -24 1014 88 10000 2.32 203 03:40 07.11.2021
5544 Clouds -26 1014 89 10000 2.43 206 02:25 07.11.2021
5545 Clouds -24 1012 89 10000 2.09 206 22:56 06.11.2021
5546 Clouds -23 1011 88 10000 2.27 201 21:59 06.11.2021
5547 Clouds -21 1010 88 10000 2.37 196 21:22 06.11.2021
5548 Clouds -21 1010 87 10000 2.51 193 20:30 06.11.2021
5549 Clouds -17 1008 90 10000 2.17 175 17:50 06.11.2021
5550 Clouds -16 1007 93 3718 2.13 179 16:35 06.11.2021
5551 Clouds -16 1006 96 624 1.86 190 14:31 06.11.2021
5552 Clouds -15 1005 97 463 1.8 193 13:37 06.11.2021
5553 Clouds -14 1003 86 7848 4.45 191 11:24 06.11.2021
5554 Snow -14 1001 91 578 7.13 200 09:20 06.11.2021
5555 Clouds -13 998 66 10000 8.43 209 04:55 06.11.2021
5556 Clouds -18 998 90 10000 3.58 202 00:58 06.11.2021
5557 Clouds -18 997 91 10000 3.75 201 23:33 05.11.2021
5558 Clouds -17 997 91 10000 3.93 192 22:33 05.11.2021
5559 Clouds -17 996 91 10000 3.64 181 20:42 05.11.2021
5560 Clouds -17 998 91 10000 3.78 179 20:19 05.11.2021
5561 Clouds -18 998 93 10000 3.23 188 18:59 05.11.2021
5562 Clouds -18 998 93 10000 3.23 188 18:38 05.11.2021
5563 Clouds -18 999 93 10000 3.04 188 17:25 05.11.2021
5564 Clouds -18 1000 94 10000 2.92 182 14:54 05.11.2021
5565 Clouds -18 1001 95 10000 2.75 185 13:33 05.11.2021
5566 Clouds -19 1005 96 10000 2.35 193 10:00 05.11.2021
5567 Clouds -20 1005 96 10000 2.34 182 08:39 05.11.2021
5568 Clouds -19 1007 96 10000 2.14 185 07:21 05.11.2021
5569 Clouds -18 1008 96 10000 1.6 204 04:43 05.11.2021
5570 Clouds -21 1010 97 10000 1.05 197 02:24 05.11.2021
5571 Clouds -25 1012 99 10000 0.75 223 00:30 05.11.2021
5572 Clouds -26 1013 99 10000 0.76 202 22:59 04.11.2021
5573 Clouds -26 1013 99 10000 0.67 182 22:18 04.11.2021
5574 Clouds -26 1013 99 10000 0.67 182 21:30 04.11.2021
5575 Clouds -25 1013 99 10000 0.4 198 20:40 04.11.2021
5576 Clouds -25 1013 99 10000 0.82 218 20:19 04.11.2021
5577 Clouds -25 1013 99 10000 0.82 218 19:40 04.11.2021
5578 Clouds -24 1014 99 10000 0.86 226 18:43 04.11.2021
5579 Clouds -23 1014 99 10000 1.19 201 17:36 04.11.2021
5580 Clouds -22 1014 100 9227 1.16 215 16:29 04.11.2021
5581 Clouds -23 1014 100 8350 0.84 203 14:20 04.11.2021
5582 Clouds -21 1014 100 9813 0.45 103 11:43 04.11.2021
5583 Clouds -19 1015 95 4204 0.74 89 09:29 04.11.2021
5584 Clouds -21 1016 94 10000 0.92 88 08:29 04.11.2021
5585 Clouds -21 1016 94 10000 0.92 88 07:34 04.11.2021
5586 Clouds -28 1017 100 10000 1.17 226 23:52 03.11.2021
5587 Clouds -28 1017 100 10000 1.13 224 22:49 03.11.2021
5588 Clouds -28 1017 100 10000 1.2 231 21:47 03.11.2021
5589 Clouds -28 1016 100 10000 1.16 237 21:19 03.11.2021
5590 Clouds -27 1017 100 10000 1.27 233 20:33 03.11.2021
5591 Clouds -27 1016 100 10000 1.16 238 19:40 03.11.2021
5592 Clouds -27 1016 100 10000 1.2 237 18:51 03.11.2021
5593 Clouds -26 1015 100 10000 1.3 231 18:18 03.11.2021
5594 Clouds -26 1015 100 8987 1.31 227 17:20 03.11.2021
5595 Clouds -26 1014 100 8313 1.29 227 15:57 03.11.2021
5596 Clouds -26 1014 100 8313 1.29 227 15:38 03.11.2021
5597 Clouds -25 1013 100 5834 1.04 233 13:49 03.11.2021
5598 Clouds -24 1013 100 6969 0.67 214 11:39 03.11.2021
5599 Clouds -24 1012 100 8544 0.33 177 10:53 03.11.2021
5600 Clouds -23 1012 100 10000 0.33 184 10:18 03.11.2021
5601 Clouds -22 1011 100 9682 0.75 190 09:29 03.11.2021
5602 Clouds -21 1010 100 10000 1.07 188 08:22 03.11.2021
5603 Clouds -21 1010 100 10000 1.07 188 07:38 03.11.2021
5604 Clouds -16 1008 96 4039 1.22 215 04:24 03.11.2021
5605 Clouds -18 1008 99 2160 0.88 214 01:45 03.11.2021
5606 Clouds -19 1008 100 2684 0.32 187 23:33 02.11.2021
5607 Clouds -17 1007 98 3197 0.22 68 22:29 02.11.2021
5608 Clouds -17 1007 97 1517 0.45 41 20:54 02.11.2021
5609 Clouds -17 1007 97 1517 0.45 41 20:30 02.11.2021
5610 Snow -16 1007 97 453 0.43 57 19:47 02.11.2021
5611 Clouds -18 1008 99 456 0.38 58 18:43 02.11.2021
5612 Clouds -17 1008 98 430 0.33 69 17:58 02.11.2021
5613 Clouds -17 1008 98 430 0.33 69 17:32 02.11.2021
5614 Snow -18 1008 97 224 0.44 96 16:29 02.11.2021
5615 Snow -18 1009 98 139 0.84 69 15:26 02.11.2021
5616 Snow -19 1009 98 138 0.84 60 14:18 02.11.2021
5617 Clouds -20 1011 95 10000 0.8 46 13:27 02.11.2021
5618 Clouds -20 1011 95 10000 0.8 46 12:33 02.11.2021
5619 Clouds -21 1012 96 10000 0.93 57 11:32 02.11.2021
5620 Clouds -23 1012 97 10000 1.06 54 10:51 02.11.2021
5621 Clouds -23 1013 97 10000 1.13 49 10:25 02.11.2021
5622 Clouds -24 1014 96 10000 0.97 49 08:43 02.11.2021
5623 Clouds -23 1015 95 10000 0.66 70 06:43 02.11.2021
5624 Clouds -20 1015 91 10000 0.74 152 03:34 02.11.2021
5625 Clouds -20 1015 91 10000 0.74 152 03:34 02.11.2021
5626 Clouds -24 1016 93 10000 1.26 185 01:24 02.11.2021
5627 Clouds -24 1016 94 10000 1.66 192 22:44 01.11.2021
5628 Clouds -22 1016 93 10000 2.08 200 20:52 01.11.2021
5629 Clouds -22 1016 93 10000 2.08 200 20:33 01.11.2021
5630 Clouds -21 1016 92 10000 2.24 199 19:48 01.11.2021
5631 Clouds -22 1016 93 10000 2.06 198 18:58 01.11.2021
5632 Clouds -21 1016 92 10000 2.25 190 18:20 01.11.2021
5633 Clouds -21 1016 91 10000 2.21 190 17:19 01.11.2021
5634 Clouds -21 1016 91 10000 2.21 190 16:43 01.11.2021
5635 Clouds -21 1016 91 10000 2.12 193 15:46 01.11.2021
5636 Clouds -21 1016 90 10000 2.53 193 15:20 01.11.2021
5637 Clouds -21 1016 90 10000 2.53 193 15:20 01.11.2021
5638 Clouds -21 1016 90 10000 2.53 193 14:41 01.11.2021
5639 Clouds -20 1016 89 10000 3.03 192 14:20 01.11.2021
5640 Clouds -20 1017 88 10000 2.97 189 13:19 01.11.2021
5641 Clouds -19 1016 86 10000 3.04 196 12:24 01.11.2021
5642 Clouds -17 1015 83 10000 3.83 202 10:23 01.11.2021
5643 Clouds -17 1015 83 10000 4.05 203 08:53 01.11.2021
5644 Clouds -15 1014 79 10000 4.22 211 07:48 01.11.2021
5645 Clouds -15 1014 89 10000 2.72 167 05:56 01.11.2021
5646 Clouds -13 1013 82 10000 2.89 164 03:42 01.11.2021
5647 Clouds -20 1014 91 10000 1.54 131 00:23 01.11.2021
5648 Clouds -20 1014 91 10000 1.43 110 21:37 31.10.2021
5649 Clouds -18 1015 88 10000 1.43 110 20:26 31.10.2021
5650 Clouds -18 1016 88 10000 1.33 118 18:54 31.10.2021
5651 Clouds -18 1016 88 10000 1.33 118 18:32 31.10.2021
5652 Clouds -20 1017 92 10000 1.37 121 16:49 31.10.2021
5653 Clouds -21 1018 95 10000 1.33 121 15:29 31.10.2021
5654 Clouds -23 1020 97 10000 1.09 128 13:27 31.10.2021
5655 Clouds -24 1021 97 10000 1.02 126 12:37 31.10.2021
5656 Clouds -24 1022 98 10000 1.02 118 10:57 31.10.2021
5657 Clouds -24 1022 98 10000 1.02 118 10:36 31.10.2021
5658 Clouds -24 1024 99 10000 0.73 125 09:19 31.10.2021
5659 Clouds -20 1025 95 10000 0.33 168 04:55 31.10.2021
5660 Clouds -26 1029 100 10000 1.05 214 00:48 31.10.2021
5661 Clouds -26 1030 100 10000 1.11 219 22:31 30.10.2021
5662 Clouds -25 1030 100 10000 1.18 218 21:33 30.10.2021
5663 Clouds -25 1030 100 10000 1.24 221 20:19 30.10.2021
5664 Clouds -25 1030 99 10000 1.12 218 18:33 30.10.2021
5665 Clouds -24 1030 98 10000 1.45 217 16:42 30.10.2021
5666 Clouds -23 1030 98 10000 1.64 216 14:36 30.10.2021
5667 Clouds -22 1030 99 10000 1.75 219 13:39 30.10.2021
5668 Clouds -21 1030 99 10000 1.76 217 13:20 30.10.2021
5669 Clouds -20 1030 99 10000 1.74 217 11:51 30.10.2021
5670 Clouds -20 1030 99 10000 1.74 217 11:31 30.10.2021
5671 Clouds -18 1030 99 5326 1.69 223 10:24 30.10.2021
5672 Clouds -16 1029 99 4381 1.63 226 08:48 30.10.2021
5673 Clouds -13 1027 94 4473 1.69 234 06:26 30.10.2021
5674 Clouds -13 1027 94 4473 1.69 234 05:38 30.10.2021
5675 Clouds -14 1025 96 1199 1.6 232 23:52 29.10.2021
5676 Clouds -14 1024 96 1819 1.51 233 22:36 29.10.2021
5677 Clouds -14 1023 96 3434 1.45 239 21:23 29.10.2021
5678 Clouds -14 1023 96 3434 1.45 239 20:42 29.10.2021
5679 Clouds -18 1024 96 10000 1.49 236 19:44 29.10.2021
5680 Clouds -17 1022 93 10000 1.36 239 18:27 29.10.2021
5681 Clouds -16 1022 93 10000 1.41 232 16:50 29.10.2021
5682 Clouds -14 1020 93 9540 1.22 231 14:32 29.10.2021
5683 Clouds -13 1017 90 10000 0.55 225 10:57 29.10.2021
5684 Clouds -13 1017 90 10000 0.55 225 10:34 29.10.2021
5685 Clouds -12 1013 89 10000 0.54 210 07:25 29.10.2021
5686 Clouds -14 1009 92 10000 1.39 226 00:36 29.10.2021
5687 Clouds -13 1007 93 10000 1.24 233 22:54 28.10.2021
5688 Clouds -13 1007 93 10000 1.16 247 21:55 28.10.2021
5689 Clouds -12 1005 94 10000 1.45 258 20:29 28.10.2021
5690 Clouds -13 1006 95 10000 1.23 264 19:46 28.10.2021
5691 Clouds -13 1005 96 10000 0.94 259 18:18 28.10.2021
5692 Clouds -13 1004 96 10000 0.91 264 16:58 28.10.2021
5693 Clouds -14 1004 98 8838 1.5 212 15:20 28.10.2021
5694 Clouds -14 1004 99 4683 1.17 212 13:45 28.10.2021
5695 Clouds -14 1003 99 4403 0.67 247 13:21 28.10.2021
5696 Clouds -14 1003 99 4403 0.67 247 12:39 28.10.2021
5697 Snow -11 1003 97 1222 0.9 354 10:54 28.10.2021
5698 Snow -11 1003 97 184 0.82 12 09:38 28.10.2021
5699 Snow -10 1003 96 223 0.95 37 08:55 28.10.2021
5700 Snow -10 1003 96 174 0.58 82 08:28 28.10.2021
5701 Clouds -11 1004 91 10000 0.26 180 04:48 28.10.2021
5702 Clouds -17 1006 99 9959 0.37 221 23:50 27.10.2021
5703 Clouds -17 1007 99 9685 0.46 204 22:31 27.10.2021
5704 Clouds -17 1007 99 10000 0.56 187 21:33 27.10.2021
5705 Clouds -17 1007 99 10000 0.62 192 20:53 27.10.2021
5706 Clouds -15 1007 99 10000 0.37 140 19:57 27.10.2021
5707 Clouds -15 1007 99 8649 0.18 103 19:38 27.10.2021
5708 Clouds -13 1007 98 9040 0.49 57 18:39 27.10.2021
5709 Clouds -13 1008 95 10000 0.98 109 16:27 27.10.2021
5710 Clouds -13 1008 95 10000 0.98 109 15:31 27.10.2021
5711 Clouds -13 1008 95 10000 0.78 123 14:40 27.10.2021
5712 Clouds -14 1009 94 10000 0.56 78 11:28 27.10.2021
5713 Clouds -14 1009 94 10000 0.56 78 10:58 27.10.2021
5714 Clouds -13 1009 93 10000 1 96 09:51 27.10.2021
5715 Clouds -11 1009 91 10000 0.91 100 08:22 27.10.2021
5716 Clouds -12 1009 91 10000 0.44 133 07:22 27.10.2021
5717 Clouds -19 1010 98 10000 0.63 221 02:24 27.10.2021
5718 Clouds -20 1010 99 10000 0.63 218 00:57 27.10.2021
5719 Clouds -20 1010 99 10000 0.74 223 00:28 27.10.2021
5720 Clouds -20 1010 99 10000 0.74 223 00:28 27.10.2021
5721 Clouds -20 1010 99 10000 0.74 223 23:41 26.10.2021
5722 Clouds -19 1009 99 10000 0.64 213 22:38 26.10.2021
5723 Clouds -18 1009 98 10000 0.54 206 21:59 26.10.2021
5724 Clouds -18 1009 98 10000 0.28 171 20:40 26.10.2021
5725 Clouds -19 1009 99 10000 0.28 221 19:30 26.10.2021
5726 Clouds -19 1009 99 10000 0.28 221 19:30 26.10.2021
5727 Clouds -19 1008 99 10000 0.26 200 18:41 26.10.2021
5728 Clouds -18 1008 99 10000 0.22 136 16:42 26.10.2021
5729 Clouds -18 1008 99 10000 0.33 154 14:56 26.10.2021
5730 Clouds -18 1008 99 10000 0.39 110 11:39 26.10.2021
5731 Clouds -19 1008 100 10000 0.31 94 10:20 26.10.2021
5732 Clouds -16 1007 96 10000 0.51 69 07:47 26.10.2021
5733 Clouds -15 1007 95 10000 0.23 43 07:20 26.10.2021
5734 Clouds -22 1007 100 7217 0.7 225 23:51 25.10.2021
5735 Clouds -22 1007 100 7217 0.7 225 23:51 25.10.2021
5736 Clouds -22 1007 100 6837 0.84 217 22:54 25.10.2021
5737 Clouds -22 1007 100 6324 0.67 214 22:20 25.10.2021
5738 Clouds -22 1007 100 6324 0.67 214 21:39 25.10.2021
5739 Clouds -21 1007 100 7858 0.71 216 19:54 25.10.2021
5740 Clouds -20 1006 100 7002 0.79 214 19:26 25.10.2021
5741 Clouds -20 1006 100 7002 0.79 214 18:59 25.10.2021
5742 Clouds -20 1006 100 6577 0.91 221 18:20 25.10.2021
5743 Clouds -20 1006 100 6886 0.7 236 16:20 25.10.2021
5744 Clouds -19 1005 100 7928 0.47 252 14:28 25.10.2021
5745 Clouds -19 1005 100 7652 0.32 264 12:30 25.10.2021
5746 Clouds -16 1004 98 10000 0.15 245 10:23 25.10.2021
5747 Clouds -15 1004 98 10000 0.09 112 08:37 25.10.2021
5748 Clouds -12 1002 92 10000 0.52 270 06:25 25.10.2021
5749 Clouds -15 1002 98 4734 0.42 249 02:31 25.10.2021
5750 Clouds -18 1003 100 3969 0.21 173 00:46 25.10.2021
5751 Clouds -17 1002 100 4051 0.19 68 23:47 24.10.2021
5752 Clouds -16 1002 99 4461 0.44 84 22:56 24.10.2021
5753 Clouds -16 1002 99 4461 0.44 84 22:36 24.10.2021
5754 Clouds -15 1002 98 4419 0.72 74 22:18 24.10.2021
5755 Clouds -14 1002 98 4936 0.82 67 20:46 24.10.2021
5756 Clouds -15 1002 98 5434 0.77 64 20:27 24.10.2021
5757 Clouds -16 1003 99 4299 0.52 101 18:53 24.10.2021
5758 Clouds -17 1003 100 4612 0.57 111 17:58 24.10.2021
5759 Clouds -17 1002 100 5404 0.5 108 17:18 24.10.2021
5760 Clouds -17 1003 100 5926 0.47 116 15:47 24.10.2021
5761 Clouds -15 1003 98 6549 0.48 80 13:52 24.10.2021
5762 Clouds -14 1002 98 6030 0.68 85 12:41 24.10.2021
5763 Clouds -14 1002 98 2965 0.71 56 11:41 24.10.2021
5764 Clouds -13 1002 97 1097 0.7 63 10:47 24.10.2021
5765 Snow -13 1002 96 366 0.75 71 09:54 24.10.2021
5766 Snow -12 1002 92 225 1.24 83 05:35 24.10.2021
5767 Clouds -15 1006 95 10000 1.39 89 00:44 24.10.2021
5768 Clouds -15 1007 96 9513 1.12 88 23:32 23.10.2021
5769 Clouds -17 1009 98 4521 1.2 90 21:56 23.10.2021
5770 Clouds -18 1010 99 3133 1.26 108 19:52 23.10.2021
5771 Clouds -18 1011 99 2447 1.16 131 18:59 23.10.2021
5772 Clouds -18 1012 100 1567 1.04 167 18:21 23.10.2021
5773 Clouds -18 1012 100 1567 1.04 167 17:43 23.10.2021
5774 Clouds -18 1012 100 1574 0.85 190 16:21 23.10.2021
5775 Clouds -18 1013 100 2675 0.77 145 13:58 23.10.2021
5776 Clouds -12 1010 93 2879 0.61 37 03:33 23.10.2021
5777 Clouds -15 1009 98 1278 0.19 280 23:45 22.10.2021
5778 Clouds -15 1009 98 1087 0.6 269 22:44 22.10.2021
5779 Clouds -14 1008 97 1075 0.84 268 19:51 22.10.2021
5780 Clouds -14 1008 98 1266 0.96 270 18:40 22.10.2021
5781 Clouds -14 1008 98 1436 1.03 277 17:36 22.10.2021
5782 Clouds -13 1007 98 1088 1.17 277 14:58 22.10.2021
5783 Clouds -13 1006 97 1378 1.09 282 13:35 22.10.2021
5784 Clouds -12 1005 98 1392 1.34 281 11:18 22.10.2021
5785 Clouds -12 1005 98 1392 1.34 281 10:38 22.10.2021
5786 Clouds -12 1004 97 1215 1.26 291 09:44 22.10.2021
5787 Clouds -11 1003 97 847 1.4 286 08:31 22.10.2021
5788 Clouds -8 1001 93 2958 1.35 340 07:21 22.10.2021
5789 Clouds -8 1001 93 2958 1.35 340 07:21 22.10.2021
5790 Clouds -10 998 93 406 1.82 26 02:56 22.10.2021
5791 Clouds -11 997 96 286 1.8 49 23:54 21.10.2021
5792 Snow -10 997 96 252 1.83 59 23:21 21.10.2021
5793 Snow -10 997 96 183 1.76 67 21:39 21.10.2021
5794 Snow -10 998 96 140 1.96 77 20:27 21.10.2021
5795 Snow -11 999 95 305 1.93 76 19:57 21.10.2021
5796 Snow -10 1000 94 4014 1.75 73 19:28 21.10.2021
5797 Snow -10 1000 94 4014 1.75 73 18:45 21.10.2021
5798 Snow -11 1000 94 1346 1.85 88 17:54 21.10.2021
5799 Snow -11 1000 94 1346 1.85 88 17:33 21.10.2021
5800 Snow -11 1000 94 1346 1.85 88 17:32 21.10.2021
5801 Clouds -12 1003 96 10000 1.71 95 15:34 21.10.2021
5802 Clouds -12 1004 97 10000 1.74 96 14:58 21.10.2021
5803 Clouds -12 1004 97 10000 1.74 96 14:37 21.10.2021
5804 Clouds -14 1006 99 9545 1.6 101 12:51 21.10.2021
5805 Clouds -14 1008 99 10000 1.3 108 09:58 21.10.2021
5806 Clouds -10 1008 96 10000 1.15 103 08:21 21.10.2021
5807 Clouds -9 1008 94 10000 1.15 105 07:23 21.10.2021
5808 Clouds -11 1010 95 5426 1 158 03:24 21.10.2021
5809 Clouds -12 1009 97 1191 0.73 130 23:25 20.10.2021
5810 Clouds -12 1009 97 1558 0.61 118 21:51 20.10.2021
5811 Clouds -12 1009 97 2412 0.43 106 21:29 20.10.2021
5812 Clouds -12 1009 97 2412 0.43 106 20:49 20.10.2021
5813 Clouds -12 1008 97 5357 0.48 101 20:28 20.10.2021
5814 Clouds -13 1009 97 5199 0.48 119 19:40 20.10.2021
5815 Clouds -13 1009 97 3444 0.49 109 18:53 20.10.2021
5816 Clouds -13 1008 97 2638 0.6 99 17:41 20.10.2021
5817 Clouds -13 1008 98 2665 1.05 73 15:26 20.10.2021
5818 Snow -11 1006 96 249 1.48 67 10:25 20.10.2021
5819 Snow -11 1006 95 236 1.52 71 08:37 20.10.2021
5820 Snow -11 1006 92 347 1.64 91 02:59 20.10.2021
5821 Snow -12 1007 95 288 1.68 92 00:43 20.10.2021
5822 Snow -13 1007 95 241 1.66 92 23:45 19.10.2021
5823 Snow -13 1007 95 297 1.64 96 21:41 19.10.2021
5824 Clouds -13 1007 95 305 1.64 99 20:54 19.10.2021
5825 Clouds -13 1008 95 362 1.61 103 20:22 19.10.2021
5826 Clouds -13 1008 95 578 1.63 103 19:41 19.10.2021
5827 Clouds -13 1008 95 697 1.58 105 18:53 19.10.2021
5828 Clouds -13 1008 95 697 1.58 105 18:53 19.10.2021
5829 Clouds -13 1008 95 910 1.54 107 17:58 19.10.2021
5830 Clouds -14 1009 96 919 1.5 109 15:39 19.10.2021
5831 Clouds -14 1010 95 1007 1.48 109 15:19 19.10.2021
5832 Clouds -14 1010 93 1757 1.43 110 14:26 19.10.2021
5833 Clouds -14 1010 90 3629 1.57 103 13:29 19.10.2021
5834 Clouds -14 1010 89 10000 1.52 100 11:32 19.10.2021
5835 Clouds -13 1011 85 10000 1.19 106 10:23 19.10.2021
5836 Clouds -13 1011 82 10000 1.08 119 08:58 19.10.2021
5837 Clouds -13 1010 74 10000 1.51 141 06:50 19.10.2021
5838 Clouds -17 1013 96 10000 1.05 125 00:24 19.10.2021
5839 Clouds -17 1013 96 10000 1.05 125 23:50 18.10.2021
5840 Clouds -17 1013 97 10000 0.98 128 23:20 18.10.2021
5841 Clouds -17 1013 97 10000 0.98 128 22:53 18.10.2021
5842 Clouds -17 1013 96 10000 1.04 135 21:44 18.10.2021
5843 Clouds -18 1013 97 10000 0.94 128 20:42 18.10.2021
5844 Clouds -18 1014 98 10000 0.81 124 20:18 18.10.2021
5845 Clouds -18 1014 98 10000 0.81 124 19:30 18.10.2021
5846 Clouds -18 1014 99 10000 0.87 115 18:57 18.10.2021
5847 Clouds -19 1014 99 10000 1.03 102 15:45 18.10.2021
5848 Clouds -19 1015 99 10000 0.97 99 14:28 18.10.2021
5849 Clouds -17 1016 97 10000 0.92 104 10:55 18.10.2021
5850 Clouds -17 1016 96 10000 0.86 96 09:31 18.10.2021
5851 Clouds -13 1017 83 10000 1.48 161 05:32 18.10.2021
5852 Clouds -19 1020 99 4766 1.02 196 23:45 17.10.2021
5853 Clouds -18 1021 99 5313 0.94 190 21:58 17.10.2021
5854 Clouds -18 1021 99 5313 0.94 190 21:40 17.10.2021
5855 Clouds -18 1021 99 5190 0.96 195 20:40 17.10.2021
5856 Clouds -18 1021 99 4791 1.1 186 19:43 17.10.2021
5857 Clouds -18 1022 99 5161 1.03 180 19:25 17.10.2021
5858 Clouds -17 1022 99 5395 1.09 180 18:27 17.10.2021
5859 Clouds -17 1023 99 7170 0.8 191 15:56 17.10.2021
5860 Clouds -17 1023 99 9864 0.83 197 14:35 17.10.2021
5861 Clouds -17 1023 99 10000 0.86 202 13:56 17.10.2021
5862 Clouds -17 1023 99 10000 0.86 202 13:30 17.10.2021
5863 Clouds -16 1024 98 10000 0.56 218 10:59 17.10.2021
5864 Clouds -15 1023 97 10000 0.51 233 09:56 17.10.2021
5865 Clouds -12 1023 91 10000 0.58 217 07:42 17.10.2021
5866 Clouds -13 1023 92 3032 0.87 255 02:35 17.10.2021
5867 Clouds -15 1023 99 2206 0.71 279 00:29 17.10.2021
5868 Clouds -15 1023 99 1791 0.7 277 22:40 16.10.2021
5869 Clouds -15 1023 99 1223 0.65 272 20:36 16.10.2021
5870 Clouds -15 1022 99 1755 0.64 288 19:59 16.10.2021
5871 Clouds -15 1022 99 1755 0.64 288 19:40 16.10.2021
5872 Clouds -15 1022 99 2207 0.74 307 19:18 16.10.2021
5873 Clouds -15 1022 99 2207 0.74 307 18:44 16.10.2021
5874 Clouds -14 1022 99 2197 0.65 309 18:22 16.10.2021
5875 Clouds -14 1022 99 2197 0.65 309 17:31 16.10.2021
5876 Clouds -14 1022 98 1373 0.56 322 16:18 16.10.2021
5877 Clouds -13 1023 99 2063 0.72 323 13:26 16.10.2021
5878 Clouds -13 1023 98 4115 0.63 314 11:24 16.10.2021
5879 Clouds -11 1022 95 6621 0.62 311 08:58 16.10.2021
5880 Clouds -10 1023 89 3657 0.54 244 04:26 16.10.2021
5881 Clouds -12 1024 97 1006 0.35 231 00:51 16.10.2021
5882 Clouds -12 1025 98 1175 0.35 230 23:26 15.10.2021
5883 Clouds -12 1025 97 1090 0.38 230 22:21 15.10.2021
5884 Clouds -12 1025 97 1090 0.38 230 21:41 15.10.2021
5885 Clouds -12 1026 98 907 0.45 237 20:54 15.10.2021
5886 Clouds -12 1026 98 1139 0.58 206 20:25 15.10.2021
5887 Clouds -12 1026 98 1496 0.64 194 19:20 15.10.2021
5888 Clouds -12 1026 98 1131 0.62 204 18:22 15.10.2021
5889 Clouds -12 1026 98 1131 0.62 204 18:22 15.10.2021
5890 Clouds -12 1027 98 1401 0.72 208 15:49 15.10.2021
5891 Clouds -11 1028 99 1574 0.58 220 14:22 15.10.2021
5892 Clouds -11 1029 99 2686 0.62 231 12:26 15.10.2021
5893 Clouds -10 1029 98 2889 0.58 240 11:19 15.10.2021
5894 Clouds -10 1029 98 2889 0.58 240 10:31 15.10.2021
5895 Clouds -6 1029 82 10000 0.6 277 07:37 15.10.2021
5896 Clouds -6 1029 83 4443 1.22 296 04:46 15.10.2021
5897 Clouds -8 1030 95 2639 1.28 292 00:23 15.10.2021
5898 Clouds -8 1030 95 4730 1.26 293 23:26 14.10.2021
5899 Clouds -8 1030 95 4429 1.3 298 22:22 14.10.2021
5900 Clouds -8 1030 95 4429 1.3 298 21:40 14.10.2021
5901 Clouds -8 1029 95 1462 1.31 302 20:22 14.10.2021
5902 Clouds -8 1029 95 1462 1.31 302 19:49 14.10.2021
5903 Clouds -8 1029 94 1619 1.39 302 18:45 14.10.2021
5904 Clouds -7 1029 88 7589 1.45 296 17:24 14.10.2021
5905 Clouds -7 1029 88 7589 1.45 296 16:33 14.10.2021
5906 Clouds -7 1029 81 10000 1.59 296 15:20 14.10.2021
5907 Clouds -7 1029 79 10000 1.68 300 14:30 14.10.2021
5908 Clouds -7 1029 79 10000 1.68 300 14:30 14.10.2021
5909 Clouds -7 1029 78 10000 1.69 305 13:35 14.10.2021
5910 Clouds -6 1028 79 10000 1.69 303 11:35 14.10.2021
5911 Clouds -6 1028 77 10000 1.65 316 09:33 14.10.2021
5912 Clouds -5 1027 84 5055 1.78 276 06:27 14.10.2021
5913 Clouds -8 1027 84 10000 1.45 264 00:52 14.10.2021
5914 Clouds -9 1027 89 10000 1.52 259 22:47 13.10.2021
5915 Clouds -9 1026 89 10000 1.48 265 21:37 13.10.2021
5916 Clouds -8 1026 87 10000 1.47 268 20:46 13.10.2021
5917 Clouds -8 1026 87 10000 1.53 276 19:47 13.10.2021
5918 Clouds -8 1026 87 10000 1.54 277 18:49 13.10.2021
5919 Clouds -8 1026 87 10000 1.54 277 18:49 13.10.2021
5920 Clouds -8 1025 87 10000 1.54 278 17:35 13.10.2021
5921 Clouds -7 1024 86 10000 1.62 286 15:21 13.10.2021
5922 Clouds -7 1024 86 10000 1.62 286 14:43 13.10.2021
5923 Clouds -8 1023 90 10000 1.78 287 12:54 13.10.2021
5924 Clouds -7 1022 89 10000 1.88 288 11:55 13.10.2021
5925 Clouds -5 1021 85 10000 1.98 297 10:21 13.10.2021
5926 Clouds -4 1019 85 10000 2.34 315 07:56 13.10.2021
5927 Clouds -3 1018 84 7440 2.62 328 05:41 13.10.2021
5928 Snow -4 1015 92 4589 2.3 328 02:24 13.10.2021
5929 Snow -4 1013 96 176 1.46 324 23:54 12.10.2021
5930 Snow -4 1012 97 132 0.82 314 23:28 12.10.2021
5931 Snow -4 1012 97 132 0.82 314 22:42 12.10.2021
5932 Snow -4 1010 96 124 0.37 204 21:19 12.10.2021
5933 Snow -5 1010 96 193 1.07 40 20:33 12.10.2021
5934 Snow -5 1009 96 314 1.09 46 19:51 12.10.2021
5935 Snow -5 1008 96 542 1.25 58 18:27 12.10.2021
5936 Snow -5 1008 96 542 1.25 58 17:38 12.10.2021
5937 Clouds -4 1007 96 683 1.23 70 16:36 12.10.2021
5938 Snow -4 1006 96 423 1.26 85 15:44 12.10.2021
5939 Snow -4 1005 96 282 1.27 103 14:30 12.10.2021
5940 Snow -3 1004 80 3970 1.52 158 13:42 12.10.2021
5941 Snow -2 1003 72 7879 2.83 184 11:36 12.10.2021
5942 Snow -2 1001 69 5858 3.22 199 09:41 12.10.2021
5943 Clouds -1 1002 45 10000 5.08 207 08:42 12.10.2021
5944 Clouds 0 1000 45 10000 5.28 218 06:53 12.10.2021
5945 Clouds 0 999 46 10000 5.07 220 05:29 12.10.2021
5946 Clouds 0 999 46 10000 5.07 220 04:31 12.10.2021
5947 Snow -1 997 93 7759 1.82 157 00:27 12.10.2021
5948 Snow -1 997 93 7759 1.82 157 23:39 11.10.2021
5949 Snow 0 997 95 3155 1.59 148 22:56 11.10.2021
5950 Snow 0 997 96 3152 1.39 131 21:45 11.10.2021
5951 Snow -1 997 98 127 1.18 107 20:35 11.10.2021
5952 Snow -1 997 98 173 1.45 125 19:38 11.10.2021
5953 Clouds 0 996 84 10000 1.4 122 18:25 11.10.2021
5954 Clouds -1 996 85 10000 1.42 114 16:51 11.10.2021
5955 Clouds -1 996 85 10000 1.42 114 16:31 11.10.2021
5956 Clouds -1 996 85 10000 1.56 104 15:47 11.10.2021
5957 Clouds -1 996 85 10000 1.64 107 14:54 11.10.2021
5958 Clouds -1 996 79 10000 1.81 113 14:22 11.10.2021
5959 Clouds -1 996 79 10000 1.81 113 13:36 11.10.2021
5960 Clouds -1 996 79 10000 1.81 113 13:36 11.10.2021
5961 Clouds 0 996 73 10000 1.92 123 11:38 11.10.2021
5962 Clouds 0 996 71 10000 2.04 133 10:31 11.10.2021
5963 Clouds 2 996 64 10000 2.09 143 08:42 11.10.2021
5964 Clouds 4 995 55 10000 2.82 169 04:55 11.10.2021
5965 Clouds 1 995 68 10000 1.99 127 01:37 11.10.2021
5966 Clouds 1 995 69 10000 2.11 130 00:45 11.10.2021
5967 Clouds 1 995 68 10000 2.18 134 23:57 10.10.2021
5968 Clouds 1 995 63 10000 2.36 134 21:51 10.10.2021
5969 Clouds 1 995 63 10000 2.36 134 21:51 10.10.2021
5970 Clouds 1 995 62 10000 2.45 147 21:29 10.10.2021
5971 Clouds 1 995 61 10000 2.5 148 20:42 10.10.2021
5972 Clouds 1 995 60 10000 3.04 165 20:21 10.10.2021
5973 Clouds 1 995 60 10000 3.04 165 19:53 10.10.2021
5974 Clouds 1 995 60 10000 3.04 165 19:34 10.10.2021
5975 Clouds 1 995 60 10000 2.81 156 18:32 10.10.2021
5976 Clouds 1 995 61 10000 2.97 154 16:45 10.10.2021
5977 Clouds 1 996 61 10000 3.19 159 15:41 10.10.2021
5978 Clouds 1 996 61 10000 3.75 171 13:43 10.10.2021
5979 Clouds 2 996 59 10000 4.32 176 12:51 10.10.2021
5980 Clouds 2 996 59 10000 4.32 176 12:33 10.10.2021
5981 Clouds 2 996 63 10000 6.34 189 10:42 10.10.2021
5982 Clouds 3 996 52 10000 8.45 200 09:29 10.10.2021
5983 Clouds 3 996 52 10000 8.45 200 08:53 10.10.2021
5984 Clouds 4 996 46 10000 7.64 198 06:54 10.10.2021
5985 Clouds 2 997 49 10000 5.33 194 02:38 10.10.2021
5986 Clouds 0 997 56 10000 3.92 184 00:55 10.10.2021
5987 Clouds 0 997 58 10000 3.85 184 23:52 09.10.2021
5988 Clouds 0 997 56 10000 4.02 186 22:45 09.10.2021
5989 Clouds 0 997 54 10000 4.57 190 21:38 09.10.2021
5990 Clouds 0 997 53 10000 5.04 193 21:19 09.10.2021
5991 Clouds 0 998 52 10000 5.37 186 19:44 09.10.2021
5992 Clouds 0 998 52 10000 5.58 189 18:57 09.10.2021
5993 Clouds 0 998 52 10000 5.58 189 18:32 09.10.2021
5994 Clouds -2 999 56 10000 5.05 186 16:29 09.10.2021
5995 Clouds -2 999 56 10000 5.05 186 16:29 09.10.2021
5996 Clouds -2 1000 55 10000 4.98 188 15:28 09.10.2021
5997 Clouds -1 1000 53 10000 5.69 189 13:43 09.10.2021
5998 Clouds -1 1000 49 10000 6.09 189 12:38 09.10.2021
5999 Clouds -2 1001 45 10000 4.19 177 11:47 09.10.2021
6000 Clouds -3 1001 47 10000 3.02 158 10:42 09.10.2021
6001 Clouds -3 1002 48 10000 2.82 161 09:36 09.10.2021
6002 Clouds -1 1002 39 10000 3.94 174 08:29 09.10.2021
6003 Clouds -1 1003 40 10000 4.31 176 07:46 09.10.2021
6004 Clouds -2 1004 49 10000 3.03 158 05:28 09.10.2021
6005 Clouds -3 1005 61 10000 2.13 144 02:57 09.10.2021
6006 Clouds -3 1005 61 10000 2.13 144 02:38 09.10.2021
6007 Clouds -6 1006 67 10000 1.61 142 23:37 08.10.2021
6008 Clouds -6 1006 68 10000 1.27 142 22:53 08.10.2021
6009 Clouds -7 1006 69 10000 0.79 160 22:22 08.10.2021
6010 Clouds -6 1006 69 10000 0.35 232 20:53 08.10.2021
6011 Clouds -6 1006 70 10000 0.86 251 18:53 08.10.2021
6012 Clouds -6 1006 71 10000 1.27 284 17:28 08.10.2021
6013 Clouds -6 1006 71 10000 1.27 284 16:50 08.10.2021
6014 Clouds -5 1005 73 10000 1.09 301 16:23 08.10.2021
6015 Clouds -4 1003 78 10000 3.69 12 13:57 08.10.2021
6016 Clouds -3 1002 65 10000 4.8 0 12:48 08.10.2021
6017 Clouds -1 1000 54 10000 2.49 330 11:31 08.10.2021
6018 Clouds 0 999 52 10000 2.17 294 10:40 08.10.2021
6019 Clouds 2 997 45 10000 6.49 224 08:27 08.10.2021
6020 Clouds -1 997 52 10000 5.87 191 23:38 07.10.2021
6021 Clouds -1 997 52 10000 5.77 190 23:18 07.10.2021
6022 Clouds -1 997 53 10000 5.89 188 21:45 07.10.2021
6023 Clouds -2 997 54 10000 5.65 187 21:20 07.10.2021
6024 Clouds -2 997 55 10000 5.69 184 19:57 07.10.2021
6025 Clouds -2 997 56 10000 5.64 183 19:28 07.10.2021
6026 Clouds -2 997 55 10000 5.7 181 18:22 07.10.2021
6027 Clouds -2 997 55 10000 5.66 183 17:18 07.10.2021
6028 Clouds -2 998 55 10000 5.61 185 15:34 07.10.2021
6029 Clouds -2 998 54 10000 5.65 187 13:47 07.10.2021
6030 Clouds -2 998 53 10000 5.34 187 13:28 07.10.2021
6031 Clouds -2 998 53 10000 5.34 187 12:40 07.10.2021
6032 Clouds -1 999 50 10000 4.49 193 10:52 07.10.2021
6033 Clouds 0 999 48 10000 4.55 193 10:19 07.10.2021
6034 Clouds 0 999 48 10000 4.55 193 10:19 07.10.2021
6035 Clouds 0 999 48 10000 4.55 193 09:32 07.10.2021
6036 Clouds 1 999 45 10000 5.5 200 08:41 07.10.2021
6037 Clouds 2 999 42 10000 7.19 206 07:42 07.10.2021
6038 Clouds 2 999 40 10000 7.22 209 06:59 07.10.2021
6039 Clouds -1 1001 51 10000 5.49 193 02:24 07.10.2021
6040 Clouds -2 1002 56 10000 5.12 201 23:55 06.10.2021
6041 Clouds -2 1002 56 10000 5.25 209 22:50 06.10.2021
6042 Clouds -1 1002 58 10000 5.55 213 21:53 06.10.2021
6043 Clouds -1 1002 60 10000 5.04 214 20:35 06.10.2021
6044 Clouds -1 1002 62 10000 4.6 208 19:48 06.10.2021
6045 Clouds -2 1003 64 10000 3.98 201 18:39 06.10.2021
6046 Clouds -2 1003 63 10000 3.54 195 16:55 06.10.2021
6047 Clouds -2 1004 63 10000 3.29 192 15:27 06.10.2021
6048 Clouds -2 1004 62 10000 3.16 192 13:55 06.10.2021
6049 Clouds -1 1005 59 10000 2.94 197 12:59 06.10.2021
6050 Clouds -1 1005 59 10000 2.94 197 12:40 06.10.2021
6051 Clouds -1 1005 55 10000 2.66 205 12:21 06.10.2021
6052 Clouds 0 1005 52 10000 2.22 203 09:59 06.10.2021
6053 Clouds 0 1005 52 10000 2.22 203 09:39 06.10.2021
6054 Clouds 0 1006 49 10000 1.85 199 08:42 06.10.2021
6055 Clouds 1 1006 47 10000 1.53 224 07:44 06.10.2021
6056 Clouds 1 1007 48 10000 3.18 206 05:26 06.10.2021
6057 Clouds -5 1010 70 10000 3.67 194 00:26 06.10.2021
6058 Clouds -5 1010 70 10000 3.67 194 23:57 05.10.2021
6059 Clouds -5 1010 70 10000 3.67 194 23:38 05.10.2021
6060 Clouds -5 1011 71 10000 3.71 193 23:20 05.10.2021
6061 Clouds -5 1011 73 10000 3.71 193 22:27 05.10.2021
6062 Clouds -5 1011 73 10000 3.71 193 21:47 05.10.2021
6063 Clouds -5 1011 76 10000 3.66 195 20:41 05.10.2021
6064 Clouds -5 1012 79 10000 3.5 196 20:23 05.10.2021
6065 Clouds -5 1012 79 10000 3.5 196 19:42 05.10.2021
6066 Clouds -5 1012 80 10000 3.41 197 18:49 05.10.2021
6067 Clouds -5 1013 79 10000 2.8 200 16:38 05.10.2021
6068 Clouds -4 1013 75 10000 2.48 200 14:36 05.10.2021
6069 Clouds -4 1014 70 10000 2.61 194 13:34 05.10.2021
6070 Clouds -3 1014 66 10000 2.48 183 12:46 05.10.2021
6071 Clouds -3 1015 65 10000 2.23 171 12:18 05.10.2021
6072 Clouds -3 1015 66 10000 2.23 169 10:59 05.10.2021
6073 Clouds -1 1015 56 10000 2.29 199 09:25 05.10.2021
6074 Clouds -1 1018 57 10000 2.56 190 03:57 05.10.2021
6075 Clouds -6 1020 84 10000 1.6 177 23:53 04.10.2021
6076 Clouds -6 1020 84 10000 1.52 172 22:35 04.10.2021
6077 Clouds -6 1021 84 10000 1.76 184 19:59 04.10.2021
6078 Clouds -5 1021 84 10000 1.69 182 18:34 04.10.2021
6079 Clouds -5 1022 80 10000 1.69 182 16:24 04.10.2021
6080 Clouds -5 1022 81 10000 1.52 180 15:31 04.10.2021
6081 Clouds -4 1022 80 10000 1.45 173 14:42 04.10.2021
6082 Clouds -4 1022 78 10000 1.32 169 13:57 04.10.2021
6083 Clouds -4 1023 76 10000 1.22 163 13:24 04.10.2021
6084 Clouds -4 1023 75 10000 1.19 156 12:26 04.10.2021
6085 Clouds -4 1023 76 10000 0.95 142 11:30 04.10.2021
6086 Clouds -3 1023 70 10000 1.09 166 09:59 04.10.2021
6087 Clouds -1 1023 59 10000 1.22 174 08:41 04.10.2021
6088 Clouds 0 1023 54 10000 0.88 177 07:26 04.10.2021
6089 Clouds -5 1023 89 10000 1.34 356 00:33 04.10.2021
6090 Clouds -6 1023 91 10000 1.5 356 22:35 03.10.2021
6091 Clouds -5 1023 90 10000 1.68 1 21:39 03.10.2021
6092 Clouds -4 1022 88 10000 1.96 6 21:19 03.10.2021
6093 Clouds -4 1021 81 10000 1.94 13 19:58 03.10.2021
6094 Clouds -4 1021 79 10000 1.68 14 18:56 03.10.2021
6095 Clouds -4 1021 81 10000 1.23 24 18:27 03.10.2021
6096 Clouds -4 1021 80 10000 0.83 42 16:34 03.10.2021
6097 Clouds -4 1020 79 10000 0.69 81 14:46 03.10.2021
6098 Clear -4 1020 76 10000 0.79 106 13:58 03.10.2021
6099 Clear -3 1020 75 10000 0.87 108 13:22 03.10.2021
6100 Clear -3 1020 75 10000 0.64 112 12:29 03.10.2021
6101 Clear -3 1020 74 10000 0.72 116 10:37 03.10.2021
6102 Clear 0 1019 61 10000 0.41 208 08:43 03.10.2021
6103 Clouds -3 1018 70 10000 0.41 97 01:44 03.10.2021
6104 Clouds -6 1018 84 10000 0.7 34 22:40 02.10.2021
6105 Clouds -5 1017 83 10000 0.81 22 20:57 02.10.2021
6106 Clear -5 1016 76 10000 0.86 34 19:42 02.10.2021
6107 Clear -5 1015 74 10000 0.94 25 18:52 02.10.2021
6108 Clear -5 1015 73 10000 0.88 24 17:54 02.10.2021
6109 Clouds -4 1015 70 10000 0.99 27 17:21 02.10.2021
6110 Clouds -4 1015 70 10000 0.99 27 17:21 02.10.2021
6111 Clouds -4 1014 66 10000 1.28 24 15:29 02.10.2021
6112 Clouds -4 1014 58 10000 1.12 91 16:35 30.09.2021
6113 Clouds -4 1014 57 10000 1.14 88 15:36 30.09.2021
6114 Clouds -3 1015 55 10000 1.14 85 13:20 30.09.2021
6115 Clouds -3 1016 54 10000 1.28 111 11:37 30.09.2021
6116 Clouds -3 1016 52 10000 1.43 136 10:42 30.09.2021
6117 Clouds -1 1016 48 10000 1.36 120 09:32 30.09.2021
6118 Clouds 1 1016 41 10000 2 148 08:29 30.09.2021
6119 Clouds 1 1016 42 10000 2.09 139 07:22 30.09.2021
6120 Clouds 0 1018 48 10000 1.79 133 04:52 30.09.2021
6121 Clouds -4 1020 71 10000 1.15 100 01:19 30.09.2021
6122 Clouds -6 1020 81 10000 1.17 89 23:49 29.09.2021
6123 Clouds -6 1020 82 10000 1.18 99 21:58 29.09.2021
6124 Clouds -6 1021 82 10000 1.11 91 21:24 29.09.2021
6125 Clouds -5 1021 79 10000 1.19 94 20:24 29.09.2021
6126 Clouds -5 1021 79 10000 1.19 94 19:43 29.09.2021
6127 Clouds -5 1021 78 10000 1.16 78 18:28 29.09.2021
6128 Clouds -5 1021 78 10000 1.16 78 17:33 29.09.2021
6129 Clear -5 1022 77 10000 1.01 79 16:46 29.09.2021
6130 Clouds -5 1022 76 10000 0.98 87 15:48 29.09.2021
6131 Clouds -4 1022 73 10000 0.98 87 14:39 29.09.2021
6132 Clouds -4 1022 73 10000 0.88 103 13:41 29.09.2021
6133 Clouds -4 1022 72 10000 0.97 98 12:47 29.09.2021
6134 Clouds -4 1022 72 10000 1.01 103 11:54 29.09.2021
6135 Clouds -3 1022 70 10000 1.09 108 10:39 29.09.2021
6136 Clouds -2 1022 63 10000 1.22 110 09:48 29.09.2021
6137 Clouds 0 1022 55 10000 1.11 113 08:49 29.09.2021
6138 Clouds 0 1021 52 10000 0.91 120 07:31 29.09.2021
6139 Clouds -2 1022 67 10000 0.97 34 03:29 29.09.2021
6140 Clouds -6 1022 88 10000 1.24 15 23:23 28.09.2021
6141 Clouds -5 1022 87 10000 1.33 8 22:22 28.09.2021
6142 Clouds -5 1022 87 10000 1.33 8 21:35 28.09.2021
6143 Clouds -5 1021 86 10000 1.31 5 20:35 28.09.2021
6144 Clouds -5 1021 87 10000 1.42 13 19:42 28.09.2021
6145 Clouds -5 1021 86 10000 1.57 4 18:44 28.09.2021
6146 Clouds -5 1021 85 10000 1.78 358 17:53 28.09.2021
6147 Clouds -4 1021 83 10000 2.04 343 15:44 28.09.2021
6148 Clouds -4 1021 81 10000 2.28 353 13:38 28.09.2021
6149 Clouds -3 1020 79 10000 2.59 5 12:47 28.09.2021
6150 Clouds -3 1020 76 10000 2.96 10 12:19 28.09.2021
6151 Clouds -3 1020 76 10000 2.96 10 11:45 28.09.2021
6152 Clouds -2 1020 72 10000 3.29 12 10:55 28.09.2021
6153 Clouds 1 1019 63 10000 3.61 15 09:53 28.09.2021
6154 Clouds 2 1019 59 10000 4.35 17 08:57 28.09.2021
6155 Clouds 2 1019 59 10000 4.35 17 08:34 28.09.2021
6156 Clouds 2 1018 67 10000 4.3 22 06:51 28.09.2021
6157 Clouds 2 1018 68 10000 3.62 20 05:27 28.09.2021
6158 Clouds 0 1019 79 10000 1.37 322 01:23 28.09.2021
6159 Clouds -2 1019 87 10000 1.42 322 00:25 28.09.2021
6160 Clouds -2 1019 87 10000 1.42 322 23:32 27.09.2021
6161 Clouds -2 1019 86 10000 1.25 326 22:55 27.09.2021
6162 Clouds -2 1020 86 10000 1.1 321 21:44 27.09.2021
6163 Clouds -2 1020 84 10000 0.94 322 20:44 27.09.2021
6164 Clouds -2 1020 85 10000 1.08 336 19:53 27.09.2021
6165 Clouds -2 1020 86 10000 0.98 327 19:27 27.09.2021
6166 Clouds -2 1020 86 10000 0.98 327 18:49 27.09.2021
6167 Clouds -1 1021 84 10000 1.12 293 17:29 27.09.2021
6168 Clouds -1 1021 84 10000 1.12 293 16:49 27.09.2021
6169 Clouds -1 1022 82 10000 1.14 308 15:44 27.09.2021
6170 Clouds -1 1022 84 10000 1.33 315 15:18 27.09.2021
6171 Clouds 0 1022 75 10000 1.7 332 13:32 27.09.2021
6172 Clouds 2 1022 66 10000 2.14 356 11:40 27.09.2021
6173 Clouds 2 1022 63 10000 2.22 11 10:36 27.09.2021
6174 Clouds 4 1022 56 10000 3.57 10 08:51 27.09.2021
6175 Clouds 5 1023 59 10000 2.97 355 05:22 27.09.2021
6176 Clouds 3 1024 73 10000 1.76 342 03:21 27.09.2021
6177 Clouds -1 1024 89 10000 1.26 19 22:38 26.09.2021
6178 Clouds -1 1023 88 10000 1.33 27 21:53 26.09.2021
6179 Clouds 0 1023 87 10000 1.05 41 21:25 26.09.2021
6180 Clouds 0 1023 86 10000 1.08 32 20:22 26.09.2021
6181 Clouds 0 1023 86 10000 1.08 32 19:52 26.09.2021
6182 Clouds 1 1023 85 10000 0.95 36 18:47 26.09.2021
6183 Clouds 1 1023 83 10000 0.68 28 17:57 26.09.2021
6184 Clouds 2 1023 79 10000 0.59 6 17:24 26.09.2021
6185 Clouds 2 1023 79 10000 0.59 6 16:57 26.09.2021
6186 Clouds 2 1023 78 10000 0.37 277 16:20 26.09.2021
6187 Clouds 3 1023 77 10000 0.77 236 15:22 26.09.2021
6188 Clouds 3 1023 78 10000 1.48 208 13:57 26.09.2021
6189 Clouds 3 1024 78 10000 2.12 194 13:21 26.09.2021
6190 Clouds 3 1024 77 10000 2.34 187 12:25 26.09.2021
6191 Clouds 3 1024 77 10000 2.34 187 11:42 26.09.2021
6192 Clouds 3 1024 75 10000 2.34 191 10:37 26.09.2021
6193 Clouds 6 1024 62 10000 3.02 211 09:21 26.09.2021
6194 Clouds 6 1024 62 10000 3.27 214 07:56 26.09.2021
6195 Clouds 0 1027 89 10000 0.65 174 00:23 26.09.2021
6196 Clouds 0 1027 89 10000 0.65 174 23:33 25.09.2021
6197 Clouds 0 1028 90 10000 0.45 187 22:38 25.09.2021
6198 Clouds 0 1028 89 10000 0.51 246 21:56 25.09.2021
6199 Clouds 0 1028 89 10000 0.51 246 21:33 25.09.2021
6200 Clouds 0 1027 89 10000 0.81 261 20:51 25.09.2021
6201 Clouds 1 1027 91 10000 0.96 252 19:32 25.09.2021
6202 Clouds 2 1027 82 10000 0.86 263 18:26 25.09.2021
6203 Clouds 2 1027 72 10000 1.41 0 16:51 25.09.2021
6204 Clouds 3 1026 71 10000 1.56 5 14:24 25.09.2021
6205 Clouds 3 1026 71 10000 1.56 5 13:46 25.09.2021
6206 Clouds 3 1025 70 10000 1.59 15 12:29 25.09.2021
6207 Clouds 3 1025 68 10000 1.71 6 10:36 25.09.2021
6208 Clouds 5 1024 62 10000 1.81 351 09:47 25.09.2021
6209 Clouds 6 1024 57 10000 2.2 344 08:45 25.09.2021
6210 Clouds 6 1023 50 10000 2.64 349 07:27 25.09.2021
6211 Clouds 4 1023 63 10000 2.89 3 00:49 25.09.2021
6212 Clouds 4 1021 76 10000 2.09 355 21:57 24.09.2021
6213 Clouds 4 1021 81 10000 1.52 333 21:25 24.09.2021
6214 Clouds 4 1021 81 10000 1.09 306 20:19 24.09.2021
6215 Clouds 5 1020 68 10000 1.11 275 18:36 24.09.2021
6216 Clouds 5 1020 65 10000 1.05 258 17:56 24.09.2021
6217 Clouds 5 1020 65 10000 1.05 258 17:37 24.09.2021
6218 Clouds 5 1021 63 10000 0.88 264 17:19 24.09.2021
6219 Clouds 5 1021 61 10000 0.82 291 15:38 24.09.2021
6220 Clouds 6 1021 60 10000 1.04 357 13:20 24.09.2021
6221 Clouds 6 1021 60 10000 1.04 357 12:42 24.09.2021
6222 Clouds 6 1022 59 10000 0.86 344 12:24 24.09.2021
6223 Clouds 6 1022 59 10000 0.6 345 10:38 24.09.2021
6224 Clouds 8 1022 51 10000 0.53 91 08:59 24.09.2021
6225 Clouds 9 1022 45 10000 2.19 85 07:55 24.09.2021
6226 Clouds 9 1022 45 10000 2.32 89 06:57 24.09.2021
6227 Clouds 8 1023 51 10000 2.11 68 05:22 24.09.2021
6228 Clouds 4 1025 69 10000 2.47 26 01:24 24.09.2021
6229 Clouds 2 1025 81 10000 2.23 21 22:37 23.09.2021
6230 Clouds 2 1025 81 10000 2.53 19 21:58 23.09.2021
6231 Clouds 3 1024 81 10000 2.28 11 20:52 23.09.2021
6232 Clouds 3 1024 81 10000 1.8 2 20:26 23.09.2021
6233 Clouds 3 1023 80 10000 1.5 323 18:27 23.09.2021
6234 Clouds 4 1021 79 10000 2.05 252 15:37 23.09.2021
6235 Clouds 4 1020 78 10000 3.29 221 15:18 23.09.2021
6236 Clouds 5 1019 75 10000 3.65 213 13:57 23.09.2021
6237 Clouds 6 1019 70 10000 4.1 207 13:23 23.09.2021
6238 Clouds 6 1019 70 10000 4.1 207 12:54 23.09.2021
6239 Clouds 6 1019 64 10000 3.88 199 12:24 23.09.2021
6240 Clouds 6 1019 64 10000 3.88 199 11:56 23.09.2021
6241 Clouds 9 1018 49 10000 3.18 196 10:29 23.09.2021
6242 Clouds 9 1018 49 10000 3.18 196 09:53 23.09.2021
6243 Clouds 10 1017 43 10000 2.95 219 08:42 23.09.2021
6244 Clouds 10 1018 45 10000 2.31 167 05:29 23.09.2021
6245 Clouds 2 1019 79 10000 1.61 200 23:48 22.09.2021
6246 Clouds 1 1019 80 10000 1.57 188 22:49 22.09.2021
6247 Clouds 2 1019 79 10000 1.52 184 22:18 22.09.2021
6248 Clouds 2 1019 79 10000 1.52 184 21:41 22.09.2021
6249 Clouds 1 1019 78 10000 1.09 176 20:57 22.09.2021
6250 Clouds 1 1019 78 10000 0.78 152 19:34 22.09.2021
6251 Clouds 1 1019 78 10000 0.59 129 18:47 22.09.2021
6252 Clouds 1 1019 78 10000 0.42 89 18:23 22.09.2021
6253 Clouds 2 1019 77 10000 0.44 72 16:57 22.09.2021
6254 Clouds 2 1019 77 10000 0.35 83 15:38 22.09.2021
6255 Clouds 3 1019 75 10000 0.76 52 14:25 22.09.2021
6256 Clouds 4 1019 73 10000 0.74 66 12:55 22.09.2021
6257 Clouds 5 1019 69 10000 0.97 62 10:59 22.09.2021
6258 Clouds 8 1018 58 10000 0.56 91 09:29 22.09.2021
6259 Clouds 8 1018 58 10000 0.56 91 08:36 22.09.2021
6260 Clouds 8 1018 54 10000 1.03 98 07:30 22.09.2021
6261 Clouds 8 1018 54 10000 1.08 121 06:23 22.09.2021
6262 Clouds 8 1018 54 10000 1.08 121 05:45 22.09.2021
6263 Clouds 6 1019 59 10000 0.93 116 03:58 22.09.2021
6264 Clouds 6 1019 59 10000 0.93 116 03:58 22.09.2021
6265 Clouds 6 1019 62 10000 0.74 89 02:55 22.09.2021
6266 Clouds 2 1019 77 10000 1.1 65 23:31 21.09.2021
6267 Clouds 1 1019 79 10000 1.09 71 21:49 21.09.2021
6268 Clouds 1 1018 80 10000 1.08 69 20:28 21.09.2021
6269 Clouds 1 1019 80 10000 1.01 66 19:24 21.09.2021
6270 Clouds 1 1019 80 10000 1.08 68 18:19 21.09.2021
6271 Clouds 1 1019 79 10000 1.26 70 16:47 21.09.2021
6272 Clouds 2 1019 77 10000 1.19 64 15:56 21.09.2021
6273 Clouds 2 1018 75 10000 1.25 74 14:59 21.09.2021
6274 Clouds 2 1018 75 10000 1.06 109 13:58 21.09.2021
6275 Clouds 2 1018 75 10000 1.06 109 13:39 21.09.2021
6276 Clouds 2 1018 74 10000 1.07 116 12:44 21.09.2021
6277 Clouds 3 1018 71 10000 0.57 113 10:42 21.09.2021
6278 Clouds 6 1017 59 10000 1.15 163 08:57 21.09.2021
6279 Clouds 6 1017 56 10000 2.09 174 07:38 21.09.2021
6280 Clouds 6 1017 58 10000 2.49 184 05:18 21.09.2021
6281 Clouds -1 1017 85 10000 1.42 172 23:19 20.09.2021
6282 Clouds -1 1016 85 10000 1.57 168 21:43 20.09.2021
6283 Clouds -1 1016 85 10000 1.78 176 21:25 20.09.2021
6284 Clouds -1 1017 85 10000 2.03 186 19:48 20.09.2021
6285 Clouds -1 1016 85 10000 2.1 190 18:36 20.09.2021
6286 Clouds 0 1016 83 10000 2.28 195 17:25 20.09.2021
6287 Clouds 0 1015 81 10000 1.96 201 16:26 20.09.2021
6288 Clouds 0 1015 81 10000 1.96 201 15:43 20.09.2021
6289 Clouds 0 1015 78 10000 1.86 203 14:42 20.09.2021
6290 Clouds 0 1015 75 10000 1.77 193 12:44 20.09.2021
6291 Clouds 1 1015 73 10000 1.42 186 12:26 20.09.2021
6292 Clouds 1 1014 70 10000 0.92 192 10:56 20.09.2021
6293 Clouds 4 1014 62 10000 0.84 195 09:51 20.09.2021
6294 Clouds 4 1014 62 10000 0.84 195 09:33 20.09.2021
6295 Clouds 4 1014 62 10000 0.84 195 09:33 20.09.2021
6296 Clouds 4 1013 57 10000 0.67 168 08:54 20.09.2021
6297 Clouds 2 1013 69 10000 1.55 270 06:33 20.09.2021
6298 Clouds -4 1011 95 10000 1.16 308 23:28 19.09.2021
6299 Clouds -4 1010 94 10000 1.37 306 21:51 19.09.2021
6300 Clouds -3 1010 94 10000 1.52 308 21:21 19.09.2021
6301 Clouds -3 1009 94 10000 1.65 308 20:19 19.09.2021
6302 Clouds -2 1009 94 10000 1.57 298 18:54 19.09.2021
6303 Clouds -2 1009 93 10000 1.69 293 17:56 19.09.2021
6304 Clouds -2 1009 92 10000 1.9 295 16:52 19.09.2021
6305 Clouds 0 1008 87 10000 2.31 307 15:44 19.09.2021
6306 Clouds 0 1008 84 10000 2.65 321 14:49 19.09.2021
6307 Clouds 0 1009 83 10000 2.75 325 14:24 19.09.2021
6308 Clouds 1 1009 79 10000 4.42 346 12:56 19.09.2021
6309 Clouds 1 1009 79 10000 4.42 346 12:30 19.09.2021
6310 Clouds 1 1008 82 10000 2.87 325 11:25 19.09.2021
6311 Clouds 2 1008 81 10000 2.32 319 09:52 19.09.2021
6312 Clouds 3 1008 81 10000 2.46 318 09:26 19.09.2021
6313 Clouds 1 1008 89 7134 2.94 348 06:49 19.09.2021
6314 Snow 0 1009 94 397 2.32 338 01:38 19.09.2021
6315 Snow 0 1009 97 384 1.96 326 23:25 18.09.2021
6316 Snow 0 1009 97 232 2.02 321 21:58 18.09.2021
6317 Snow 0 1009 98 164 2.06 320 20:48 18.09.2021
6318 Snow 0 1009 97 174 2.23 314 19:58 18.09.2021
6319 Snow 0 1009 97 174 2.23 314 19:37 18.09.2021
6320 Snow 0 1009 97 212 2.23 312 19:19 18.09.2021
6321 Snow 0 1009 97 212 2.23 312 18:30 18.09.2021
6322 Snow 0 1009 97 165 2.1 307 17:22 18.09.2021
6323 Snow 0 1009 97 156 2.03 308 15:45 18.09.2021
6324 Snow 0 1009 97 161 2.05 307 13:46 18.09.2021
6325 Snow 1 1009 98 100 2.11 308 13:24 18.09.2021
6326 Rain 1 1009 98 88 2.27 316 12:23 18.09.2021
6327 Rain 1 1009 98 88 2.27 316 11:34 18.09.2021
6328 Rain 1 1008 97 95 2.29 324 10:31 18.09.2021
6329 Rain 2 1008 95 4178 2.31 337 09:24 18.09.2021
6330 Rain 2 1007 94 4240 2.43 335 08:29 18.09.2021
6331 Rain 4 1006 96 131 2.8 331 00:55 18.09.2021
6332 Rain 4 1006 96 656 2.77 333 23:56 17.09.2021
6333 Rain 4 1006 96 656 2.77 333 23:32 17.09.2021
6334 Rain 4 1006 95 3262 2.74 334 22:25 17.09.2021
6335 Rain 4 1006 95 3262 2.74 334 21:45 17.09.2021
6336 Rain 6 1005 91 10000 2.54 338 19:53 17.09.2021
6337 Rain 6 1005 91 10000 2.45 339 18:43 17.09.2021
6338 Rain 7 1004 92 10000 2.53 346 16:47 17.09.2021
6339 Rain 7 1004 92 10000 2.58 348 15:32 17.09.2021
6340 Rain 7 1005 94 10000 2.46 359 12:31 17.09.2021
6341 Rain 8 1004 89 10000 2.24 10 10:24 17.09.2021
6342 Clouds 9 1003 83 10000 2.62 13 07:49 17.09.2021
6343 Clouds 9 1003 78 10000 2.66 8 06:27 17.09.2021
6344 Clouds 11 1002 64 10000 1.98 20 00:34 17.09.2021
6345 Clouds 11 1002 63 10000 1.4 33 22:45 16.09.2021
6346 Clouds 11 1001 62 10000 1.22 49 22:24 16.09.2021
6347 Clouds 11 1001 62 10000 1.22 49 21:36 16.09.2021
6348 Clouds 11 1001 60 10000 1.29 57 20:36 16.09.2021
6349 Clouds 11 1002 63 10000 0.67 81 19:18 16.09.2021
6350 Clouds 11 1002 63 10000 1.01 89 18:19 16.09.2021
6351 Clouds 11 1002 63 10000 1.01 89 18:19 16.09.2021
6352 Clouds 11 1002 63 10000 1.11 90 17:19 16.09.2021
6353 Clouds 11 1003 63 10000 0.95 130 14:51 16.09.2021
6354 Clouds 12 1003 62 10000 1.11 153 13:47 16.09.2021
6355 Clouds 11 1004 63 10000 1.5 112 12:47 16.09.2021
6356 Clouds 11 1004 62 10000 1.81 112 11:55 16.09.2021
6357 Clouds 12 1004 59 10000 1.98 124 11:24 16.09.2021
6358 Clouds 14 1004 53 10000 2.27 148 10:29 16.09.2021
6359 Clouds 14 1004 53 10000 2.27 148 09:32 16.09.2021
6360 Clouds 15 1004 49 10000 3.9 164 08:28 16.09.2021
6361 Clouds 15 1004 50 10000 3.68 163 06:58 16.09.2021
6362 Clouds 15 1004 50 10000 3.68 163 06:38 16.09.2021
6363 Clouds 13 1006 61 10000 1.88 133 04:18 16.09.2021
6364 Clouds 9 1007 79 10000 1.35 93 00:59 16.09.2021
6365 Clouds 9 1008 84 10000 1.27 81 23:32 15.09.2021
6366 Clouds 8 1008 86 10000 1.38 82 22:45 15.09.2021
6367 Clouds 8 1008 88 10000 1.57 77 21:31 15.09.2021
6368 Clouds 7 1008 90 10000 1.73 77 20:51 15.09.2021
6369 Clouds 7 1009 90 10000 1.46 78 19:34 15.09.2021
6370 Clouds 7 1009 90 10000 1.54 76 18:57 15.09.2021
6371 Clouds 7 1010 90 10000 1.38 78 17:46 15.09.2021
6372 Clouds 7 1010 90 10000 1.37 77 16:43 15.09.2021
6373 Clouds 8 1011 90 10000 1.41 81 15:29 15.09.2021
6374 Clouds 8 1011 90 10000 1.41 81 14:44 15.09.2021
6375 Clouds 8 1012 89 10000 1.28 91 13:51 15.09.2021
6376 Clouds 9 1012 89 10000 1.31 98 13:29 15.09.2021
6377 Clouds 9 1012 89 10000 1.31 98 12:34 15.09.2021
6378 Clouds 9 1012 88 10000 1.5 98 11:51 15.09.2021
6379 Clouds 11 1012 83 10000 1.7 98 10:58 15.09.2021
6380 Clouds 11 1012 83 10000 1.7 98 10:35 15.09.2021
6381 Clouds 13 1011 71 10000 2.83 116 09:23 15.09.2021
6382 Clouds 15 1011 55 10000 3.21 104 07:30 15.09.2021
6383 Clouds 13 1012 64 10000 0.71 352 02:50 15.09.2021
6384 Clouds 9 1012 87 10000 0.54 326 22:36 14.09.2021
6385 Clouds 10 1012 86 10000 0.26 111 21:34 14.09.2021
6386 Clouds 11 1012 69 10000 1.44 336 20:25 14.09.2021
6387 Clouds 11 1012 69 10000 1.44 336 19:41 14.09.2021
6388 Clouds 10 1011 71 10000 1.01 358 17:34 14.09.2021
6389 Clouds 11 1011 68 10000 0.83 11 16:49 14.09.2021
6390 Clouds 12 1011 64 10000 0.67 204 15:25 14.09.2021
6391 Clouds 12 1011 62 10000 1.25 197 14:19 14.09.2021
6392 Clouds 13 1011 56 10000 1.82 156 11:50 14.09.2021
6393 Clouds 14 1010 53 10000 1.87 160 10:49 14.09.2021
6394 Clouds 15 1011 49 10000 2.29 177 09:50 14.09.2021
6395 Clouds 17 1011 40 10000 3.81 195 08:24 14.09.2021
6396 Clouds 16 1012 37 10000 3.44 203 05:38 14.09.2021
6397 Clouds 9 1014 58 10000 1.44 167 23:34 13.09.2021
6398 Clouds 8 1014 65 10000 1.2 142 22:29 13.09.2021
6399 Clouds 8 1014 65 10000 1.2 142 21:59 13.09.2021
6400 Clouds 8 1014 65 10000 1.2 142 21:33 13.09.2021
6401 Clouds 7 1015 65 10000 1.01 101 19:41 13.09.2021
6402 Clouds 8 1015 65 10000 1.03 95 18:45 13.09.2021
6403 Clouds 8 1015 64 10000 1.18 85 17:39 13.09.2021
6404 Clouds 8 1015 64 10000 1.38 78 16:50 13.09.2021
6405 Clouds 9 1015 62 10000 1.58 72 14:47 13.09.2021
6406 Clouds 11 1016 59 10000 1.63 60 11:45 13.09.2021
6407 Clouds 13 1016 50 10000 1.58 64 10:50 13.09.2021
6408 Clouds 17 1016 39 10000 1.28 72 08:41 13.09.2021
6409 Clouds 11 1017 51 10000 0.86 90 00:48 13.09.2021
6410 Clouds 7 1017 65 10000 1.12 78 22:51 12.09.2021
6411 Clouds 7 1017 65 10000 1.11 75 22:23 12.09.2021
6412 Clouds 7 1017 65 10000 1.07 76 21:21 12.09.2021
6413 Clouds 7 1017 64 10000 1.07 75 20:19 12.09.2021
6414 Clouds 7 1017 64 10000 1.08 73 19:49 12.09.2021
6415 Clouds 7 1017 63 10000 1.13 69 19:18 12.09.2021
6416 Clouds 8 1017 62 10000 1.23 68 18:18 12.09.2021
6417 Clouds 9 1017 59 10000 1.39 68 15:59 12.09.2021
6418 Clouds 9 1017 57 10000 1.4 72 14:48 12.09.2021
6419 Clouds 11 1016 53 10000 1.33 82 12:45 12.09.2021
6420 Clouds 14 1016 42 10000 1.1 118 10:33 12.09.2021
6421 Clear 18 1015 30 10000 2 166 08:39 12.09.2021
6422 Clouds 18 1015 29 10000 2.19 171 07:33 12.09.2021
6423 Clouds 10 1018 45 10000 1.19 121 00:48 12.09.2021
6424 Clouds 6 1018 57 10000 1.44 117 22:59 11.09.2021
6425 Clouds 6 1018 60 10000 1.3 120 21:40 11.09.2021
6426 Clouds 6 1017 60 10000 1.29 118 19:55 11.09.2021
6427 Clouds 6 1018 60 10000 1.35 115 18:32 11.09.2021
6428 Clouds 7 1018 58 10000 1.29 117 17:29 11.09.2021
6429 Clouds 8 1018 57 10000 1.27 114 15:38 11.09.2021
6430 Clouds 9 1018 53 10000 1.17 102 13:25 11.09.2021
6431 Clouds 10 1018 49 10000 1.22 93 11:45 11.09.2021
6432 Clouds 12 1017 45 10000 1.24 93 10:51 11.09.2021
6433 Clouds 15 1017 34 10000 1.44 136 09:28 11.09.2021
6434 Clouds 15 1018 32 10000 1.33 134 07:44 11.09.2021
6435 Clouds 12 1019 35 10000 1.03 158 04:23 11.09.2021
6436 Clouds 5 1020 55 10000 1.06 85 22:48 10.09.2021
6437 Clouds 5 1020 55 10000 1.08 91 22:22 10.09.2021
6438 Clouds 5 1020 55 10000 1.08 91 21:43 10.09.2021
6439 Clouds 5 1020 56 10000 0.94 81 19:41 10.09.2021
6440 Clouds 5 1020 54 10000 1.2 72 18:20 10.09.2021
6441 Clouds 5 1020 53 10000 1.15 73 16:34 10.09.2021
6442 Clouds 6 1020 48 10000 1.34 66 13:52 10.09.2021
6443 -273 0 0 0 0 0 11:41 10.09.2021
6444 Clouds 13 1019 28 10000 1.66 184 08:27 10.09.2021
6445 Clouds 13 1019 29 10000 1.31 187 07:44 10.09.2021
6446 Clouds 5 1023 51 10000 1.33 124 00:42 10.09.2021
6447 Clouds 1 1023 69 10000 1.44 135 22:18 09.09.2021
6448 Clouds 1 1023 68 10000 1.41 123 20:48 09.09.2021
6449 Clouds 1 1023 68 10000 1.41 123 20:30 09.09.2021
6450 Clouds 2 1024 63 10000 1.53 128 18:55 09.09.2021
6451 Clouds 2 1024 61 10000 1.32 127 17:54 09.09.2021
6452 Clouds 2 1024 61 10000 1.41 128 16:40 09.09.2021
6453 Clouds 2 1025 60 10000 1.23 112 15:26 09.09.2021
6454 Clouds 3 1025 56 10000 1.05 106 12:34 09.09.2021
6455 Clouds 4 1025 53 10000 1.29 105 11:33 09.09.2021
6456 Clouds 8 1025 42 10000 1.38 132 09:39 09.09.2021
6457 Clouds 8 1025 42 10000 1.2 133 07:57 09.09.2021
6458 Clouds 7 1025 43 10000 0.84 162 06:24 09.09.2021
6459 Clear 3 1027 56 10000 0.63 57 01:31 09.09.2021
6460 Clear 3 1027 56 10000 0.63 57 01:31 09.09.2021
6461 Clear 3 1027 56 10000 0.63 57 01:31 09.09.2021
6462 Clear 3 1027 56 10000 0.63 57 01:31 09.09.2021
6463 Clear -2 1027 79 10000 1.49 25 21:50 08.09.2021
6464 Clear -1 1027 77 10000 1.51 6 20:57 08.09.2021
6465 Clear -1 1026 75 10000 1.63 13 19:48 08.09.2021
6466 Clear 0 1026 72 10000 1.9 8 18:49 08.09.2021
6467 Clear 0 1026 70 10000 1.88 360 18:27 08.09.2021
6468 Clear 0 1026 70 10000 1.88 360 17:54 08.09.2021
6469 Clear 1 1026 66 10000 1.89 1 16:27 08.09.2021
6470 Clear 2 1025 62 10000 1.71 22 13:56 08.09.2021
6471 Clear 3 1025 58 10000 2.2 23 12:42 08.09.2021
6472 Clear 4 1024 53 10000 2.4 27 12:24 08.09.2021
6473 Clear 6 1024 46 10000 2.88 25 11:28 08.09.2021
6474 Clear 6 1024 46 10000 2.88 25 10:32 08.09.2021
6475 Clear 7 1023 41 10000 3.44 21 09:58 08.09.2021
6476 Clouds 8 1023 40 10000 2.8 19 07:55 08.09.2021
6477 Clouds 8 1023 40 10000 2.8 19 07:55 08.09.2021
6478 Clouds 8 1023 40 10000 2.8 19 07:55 08.09.2021
6479 Clouds 8 1023 40 10000 2.8 19 07:55 08.09.2021
6480 Clouds 8 1023 40 10000 2.8 19 07:30 08.09.2021
6481 Clouds 6 1024 48 10000 3.2 13 03:41 08.09.2021
6482 Clouds 0 1024 79 10000 2.66 357 22:35 07.09.2021
6483 Clouds 0 1023 83 10000 2.78 4 21:46 07.09.2021
6484 Clouds 2 1023 79 10000 3.64 4 19:47 07.09.2021
6485 Clouds 3 1022 76 10000 3.14 347 18:39 07.09.2021
6486 Clouds 4 1022 72 10000 2.93 345 17:43 07.09.2021
6487 Clouds 5 1022 78 10000 2.38 351 15:59 07.09.2021
6488 Clouds 5 1022 78 10000 2.38 351 15:35 07.09.2021
6489 Clouds 5 1022 84 10000 2.65 360 14:38 07.09.2021
6490 Clouds 5 1021 84 10000 3.49 9 12:38 07.09.2021
6491 Rain 6 1020 83 10000 3.55 13 11:33 07.09.2021
6492 Rain 6 1020 83 10000 3.61 21 10:40 07.09.2021
6493 Clouds 8 1018 80 10000 5.2 35 08:23 07.09.2021
6494 Clouds 10 1017 77 10000 5.96 31 06:44 07.09.2021
6495 Clouds 12 1015 73 10000 3.95 32 04:47 07.09.2021
6496 Rain 12 1015 71 10000 1.58 203 02:28 07.09.2021
6497 Clouds 13 1015 67 10000 0.74 309 00:40 07.09.2021
6498 Clouds 13 1015 66 10000 0.52 202 23:31 06.09.2021
6499 Clouds 11 1015 70 10000 1.21 207 22:53 06.09.2021
6500 Clouds 11 1015 70 10000 1.21 207 22:32 06.09.2021
6501 Clouds 11 1015 70 10000 1.13 159 20:55 06.09.2021
6502 Clouds 12 1016 63 10000 1.39 71 19:22 06.09.2021
6503 Clouds 12 1016 63 10000 1.39 71 19:22 06.09.2021
6504 Clouds 12 1016 63 10000 1.39 71 19:22 06.09.2021
6505 Clouds 12 1016 63 10000 1.39 71 18:46 06.09.2021
6506 Clouds 12 1016 62 10000 0.92 68 18:23 06.09.2021
6507 Clouds 12 1016 62 10000 0.92 68 17:36 06.09.2021
6508 Clouds 11 1016 64 10000 0.83 252 15:43 06.09.2021
6509 Clouds 12 1016 58 10000 2.89 208 13:47 06.09.2021
6510 Clouds 13 1017 55 10000 3.09 206 12:46 06.09.2021
6511 Clouds 16 1017 49 10000 3.59 197 10:44 06.09.2021
6512 Clouds 18 1018 36 10000 5.79 231 07:59 06.09.2021
6513 Clouds 15 1021 36 10000 3.87 225 04:44 06.09.2021
6514 Clouds 8 1023 46 10000 2.8 196 23:34 05.09.2021
6515 Clouds 8 1023 48 10000 2.37 205 22:47 05.09.2021
6516 Clouds 8 1024 50 10000 2.53 209 21:58 05.09.2021
6517 Clouds 8 1024 50 10000 2.53 209 21:30 05.09.2021
6518 Clouds 8 1024 51 10000 2.22 195 20:21 05.09.2021
6519 Clouds 8 1024 51 10000 2 198 18:42 05.09.2021
6520 Clouds 8 1024 53 10000 1.65 201 17:31 05.09.2021
6521 Clouds 7 1025 57 10000 1.98 173 15:28 05.09.2021
6522 Clouds 7 1025 55 10000 2.05 162 14:19 05.09.2021
6523 Clouds 9 1025 48 10000 2.15 153 12:29 05.09.2021
6524 Clouds 11 1025 46 10000 2.61 167 10:53 05.09.2021
6525 Clouds 12 1025 41 10000 4 184 10:23 05.09.2021
6526 Clouds 13 1026 39 10000 4.83 199 09:22 05.09.2021
6527 Clouds 12 1026 38 10000 5.38 209 07:51 05.09.2021
6528 Clouds 5 1031 56 10000 3.51 192 01:22 05.09.2021
6529 Clouds 5 1031 56 10000 3.51 192 00:30 05.09.2021
6530 Clouds 3 1031 63 10000 2.23 180 23:39 04.09.2021
6531 Clouds 1 1032 71 10000 1.92 164 22:36 04.09.2021
6532 Clouds 0 1032 78 10000 1.5 174 21:58 04.09.2021
6533 Clear 0 1032 79 10000 0.54 121 19:42 04.09.2021
6534 Clear 0 1032 78 10000 0.53 26 18:44 04.09.2021
6535 Clear 1 1031 74 10000 1.35 25 16:23 04.09.2021
6536 Clouds 4 1030 66 10000 3.13 31 13:22 04.09.2021
6537 Clouds 7 1028 53 10000 4.29 36 11:20 04.09.2021
6538 Clouds 8 1026 49 10000 5.13 40 09:25 04.09.2021
6539 Clouds 8 1025 54 10000 4.6 26 05:53 04.09.2021
6540 Clouds 6 1021 75 10000 4.46 342 00:27 04.09.2021
6541 Clouds 6 1021 75 10000 4.46 342 23:32 03.09.2021
6542 Clouds 5 1020 86 10000 2.09 327 22:35 03.09.2021
6543 Rain 5 1019 91 10000 0.66 344 21:35 03.09.2021
6544 Rain 5 1019 91 10000 0.66 344 21:35 03.09.2021
6545 Rain 5 1017 93 8513 1.66 49 20:43 03.09.2021
6546 Rain 6 1016 90 10000 5.11 18 19:55 03.09.2021
6547 Rain 7 1014 89 8276 5.72 4 19:18 03.09.2021
6548 Rain 6 1012 93 10000 2.4 338 17:53 03.09.2021
6549 Rain 6 1010 89 10000 1.33 285 16:37 03.09.2021
6550 Clear 7 1009 91 10000 1.6 210 14:58 03.09.2021
6551 Rain 10 1007 96 10000 1.53 238 12:24 03.09.2021
6552 Rain 10 1007 97 10000 1.44 235 10:32 03.09.2021
6553 Rain 10 1006 95 10000 0.84 203 08:59 03.09.2021
6554 Rain 10 1006 96 10000 0.2 85 07:44 03.09.2021
6555 Rain 10 1006 90 10000 1.16 169 05:24 03.09.2021
6556 Clouds 10 1008 74 10000 3.58 191 23:20 02.09.2021
6557 Clouds 10 1008 68 10000 3.75 195 21:38 02.09.2021
6558 Clouds 10 1008 64 10000 3.28 189 19:56 02.09.2021
6559 Clouds 9 1009 68 10000 3.28 200 17:33 02.09.2021
6560 Clouds 10 1008 62 10000 2.45 208 15:54 02.09.2021
6561 Clouds 11 1009 61 10000 2.64 217 13:59 02.09.2021
6562 Clouds 12 1008 58 10000 2.92 225 12:55 02.09.2021
6563 Clouds 14 1008 52 10000 3.78 238 11:35 02.09.2021
6564 Clouds 17 1007 44 10000 5.16 249 09:47 02.09.2021
6565 Clouds 18 1006 42 10000 6.96 243 08:20 02.09.2021
6566 Clouds 19 1006 41 10000 8.02 245 07:18 02.09.2021
6567 Clouds 15 1006 48 10000 4.9 199 02:57 02.09.2021
6568 Clouds 15 1006 48 10000 4.9 199 02:33 02.09.2021
6569 Clouds 13 1007 50 10000 4.56 197 01:32 02.09.2021
6570 Clouds 10 1007 57 10000 2.82 180 23:40 01.09.2021
6571 Clouds 9 1007 59 10000 2.45 155 22:41 01.09.2021
6572 Clouds 7 1007 64 10000 2.8 153 21:40 01.09.2021
6573 Clouds 7 1007 66 10000 2.24 161 20:45 01.09.2021
6574 Clouds 8 1008 64 10000 2.44 140 18:53 01.09.2021
6575 Clouds 8 1008 63 10000 1.79 138 17:41 01.09.2021
6576 Clouds 8 1008 64 10000 2.14 116 16:47 01.09.2021
6577 Clouds 8 1008 64 10000 1.67 99 15:52 01.09.2021
6578 Clouds 10 1009 58 10000 2.02 110 12:41 01.09.2021
6579 Clouds 12 1010 53 10000 1.9 127 11:45 01.09.2021
6580 Clouds 15 1011 42 10000 3.95 182 08:56 01.09.2021
6581 Clouds 15 1012 42 10000 4.06 184 07:52 01.09.2021
6582 Clouds 13 1013 43 10000 3.68 169 05:39 01.09.2021
6583 Clouds 6 1017 66 10000 1.25 76 22:43 31.08.2021
6584 Clouds 6 1018 68 10000 1.44 65 21:33 31.08.2021
6585 Clouds 6 1018 66 10000 1.34 52 19:46 31.08.2021
6586 Clouds 6 1018 65 10000 1.53 63 18:37 31.08.2021
6587 Clouds 6 1018 65 10000 1.52 51 17:38 31.08.2021
6588 Clouds 6 1018 64 10000 1.75 28 17:20 31.08.2021
6589 Clouds 6 1018 64 10000 2.02 22 16:24 31.08.2021
6590 Clouds 6 1018 64 10000 2.02 22 16:24 31.08.2021
6591 Clouds 7 1018 64 10000 2.02 9 13:40 31.08.2021
6592 Clouds 7 1018 63 10000 2.12 2 11:36 31.08.2021
6593 Clouds 8 1017 62 10000 2.61 5 10:55 31.08.2021
6594 Clouds 8 1017 62 10000 2.88 11 09:45 31.08.2021
6595 Clouds 8 1017 62 10000 3.32 11 08:40 31.08.2021
6596 Clouds 9 1016 58 10000 3.14 351 07:38 31.08.2021
6597 Clouds 9 1016 57 10000 3.54 1 05:36 31.08.2021
6598 Clouds 6 1015 76 10000 4.25 24 23:35 30.08.2021
6599 Clouds 4 1014 90 10000 2.8 3 21:53 30.08.2021
6600 Clouds 4 1014 90 10000 2.8 3 21:32 30.08.2021
6601 Clouds 3 1014 92 10000 2.92 355 20:32 30.08.2021
6602 Clouds 4 1013 89 10000 3.27 2 19:29 30.08.2021
6603 Clouds 4 1013 89 10000 3.27 2 18:44 30.08.2021
6604 Clouds 4 1012 85 10000 3.2 3 17:47 30.08.2021
6605 Clouds 6 1010 80 10000 3.3 11 16:24 30.08.2021
6606 Clouds 6 1010 80 10000 3.3 11 15:39 30.08.2021
6607 Clouds 7 1009 77 10000 3.26 6 13:46 30.08.2021
6608 Clouds 8 1008 75 10000 3.26 15 12:40 30.08.2021
6609 Clouds 12 1007 64 10000 5.36 25 10:34 30.08.2021
6610 Clouds 13 1003 66 10000 1.13 293 02:37 30.08.2021
6611 Clouds 7 1003 92 10000 1.91 205 21:33 29.08.2021